GEFSMA_prec_meanprecacc_006.txt.gz
Total_Precipitation_Accumulation
0.00 0.00 0.00 0.00 0.01 0.01 0.01 0.01 0.00 0.00 0.00 0.00 0.00 0.00 0.00 0.00 0.00 0.00 0.00 0.00 0.00 0.00 0.00 0.00 0.00 0.00 0.01 0.01 0.01 0.01 0.00 0.00 0.00 0.00 0.00 0.00 0.00 0.00 0.00 0.00 0.00 0.00 0.00
0.00 0.00 0.01 0.01 0.01 0.01 0.01 0.00 0.00 0.00 0.00 0.00 0.00 0.00 0.00 0.00 0.00 0.00 0.00 0.00 0.00 0.00 0.00 0.00 0.00 0.00 0.01 0.02 0.02 0.03 0.02 0.02 0.01 0.00 0.00 0.00 0.00 0.00 0.00 0.00 0.00 0.00 0.00
0.00 0.00 0.01 0.01 0.00 0.00 0.00 0.00 0.00 0.00 0.00 0.00 0.00 0.00 0.00 0.00 0.00 0.00 0.00 0.00 0.00 0.00 0.00 0.00 0.00 0.00 0.01 0.01 0.02 0.03 0.04 0.04 0.04 0.02 0.01 0.01 0.00 0.01 0.01 0.01 0.01 0.01 0.01
0.00 0.00 0.00 0.00 0.00 0.00 0.00 0.00 0.00 0.00 0.00 0.00 0.00 0.00 0.00 0.00 0.00 0.00 0.00 0.00 0.00 0.00 0.00 0.00 0.00 0.00 0.00 0.01 0.01 0.02 0.04 0.05 0.06 0.06 0.05 0.04 0.03 0.02 0.02 0.02 0.02 0.03 0.02
0.00 0.00 0.00 0.00 0.00 0.00 0.00 0.00 0.00 0.00 0.00 0.00 0.00 0.00 0.00 0.00 0.00 0.00 0.00 0.00 0.00 0.00 0.00 0.00 0.00 0.00 0.01 0.01 0.01 0.03 0.05 0.08 0.10 0.11 0.12 0.11 0.11 0.10 0.09 0.08 0.07 0.06 0.05
0.00 0.00 0.00 0.00 0.00 0.00 0.00 0.00 0.00 0.00 0.00 0.00 0.00 0.00 0.00 0.00 0.00 0.00 0.00 0.00 0.00 0.00 0.00 0.00 0.00 0.00 0.00 0.02 0.05 0.07 0.08 0.10 0.13 0.15 0.16 0.16 0.17 0.17 0.18 0.19 0.17 0.14 0.11
0.00 0.00 0.00 0.00 0.00 0.00 0.00 0.00 0.00 0.00 0.00 0.00 0.00 0.00 0.00 0.00 0.00 0.00 0.00 0.00 0.00 0.00 0.00 0.00 0.00 0.01 0.03 0.05 0.08 0.08 0.08 0.08 0.11 0.15 0.17 0.17 0.19 0.22 0.25 0.26 0.25 0.24 0.21
0.00 0.00 0.00 0.00 0.00 0.00 0.00 0.00 0.00 0.00 0.00 0.00 0.00 0.00 0.00 0.00 0.00 0.00 0.00 0.00 0.00 0.00 0.00 0.00 0.01 0.02 0.04 0.06 0.06 0.06 0.05 0.05 0.06 0.09 0.13 0.14 0.15 0.18 0.22 0.24 0.26 0.27 0.28
0.00 0.00 0.00 0.00 0.00 0.00 0.00 0.00 0.00 0.00 0.00 0.00 0.00 0.00 0.00 0.00 0.00 0.00 0.00 0.00 0.00 0.00 0.00 0.00 0.00 0.00 0.00 0.01 0.01 0.01 0.01 0.02 0.02 0.03 0.06 0.09 0.11 0.14 0.17 0.21 0.24 0.27 0.29
0.00 0.00 0.00 0.00 0.00 0.00 0.00 0.00 0.00 0.00 0.00 0.00 0.00 0.00 0.00 0.00 0.00 0.00 0.00 0.00 0.00 0.00 0.00 0.00 0.00 0.00 0.00 0.00 0.00 0.00 0.02 0.04 0.04 0.06 0.10 0.13 0.16 0.19 0.24 0.28 0.32 0.36 0.40
0.00 0.00 0.00 0.00 0.00 0.00 0.00 0.00 0.00 0.00 0.00 0.00 0.00 0.00 0.00 0.00 0.00 0.00 0.00 0.00 0.00 0.00 0.00 0.00 0.00 0.00 0.00 0.00 0.00 0.02 0.04 0.05 0.06 0.08 0.10 0.13 0.19 0.26 0.30 0.35 0.40 0.50 0.61
0.00 0.00 0.00 0.00 0.00 0.00 0.00 0.00 0.00 0.00 0.00 0.00 0.00 0.00 0.00 0.00 0.00 0.00 0.00 0.00 0.00 0.00 0.00 0.00 0.00 0.00 0.00 0.00 0.01 0.02 0.01 0.01 0.01 0.01 0.04 0.10 0.15 0.18 0.20 0.25 0.32 0.44 0.61
0.00 0.00 0.00 0.00 0.00 0.00 0.00 0.00 0.00 0.00 0.00 0.00 0.00 0.00 0.00 0.00 0.00 0.00 0.00 0.00 0.00 0.00 0.00 0.00 0.00 0.00 0.00 0.00 0.00 0.00 0.00 0.00 0.00 0.00 0.01 0.03 0.03 0.05 0.05 0.04 0.07 0.13 0.22
0.00 0.00 0.00 0.00 0.00 0.00 0.00 0.00 0.00 0.00 0.00 0.00 0.00 0.00 0.00 0.00 0.00 0.00 0.00 0.00 0.00 0.00 0.00 0.00 0.00 0.00 0.00 0.00 0.00 0.00 0.00 0.00 0.00 0.00 0.00 0.00 0.00 0.01 0.01 0.02 0.03 0.04 0.07
0.00 0.00 0.00 0.00 0.00 0.00 0.00 0.00 0.00 0.00 0.00 0.00 0.00 0.00 0.00 0.00 0.00 0.00 0.00 0.00 0.00 0.00 0.00 0.00 0.00 0.00 0.00 0.00 0.00 0.00 0.00 0.00 0.00 0.00 0.00 0.00 0.00 0.00 0.01 0.01 0.01 0.01 0.01
0.00 0.00 0.00 0.00 0.00 0.00 0.00 0.00 0.00 0.00 0.00 0.00 0.00 0.00 0.00 0.00 0.00 0.00 0.00 0.00 0.00 0.00 0.00 0.00 0.00 0.00 0.00 0.00 0.00 0.00 0.00 0.00 0.00 0.00 0.00 0.00 0.00 0.00 0.00 0.01 0.01 0.01 0.01
0.00 0.00 0.00 0.00 0.00 0.00 0.00 0.00 0.00 0.00 0.00 0.00 0.00 0.00 0.00 0.00 0.00 0.00 0.00 0.00 0.00 0.00 0.00 0.00 0.00 0.00 0.00 0.00 0.00 0.00 0.00 0.00 0.00 0.00 0.00 0.00 0.01 0.01 0.01 0.01 0.01 0.01 0.01
0.00 0.00 0.00 0.00 0.00 0.00 0.00 0.00 0.00 0.00 0.00 0.00 0.00 0.00 0.00 0.00 0.00 0.00 0.00 0.00 0.00 0.00 0.00 0.01 0.00 0.00 0.00 0.00 0.00 0.00 0.00 0.00 0.00 0.00 0.00 0.01 0.01 0.01 0.01 0.01 0.02 0.03 0.03
0.00 0.00 0.00 0.00 0.00 0.00 0.00 0.00 0.00 0.00 0.00 0.00 0.00 0.00 0.00 0.00 0.00 0.00 0.00 0.00 0.00 0.00 0.01 0.01 0.01 0.00 0.00 0.00 0.00 0.00 0.00 0.00 0.00 0.00 0.00 0.00 0.00 0.01 0.03 0.04 0.05 0.06 0.06
0.00 0.00 0.00 0.00 0.00 0.00 0.00 0.00 0.00 0.00 0.00 0.00 0.00 0.00 0.00 0.00 0.00 0.00 0.00 0.00 0.00 0.01 0.01 0.01 0.02 0.01 0.01 0.00 0.00 0.00 0.00 0.00 0.00 0.00 0.00 0.01 0.03 0.05 0.06 0.06 0.05 0.03 0.02
0.00 0.00 0.00 0.00 0.00 0.00 0.00 0.00 0.00 0.00 0.00 0.00 0.00 0.00 0.00 0.00 0.00 0.00 0.00 0.01 0.02 0.02 0.03 0.04 0.04 0.03 0.02 0.01 0.01 0.00 0.00 0.00 0.00 0.01 0.02 0.03 0.03 0.02 0.01 0.01 0.01 0.01 0.02
0.00 0.00 0.00 0.00 0.00 0.00 0.00 0.00 0.00 0.00 0.00 0.00 0.00 0.00 0.00 0.00 0.00 0.00 0.01 0.02 0.03 0.04 0.05 0.07 0.07 0.04 0.02 0.01 0.00 0.01 0.02 0.03 0.02 0.01 0.03 0.01 0.01 0.00 0.00 0.01 0.01 0.03 0.04
0.00 0.00 0.00 0.00 0.00 0.00 0.00 0.00 0.00 0.00 0.00 0.00 0.00 0.00 0.00 0.00 0.00 0.00 0.00 0.02 0.03 0.04 0.05 0.04 0.02 0.01 0.01 0.01 0.02 0.03 0.03 0.03 0.02 0.01 0.03 0.02 0.01 0.02 0.01 0.01 0.02 0.03 0.03
0.00 0.00 0.00 0.00 0.00 0.00 0.00 0.00 0.00 0.00 0.00 0.00 0.00 0.00 0.00 0.00 0.00 0.01 0.02 0.04 0.03 0.01 0.01 0.00 0.01 0.01 0.02 0.02 0.03 0.03 0.03 0.03 0.02 0.02 0.03 0.04 0.02 0.02 0.01 0.01 0.01 0.02 0.03
0.00 0.00 0.00 0.00 0.00 0.00 0.00 0.00 0.00 0.00 0.00 0.00 0.00 0.00 0.00 0.00 0.01 0.04 0.04 0.04 0.01 0.00 0.00 0.01 0.02 0.02 0.02 0.01 0.01 0.02 0.05 0.07 0.05 0.02 0.01 0.03 0.02 0.02 0.01 0.01 0.01 0.02 0.03
0.00 0.00 0.00 0.00 0.00 0.00 0.00 0.00 0.00 0.00 0.00 0.00 0.00 0.00 0.01 0.01 0.03 0.05 0.03 0.01 0.01 0.01 0.01 0.01 0.01 0.00 0.00 0.00 0.01 0.02 0.05 0.10 0.08 0.04 0.01 0.03 0.04 0.04 0.05 0.01 0.01 0.01 0.01

GEFSMA_prec_meanprecacc_012.txt.gz
Total_Precipitation_Accumulation
0.00 0.00 0.00 0.00 0.01 0.01 0.01 0.01 0.00 0.00 0.00 0.00 0.00 0.00 0.00 0.00 0.00 0.00 0.00 0.00 0.00 0.00 0.00 0.01 0.01 0.02 0.04 0.06 0.07 0.07 0.08 0.08 0.08 0.08 0.08 0.08 0.08 0.07 0.06 0.05 0.03 0.02 0.02
0.00 0.00 0.01 0.01 0.01 0.01 0.01 0.00 0.00 0.00 0.00 0.00 0.00 0.00 0.00 0.00 0.00 0.00 0.00 0.00 0.00 0.00 0.00 0.01 0.01 0.03 0.04 0.06 0.07 0.07 0.08 0.08 0.08 0.09 0.09 0.10 0.10 0.11 0.12 0.12 0.11 0.08 0.06
0.00 0.00 0.01 0.01 0.00 0.00 0.00 0.00 0.00 0.00 0.00 0.00 0.00 0.00 0.00 0.00 0.00 0.00 0.00 0.00 0.00 0.00 0.00 0.00 0.01 0.02 0.03 0.04 0.05 0.06 0.08 0.09 0.09 0.09 0.10 0.10 0.11 0.12 0.14 0.16 0.17 0.17 0.16
0.00 0.00 0.00 0.00 0.00 0.00 0.00 0.00 0.00 0.00 0.00 0.00 0.00 0.00 0.00 0.00 0.00 0.00 0.00 0.00 0.00 0.00 0.00 0.00 0.01 0.01 0.01 0.02 0.02 0.04 0.06 0.09 0.10 0.11 0.12 0.12 0.12 0.13 0.15 0.18 0.20 0.23 0.24
0.00 0.00 0.00 0.00 0.00 0.00 0.00 0.00 0.00 0.00 0.00 0.00 0.00 0.00 0.00 0.00 0.00 0.00 0.00 0.00 0.00 0.00 0.00 0.00 0.00 0.00 0.01 0.01 0.02 0.03 0.07 0.11 0.14 0.15 0.15 0.16 0.17 0.19 0.21 0.24 0.26 0.28 0.30
0.00 0.00 0.00 0.00 0.00 0.00 0.00 0.00 0.00 0.00 0.00 0.00 0.00 0.00 0.00 0.00 0.00 0.00 0.00 0.00 0.00 0.00 0.00 0.00 0.00 0.00 0.00 0.02 0.05 0.07 0.08 0.10 0.14 0.16 0.16 0.17 0.19 0.21 0.24 0.27 0.29 0.30 0.32
0.00 0.00 0.00 0.00 0.00 0.00 0.00 0.00 0.00 0.00 0.00 0.00 0.00 0.00 0.00 0.00 0.00 0.00 0.00 0.00 0.00 0.00 0.00 0.00 0.00 0.01 0.03 0.05 0.08 0.08 0.08 0.08 0.11 0.15 0.17 0.18 0.20 0.22 0.26 0.30 0.32 0.34 0.35
0.00 0.00 0.00 0.00 0.00 0.00 0.00 0.00 0.00 0.00 0.00 0.00 0.00 0.00 0.00 0.00 0.00 0.00 0.00 0.00 0.00 0.00 0.00 0.00 0.01 0.02 0.04 0.06 0.06 0.06 0.05 0.05 0.06 0.09 0.13 0.14 0.16 0.18 0.22 0.26 0.29 0.33 0.36
0.00 0.00 0.00 0.00 0.00 0.00 0.00 0.00 0.00 0.00 0.00 0.00 0.00 0.00 0.00 0.00 0.00 0.00 0.00 0.00 0.00 0.00 0.00 0.00 0.00 0.00 0.00 0.01 0.01 0.01 0.01 0.02 0.02 0.03 0.06 0.09 0.12 0.15 0.18 0.23 0.28 0.33 0.36
0.00 0.00 0.00 0.00 0.00 0.00 0.00 0.00 0.00 0.00 0.00 0.00 0.00 0.00 0.00 0.00 0.00 0.00 0.00 0.00 0.00 0.00 0.00 0.00 0.00 0.00 0.00 0.00 0.00 0.00 0.02 0.04 0.04 0.06 0.10 0.13 0.16 0.21 0.27 0.33 0.38 0.43 0.47
0.00 0.00 0.00 0.00 0.00 0.00 0.00 0.00 0.00 0.00 0.00 0.00 0.00 0.00 0.00 0.00 0.00 0.00 0.00 0.00 0.00 0.00 0.00 0.00 0.00 0.00 0.00 0.00 0.00 0.02 0.04 0.05 0.06 0.08 0.10 0.14 0.20 0.28 0.35 0.41 0.47 0.57 0.67
0.00 0.00 0.00 0.00 0.00 0.00 0.00 0.00 0.00 0.00 0.00 0.00 0.00 0.00 0.00 0.00 0.00 0.00 0.00 0.00 0.00 0.00 0.00 0.00 0.00 0.00 0.00 0.00 0.01 0.02 0.01 0.01 0.01 0.01 0.04 0.11 0.17 0.21 0.25 0.30 0.37 0.49 0.65
0.00 0.00 0.00 0.00 0.00 0.00 0.00 0.00 0.00 0.00 0.00 0.00 0.00 0.00 0.00 0.00 0.00 0.00 0.00 0.00 0.00 0.00 0.00 0.00 0.00 0.00 0.00 0.00 0.00 0.00 0.00 0.00 0.00 0.00 0.02 0.04 0.05 0.07 0.08 0.07 0.10 0.16 0.24
0.00 0.00 0.00 0.00 0.00 0.00 0.00 0.00 0.00 0.00 0.00 0.00 0.00 0.00 0.00 0.00 0.00 0.00 0.00 0.00 0.00 0.00 0.00 0.00 0.00 0.00 0.00 0.00 0.00 0.00 0.00 0.00 0.00 0.00 0.00 0.01 0.01 0.02 0.03 0.04 0.05 0.07 0.10
0.00 0.00 0.00 0.00 0.00 0.00 0.00 0.00 0.00 0.00 0.00 0.00 0.00 0.00 0.00 0.00 0.00 0.00 0.00 0.00 0.00 0.00 0.00 0.00 0.00 0.00 0.00 0.00 0.00 0.00 0.00 0.00 0.00 0.00 0.00 0.01 0.01 0.02 0.03 0.03 0.04 0.04 0.05
0.00 0.00 0.00 0.00 0.00 0.00 0.00 0.00 0.00 0.00 0.00 0.00 0.00 0.00 0.00 0.00 0.00 0.00 0.00 0.00 0.00 0.00 0.00 0.00 0.00 0.00 0.00 0.00 0.00 0.00 0.00 0.00 0.00 0.00 0.00 0.01 0.02 0.03 0.03 0.03 0.04 0.04 0.05
0.00 0.00 0.00 0.00 0.00 0.00 0.00 0.00 0.00 0.00 0.00 0.00 0.00 0.00 0.00 0.00 0.00 0.00 0.00 0.00 0.00 0.00 0.00 0.00 0.00 0.00 0.00 0.00 0.00 0.00 0.00 0.00 0.00 0.00 0.00 0.01 0.02 0.03 0.04 0.03 0.03 0.04 0.04
0.00 0.00 0.00 0.00 0.00 0.00 0.00 0.00 0.00 0.00 0.00 0.00 0.00 0.00 0.00 0.00 0.00 0.00 0.00 0.00 0.00 0.00 0.00 0.01 0.00 0.00 0.00 0.00 0.00 0.00 0.00 0.00 0.00 0.00 0.01 0.02 0.02 0.02 0.03 0.03 0.05 0.06 0.08
0.00 0.00 0.00 0.00 0.00 0.00 0.00 0.00 0.00 0.00 0.00 0.00 0.00 0.00 0.00 0.00 0.00 0.00 0.00 0.00 0.00 0.00 0.01 0.02 0.01 0.00 0.00 0.00 0.01 0.00 0.00 0.00 0.00 0.00 0.00 0.01 0.01 0.03 0.05 0.07 0.09 0.10 0.10
0.00 0.00 0.00 0.00 0.00 0.00 0.00 0.00 0.00 0.00 0.00 0.00 0.00 0.00 0.00 0.00 0.00 0.00 0.00 0.00 0.01 0.01 0.01 0.02 0.03 0.03 0.03 0.02 0.01 0.01 0.00 0.00 0.00 0.00 0.00 0.01 0.03 0.06 0.07 0.07 0.06 0.04 0.03
0.00 0.00 0.00 0.00 0.00 0.00 0.00 0.00 0.00 0.00 0.00 0.00 0.00 0.00 0.00 0.00 0.00 0.00 0.01 0.02 0.02 0.03 0.05 0.09 0.10 0.08 0.05 0.02 0.01 0.00 0.01 0.01 0.00 0.01 0.02 0.03 0.03 0.02 0.01 0.01 0.01 0.02 0.04
0.00 0.00 0.00 0.00 0.00 0.00 0.00 0.00 0.00 0.00 0.00 0.00 0.00 0.00 0.00 0.00 0.00 0.00 0.01 0.03 0.05 0.08 0.13 0.17 0.14 0.08 0.02 0.01 0.01 0.02 0.04 0.06 0.03 0.01 0.03 0.02 0.01 0.01 0.00 0.01 0.02 0.05 0.07
0.00 0.00 0.00 0.00 0.00 0.00 0.00 0.00 0.00 0.00 0.00 0.00 0.00 0.00 0.00 0.00 0.00 0.00 0.01 0.03 0.06 0.10 0.12 0.10 0.06 0.02 0.01 0.02 0.05 0.07 0.07 0.06 0.04 0.01 0.03 0.03 0.02 0.02 0.01 0.02 0.03 0.04 0.05
0.00 0.00 0.00 0.00 0.00 0.00 0.00 0.00 0.00 0.00 0.00 0.00 0.00 0.00 0.00 0.00 0.01 0.02 0.04 0.06 0.05 0.04 0.03 0.02 0.01 0.02 0.03 0.03 0.05 0.06 0.05 0.05 0.03 0.02 0.04 0.05 0.02 0.02 0.01 0.01 0.02 0.03 0.05
0.00 0.00 0.00 0.00 0.00 0.00 0.00 0.00 0.00 0.00 0.00 0.00 0.00 0.00 0.01 0.01 0.02 0.06 0.08 0.10 0.05 0.01 0.00 0.01 0.03 0.03 0.03 0.02 0.02 0.05 0.10 0.12 0.08 0.02 0.02 0.04 0.03 0.02 0.02 0.01 0.01 0.03 0.05
0.00 0.00 0.00 0.00 0.00 0.00 0.00 0.00 0.00 0.00 0.00 0.00 0.00 0.00 0.01 0.02 0.05 0.09 0.09 0.08 0.03 0.01 0.02 0.02 0.01 0.00 0.00 0.00 0.01 0.04 0.13 0.22 0.15 0.07 0.01 0.04 0.06 0.07 0.09 0.02 0.01 0.01 0.02

GEFSMA_prec_meanprecacc_018.txt.gz
Total_Precipitation_Accumulation
0.00 0.00 0.00 0.00 0.01 0.01 0.01 0.01 0.00 0.00 0.00 0.00 0.00 0.00 0.00 0.00 0.00 0.00 0.00 0.00 0.00 0.00 0.00 0.01 0.01 0.02 0.04 0.06 0.08 0.09 0.09 0.09 0.09 0.09 0.09 0.10 0.10 0.11 0.12 0.13 0.14 0.14 0.15
0.00 0.00 0.01 0.01 0.01 0.01 0.01 0.00 0.00 0.00 0.00 0.00 0.00 0.00 0.00 0.00 0.00 0.00 0.00 0.00 0.00 0.00 0.00 0.01 0.01 0.03 0.04 0.06 0.07 0.07 0.08 0.08 0.08 0.09 0.09 0.10 0.11 0.12 0.13 0.15 0.15 0.16 0.16
0.00 0.00 0.01 0.01 0.00 0.00 0.00 0.00 0.00 0.00 0.00 0.00 0.00 0.00 0.00 0.00 0.00 0.00 0.00 0.00 0.00 0.00 0.00 0.00 0.01 0.02 0.03 0.04 0.05 0.06 0.08 0.09 0.09 0.09 0.10 0.10 0.11 0.12 0.14 0.16 0.17 0.18 0.19
0.00 0.00 0.00 0.00 0.00 0.00 0.00 0.00 0.00 0.00 0.00 0.00 0.00 0.00 0.00 0.00 0.00 0.00 0.00 0.00 0.00 0.00 0.00 0.00 0.01 0.01 0.01 0.02 0.02 0.04 0.06 0.09 0.10 0.11 0.12 0.12 0.12 0.13 0.15 0.18 0.20 0.23 0.24
0.00 0.00 0.00 0.00 0.00 0.00 0.00 0.00 0.00 0.00 0.00 0.00 0.00 0.00 0.00 0.00 0.00 0.00 0.00 0.00 0.00 0.00 0.00 0.00 0.00 0.00 0.01 0.01 0.02 0.03 0.07 0.11 0.14 0.15 0.15 0.16 0.17 0.19 0.21 0.24 0.26 0.28 0.30
0.00 0.00 0.00 0.00 0.00 0.00 0.00 0.00 0.00 0.00 0.00 0.00 0.00 0.00 0.00 0.00 0.00 0.00 0.00 0.00 0.00 0.00 0.00 0.00 0.00 0.00 0.00 0.02 0.05 0.07 0.08 0.10 0.14 0.16 0.16 0.17 0.19 0.21 0.24 0.27 0.29 0.30 0.32
0.00 0.00 0.00 0.00 0.00 0.00 0.00 0.00 0.00 0.00 0.00 0.00 0.00 0.00 0.00 0.00 0.00 0.00 0.00 0.00 0.00 0.00 0.00 0.00 0.00 0.01 0.03 0.05 0.08 0.08 0.08 0.08 0.11 0.15 0.17 0.18 0.20 0.22 0.26 0.30 0.32 0.34 0.35
0.00 0.00 0.00 0.00 0.00 0.00 0.00 0.00 0.00 0.00 0.00 0.00 0.00 0.00 0.00 0.00 0.00 0.00 0.00 0.00 0.00 0.00 0.00 0.00 0.01 0.02 0.04 0.06 0.06 0.06 0.05 0.05 0.06 0.09 0.13 0.14 0.16 0.18 0.22 0.26 0.29 0.33 0.37
0.00 0.00 0.00 0.00 0.00 0.00 0.00 0.00 0.00 0.00 0.00 0.00 0.00 0.00 0.00 0.00 0.00 0.00 0.00 0.00 0.00 0.00 0.00 0.00 0.00 0.00 0.00 0.01 0.01 0.01 0.01 0.02 0.02 0.03 0.06 0.09 0.12 0.15 0.19 0.24 0.28 0.33 0.37
0.00 0.00 0.00 0.00 0.00 0.00 0.00 0.00 0.00 0.00 0.00 0.00 0.00 0.00 0.00 0.00 0.00 0.00 0.00 0.00 0.00 0.00 0.00 0.00 0.00 0.00 0.00 0.00 0.00 0.00 0.02 0.04 0.04 0.06 0.10 0.14 0.17 0.21 0.28 0.34 0.40 0.45 0.49
0.00 0.00 0.00 0.00 0.00 0.00 0.00 0.00 0.00 0.00 0.00 0.00 0.00 0.00 0.00 0.00 0.00 0.00 0.00 0.00 0.00 0.00 0.00 0.00 0.00 0.00 0.00 0.00 0.00 0.02 0.04 0.05 0.06 0.08 0.10 0.14 0.21 0.29 0.37 0.43 0.50 0.60 0.70
0.00 0.00 0.00 0.00 0.00 0.00 0.00 0.00 0.00 0.00 0.00 0.00 0.00 0.00 0.00 0.00 0.00 0.00 0.00 0.00 0.00 0.00 0.00 0.00 0.00 0.00 0.00 0.00 0.01 0.02 0.01 0.01 0.01 0.01 0.04 0.11 0.18 0.23 0.28 0.33 0.40 0.52 0.68
0.00 0.00 0.00 0.00 0.00 0.00 0.00 0.00 0.00 0.00 0.00 0.00 0.00 0.00 0.00 0.00 0.00 0.00 0.00 0.00 0.00 0.00 0.00 0.00 0.00 0.00 0.00 0.00 0.00 0.00 0.00 0.00 0.00 0.00 0.02 0.05 0.07 0.09 0.09 0.09 0.13 0.19 0.28
0.00 0.00 0.00 0.00 0.00 0.00 0.00 0.00 0.00 0.00 0.00 0.00 0.00 0.00 0.00 0.00 0.00 0.00 0.00 0.00 0.00 0.00 0.00 0.00 0.00 0.00 0.00 0.00 0.00 0.00 0.00 0.00 0.00 0.00 0.01 0.02 0.03 0.03 0.04 0.05 0.07 0.10 0.13
0.00 0.00 0.00 0.00 0.00 0.00 0.00 0.00 0.00 0.00 0.00 0.00 0.00 0.00 0.00 0.00 0.00 0.00 0.00 0.00 0.00 0.00 0.00 0.00 0.00 0.00 0.00 0.00 0.00 0.00 0.00 0.00 0.00 0.01 0.02 0.02 0.02 0.03 0.05 0.06 0.07 0.08 0.09
0.00 0.00 0.00 0.00 0.00 0.00 0.00 0.00 0.00 0.00 0.00 0.00 0.00 0.00 0.00 0.00 0.00 0.00 0.00 0.00 0.00 0.00 0.00 0.00 0.00 0.00 0.00 0.00 0.00 0.00 0.00 0.00 0.00 0.01 0.01 0.03 0.03 0.04 0.05 0.06 0.07 0.09 0.10
0.00 0.00 0.00 0.00 0.00 0.00 0.00 0.00 0.00 0.00 0.00 0.00 0.00 0.00 0.00 0.00 0.00 0.00 0.00 0.00 0.00 0.00 0.00 0.00 0.00 0.00 0.00 0.00 0.00 0.00 0.00 0.00 0.00 0.01 0.02 0.02 0.03 0.05 0.06 0.07 0.08 0.09 0.11
0.00 0.00 0.00 0.00 0.00 0.00 0.00 0.00 0.00 0.00 0.00 0.00 0.00 0.00 0.00 0.00 0.00 0.00 0.00 0.00 0.00 0.00 0.01 0.01 0.00 0.00 0.00 0.00 0.00 0.00 0.00 0.01 0.01 0.01 0.01 0.02 0.04 0.04 0.05 0.07 0.09 0.12 0.14
0.00 0.00 0.00 0.00 0.00 0.00 0.00 0.00 0.00 0.00 0.00 0.00 0.00 0.00 0.00 0.00 0.00 0.00 0.00 0.00 0.00 0.00 0.01 0.02 0.01 0.00 0.00 0.00 0.01 0.01 0.00 0.00 0.00 0.00 0.00 0.01 0.02 0.05 0.08 0.11 0.13 0.15 0.15
0.00 0.00 0.00 0.00 0.00 0.00 0.00 0.00 0.00 0.00 0.00 0.00 0.00 0.00 0.00 0.00 0.00 0.00 0.00 0.00 0.01 0.01 0.01 0.03 0.05 0.04 0.04 0.02 0.02 0.02 0.01 0.00 0.00 0.00 0.01 0.02 0.04 0.08 0.09 0.09 0.08 0.06 0.05
0.00 0.00 0.00 0.00 0.00 0.00 0.00 0.00 0.00 0.00 0.00 0.00 0.00 0.00 0.00 0.00 0.00 0.00 0.01 0.02 0.03 0.04 0.08 0.13 0.13 0.11 0.06 0.03 0.02 0.01 0.01 0.01 0.00 0.01 0.02 0.03 0.03 0.02 0.01 0.01 0.01 0.02 0.04
0.00 0.00 0.00 0.00 0.00 0.00 0.00 0.00 0.00 0.00 0.00 0.00 0.00 0.00 0.00 0.00 0.00 0.01 0.02 0.04 0.07 0.12 0.19 0.24 0.19 0.10 0.03 0.01 0.01 0.03 0.06 0.08 0.05 0.01 0.04 0.02 0.01 0.01 0.00 0.01 0.02 0.05 0.09
0.00 0.00 0.00 0.00 0.00 0.00 0.00 0.00 0.00 0.00 0.00 0.00 0.00 0.00 0.00 0.00 0.00 0.00 0.01 0.04 0.08 0.14 0.16 0.13 0.07 0.02 0.02 0.03 0.08 0.11 0.10 0.09 0.06 0.02 0.04 0.04 0.02 0.02 0.01 0.02 0.03 0.05 0.06
0.00 0.00 0.00 0.00 0.00 0.00 0.00 0.00 0.00 0.00 0.00 0.00 0.00 0.00 0.00 0.00 0.01 0.03 0.06 0.10 0.08 0.05 0.03 0.02 0.02 0.03 0.04 0.04 0.07 0.10 0.08 0.07 0.04 0.02 0.04 0.06 0.02 0.02 0.01 0.01 0.02 0.03 0.06
0.00 0.00 0.00 0.00 0.00 0.00 0.00 0.00 0.00 0.00 0.00 0.00 0.00 0.00 0.01 0.01 0.02 0.09 0.12 0.13 0.06 0.01 0.00 0.02 0.04 0.04 0.03 0.02 0.03 0.11 0.16 0.16 0.09 0.02 0.02 0.04 0.03 0.02 0.02 0.01 0.01 0.03 0.05
0.00 0.00 0.00 0.00 0.00 0.00 0.00 0.00 0.00 0.00 0.00 0.00 0.00 0.00 0.01 0.02 0.07 0.12 0.11 0.08 0.03 0.01 0.03 0.02 0.01 0.00 0.00 0.00 0.02 0.08 0.22 0.33 0.21 0.09 0.01 0.05 0.08 0.09 0.13 0.02 0.01 0.01 0.02

GEFSMA_prec_meanprecacc_024.txt.gz
Total_Precipitation_Accumulation
0.00 0.00 0.00 0.00 0.01 0.01 0.01 0.01 0.00 0.00 0.00 0.00 0.00 0.00 0.00 0.00 0.00 0.00 0.00 0.00 0.00 0.00 0.00 0.01 0.01 0.02 0.04 0.06 0.08 0.09 0.09 0.09 0.09 0.09 0.09 0.10 0.10 0.11 0.12 0.13 0.14 0.14 0.15
0.00 0.00 0.01 0.01 0.01 0.01 0.01 0.00 0.00 0.00 0.00 0.00 0.00 0.00 0.00 0.00 0.00 0.00 0.00 0.00 0.00 0.00 0.00 0.01 0.01 0.03 0.04 0.06 0.07 0.07 0.08 0.08 0.08 0.09 0.09 0.10 0.11 0.12 0.13 0.15 0.15 0.16 0.16
0.00 0.00 0.01 0.01 0.00 0.00 0.00 0.00 0.00 0.00 0.00 0.00 0.00 0.00 0.00 0.00 0.00 0.00 0.00 0.00 0.00 0.00 0.00 0.00 0.01 0.02 0.03 0.04 0.05 0.06 0.08 0.09 0.09 0.09 0.10 0.10 0.11 0.12 0.14 0.16 0.17 0.18 0.19
0.00 0.00 0.00 0.00 0.00 0.00 0.00 0.00 0.00 0.00 0.00 0.00 0.00 0.00 0.00 0.00 0.00 0.00 0.00 0.00 0.00 0.00 0.00 0.00 0.01 0.01 0.01 0.02 0.02 0.04 0.06 0.09 0.10 0.11 0.12 0.12 0.12 0.13 0.15 0.18 0.20 0.23 0.24
0.00 0.00 0.00 0.00 0.00 0.00 0.00 0.00 0.00 0.00 0.00 0.00 0.00 0.00 0.00 0.00 0.00 0.00 0.00 0.00 0.00 0.00 0.00 0.00 0.00 0.00 0.01 0.01 0.02 0.03 0.07 0.11 0.14 0.15 0.15 0.16 0.17 0.19 0.21 0.24 0.26 0.28 0.30
0.00 0.00 0.00 0.00 0.00 0.00 0.00 0.00 0.00 0.00 0.00 0.00 0.00 0.00 0.00 0.00 0.00 0.00 0.00 0.00 0.00 0.00 0.00 0.00 0.00 0.00 0.00 0.02 0.05 0.07 0.08 0.10 0.14 0.16 0.16 0.17 0.19 0.21 0.24 0.27 0.29 0.30 0.32
0.00 0.00 0.00 0.00 0.00 0.00 0.00 0.00 0.00 0.00 0.00 0.00 0.00 0.00 0.00 0.00 0.00 0.00 0.00 0.00 0.00 0.00 0.00 0.00 0.00 0.01 0.03 0.05 0.08 0.08 0.08 0.08 0.11 0.15 0.17 0.18 0.20 0.22 0.26 0.30 0.32 0.34 0.35
0.00 0.00 0.00 0.00 0.00 0.00 0.00 0.00 0.00 0.00 0.00 0.00 0.00 0.00 0.00 0.00 0.00 0.00 0.00 0.00 0.00 0.00 0.00 0.00 0.01 0.02 0.04 0.06 0.06 0.06 0.05 0.05 0.06 0.09 0.13 0.14 0.16 0.19 0.23 0.26 0.30 0.34 0.37
0.01 0.00 0.00 0.00 0.00 0.00 0.00 0.00 0.00 0.00 0.00 0.00 0.00 0.00 0.00 0.00 0.00 0.00 0.00 0.00 0.00 0.00 0.00 0.00 0.00 0.00 0.00 0.01 0.01 0.01 0.01 0.02 0.02 0.03 0.06 0.10 0.12 0.16 0.20 0.25 0.30 0.35 0.39
0.00 0.00 0.00 0.00 0.00 0.00 0.00 0.00 0.00 0.00 0.00 0.00 0.00 0.00 0.00 0.00 0.00 0.00 0.00 0.00 0.00 0.00 0.00 0.00 0.00 0.00 0.00 0.00 0.00 0.00 0.02 0.04 0.04 0.06 0.10 0.14 0.17 0.22 0.29 0.36 0.42 0.48 0.52
0.00 0.00 0.00 0.00 0.00 0.00 0.00 0.00 0.00 0.00 0.00 0.00 0.00 0.00 0.00 0.00 0.00 0.00 0.00 0.00 0.00 0.00 0.00 0.00 0.00 0.00 0.00 0.00 0.00 0.02 0.04 0.05 0.06 0.08 0.10 0.15 0.22 0.31 0.39 0.46 0.54 0.64 0.74
0.00 0.00 0.00 0.00 0.00 0.00 0.00 0.00 0.00 0.00 0.00 0.00 0.00 0.00 0.00 0.00 0.00 0.00 0.00 0.00 0.00 0.00 0.00 0.00 0.00 0.00 0.00 0.00 0.01 0.02 0.01 0.01 0.01 0.01 0.05 0.13 0.20 0.25 0.31 0.37 0.45 0.57 0.73
0.00 0.00 0.00 0.00 0.00 0.00 0.00 0.00 0.00 0.00 0.00 0.00 0.00 0.00 0.00 0.00 0.00 0.00 0.00 0.00 0.00 0.00 0.00 0.00 0.00 0.00 0.00 0.00 0.00 0.00 0.00 0.00 0.00 0.00 0.03 0.06 0.09 0.11 0.12 0.13 0.17 0.24 0.33
0.00 0.00 0.00 0.00 0.00 0.00 0.00 0.00 0.00 0.00 0.00 0.00 0.00 0.00 0.00 0.00 0.00 0.00 0.00 0.00 0.00 0.00 0.00 0.00 0.00 0.00 0.00 0.00 0.00 0.00 0.00 0.00 0.00 0.00 0.02 0.04 0.05 0.05 0.06 0.08 0.11 0.14 0.19
0.00 0.00 0.00 0.00 0.00 0.00 0.00 0.00 0.00 0.00 0.00 0.00 0.00 0.00 0.00 0.00 0.00 0.00 0.00 0.00 0.00 0.00 0.00 0.00 0.00 0.00 0.00 0.00 0.00 0.00 0.00 0.00 0.00 0.02 0.03 0.03 0.03 0.05 0.07 0.09 0.11 0.13 0.14
0.00 0.00 0.00 0.00 0.00 0.00 0.00 0.00 0.00 0.00 0.00 0.00 0.00 0.00 0.00 0.00 0.00 0.00 0.00 0.00 0.00 0.00 0.00 0.00 0.00 0.00 0.00 0.00 0.00 0.00 0.00 0.00 0.00 0.01 0.02 0.04 0.06 0.07 0.08 0.09 0.11 0.12 0.14
0.00 0.00 0.00 0.00 0.00 0.00 0.00 0.00 0.00 0.00 0.00 0.00 0.00 0.00 0.00 0.00 0.00 0.00 0.00 0.00 0.00 0.00 0.00 0.00 0.00 0.00 0.00 0.00 0.00 0.00 0.00 0.00 0.01 0.02 0.03 0.04 0.05 0.07 0.09 0.10 0.12 0.13 0.15
0.00 0.00 0.00 0.00 0.00 0.00 0.00 0.00 0.00 0.00 0.00 0.00 0.00 0.00 0.00 0.00 0.00 0.00 0.00 0.00 0.00 0.00 0.01 0.02 0.00 0.00 0.00 0.00 0.00 0.00 0.00 0.01 0.01 0.01 0.02 0.03 0.05 0.06 0.07 0.09 0.12 0.16 0.20
0.00 0.00 0.00 0.00 0.00 0.00 0.00 0.00 0.00 0.00 0.00 0.00 0.00 0.00 0.00 0.00 0.00 0.00 0.00 0.00 0.00 0.00 0.02 0.03 0.02 0.00 0.00 0.01 0.01 0.01 0.00 0.00 0.00 0.00 0.00 0.01 0.02 0.06 0.10 0.13 0.16 0.19 0.19
0.00 0.00 0.00 0.00 0.00 0.00 0.00 0.00 0.00 0.00 0.00 0.00 0.00 0.00 0.00 0.00 0.00 0.00 0.00 0.01 0.02 0.02 0.02 0.04 0.06 0.05 0.05 0.03 0.03 0.02 0.01 0.00 0.00 0.00 0.01 0.02 0.04 0.08 0.09 0.09 0.08 0.07 0.06
0.00 0.00 0.00 0.00 0.00 0.00 0.00 0.00 0.00 0.00 0.00 0.00 0.00 0.00 0.00 0.00 0.00 0.00 0.02 0.03 0.03 0.05 0.10 0.16 0.17 0.13 0.07 0.03 0.02 0.01 0.01 0.01 0.01 0.01 0.02 0.03 0.03 0.02 0.01 0.01 0.01 0.02 0.05
0.00 0.00 0.00 0.00 0.00 0.00 0.00 0.00 0.00 0.00 0.00 0.00 0.00 0.00 0.00 0.00 0.00 0.01 0.02 0.04 0.09 0.15 0.23 0.28 0.22 0.12 0.04 0.01 0.01 0.04 0.07 0.11 0.06 0.01 0.04 0.02 0.01 0.01 0.00 0.01 0.02 0.06 0.09
0.00 0.00 0.00 0.00 0.00 0.00 0.00 0.00 0.00 0.00 0.00 0.00 0.00 0.00 0.00 0.00 0.00 0.00 0.01 0.05 0.10 0.16 0.19 0.15 0.09 0.03 0.02 0.03 0.10 0.15 0.12 0.12 0.07 0.02 0.04 0.04 0.02 0.02 0.01 0.02 0.03 0.05 0.07
0.00 0.00 0.00 0.00 0.00 0.00 0.00 0.00 0.00 0.00 0.00 0.00 0.00 0.00 0.00 0.00 0.01 0.03 0.07 0.13 0.10 0.06 0.04 0.02 0.02 0.03 0.05 0.06 0.10 0.14 0.11 0.09 0.04 0.02 0.04 0.06 0.02 0.02 0.01 0.01 0.02 0.03 0.06
0.00 0.00 0.00 0.00 0.00 0.00 0.00 0.00 0.00 0.00 0.00 0.00 0.00 0.00 0.01 0.01 0.03 0.10 0.16 0.16 0.07 0.01 0.00 0.02 0.05 0.04 0.04 0.03 0.04 0.13 0.19 0.19 0.10 0.02 0.02 0.04 0.03 0.02 0.02 0.01 0.01 0.03 0.05
0.00 0.00 0.00 0.00 0.00 0.00 0.00 0.00 0.00 0.00 0.00 0.00 0.00 0.00 0.01 0.03 0.07 0.14 0.13 0.10 0.03 0.01 0.04 0.03 0.01 0.00 0.00 0.00 0.02 0.09 0.26 0.40 0.25 0.11 0.01 0.07 0.09 0.11 0.16 0.02 0.01 0.01 0.02

GEFSMA_prec_meanprecacc_030.txt.gz
Total_Precipitation_Accumulation
0.00 0.00 0.00 0.01 0.01 0.01 0.01 0.01 0.00 0.00 0.00 0.00 0.00 0.00 0.00 0.00 0.00 0.00 0.00 0.00 0.00 0.00 0.00 0.01 0.01 0.02 0.04 0.06 0.08 0.09 0.09 0.09 0.09 0.09 0.09 0.10 0.10 0.11 0.12 0.13 0.14 0.14 0.15
0.00 0.00 0.01 0.01 0.01 0.01 0.01 0.00 0.00 0.00 0.00 0.00 0.00 0.00 0.00 0.00 0.00 0.00 0.00 0.00 0.00 0.00 0.00 0.01 0.01 0.03 0.04 0.06 0.07 0.07 0.08 0.08 0.08 0.09 0.09 0.10 0.11 0.12 0.13 0.15 0.15 0.16 0.16
0.00 0.00 0.01 0.01 0.00 0.00 0.00 0.00 0.00 0.00 0.00 0.00 0.00 0.00 0.00 0.00 0.00 0.00 0.00 0.00 0.00 0.00 0.00 0.00 0.01 0.02 0.03 0.04 0.05 0.06 0.08 0.09 0.09 0.09 0.10 0.10 0.11 0.12 0.14 0.16 0.17 0.18 0.19
0.00 0.00 0.00 0.00 0.00 0.00 0.00 0.00 0.00 0.00 0.00 0.00 0.00 0.00 0.00 0.00 0.00 0.00 0.00 0.00 0.00 0.00 0.00 0.00 0.01 0.01 0.01 0.02 0.02 0.04 0.06 0.09 0.10 0.11 0.12 0.12 0.12 0.13 0.15 0.18 0.20 0.23 0.24
0.00 0.00 0.00 0.00 0.00 0.00 0.00 0.00 0.00 0.00 0.00 0.00 0.00 0.00 0.00 0.00 0.00 0.00 0.00 0.00 0.00 0.00 0.00 0.00 0.00 0.00 0.01 0.01 0.02 0.03 0.07 0.11 0.14 0.15 0.15 0.16 0.17 0.19 0.21 0.24 0.26 0.28 0.30
0.00 0.00 0.00 0.00 0.00 0.00 0.00 0.00 0.00 0.00 0.00 0.00 0.00 0.00 0.00 0.00 0.00 0.00 0.00 0.00 0.00 0.00 0.00 0.00 0.00 0.00 0.00 0.02 0.05 0.07 0.08 0.10 0.14 0.16 0.16 0.17 0.19 0.21 0.24 0.27 0.29 0.31 0.32
0.01 0.01 0.00 0.00 0.00 0.00 0.00 0.00 0.00 0.00 0.00 0.00 0.00 0.00 0.00 0.00 0.00 0.00 0.00 0.00 0.00 0.00 0.00 0.00 0.00 0.01 0.03 0.05 0.08 0.08 0.08 0.08 0.11 0.15 0.17 0.18 0.20 0.22 0.26 0.30 0.33 0.34 0.36
0.03 0.02 0.01 0.00 0.00 0.00 0.00 0.00 0.00 0.00 0.00 0.00 0.00 0.00 0.00 0.00 0.00 0.00 0.00 0.00 0.00 0.00 0.00 0.00 0.01 0.02 0.04 0.06 0.06 0.06 0.05 0.05 0.06 0.09 0.13 0.14 0.16 0.19 0.23 0.27 0.30 0.34 0.38
0.05 0.04 0.02 0.01 0.00 0.00 0.00 0.00 0.00 0.00 0.00 0.00 0.00 0.00 0.00 0.00 0.00 0.00 0.00 0.00 0.00 0.00 0.00 0.00 0.00 0.00 0.00 0.01 0.01 0.01 0.01 0.02 0.02 0.03 0.06 0.10 0.12 0.16 0.20 0.26 0.31 0.36 0.40
0.04 0.04 0.03 0.01 0.00 0.00 0.00 0.00 0.00 0.00 0.00 0.00 0.00 0.00 0.00 0.00 0.00 0.00 0.00 0.00 0.00 0.00 0.00 0.00 0.00 0.00 0.00 0.00 0.00 0.00 0.02 0.04 0.04 0.06 0.10 0.14 0.18 0.24 0.31 0.38 0.44 0.50 0.54
0.02 0.02 0.02 0.01 0.00 0.00 0.00 0.00 0.00 0.00 0.00 0.00 0.00 0.00 0.00 0.00 0.00 0.00 0.00 0.00 0.00 0.00 0.00 0.00 0.00 0.00 0.00 0.00 0.00 0.02 0.04 0.05 0.06 0.08 0.11 0.16 0.24 0.33 0.42 0.49 0.57 0.68 0.78
0.02 0.01 0.01 0.01 0.00 0.00 0.00 0.00 0.00 0.00 0.00 0.00 0.00 0.00 0.00 0.00 0.00 0.00 0.00 0.00 0.00 0.00 0.00 0.00 0.00 0.00 0.00 0.00 0.01 0.02 0.01 0.01 0.01 0.01 0.05 0.14 0.22 0.28 0.34 0.41 0.49 0.61 0.78
0.02 0.01 0.01 0.00 0.00 0.00 0.00 0.00 0.00 0.00 0.00 0.00 0.00 0.00 0.00 0.00 0.00 0.00 0.00 0.00 0.00 0.00 0.00 0.00 0.00 0.00 0.00 0.00 0.00 0.00 0.00 0.00 0.00 0.00 0.03 0.07 0.10 0.13 0.14 0.15 0.20 0.28 0.37
0.04 0.02 0.01 0.01 0.00 0.00 0.00 0.00 0.00 0.00 0.00 0.00 0.00 0.00 0.00 0.00 0.00 0.00 0.00 0.00 0.00 0.00 0.00 0.00 0.00 0.00 0.00 0.00 0.00 0.00 0.00 0.00 0.00 0.00 0.02 0.04 0.06 0.06 0.08 0.10 0.13 0.17 0.23
0.03 0.02 0.01 0.00 0.00 0.00 0.00 0.00 0.00 0.00 0.00 0.00 0.00 0.00 0.00 0.00 0.00 0.00 0.00 0.00 0.00 0.00 0.00 0.00 0.00 0.00 0.00 0.00 0.00 0.00 0.00 0.00 0.00 0.02 0.03 0.04 0.04 0.06 0.08 0.11 0.13 0.15 0.17
0.01 0.01 0.00 0.00 0.00 0.00 0.00 0.00 0.00 0.00 0.00 0.00 0.00 0.00 0.00 0.00 0.00 0.00 0.00 0.00 0.00 0.00 0.00 0.00 0.00 0.00 0.00 0.00 0.00 0.00 0.00 0.00 0.00 0.01 0.02 0.04 0.06 0.07 0.09 0.11 0.12 0.15 0.17
0.01 0.00 0.00 0.00 0.00 0.00 0.00 0.00 0.00 0.00 0.00 0.00 0.00 0.00 0.00 0.00 0.00 0.00 0.00 0.00 0.00 0.00 0.00 0.00 0.00 0.00 0.00 0.00 0.00 0.00 0.00 0.00 0.01 0.02 0.03 0.04 0.05 0.07 0.09 0.11 0.13 0.15 0.17
0.00 0.00 0.00 0.00 0.00 0.00 0.00 0.00 0.00 0.00 0.00 0.00 0.00 0.00 0.00 0.00 0.00 0.00 0.00 0.00 0.00 0.00 0.01 0.02 0.00 0.00 0.00 0.00 0.00 0.00 0.00 0.01 0.01 0.01 0.02 0.03 0.05 0.06 0.08 0.10 0.13 0.18 0.22
0.00 0.00 0.00 0.00 0.00 0.00 0.00 0.00 0.00 0.00 0.00 0.00 0.00 0.00 0.00 0.00 0.00 0.00 0.00 0.00 0.00 0.00 0.02 0.03 0.02 0.00 0.00 0.01 0.01 0.01 0.00 0.00 0.00 0.00 0.00 0.01 0.02 0.06 0.10 0.14 0.17 0.20 0.20
0.00 0.00 0.00 0.00 0.00 0.00 0.00 0.00 0.00 0.00 0.00 0.00 0.00 0.00 0.00 0.00 0.00 0.00 0.00 0.01 0.02 0.02 0.02 0.04 0.06 0.06 0.05 0.03 0.03 0.02 0.01 0.00 0.00 0.00 0.01 0.02 0.04 0.08 0.10 0.10 0.09 0.07 0.06
0.00 0.00 0.00 0.00 0.00 0.00 0.00 0.00 0.00 0.00 0.00 0.00 0.00 0.00 0.00 0.00 0.00 0.00 0.02 0.03 0.04 0.05 0.11 0.17 0.18 0.14 0.08 0.04 0.02 0.01 0.01 0.02 0.01 0.01 0.02 0.03 0.03 0.02 0.01 0.01 0.01 0.02 0.05
0.00 0.00 0.00 0.00 0.00 0.00 0.00 0.00 0.00 0.00 0.00 0.00 0.00 0.00 0.00 0.00 0.00 0.01 0.02 0.05 0.09 0.16 0.25 0.30 0.24 0.14 0.04 0.01 0.01 0.04 0.08 0.12 0.07 0.01 0.04 0.02 0.01 0.01 0.00 0.01 0.02 0.06 0.09
0.01 0.00 0.00 0.00 0.00 0.00 0.00 0.00 0.00 0.00 0.00 0.00 0.00 0.00 0.00 0.00 0.00 0.00 0.01 0.05 0.11 0.17 0.20 0.18 0.11 0.03 0.02 0.03 0.10 0.16 0.14 0.13 0.08 0.02 0.05 0.04 0.02 0.02 0.01 0.02 0.03 0.05 0.07
0.01 0.00 0.00 0.00 0.00 0.00 0.00 0.00 0.00 0.00 0.00 0.00 0.00 0.00 0.00 0.00 0.01 0.03 0.07 0.14 0.10 0.07 0.04 0.03 0.02 0.03 0.05 0.06 0.11 0.17 0.14 0.11 0.05 0.02 0.04 0.06 0.02 0.02 0.01 0.01 0.02 0.03 0.06
0.01 0.00 0.00 0.00 0.00 0.00 0.00 0.00 0.00 0.00 0.00 0.00 0.00 0.00 0.01 0.01 0.03 0.11 0.17 0.17 0.08 0.02 0.00 0.02 0.05 0.05 0.04 0.04 0.04 0.14 0.20 0.21 0.12 0.02 0.02 0.04 0.03 0.02 0.02 0.01 0.01 0.03 0.05
0.00 0.00 0.00 0.00 0.00 0.00 0.00 0.00 0.00 0.00 0.00 0.00 0.00 0.00 0.01 0.03 0.08 0.15 0.14 0.11 0.04 0.01 0.04 0.03 0.01 0.00 0.00 0.00 0.02 0.09 0.27 0.44 0.29 0.13 0.01 0.07 0.10 0.13 0.18 0.03 0.01 0.01 0.02

GEFSMA_prec_meanprecacc_036.txt.gz
Total_Precipitation_Accumulation
0.00 0.00 0.00 0.01 0.01 0.01 0.01 0.01 0.00 0.00 0.00 0.00 0.00 0.00 0.00 0.00 0.00 0.00 0.00 0.00 0.00 0.00 0.00 0.01 0.01 0.02 0.04 0.06 0.08 0.09 0.09 0.09 0.09 0.09 0.09 0.10 0.10 0.11 0.12 0.13 0.14 0.14 0.15
0.00 0.00 0.01 0.01 0.01 0.01 0.01 0.00 0.00 0.00 0.00 0.00 0.00 0.00 0.00 0.00 0.00 0.00 0.00 0.00 0.00 0.00 0.00 0.01 0.01 0.03 0.04 0.06 0.07 0.07 0.08 0.08 0.08 0.09 0.09 0.10 0.11 0.12 0.13 0.15 0.15 0.16 0.16
0.00 0.00 0.01 0.01 0.00 0.00 0.00 0.00 0.00 0.00 0.00 0.00 0.00 0.00 0.00 0.00 0.00 0.00 0.00 0.00 0.00 0.00 0.00 0.00 0.01 0.02 0.03 0.04 0.05 0.06 0.08 0.09 0.09 0.09 0.10 0.10 0.11 0.12 0.14 0.16 0.17 0.18 0.19
0.00 0.00 0.00 0.00 0.00 0.00 0.00 0.00 0.00 0.00 0.00 0.00 0.00 0.00 0.00 0.00 0.00 0.00 0.00 0.00 0.00 0.00 0.00 0.00 0.01 0.01 0.01 0.02 0.02 0.04 0.06 0.09 0.10 0.11 0.12 0.12 0.12 0.13 0.15 0.18 0.20 0.23 0.25
0.00 0.00 0.00 0.00 0.00 0.00 0.00 0.00 0.00 0.00 0.00 0.00 0.00 0.00 0.00 0.00 0.00 0.00 0.00 0.00 0.00 0.00 0.00 0.00 0.00 0.00 0.01 0.01 0.02 0.03 0.07 0.11 0.14 0.15 0.15 0.16 0.17 0.19 0.21 0.24 0.26 0.28 0.31
0.00 0.00 0.00 0.00 0.00 0.00 0.00 0.00 0.00 0.00 0.00 0.00 0.00 0.00 0.00 0.00 0.00 0.00 0.00 0.00 0.00 0.00 0.00 0.00 0.00 0.00 0.00 0.02 0.05 0.07 0.08 0.10 0.14 0.16 0.16 0.17 0.19 0.21 0.24 0.28 0.30 0.31 0.33
0.01 0.01 0.00 0.00 0.00 0.00 0.00 0.00 0.00 0.00 0.00 0.00 0.00 0.00 0.00 0.00 0.00 0.00 0.00 0.00 0.00 0.00 0.00 0.00 0.00 0.01 0.03 0.05 0.08 0.08 0.08 0.08 0.11 0.15 0.17 0.18 0.20 0.23 0.27 0.31 0.33 0.35 0.36
0.04 0.02 0.01 0.01 0.00 0.00 0.00 0.00 0.00 0.00 0.00 0.00 0.00 0.00 0.00 0.00 0.00 0.00 0.00 0.00 0.00 0.00 0.00 0.00 0.01 0.02 0.04 0.06 0.06 0.06 0.05 0.05 0.06 0.09 0.13 0.14 0.16 0.19 0.23 0.28 0.31 0.35 0.39
0.09 0.06 0.03 0.02 0.01 0.00 0.00 0.00 0.00 0.00 0.00 0.00 0.00 0.00 0.00 0.00 0.00 0.00 0.00 0.00 0.00 0.00 0.00 0.00 0.00 0.00 0.00 0.01 0.01 0.01 0.01 0.02 0.02 0.03 0.06 0.10 0.13 0.16 0.21 0.27 0.33 0.39 0.43
0.11 0.08 0.05 0.03 0.02 0.02 0.01 0.01 0.00 0.00 0.00 0.00 0.00 0.00 0.00 0.00 0.00 0.00 0.00 0.00 0.00 0.00 0.00 0.00 0.00 0.00 0.00 0.00 0.00 0.00 0.02 0.04 0.04 0.06 0.10 0.14 0.19 0.24 0.32 0.40 0.47 0.53 0.58
0.10 0.09 0.06 0.04 0.03 0.03 0.02 0.01 0.01 0.00 0.00 0.00 0.00 0.00 0.00 0.00 0.00 0.00 0.00 0.00 0.00 0.00 0.00 0.00 0.00 0.00 0.00 0.00 0.00 0.02 0.04 0.05 0.06 0.08 0.11 0.16 0.24 0.34 0.44 0.52 0.61 0.71 0.81
0.09 0.08 0.07 0.06 0.05 0.03 0.02 0.01 0.01 0.00 0.00 0.00 0.00 0.00 0.00 0.00 0.00 0.00 0.00 0.00 0.00 0.00 0.00 0.00 0.00 0.00 0.00 0.00 0.01 0.02 0.01 0.01 0.01 0.01 0.05 0.14 0.23 0.30 0.36 0.43 0.52 0.64 0.80
0.08 0.08 0.07 0.06 0.06 0.04 0.02 0.01 0.01 0.00 0.00 0.00 0.00 0.00 0.00 0.00 0.00 0.00 0.00 0.00 0.00 0.00 0.00 0.00 0.00 0.00 0.00 0.00 0.00 0.00 0.00 0.00 0.00 0.00 0.03 0.08 0.12 0.14 0.16 0.17 0.22 0.30 0.41
0.12 0.11 0.10 0.09 0.08 0.05 0.03 0.02 0.01 0.00 0.00 0.00 0.00 0.00 0.00 0.00 0.00 0.00 0.00 0.00 0.00 0.00 0.00 0.00 0.00 0.00 0.00 0.00 0.00 0.00 0.00 0.00 0.00 0.00 0.02 0.05 0.06 0.07 0.08 0.11 0.15 0.20 0.26
0.10 0.10 0.10 0.10 0.08 0.06 0.04 0.03 0.01 0.00 0.00 0.00 0.00 0.00 0.00 0.00 0.00 0.00 0.00 0.00 0.00 0.00 0.00 0.00 0.00 0.00 0.00 0.00 0.00 0.00 0.00 0.00 0.00 0.02 0.03 0.04 0.04 0.06 0.09 0.12 0.15 0.17 0.20
0.07 0.08 0.09 0.09 0.08 0.07 0.05 0.03 0.01 0.01 0.01 0.01 0.00 0.00 0.00 0.00 0.00 0.00 0.00 0.00 0.00 0.00 0.00 0.00 0.00 0.00 0.00 0.00 0.00 0.00 0.00 0.00 0.00 0.01 0.02 0.05 0.06 0.08 0.10 0.12 0.14 0.16 0.19
0.06 0.06 0.08 0.08 0.07 0.06 0.04 0.03 0.02 0.01 0.01 0.01 0.00 0.00 0.00 0.00 0.00 0.00 0.00 0.00 0.00 0.00 0.00 0.00 0.00 0.00 0.00 0.00 0.00 0.00 0.00 0.00 0.01 0.02 0.03 0.04 0.06 0.08 0.10 0.12 0.14 0.16 0.19
0.04 0.05 0.05 0.06 0.05 0.04 0.04 0.04 0.03 0.02 0.01 0.00 0.00 0.00 0.00 0.00 0.00 0.00 0.00 0.00 0.00 0.00 0.01 0.02 0.00 0.00 0.00 0.00 0.00 0.00 0.00 0.01 0.01 0.01 0.02 0.03 0.05 0.06 0.08 0.11 0.14 0.19 0.24
0.03 0.03 0.03 0.03 0.03 0.03 0.04 0.04 0.02 0.01 0.01 0.01 0.01 0.01 0.00 0.00 0.00 0.00 0.00 0.00 0.00 0.00 0.02 0.03 0.02 0.00 0.00 0.01 0.01 0.01 0.00 0.00 0.00 0.00 0.00 0.01 0.02 0.06 0.10 0.15 0.18 0.20 0.21
0.02 0.02 0.02 0.01 0.01 0.02 0.02 0.02 0.02 0.03 0.03 0.03 0.02 0.01 0.00 0.00 0.00 0.00 0.00 0.01 0.02 0.02 0.02 0.04 0.06 0.06 0.05 0.03 0.03 0.02 0.01 0.00 0.00 0.00 0.01 0.02 0.04 0.08 0.10 0.10 0.09 0.07 0.07
0.01 0.01 0.02 0.02 0.03 0.04 0.05 0.06 0.07 0.07 0.05 0.04 0.02 0.01 0.01 0.00 0.00 0.00 0.02 0.03 0.04 0.05 0.11 0.17 0.18 0.14 0.08 0.04 0.02 0.01 0.01 0.02 0.01 0.01 0.02 0.03 0.03 0.02 0.01 0.01 0.01 0.02 0.05
0.02 0.03 0.04 0.06 0.08 0.10 0.13 0.13 0.10 0.08 0.05 0.03 0.02 0.01 0.00 0.00 0.00 0.01 0.02 0.05 0.09 0.16 0.25 0.31 0.25 0.14 0.04 0.01 0.01 0.04 0.08 0.12 0.08 0.01 0.04 0.02 0.01 0.01 0.00 0.01 0.02 0.06 0.10
0.09 0.11 0.13 0.15 0.17 0.18 0.17 0.13 0.09 0.05 0.03 0.02 0.01 0.00 0.00 0.00 0.00 0.00 0.01 0.05 0.11 0.17 0.21 0.18 0.11 0.03 0.02 0.03 0.10 0.17 0.15 0.15 0.09 0.02 0.05 0.04 0.02 0.02 0.01 0.02 0.03 0.05 0.07
0.22 0.24 0.25 0.24 0.20 0.15 0.10 0.05 0.03 0.01 0.01 0.00 0.00 0.00 0.00 0.00 0.01 0.03 0.07 0.14 0.10 0.07 0.04 0.03 0.03 0.03 0.05 0.06 0.12 0.19 0.17 0.12 0.05 0.02 0.04 0.06 0.02 0.02 0.01 0.01 0.02 0.03 0.06
0.32 0.28 0.22 0.15 0.09 0.05 0.02 0.01 0.00 0.00 0.00 0.00 0.00 0.00 0.01 0.01 0.03 0.11 0.17 0.17 0.08 0.02 0.00 0.02 0.05 0.05 0.05 0.04 0.05 0.14 0.20 0.22 0.13 0.02 0.02 0.04 0.03 0.02 0.02 0.01 0.01 0.03 0.05
0.21 0.13 0.07 0.04 0.02 0.01 0.00 0.00 0.00 0.00 0.00 0.00 0.00 0.00 0.01 0.03 0.08 0.15 0.15 0.12 0.04 0.01 0.04 0.03 0.01 0.00 0.00 0.00 0.02 0.09 0.27 0.47 0.33 0.15 0.01 0.08 0.11 0.14 0.20 0.03 0.01 0.01 0.02

GEFSMA_prec_meanprecacc_042.txt.gz
Total_Precipitation_Accumulation
0.00 0.00 0.00 0.01 0.01 0.01 0.01 0.01 0.00 0.00 0.00 0.00 0.00 0.00 0.00 0.00 0.00 0.00 0.00 0.00 0.00 0.00 0.00 0.01 0.01 0.02 0.04 0.06 0.08 0.09 0.09 0.09 0.09 0.09 0.09 0.10 0.10 0.11 0.12 0.14 0.14 0.14 0.15
0.00 0.00 0.01 0.01 0.01 0.01 0.01 0.00 0.00 0.00 0.00 0.00 0.00 0.00 0.00 0.00 0.00 0.00 0.00 0.00 0.00 0.00 0.00 0.01 0.01 0.03 0.04 0.06 0.07 0.07 0.08 0.08 0.08 0.09 0.09 0.10 0.11 0.12 0.13 0.15 0.15 0.16 0.16
0.00 0.00 0.01 0.01 0.00 0.00 0.00 0.00 0.00 0.00 0.00 0.00 0.00 0.00 0.00 0.00 0.00 0.00 0.00 0.00 0.00 0.00 0.00 0.00 0.01 0.02 0.03 0.04 0.05 0.06 0.08 0.09 0.09 0.09 0.10 0.10 0.11 0.12 0.14 0.16 0.17 0.18 0.19
0.00 0.00 0.00 0.00 0.00 0.00 0.00 0.00 0.00 0.00 0.00 0.00 0.00 0.00 0.00 0.00 0.00 0.00 0.00 0.00 0.00 0.00 0.00 0.00 0.01 0.01 0.01 0.02 0.02 0.04 0.06 0.09 0.10 0.11 0.12 0.12 0.12 0.13 0.15 0.18 0.21 0.23 0.25
0.00 0.00 0.00 0.00 0.00 0.00 0.00 0.00 0.00 0.00 0.00 0.00 0.00 0.00 0.00 0.00 0.00 0.00 0.00 0.00 0.00 0.00 0.00 0.00 0.00 0.00 0.01 0.01 0.02 0.03 0.07 0.11 0.14 0.15 0.15 0.16 0.17 0.19 0.21 0.24 0.26 0.29 0.31
0.00 0.00 0.00 0.00 0.00 0.00 0.00 0.00 0.00 0.00 0.00 0.00 0.00 0.00 0.00 0.00 0.00 0.00 0.00 0.00 0.00 0.00 0.00 0.00 0.00 0.00 0.00 0.02 0.05 0.07 0.08 0.10 0.14 0.16 0.16 0.17 0.19 0.21 0.24 0.28 0.30 0.31 0.33
0.02 0.01 0.01 0.00 0.00 0.00 0.00 0.00 0.00 0.00 0.00 0.00 0.00 0.00 0.00 0.00 0.00 0.00 0.00 0.00 0.00 0.00 0.00 0.00 0.00 0.01 0.03 0.05 0.08 0.08 0.08 0.08 0.11 0.15 0.17 0.18 0.20 0.23 0.27 0.31 0.33 0.36 0.37
0.08 0.04 0.02 0.01 0.01 0.00 0.00 0.00 0.00 0.00 0.00 0.00 0.00 0.00 0.00 0.00 0.00 0.00 0.00 0.00 0.00 0.00 0.00 0.00 0.01 0.02 0.04 0.06 0.06 0.06 0.05 0.05 0.06 0.09 0.13 0.14 0.16 0.19 0.24 0.28 0.32 0.37 0.41
0.16 0.12 0.08 0.06 0.04 0.02 0.01 0.01 0.01 0.01 0.00 0.00 0.00 0.00 0.00 0.00 0.00 0.00 0.00 0.00 0.00 0.00 0.00 0.00 0.00 0.00 0.00 0.01 0.01 0.01 0.01 0.02 0.02 0.03 0.06 0.10 0.13 0.17 0.22 0.28 0.34 0.40 0.45
0.22 0.20 0.15 0.10 0.07 0.05 0.04 0.03 0.03 0.02 0.01 0.01 0.00 0.00 0.00 0.00 0.00 0.00 0.00 0.00 0.00 0.00 0.00 0.00 0.00 0.00 0.00 0.00 0.00 0.00 0.02 0.04 0.04 0.06 0.10 0.14 0.19 0.25 0.33 0.42 0.49 0.56 0.61
0.19 0.20 0.17 0.15 0.11 0.09 0.09 0.08 0.05 0.04 0.03 0.02 0.01 0.00 0.00 0.00 0.00 0.00 0.00 0.00 0.00 0.00 0.00 0.00 0.00 0.00 0.00 0.00 0.00 0.02 0.04 0.05 0.06 0.08 0.11 0.16 0.24 0.35 0.45 0.54 0.63 0.74 0.83
0.16 0.17 0.18 0.17 0.15 0.14 0.13 0.11 0.08 0.06 0.04 0.02 0.01 0.01 0.00 0.00 0.00 0.00 0.00 0.00 0.00 0.00 0.00 0.00 0.00 0.00 0.00 0.00 0.01 0.02 0.01 0.01 0.01 0.01 0.05 0.14 0.23 0.30 0.38 0.45 0.53 0.65 0.82
0.12 0.13 0.15 0.17 0.18 0.19 0.17 0.14 0.10 0.07 0.05 0.03 0.02 0.01 0.00 0.00 0.00 0.00 0.00 0.00 0.00 0.00 0.00 0.00 0.00 0.00 0.00 0.00 0.00 0.00 0.00 0.00 0.00 0.00 0.03 0.08 0.12 0.15 0.16 0.18 0.23 0.32 0.42
0.15 0.17 0.18 0.20 0.20 0.20 0.18 0.15 0.13 0.09 0.06 0.04 0.02 0.01 0.01 0.00 0.00 0.00 0.00 0.00 0.00 0.00 0.00 0.00 0.00 0.00 0.00 0.00 0.00 0.00 0.00 0.00 0.00 0.00 0.02 0.05 0.06 0.07 0.09 0.12 0.16 0.21 0.27
0.14 0.15 0.17 0.19 0.19 0.18 0.17 0.16 0.13 0.10 0.07 0.04 0.03 0.02 0.01 0.01 0.00 0.00 0.00 0.00 0.00 0.01 0.00 0.00 0.00 0.00 0.00 0.00 0.00 0.00 0.00 0.00 0.00 0.02 0.03 0.04 0.04 0.07 0.10 0.13 0.16 0.18 0.21
0.10 0.13 0.15 0.16 0.16 0.16 0.15 0.13 0.11 0.08 0.06 0.05 0.04 0.04 0.03 0.02 0.02 0.02 0.02 0.02 0.02 0.02 0.01 0.01 0.00 0.00 0.00 0.00 0.00 0.00 0.00 0.00 0.00 0.01 0.02 0.05 0.07 0.08 0.10 0.12 0.15 0.17 0.20
0.09 0.10 0.12 0.13 0.13 0.12 0.10 0.09 0.08 0.07 0.07 0.07 0.07 0.08 0.08 0.07 0.07 0.07 0.06 0.05 0.04 0.03 0.02 0.01 0.00 0.00 0.00 0.00 0.00 0.00 0.00 0.00 0.01 0.02 0.03 0.04 0.06 0.08 0.10 0.13 0.15 0.18 0.21
0.07 0.07 0.08 0.08 0.08 0.07 0.07 0.07 0.07 0.07 0.08 0.09 0.10 0.11 0.12 0.12 0.11 0.10 0.08 0.07 0.05 0.04 0.03 0.03 0.00 0.00 0.00 0.00 0.00 0.00 0.00 0.01 0.01 0.01 0.02 0.03 0.05 0.07 0.08 0.11 0.15 0.20 0.25
0.05 0.04 0.04 0.04 0.04 0.05 0.05 0.07 0.07 0.08 0.09 0.11 0.12 0.13 0.13 0.13 0.13 0.11 0.09 0.06 0.04 0.03 0.03 0.04 0.02 0.00 0.00 0.01 0.01 0.01 0.00 0.00 0.00 0.00 0.00 0.01 0.02 0.06 0.11 0.15 0.19 0.21 0.22
0.04 0.03 0.02 0.02 0.02 0.03 0.04 0.05 0.07 0.10 0.12 0.14 0.15 0.15 0.15 0.14 0.12 0.09 0.06 0.05 0.04 0.03 0.03 0.04 0.06 0.06 0.05 0.03 0.03 0.02 0.01 0.00 0.00 0.00 0.01 0.02 0.04 0.08 0.10 0.10 0.09 0.07 0.07
0.03 0.03 0.04 0.04 0.05 0.06 0.08 0.11 0.14 0.16 0.18 0.19 0.18 0.17 0.14 0.11 0.07 0.05 0.04 0.04 0.04 0.06 0.11 0.17 0.18 0.14 0.08 0.04 0.02 0.01 0.01 0.02 0.01 0.01 0.02 0.03 0.03 0.02 0.01 0.01 0.01 0.02 0.05
0.06 0.07 0.08 0.11 0.15 0.19 0.26 0.27 0.24 0.23 0.21 0.18 0.15 0.11 0.08 0.05 0.03 0.02 0.03 0.05 0.09 0.16 0.25 0.31 0.25 0.14 0.04 0.01 0.01 0.04 0.08 0.12 0.08 0.01 0.04 0.02 0.01 0.01 0.00 0.01 0.02 0.06 0.10
0.18 0.20 0.23 0.26 0.30 0.34 0.37 0.32 0.26 0.19 0.15 0.11 0.08 0.05 0.03 0.02 0.01 0.01 0.01 0.05 0.11 0.17 0.21 0.19 0.11 0.04 0.02 0.03 0.11 0.18 0.16 0.17 0.11 0.02 0.05 0.04 0.02 0.02 0.01 0.02 0.03 0.05 0.07
0.37 0.41 0.44 0.44 0.42 0.39 0.33 0.24 0.16 0.11 0.07 0.04 0.02 0.01 0.01 0.00 0.01 0.03 0.07 0.14 0.10 0.07 0.04 0.03 0.03 0.03 0.05 0.07 0.14 0.23 0.20 0.14 0.06 0.02 0.04 0.06 0.02 0.02 0.01 0.01 0.02 0.03 0.06
0.52 0.50 0.45 0.38 0.30 0.23 0.17 0.10 0.06 0.04 0.02 0.01 0.00 0.00 0.01 0.01 0.03 0.11 0.17 0.17 0.08 0.02 0.00 0.02 0.05 0.06 0.05 0.05 0.05 0.14 0.20 0.22 0.13 0.02 0.02 0.04 0.03 0.02 0.02 0.01 0.01 0.03 0.05
0.40 0.31 0.21 0.14 0.08 0.05 0.03 0.01 0.01 0.00 0.00 0.00 0.00 0.00 0.01 0.03 0.08 0.16 0.15 0.13 0.05 0.02 0.04 0.03 0.01 0.00 0.00 0.00 0.02 0.09 0.27 0.49 0.35 0.16 0.01 0.08 0.12 0.15 0.22 0.03 0.01 0.01 0.02

GEFSMA_prec_meanprecacc_048.txt.gz
Total_Precipitation_Accumulation
0.00 0.00 0.00 0.01 0.01 0.01 0.01 0.01 0.00 0.00 0.00 0.00 0.00 0.00 0.00 0.00 0.00 0.00 0.00 0.00 0.00 0.00 0.00 0.01 0.01 0.02 0.04 0.06 0.08 0.09 0.09 0.09 0.09 0.09 0.09 0.10 0.10 0.11 0.12 0.14 0.14 0.14 0.15
0.00 0.00 0.01 0.01 0.01 0.01 0.01 0.00 0.00 0.00 0.00 0.00 0.00 0.00 0.00 0.00 0.00 0.00 0.00 0.00 0.00 0.00 0.00 0.01 0.01 0.03 0.04 0.06 0.07 0.07 0.08 0.08 0.08 0.09 0.09 0.10 0.11 0.12 0.13 0.15 0.15 0.16 0.16
0.00 0.00 0.01 0.01 0.00 0.00 0.00 0.00 0.00 0.00 0.00 0.00 0.00 0.00 0.00 0.00 0.00 0.00 0.00 0.00 0.00 0.00 0.00 0.00 0.01 0.02 0.03 0.04 0.05 0.06 0.08 0.09 0.09 0.09 0.10 0.10 0.11 0.12 0.14 0.16 0.17 0.18 0.19
0.00 0.00 0.00 0.00 0.00 0.00 0.00 0.00 0.00 0.00 0.00 0.00 0.00 0.00 0.00 0.00 0.00 0.00 0.00 0.00 0.00 0.00 0.00 0.00 0.01 0.01 0.01 0.02 0.02 0.04 0.06 0.09 0.10 0.11 0.12 0.12 0.12 0.13 0.15 0.18 0.21 0.23 0.25
0.01 0.00 0.00 0.00 0.00 0.00 0.00 0.00 0.00 0.00 0.00 0.00 0.00 0.00 0.00 0.00 0.00 0.00 0.00 0.00 0.00 0.00 0.00 0.00 0.00 0.00 0.01 0.01 0.02 0.03 0.07 0.11 0.14 0.15 0.15 0.16 0.17 0.19 0.21 0.24 0.26 0.29 0.31
0.02 0.01 0.01 0.01 0.00 0.00 0.00 0.00 0.00 0.00 0.00 0.00 0.00 0.00 0.00 0.00 0.00 0.00 0.00 0.00 0.00 0.00 0.00 0.00 0.00 0.00 0.00 0.02 0.05 0.07 0.08 0.10 0.14 0.16 0.16 0.17 0.19 0.21 0.24 0.28 0.30 0.31 0.33
0.05 0.04 0.03 0.02 0.01 0.00 0.00 0.00 0.00 0.00 0.00 0.00 0.00 0.00 0.00 0.00 0.00 0.00 0.00 0.00 0.00 0.00 0.00 0.00 0.00 0.01 0.03 0.05 0.08 0.08 0.08 0.08 0.11 0.15 0.17 0.18 0.20 0.23 0.27 0.31 0.34 0.36 0.38
0.09 0.07 0.04 0.04 0.03 0.01 0.01 0.00 0.00 0.00 0.00 0.00 0.00 0.00 0.00 0.00 0.00 0.00 0.00 0.00 0.00 0.00 0.00 0.00 0.01 0.02 0.04 0.06 0.06 0.06 0.05 0.05 0.06 0.09 0.13 0.14 0.16 0.19 0.24 0.28 0.32 0.37 0.42
0.18 0.14 0.11 0.09 0.07 0.04 0.02 0.02 0.01 0.01 0.01 0.00 0.00 0.00 0.00 0.00 0.00 0.00 0.00 0.00 0.00 0.00 0.00 0.00 0.00 0.00 0.00 0.01 0.01 0.01 0.01 0.02 0.02 0.03 0.06 0.10 0.13 0.17 0.22 0.28 0.35 0.42 0.47
0.23 0.23 0.19 0.15 0.12 0.10 0.07 0.07 0.06 0.04 0.03 0.02 0.01 0.00 0.00 0.00 0.00 0.00 0.00 0.00 0.00 0.00 0.00 0.00 0.00 0.00 0.00 0.00 0.00 0.00 0.02 0.04 0.04 0.06 0.10 0.14 0.19 0.25 0.33 0.42 0.51 0.58 0.63
0.21 0.23 0.21 0.19 0.16 0.15 0.16 0.15 0.13 0.11 0.08 0.05 0.03 0.02 0.01 0.00 0.00 0.00 0.00 0.00 0.00 0.00 0.00 0.00 0.00 0.00 0.00 0.00 0.00 0.02 0.04 0.05 0.06 0.08 0.11 0.16 0.25 0.35 0.45 0.55 0.65 0.75 0.85
0.17 0.19 0.21 0.20 0.19 0.20 0.21 0.21 0.20 0.18 0.15 0.12 0.07 0.05 0.04 0.02 0.01 0.01 0.01 0.00 0.00 0.00 0.00 0.00 0.00 0.00 0.00 0.00 0.01 0.02 0.01 0.01 0.01 0.01 0.05 0.14 0.23 0.31 0.38 0.45 0.54 0.67 0.83
0.13 0.14 0.17 0.19 0.22 0.25 0.28 0.28 0.25 0.22 0.20 0.16 0.12 0.09 0.07 0.05 0.03 0.03 0.03 0.02 0.02 0.01 0.01 0.01 0.01 0.00 0.00 0.00 0.00 0.00 0.00 0.00 0.00 0.00 0.03 0.08 0.12 0.15 0.17 0.18 0.24 0.32 0.43
0.15 0.18 0.20 0.22 0.25 0.27 0.27 0.27 0.25 0.23 0.21 0.18 0.14 0.11 0.09 0.07 0.05 0.05 0.05 0.05 0.05 0.04 0.03 0.02 0.02 0.01 0.01 0.01 0.01 0.00 0.00 0.00 0.00 0.00 0.02 0.05 0.06 0.07 0.09 0.12 0.17 0.22 0.28
0.15 0.17 0.19 0.22 0.23 0.24 0.24 0.25 0.23 0.21 0.19 0.16 0.14 0.11 0.09 0.08 0.06 0.06 0.06 0.06 0.08 0.09 0.08 0.06 0.06 0.05 0.04 0.03 0.03 0.02 0.01 0.00 0.00 0.02 0.03 0.04 0.04 0.07 0.10 0.13 0.16 0.19 0.22
0.11 0.13 0.16 0.18 0.19 0.19 0.19 0.19 0.17 0.15 0.14 0.13 0.12 0.11 0.11 0.10 0.10 0.10 0.11 0.12 0.13 0.15 0.15 0.13 0.11 0.10 0.09 0.07 0.05 0.03 0.01 0.01 0.01 0.01 0.02 0.05 0.07 0.08 0.10 0.13 0.15 0.18 0.21
0.09 0.11 0.13 0.14 0.14 0.14 0.13 0.13 0.11 0.10 0.11 0.11 0.12 0.13 0.14 0.15 0.17 0.18 0.21 0.23 0.25 0.25 0.24 0.19 0.15 0.12 0.10 0.08 0.05 0.02 0.01 0.01 0.01 0.02 0.03 0.04 0.06 0.08 0.11 0.13 0.16 0.18 0.22
0.07 0.08 0.09 0.10 0.10 0.09 0.09 0.09 0.10 0.10 0.12 0.13 0.15 0.16 0.19 0.21 0.25 0.28 0.29 0.29 0.27 0.23 0.20 0.16 0.10 0.08 0.06 0.04 0.02 0.01 0.01 0.01 0.01 0.01 0.02 0.03 0.05 0.07 0.09 0.12 0.16 0.21 0.26
0.06 0.06 0.06 0.06 0.06 0.07 0.08 0.09 0.10 0.11 0.12 0.15 0.18 0.21 0.24 0.26 0.29 0.29 0.27 0.24 0.20 0.16 0.13 0.12 0.07 0.04 0.03 0.02 0.02 0.01 0.00 0.00 0.00 0.00 0.00 0.01 0.02 0.06 0.11 0.15 0.19 0.22 0.23
0.06 0.06 0.05 0.05 0.05 0.05 0.06 0.08 0.10 0.13 0.16 0.20 0.23 0.25 0.27 0.28 0.26 0.23 0.20 0.17 0.14 0.11 0.08 0.08 0.09 0.07 0.06 0.03 0.03 0.02 0.01 0.00 0.00 0.00 0.01 0.02 0.04 0.08 0.10 0.10 0.09 0.07 0.07
0.06 0.07 0.08 0.08 0.09 0.10 0.12 0.14 0.17 0.22 0.25 0.28 0.28 0.28 0.26 0.23 0.19 0.15 0.12 0.10 0.09 0.09 0.13 0.18 0.19 0.15 0.08 0.04 0.02 0.01 0.01 0.02 0.01 0.01 0.02 0.03 0.03 0.02 0.01 0.01 0.01 0.02 0.05
0.15 0.15 0.16 0.19 0.22 0.27 0.38 0.36 0.32 0.31 0.31 0.29 0.25 0.21 0.17 0.14 0.10 0.08 0.07 0.08 0.11 0.17 0.26 0.31 0.25 0.14 0.05 0.01 0.01 0.04 0.08 0.13 0.09 0.01 0.04 0.02 0.01 0.01 0.00 0.01 0.02 0.06 0.10
0.31 0.33 0.36 0.40 0.44 0.50 0.55 0.47 0.39 0.29 0.25 0.22 0.18 0.13 0.09 0.05 0.03 0.02 0.02 0.06 0.11 0.18 0.21 0.19 0.12 0.04 0.02 0.03 0.11 0.18 0.17 0.18 0.11 0.02 0.05 0.04 0.02 0.02 0.01 0.02 0.03 0.05 0.07
0.54 0.60 0.65 0.64 0.61 0.58 0.50 0.38 0.29 0.21 0.16 0.12 0.09 0.06 0.03 0.02 0.02 0.03 0.08 0.14 0.10 0.07 0.04 0.03 0.03 0.04 0.05 0.07 0.15 0.25 0.22 0.15 0.06 0.02 0.04 0.06 0.02 0.02 0.01 0.01 0.02 0.03 0.06
0.71 0.71 0.66 0.58 0.49 0.39 0.29 0.19 0.12 0.08 0.06 0.04 0.02 0.01 0.02 0.01 0.03 0.11 0.17 0.17 0.08 0.02 0.00 0.02 0.06 0.06 0.06 0.05 0.06 0.15 0.21 0.23 0.14 0.02 0.02 0.04 0.03 0.02 0.02 0.01 0.01 0.03 0.05
0.53 0.44 0.34 0.25 0.17 0.11 0.07 0.04 0.02 0.01 0.01 0.00 0.00 0.00 0.01 0.03 0.08 0.16 0.16 0.13 0.05 0.02 0.04 0.03 0.01 0.00 0.00 0.00 0.02 0.09 0.27 0.49 0.36 0.17 0.01 0.08 0.12 0.15 0.22 0.03 0.01 0.01 0.02

GEFSMA_prec_meanprecacc_054.txt.gz
Total_Precipitation_Accumulation
0.00 0.00 0.00 0.01 0.01 0.01 0.01 0.01 0.00 0.00 0.00 0.00 0.00 0.00 0.00 0.00 0.00 0.00 0.00 0.00 0.00 0.00 0.00 0.01 0.01 0.02 0.04 0.06 0.08 0.09 0.09 0.09 0.09 0.09 0.09 0.10 0.10 0.11 0.12 0.14 0.14 0.14 0.15
0.00 0.00 0.01 0.01 0.01 0.01 0.01 0.00 0.00 0.00 0.00 0.00 0.00 0.00 0.00 0.00 0.00 0.00 0.00 0.00 0.00 0.00 0.00 0.01 0.01 0.03 0.04 0.06 0.07 0.07 0.08 0.08 0.08 0.09 0.09 0.10 0.11 0.12 0.13 0.15 0.15 0.16 0.16
0.00 0.00 0.01 0.01 0.00 0.00 0.00 0.00 0.00 0.00 0.00 0.00 0.00 0.00 0.00 0.00 0.00 0.00 0.00 0.00 0.00 0.00 0.00 0.00 0.01 0.02 0.03 0.04 0.05 0.06 0.08 0.09 0.09 0.09 0.10 0.10 0.11 0.12 0.14 0.16 0.17 0.18 0.19
0.00 0.00 0.00 0.00 0.00 0.00 0.00 0.00 0.00 0.00 0.00 0.00 0.00 0.00 0.00 0.00 0.00 0.00 0.00 0.00 0.00 0.00 0.00 0.00 0.01 0.01 0.01 0.02 0.02 0.04 0.06 0.09 0.10 0.11 0.12 0.12 0.12 0.13 0.15 0.18 0.21 0.23 0.25
0.01 0.00 0.00 0.00 0.00 0.00 0.00 0.00 0.00 0.00 0.00 0.00 0.00 0.00 0.00 0.00 0.00 0.00 0.00 0.00 0.00 0.00 0.00 0.00 0.00 0.00 0.01 0.01 0.02 0.03 0.07 0.11 0.14 0.15 0.15 0.16 0.17 0.19 0.21 0.24 0.26 0.29 0.31
0.03 0.02 0.01 0.01 0.00 0.00 0.00 0.00 0.00 0.00 0.00 0.00 0.00 0.00 0.00 0.00 0.00 0.00 0.00 0.00 0.00 0.00 0.00 0.00 0.00 0.00 0.00 0.02 0.05 0.07 0.08 0.10 0.14 0.16 0.16 0.17 0.19 0.21 0.24 0.28 0.30 0.31 0.33
0.06 0.05 0.03 0.03 0.01 0.01 0.00 0.00 0.00 0.00 0.00 0.00 0.00 0.00 0.00 0.00 0.00 0.00 0.00 0.00 0.00 0.00 0.00 0.00 0.00 0.01 0.03 0.05 0.08 0.08 0.08 0.08 0.11 0.15 0.17 0.18 0.20 0.23 0.27 0.31 0.34 0.36 0.38
0.10 0.08 0.05 0.04 0.04 0.02 0.01 0.01 0.01 0.00 0.00 0.00 0.00 0.00 0.00 0.00 0.00 0.00 0.00 0.00 0.00 0.00 0.00 0.00 0.01 0.02 0.04 0.06 0.06 0.06 0.05 0.05 0.06 0.09 0.13 0.14 0.16 0.19 0.24 0.28 0.33 0.38 0.42
0.19 0.15 0.12 0.10 0.08 0.05 0.03 0.03 0.03 0.03 0.02 0.01 0.00 0.00 0.00 0.00 0.00 0.00 0.00 0.00 0.00 0.00 0.00 0.00 0.00 0.00 0.00 0.01 0.01 0.01 0.01 0.02 0.02 0.03 0.06 0.10 0.13 0.17 0.22 0.29 0.35 0.42 0.48
0.24 0.24 0.20 0.16 0.13 0.11 0.09 0.09 0.09 0.08 0.06 0.04 0.02 0.01 0.01 0.00 0.00 0.00 0.00 0.00 0.00 0.00 0.00 0.00 0.00 0.00 0.00 0.00 0.00 0.00 0.02 0.04 0.04 0.06 0.10 0.14 0.19 0.25 0.33 0.42 0.51 0.58 0.64
0.22 0.24 0.22 0.21 0.18 0.16 0.18 0.18 0.17 0.15 0.13 0.10 0.07 0.06 0.05 0.03 0.02 0.01 0.01 0.01 0.01 0.01 0.01 0.00 0.00 0.00 0.00 0.00 0.01 0.03 0.04 0.05 0.06 0.08 0.11 0.16 0.25 0.35 0.45 0.55 0.65 0.76 0.86
0.18 0.21 0.24 0.22 0.22 0.22 0.23 0.25 0.25 0.24 0.23 0.20 0.15 0.11 0.11 0.09 0.07 0.07 0.05 0.03 0.04 0.04 0.04 0.04 0.04 0.04 0.03 0.03 0.03 0.03 0.02 0.02 0.02 0.02 0.05 0.15 0.24 0.31 0.38 0.46 0.55 0.67 0.83
0.13 0.16 0.19 0.22 0.26 0.29 0.33 0.33 0.31 0.29 0.29 0.27 0.24 0.19 0.17 0.14 0.12 0.12 0.12 0.10 0.08 0.07 0.07 0.08 0.08 0.08 0.07 0.07 0.06 0.05 0.03 0.02 0.02 0.02 0.04 0.09 0.13 0.15 0.17 0.18 0.24 0.33 0.43
0.16 0.19 0.22 0.25 0.28 0.31 0.33 0.34 0.34 0.33 0.32 0.30 0.28 0.26 0.22 0.18 0.17 0.17 0.17 0.18 0.18 0.16 0.14 0.14 0.15 0.16 0.16 0.14 0.12 0.09 0.06 0.05 0.03 0.03 0.04 0.07 0.08 0.08 0.09 0.12 0.17 0.22 0.28
0.15 0.17 0.21 0.24 0.26 0.28 0.30 0.32 0.32 0.31 0.30 0.28 0.27 0.26 0.24 0.21 0.19 0.19 0.21 0.24 0.31 0.33 0.29 0.25 0.24 0.24 0.22 0.19 0.16 0.12 0.08 0.07 0.06 0.06 0.07 0.07 0.07 0.08 0.11 0.13 0.16 0.19 0.22
0.11 0.14 0.17 0.19 0.21 0.23 0.24 0.26 0.25 0.24 0.25 0.24 0.24 0.24 0.25 0.24 0.24 0.24 0.26 0.30 0.35 0.42 0.43 0.35 0.31 0.30 0.28 0.24 0.21 0.16 0.11 0.09 0.08 0.07 0.07 0.08 0.09 0.10 0.11 0.13 0.15 0.18 0.21
0.09 0.11 0.13 0.15 0.16 0.16 0.17 0.18 0.19 0.19 0.20 0.21 0.22 0.24 0.26 0.27 0.30 0.32 0.35 0.39 0.43 0.48 0.50 0.44 0.37 0.32 0.28 0.23 0.18 0.13 0.08 0.06 0.05 0.05 0.06 0.06 0.07 0.09 0.11 0.13 0.16 0.19 0.22
0.07 0.08 0.09 0.11 0.11 0.11 0.12 0.13 0.14 0.16 0.18 0.20 0.22 0.25 0.28 0.32 0.37 0.41 0.44 0.46 0.45 0.43 0.41 0.37 0.29 0.24 0.19 0.14 0.10 0.07 0.04 0.04 0.03 0.02 0.03 0.04 0.06 0.07 0.09 0.12 0.16 0.21 0.26
0.06 0.06 0.06 0.07 0.07 0.08 0.10 0.12 0.13 0.15 0.17 0.20 0.24 0.28 0.32 0.35 0.39 0.40 0.38 0.37 0.35 0.31 0.28 0.26 0.20 0.15 0.11 0.08 0.07 0.04 0.02 0.01 0.01 0.00 0.01 0.01 0.02 0.06 0.11 0.15 0.19 0.22 0.23
0.06 0.06 0.06 0.06 0.06 0.06 0.08 0.10 0.12 0.16 0.21 0.26 0.30 0.34 0.36 0.37 0.35 0.33 0.30 0.27 0.24 0.20 0.17 0.17 0.16 0.13 0.11 0.07 0.06 0.04 0.02 0.01 0.00 0.00 0.01 0.02 0.04 0.08 0.10 0.10 0.09 0.07 0.07
0.07 0.07 0.08 0.09 0.10 0.12 0.16 0.19 0.23 0.28 0.32 0.35 0.36 0.36 0.36 0.35 0.31 0.26 0.21 0.18 0.15 0.15 0.19 0.24 0.23 0.18 0.11 0.06 0.03 0.01 0.02 0.02 0.01 0.01 0.02 0.03 0.03 0.02 0.01 0.01 0.01 0.02 0.05
0.15 0.16 0.19 0.22 0.26 0.32 0.45 0.45 0.40 0.40 0.40 0.37 0.34 0.29 0.26 0.24 0.19 0.17 0.15 0.14 0.17 0.22 0.30 0.34 0.28 0.16 0.05 0.02 0.02 0.04 0.08 0.13 0.09 0.01 0.04 0.02 0.01 0.01 0.00 0.01 0.02 0.06 0.10
0.32 0.36 0.41 0.47 0.53 0.59 0.64 0.56 0.48 0.38 0.34 0.31 0.26 0.21 0.16 0.12 0.09 0.07 0.06 0.09 0.13 0.19 0.22 0.19 0.12 0.04 0.02 0.03 0.11 0.18 0.17 0.18 0.11 0.02 0.05 0.04 0.02 0.02 0.01 0.02 0.03 0.05 0.07
0.56 0.63 0.69 0.69 0.67 0.65 0.58 0.46 0.36 0.29 0.24 0.19 0.15 0.11 0.07 0.05 0.04 0.05 0.08 0.14 0.11 0.07 0.05 0.03 0.03 0.04 0.05 0.07 0.15 0.26 0.23 0.15 0.06 0.02 0.04 0.06 0.02 0.02 0.01 0.01 0.02 0.03 0.06
0.73 0.73 0.69 0.62 0.52 0.43 0.33 0.23 0.16 0.12 0.09 0.07 0.04 0.03 0.03 0.02 0.03 0.11 0.17 0.17 0.08 0.02 0.00 0.02 0.06 0.06 0.06 0.05 0.06 0.15 0.21 0.23 0.14 0.02 0.02 0.04 0.03 0.02 0.02 0.01 0.01 0.03 0.05
0.54 0.45 0.36 0.27 0.19 0.14 0.09 0.05 0.03 0.02 0.01 0.01 0.00 0.01 0.01 0.03 0.08 0.16 0.16 0.13 0.05 0.02 0.04 0.03 0.01 0.00 0.00 0.00 0.02 0.09 0.27 0.49 0.36 0.17 0.01 0.08 0.12 0.15 0.23 0.03 0.01 0.01 0.02

GEFSMA_prec_meanprecacc_060.txt.gz
Total_Precipitation_Accumulation
0.00 0.00 0.00 0.01 0.01 0.01 0.01 0.01 0.00 0.00 0.00 0.00 0.00 0.00 0.00 0.00 0.00 0.00 0.00 0.00 0.00 0.00 0.00 0.01 0.01 0.02 0.04 0.06 0.08 0.09 0.09 0.09 0.09 0.09 0.09 0.10 0.10 0.11 0.12 0.14 0.14 0.14 0.15
0.00 0.00 0.01 0.01 0.01 0.01 0.01 0.00 0.00 0.00 0.00 0.00 0.00 0.00 0.00 0.00 0.00 0.00 0.00 0.00 0.00 0.00 0.00 0.01 0.01 0.03 0.04 0.06 0.07 0.07 0.08 0.08 0.08 0.09 0.09 0.10 0.11 0.12 0.13 0.15 0.15 0.16 0.16
0.00 0.00 0.01 0.01 0.00 0.00 0.00 0.00 0.00 0.00 0.00 0.00 0.00 0.00 0.00 0.00 0.00 0.00 0.00 0.00 0.00 0.00 0.00 0.00 0.01 0.02 0.03 0.04 0.05 0.06 0.08 0.09 0.09 0.09 0.10 0.10 0.11 0.12 0.14 0.16 0.17 0.18 0.19
0.00 0.00 0.00 0.00 0.00 0.00 0.00 0.00 0.00 0.00 0.00 0.00 0.00 0.00 0.00 0.00 0.00 0.00 0.00 0.00 0.00 0.00 0.00 0.00 0.01 0.01 0.01 0.02 0.02 0.04 0.06 0.09 0.10 0.11 0.12 0.12 0.12 0.13 0.15 0.18 0.21 0.23 0.25
0.02 0.01 0.00 0.00 0.00 0.00 0.00 0.00 0.00 0.00 0.00 0.00 0.00 0.00 0.00 0.00 0.00 0.00 0.00 0.00 0.00 0.00 0.00 0.00 0.00 0.00 0.01 0.01 0.02 0.03 0.07 0.11 0.14 0.15 0.15 0.16 0.17 0.19 0.21 0.24 0.26 0.29 0.31
0.06 0.04 0.02 0.02 0.02 0.02 0.01 0.01 0.01 0.01 0.01 0.00 0.00 0.00 0.00 0.00 0.00 0.00 0.00 0.00 0.00 0.00 0.00 0.00 0.00 0.00 0.00 0.02 0.05 0.07 0.08 0.10 0.14 0.16 0.16 0.17 0.19 0.21 0.24 0.28 0.30 0.31 0.33
0.08 0.08 0.05 0.05 0.04 0.04 0.03 0.03 0.03 0.03 0.02 0.03 0.02 0.01 0.00 0.00 0.00 0.00 0.00 0.00 0.00 0.00 0.00 0.00 0.00 0.01 0.03 0.05 0.08 0.08 0.08 0.08 0.11 0.15 0.17 0.18 0.20 0.23 0.27 0.31 0.34 0.36 0.38
0.12 0.10 0.08 0.07 0.07 0.06 0.05 0.06 0.06 0.06 0.06 0.07 0.05 0.03 0.01 0.00 0.00 0.01 0.00 0.00 0.00 0.00 0.00 0.01 0.02 0.03 0.04 0.06 0.07 0.06 0.05 0.05 0.06 0.09 0.13 0.14 0.16 0.19 0.24 0.28 0.33 0.38 0.42
0.20 0.17 0.14 0.13 0.11 0.09 0.07 0.09 0.11 0.11 0.10 0.10 0.08 0.07 0.03 0.01 0.01 0.01 0.01 0.01 0.01 0.01 0.01 0.01 0.01 0.02 0.02 0.01 0.02 0.01 0.02 0.03 0.02 0.03 0.06 0.10 0.13 0.17 0.22 0.29 0.35 0.42 0.48
0.25 0.25 0.21 0.18 0.16 0.15 0.13 0.14 0.16 0.16 0.17 0.13 0.11 0.09 0.07 0.05 0.03 0.02 0.01 0.02 0.03 0.02 0.02 0.02 0.02 0.02 0.02 0.02 0.02 0.02 0.03 0.05 0.05 0.07 0.11 0.15 0.19 0.25 0.34 0.43 0.51 0.59 0.64
0.22 0.25 0.24 0.23 0.20 0.19 0.21 0.23 0.23 0.23 0.23 0.20 0.17 0.15 0.16 0.13 0.09 0.07 0.04 0.03 0.05 0.06 0.05 0.04 0.03 0.03 0.03 0.03 0.04 0.07 0.10 0.11 0.12 0.13 0.14 0.19 0.27 0.37 0.47 0.57 0.66 0.77 0.86
0.18 0.21 0.24 0.24 0.24 0.25 0.26 0.29 0.31 0.32 0.33 0.31 0.27 0.23 0.23 0.21 0.17 0.18 0.15 0.10 0.10 0.10 0.10 0.09 0.08 0.08 0.08 0.08 0.10 0.12 0.13 0.13 0.13 0.12 0.14 0.22 0.31 0.37 0.43 0.49 0.57 0.68 0.84
0.13 0.16 0.20 0.23 0.27 0.31 0.35 0.36 0.36 0.36 0.38 0.38 0.37 0.34 0.32 0.29 0.28 0.31 0.30 0.24 0.19 0.16 0.15 0.16 0.16 0.15 0.16 0.17 0.19 0.21 0.21 0.22 0.22 0.22 0.24 0.27 0.28 0.27 0.26 0.25 0.28 0.36 0.46
0.16 0.19 0.22 0.26 0.29 0.32 0.34 0.36 0.37 0.38 0.40 0.40 0.40 0.40 0.38 0.35 0.35 0.36 0.38 0.42 0.40 0.33 0.29 0.28 0.29 0.32 0.33 0.33 0.34 0.34 0.29 0.29 0.27 0.25 0.25 0.26 0.23 0.20 0.19 0.20 0.23 0.27 0.31
0.15 0.17 0.21 0.24 0.26 0.29 0.31 0.34 0.34 0.34 0.35 0.35 0.35 0.37 0.38 0.37 0.37 0.40 0.44 0.51 0.62 0.63 0.53 0.47 0.48 0.49 0.48 0.46 0.45 0.37 0.30 0.30 0.27 0.25 0.25 0.23 0.21 0.20 0.20 0.21 0.22 0.24 0.26
0.11 0.14 0.17 0.19 0.21 0.23 0.25 0.27 0.27 0.26 0.28 0.29 0.30 0.33 0.35 0.36 0.38 0.41 0.47 0.54 0.64 0.76 0.75 0.63 0.56 0.57 0.56 0.52 0.48 0.38 0.28 0.28 0.23 0.20 0.19 0.19 0.18 0.18 0.18 0.18 0.20 0.22 0.24
0.09 0.11 0.13 0.15 0.16 0.17 0.17 0.19 0.19 0.20 0.23 0.25 0.26 0.29 0.32 0.35 0.39 0.43 0.49 0.57 0.65 0.74 0.79 0.71 0.60 0.55 0.52 0.46 0.39 0.29 0.22 0.17 0.14 0.15 0.14 0.13 0.13 0.13 0.14 0.16 0.18 0.20 0.23
0.07 0.08 0.09 0.11 0.11 0.11 0.12 0.14 0.15 0.16 0.19 0.22 0.24 0.27 0.31 0.36 0.43 0.50 0.55 0.60 0.62 0.63 0.63 0.59 0.49 0.42 0.37 0.31 0.25 0.18 0.13 0.09 0.07 0.07 0.07 0.08 0.09 0.09 0.10 0.13 0.16 0.22 0.27
0.06 0.06 0.06 0.07 0.07 0.08 0.10 0.12 0.13 0.15 0.17 0.21 0.25 0.29 0.33 0.38 0.42 0.44 0.45 0.45 0.44 0.41 0.39 0.38 0.32 0.27 0.22 0.19 0.15 0.10 0.07 0.05 0.04 0.03 0.03 0.03 0.04 0.07 0.11 0.16 0.19 0.22 0.23
0.06 0.06 0.06 0.06 0.06 0.06 0.08 0.10 0.12 0.16 0.21 0.27 0.31 0.35 0.38 0.39 0.38 0.36 0.33 0.32 0.29 0.26 0.23 0.23 0.23 0.20 0.17 0.13 0.10 0.07 0.04 0.03 0.02 0.01 0.01 0.02 0.05 0.08 0.10 0.10 0.09 0.07 0.07
0.07 0.07 0.08 0.09 0.10 0.12 0.16 0.19 0.23 0.28 0.33 0.36 0.37 0.38 0.37 0.37 0.34 0.28 0.24 0.21 0.19 0.19 0.22 0.27 0.26 0.21 0.14 0.08 0.05 0.03 0.03 0.02 0.01 0.01 0.03 0.03 0.03 0.02 0.01 0.01 0.01 0.02 0.05
0.15 0.16 0.19 0.22 0.26 0.32 0.45 0.45 0.40 0.40 0.40 0.38 0.34 0.30 0.27 0.26 0.22 0.20 0.18 0.17 0.20 0.24 0.32 0.37 0.30 0.18 0.07 0.03 0.02 0.05 0.08 0.13 0.09 0.01 0.04 0.02 0.01 0.01 0.00 0.01 0.02 0.06 0.10
0.32 0.36 0.41 0.47 0.53 0.59 0.64 0.57 0.48 0.38 0.35 0.31 0.27 0.22 0.17 0.13 0.11 0.09 0.08 0.11 0.15 0.20 0.23 0.20 0.12 0.04 0.03 0.04 0.11 0.18 0.17 0.18 0.11 0.02 0.05 0.04 0.02 0.02 0.01 0.02 0.03 0.05 0.07
0.56 0.63 0.69 0.69 0.67 0.65 0.58 0.46 0.36 0.29 0.24 0.20 0.15 0.11 0.08 0.06 0.04 0.06 0.09 0.14 0.11 0.07 0.05 0.03 0.03 0.04 0.05 0.07 0.15 0.26 0.23 0.15 0.06 0.02 0.04 0.06 0.02 0.02 0.01 0.01 0.02 0.03 0.06
0.73 0.73 0.69 0.62 0.52 0.43 0.33 0.23 0.16 0.12 0.09 0.07 0.04 0.03 0.03 0.02 0.03 0.11 0.17 0.17 0.08 0.02 0.00 0.02 0.06 0.06 0.06 0.05 0.06 0.15 0.21 0.23 0.14 0.02 0.02 0.04 0.03 0.02 0.02 0.01 0.01 0.03 0.05
0.54 0.45 0.36 0.27 0.19 0.14 0.09 0.05 0.03 0.02 0.01 0.01 0.00 0.01 0.01 0.03 0.08 0.16 0.16 0.13 0.05 0.02 0.04 0.03 0.01 0.00 0.00 0.00 0.02 0.09 0.27 0.49 0.36 0.17 0.01 0.08 0.12 0.15 0.23 0.03 0.01 0.01 0.02

GEFSMA_prec_meanprecacc_066.txt.gz
Total_Precipitation_Accumulation
0.00 0.00 0.00 0.01 0.01 0.01 0.01 0.01 0.00 0.00 0.00 0.00 0.00 0.00 0.00 0.00 0.00 0.00 0.00 0.00 0.00 0.00 0.00 0.01 0.01 0.02 0.04 0.06 0.08 0.09 0.09 0.09 0.09 0.09 0.09 0.10 0.10 0.11 0.12 0.14 0.14 0.14 0.15
0.00 0.00 0.01 0.01 0.01 0.01 0.01 0.00 0.00 0.00 0.00 0.00 0.00 0.00 0.00 0.00 0.00 0.00 0.00 0.00 0.00 0.00 0.00 0.01 0.01 0.03 0.04 0.06 0.07 0.07 0.08 0.08 0.08 0.09 0.09 0.10 0.11 0.12 0.13 0.15 0.15 0.16 0.16
0.00 0.00 0.01 0.01 0.00 0.00 0.00 0.00 0.00 0.00 0.00 0.00 0.00 0.00 0.00 0.00 0.00 0.00 0.00 0.00 0.00 0.00 0.00 0.00 0.01 0.02 0.03 0.04 0.05 0.06 0.08 0.09 0.09 0.09 0.10 0.10 0.11 0.12 0.14 0.16 0.17 0.18 0.19
0.01 0.00 0.00 0.00 0.00 0.00 0.00 0.00 0.00 0.00 0.00 0.00 0.00 0.00 0.00 0.00 0.00 0.00 0.00 0.00 0.00 0.00 0.00 0.00 0.01 0.01 0.02 0.02 0.02 0.04 0.06 0.09 0.10 0.11 0.12 0.12 0.12 0.13 0.15 0.18 0.21 0.23 0.25
0.03 0.01 0.00 0.00 0.00 0.00 0.00 0.00 0.00 0.01 0.00 0.00 0.00 0.00 0.00 0.01 0.00 0.00 0.01 0.00 0.00 0.00 0.00 0.00 0.00 0.00 0.01 0.01 0.02 0.03 0.07 0.11 0.14 0.15 0.15 0.16 0.17 0.19 0.21 0.24 0.26 0.29 0.31
0.06 0.05 0.03 0.02 0.02 0.02 0.02 0.02 0.02 0.02 0.01 0.01 0.01 0.01 0.01 0.01 0.00 0.01 0.00 0.00 0.00 0.00 0.00 0.00 0.00 0.00 0.01 0.02 0.05 0.07 0.09 0.11 0.14 0.16 0.17 0.17 0.19 0.21 0.24 0.28 0.30 0.31 0.33
0.09 0.09 0.06 0.06 0.05 0.05 0.05 0.05 0.05 0.04 0.04 0.05 0.04 0.02 0.01 0.01 0.01 0.01 0.01 0.01 0.01 0.01 0.01 0.01 0.02 0.02 0.04 0.06 0.09 0.09 0.09 0.09 0.12 0.16 0.17 0.18 0.20 0.23 0.27 0.31 0.34 0.36 0.38
0.13 0.11 0.09 0.09 0.08 0.07 0.06 0.07 0.08 0.08 0.08 0.09 0.08 0.06 0.02 0.01 0.01 0.02 0.02 0.01 0.02 0.02 0.02 0.03 0.04 0.05 0.07 0.08 0.09 0.08 0.07 0.07 0.08 0.11 0.14 0.14 0.16 0.19 0.24 0.28 0.33 0.38 0.43
0.21 0.18 0.15 0.14 0.12 0.10 0.08 0.10 0.13 0.14 0.12 0.12 0.11 0.11 0.06 0.02 0.01 0.01 0.02 0.03 0.03 0.02 0.03 0.04 0.05 0.05 0.06 0.05 0.06 0.06 0.06 0.07 0.07 0.08 0.10 0.12 0.14 0.18 0.23 0.30 0.36 0.43 0.49
0.25 0.25 0.22 0.19 0.16 0.15 0.13 0.14 0.17 0.18 0.19 0.15 0.13 0.11 0.10 0.07 0.06 0.03 0.02 0.03 0.05 0.04 0.05 0.06 0.06 0.07 0.07 0.07 0.08 0.09 0.12 0.15 0.15 0.18 0.23 0.24 0.26 0.31 0.39 0.48 0.56 0.63 0.68
0.22 0.25 0.24 0.24 0.21 0.19 0.22 0.24 0.24 0.25 0.24 0.22 0.19 0.17 0.18 0.15 0.11 0.10 0.06 0.04 0.06 0.07 0.08 0.08 0.07 0.07 0.08 0.09 0.12 0.17 0.25 0.28 0.32 0.34 0.35 0.38 0.43 0.50 0.58 0.67 0.77 0.86 0.94
0.18 0.21 0.24 0.24 0.24 0.25 0.27 0.29 0.31 0.33 0.34 0.32 0.29 0.25 0.26 0.23 0.19 0.21 0.18 0.12 0.12 0.13 0.14 0.14 0.13 0.13 0.14 0.15 0.18 0.25 0.30 0.35 0.39 0.41 0.43 0.52 0.58 0.62 0.66 0.69 0.74 0.82 0.97
0.13 0.16 0.20 0.23 0.27 0.31 0.35 0.37 0.36 0.36 0.39 0.39 0.38 0.35 0.34 0.31 0.30 0.33 0.33 0.26 0.20 0.17 0.17 0.19 0.20 0.21 0.23 0.25 0.30 0.37 0.40 0.44 0.48 0.51 0.56 0.63 0.64 0.58 0.50 0.45 0.47 0.54 0.62
0.16 0.19 0.22 0.26 0.29 0.32 0.34 0.36 0.37 0.38 0.40 0.40 0.41 0.41 0.39 0.37 0.37 0.39 0.41 0.46 0.44 0.36 0.32 0.31 0.33 0.38 0.41 0.44 0.48 0.53 0.49 0.53 0.53 0.53 0.57 0.62 0.60 0.50 0.41 0.38 0.39 0.41 0.45
0.15 0.17 0.21 0.24 0.26 0.29 0.31 0.34 0.34 0.34 0.35 0.35 0.35 0.38 0.39 0.38 0.38 0.41 0.46 0.55 0.67 0.68 0.58 0.50 0.52 0.55 0.56 0.56 0.57 0.52 0.47 0.53 0.54 0.52 0.52 0.51 0.48 0.43 0.38 0.35 0.34 0.33 0.34
0.11 0.14 0.17 0.19 0.21 0.23 0.25 0.27 0.27 0.26 0.28 0.29 0.30 0.33 0.35 0.36 0.38 0.42 0.48 0.56 0.66 0.78 0.78 0.65 0.59 0.60 0.61 0.59 0.59 0.49 0.43 0.49 0.45 0.43 0.42 0.40 0.37 0.34 0.31 0.29 0.27 0.28 0.29
0.09 0.11 0.13 0.15 0.16 0.17 0.17 0.19 0.19 0.20 0.23 0.25 0.26 0.29 0.32 0.35 0.39 0.44 0.50 0.57 0.66 0.76 0.82 0.74 0.64 0.59 0.57 0.51 0.46 0.37 0.31 0.29 0.27 0.30 0.29 0.27 0.26 0.24 0.24 0.23 0.23 0.25 0.27
0.07 0.08 0.09 0.11 0.11 0.11 0.12 0.14 0.15 0.16 0.19 0.22 0.24 0.27 0.31 0.36 0.43 0.50 0.55 0.60 0.63 0.64 0.64 0.61 0.52 0.45 0.40 0.35 0.29 0.23 0.18 0.15 0.13 0.16 0.17 0.16 0.16 0.16 0.16 0.17 0.20 0.25 0.29
0.06 0.06 0.06 0.07 0.07 0.08 0.10 0.12 0.13 0.15 0.17 0.21 0.25 0.29 0.33 0.38 0.42 0.44 0.45 0.45 0.44 0.41 0.39 0.38 0.34 0.29 0.25 0.21 0.18 0.13 0.10 0.08 0.06 0.07 0.07 0.07 0.07 0.10 0.14 0.18 0.21 0.24 0.24
0.06 0.06 0.06 0.06 0.06 0.06 0.08 0.10 0.12 0.16 0.21 0.27 0.31 0.35 0.38 0.39 0.38 0.36 0.33 0.32 0.30 0.26 0.23 0.24 0.24 0.22 0.19 0.15 0.13 0.09 0.06 0.05 0.03 0.03 0.03 0.04 0.06 0.10 0.11 0.11 0.10 0.08 0.07
0.07 0.07 0.08 0.09 0.10 0.12 0.16 0.19 0.23 0.28 0.33 0.36 0.37 0.38 0.37 0.37 0.34 0.29 0.24 0.21 0.19 0.19 0.22 0.27 0.27 0.22 0.14 0.10 0.07 0.04 0.04 0.04 0.02 0.02 0.03 0.03 0.04 0.03 0.02 0.01 0.01 0.02 0.05
0.15 0.16 0.19 0.22 0.26 0.32 0.45 0.45 0.41 0.40 0.40 0.38 0.34 0.30 0.27 0.26 0.22 0.20 0.18 0.18 0.20 0.24 0.32 0.37 0.30 0.18 0.07 0.03 0.03 0.05 0.09 0.13 0.09 0.02 0.04 0.02 0.01 0.01 0.00 0.01 0.02 0.06 0.10
0.32 0.36 0.41 0.47 0.53 0.59 0.64 0.57 0.48 0.38 0.35 0.31 0.27 0.22 0.17 0.13 0.11 0.09 0.08 0.11 0.15 0.20 0.23 0.20 0.13 0.04 0.03 0.04 0.11 0.18 0.17 0.18 0.11 0.02 0.05 0.04 0.02 0.02 0.01 0.02 0.03 0.05 0.07
0.56 0.63 0.69 0.69 0.67 0.65 0.58 0.46 0.36 0.29 0.24 0.20 0.15 0.11 0.08 0.06 0.04 0.06 0.09 0.14 0.11 0.07 0.05 0.03 0.03 0.04 0.05 0.07 0.15 0.26 0.23 0.15 0.06 0.02 0.04 0.06 0.02 0.02 0.01 0.01 0.02 0.03 0.06
0.73 0.73 0.69 0.62 0.52 0.43 0.33 0.23 0.16 0.12 0.09 0.07 0.04 0.03 0.03 0.02 0.03 0.11 0.17 0.17 0.08 0.02 0.00 0.02 0.06 0.06 0.06 0.05 0.06 0.15 0.21 0.23 0.14 0.02 0.02 0.04 0.03 0.02 0.02 0.01 0.01 0.03 0.05
0.54 0.45 0.36 0.27 0.19 0.14 0.09 0.05 0.03 0.02 0.01 0.01 0.00 0.01 0.01 0.03 0.08 0.16 0.16 0.13 0.05 0.02 0.04 0.03 0.01 0.00 0.00 0.00 0.02 0.09 0.27 0.49 0.36 0.17 0.01 0.08 0.12 0.15 0.23 0.03 0.01 0.01 0.02

GEFSMA_prec_meanprecacc_072.txt.gz
Total_Precipitation_Accumulation
0.00 0.00 0.00 0.01 0.01 0.01 0.01 0.01 0.00 0.00 0.00 0.00 0.00 0.00 0.00 0.00 0.00 0.00 0.00 0.00 0.00 0.00 0.01 0.01 0.02 0.03 0.04 0.06 0.08 0.09 0.09 0.09 0.09 0.09 0.09 0.10 0.10 0.11 0.13 0.14 0.14 0.15 0.15
0.00 0.00 0.01 0.01 0.01 0.01 0.01 0.00 0.00 0.00 0.00 0.00 0.00 0.00 0.00 0.00 0.00 0.00 0.00 0.00 0.00 0.00 0.00 0.01 0.02 0.04 0.05 0.06 0.07 0.07 0.08 0.08 0.08 0.09 0.09 0.10 0.11 0.12 0.13 0.15 0.15 0.16 0.16
0.00 0.01 0.01 0.01 0.00 0.00 0.00 0.00 0.00 0.00 0.00 0.00 0.00 0.00 0.00 0.00 0.00 0.00 0.00 0.00 0.00 0.00 0.00 0.01 0.02 0.03 0.04 0.05 0.06 0.07 0.08 0.09 0.09 0.09 0.10 0.11 0.11 0.12 0.14 0.16 0.17 0.18 0.19
0.01 0.01 0.00 0.00 0.00 0.00 0.00 0.00 0.00 0.00 0.00 0.00 0.00 0.00 0.00 0.00 0.00 0.00 0.00 0.01 0.00 0.00 0.00 0.00 0.01 0.02 0.04 0.04 0.05 0.06 0.07 0.09 0.10 0.11 0.12 0.12 0.12 0.13 0.15 0.18 0.21 0.23 0.25
0.03 0.02 0.01 0.01 0.01 0.01 0.01 0.00 0.01 0.01 0.01 0.01 0.01 0.00 0.01 0.01 0.01 0.00 0.01 0.01 0.01 0.00 0.00 0.00 0.00 0.01 0.02 0.04 0.04 0.07 0.11 0.14 0.15 0.15 0.16 0.16 0.17 0.19 0.21 0.24 0.26 0.29 0.31
0.07 0.05 0.03 0.03 0.03 0.02 0.02 0.02 0.02 0.02 0.02 0.02 0.02 0.01 0.01 0.01 0.01 0.01 0.01 0.01 0.01 0.01 0.01 0.01 0.01 0.01 0.01 0.04 0.08 0.11 0.15 0.18 0.19 0.18 0.18 0.18 0.19 0.21 0.24 0.28 0.30 0.31 0.34
0.09 0.09 0.06 0.06 0.06 0.05 0.05 0.05 0.05 0.05 0.04 0.05 0.04 0.02 0.01 0.01 0.01 0.01 0.01 0.01 0.01 0.02 0.02 0.02 0.02 0.03 0.05 0.07 0.10 0.13 0.14 0.18 0.23 0.24 0.21 0.20 0.21 0.23 0.27 0.31 0.34 0.37 0.39
0.13 0.11 0.09 0.09 0.08 0.07 0.07 0.07 0.08 0.08 0.08 0.10 0.09 0.08 0.03 0.01 0.01 0.02 0.02 0.01 0.02 0.02 0.02 0.04 0.04 0.06 0.07 0.09 0.10 0.09 0.11 0.13 0.21 0.29 0.28 0.23 0.20 0.21 0.25 0.30 0.34 0.39 0.44
0.21 0.18 0.15 0.14 0.12 0.10 0.09 0.10 0.13 0.14 0.13 0.13 0.12 0.13 0.09 0.03 0.02 0.02 0.02 0.03 0.03 0.02 0.03 0.04 0.05 0.06 0.06 0.06 0.06 0.06 0.08 0.10 0.14 0.24 0.31 0.31 0.27 0.25 0.27 0.33 0.40 0.47 0.53
0.25 0.25 0.22 0.19 0.16 0.15 0.14 0.15 0.18 0.19 0.20 0.17 0.14 0.12 0.12 0.09 0.09 0.05 0.02 0.03 0.05 0.04 0.05 0.06 0.06 0.07 0.07 0.07 0.08 0.10 0.14 0.17 0.20 0.30 0.43 0.49 0.50 0.51 0.53 0.57 0.63 0.70 0.75
0.22 0.25 0.24 0.24 0.21 0.20 0.22 0.24 0.24 0.26 0.25 0.23 0.20 0.18 0.19 0.16 0.13 0.12 0.08 0.05 0.06 0.07 0.08 0.08 0.07 0.07 0.08 0.09 0.12 0.18 0.26 0.31 0.36 0.45 0.55 0.66 0.76 0.84 0.88 0.91 0.95 1.02 1.08
0.18 0.21 0.24 0.24 0.24 0.25 0.27 0.29 0.32 0.33 0.34 0.33 0.30 0.27 0.27 0.24 0.20 0.22 0.20 0.13 0.13 0.13 0.14 0.14 0.13 0.13 0.14 0.15 0.19 0.26 0.32 0.38 0.45 0.52 0.63 0.80 0.92 1.00 1.07 1.10 1.12 1.13 1.20
0.13 0.16 0.20 0.23 0.27 0.31 0.35 0.37 0.37 0.36 0.39 0.39 0.39 0.36 0.35 0.32 0.31 0.35 0.35 0.27 0.21 0.18 0.18 0.19 0.20 0.21 0.23 0.25 0.30 0.38 0.41 0.47 0.53 0.60 0.72 0.88 0.96 0.95 0.92 0.90 0.93 0.95 0.96
0.16 0.19 0.22 0.26 0.29 0.32 0.34 0.36 0.37 0.38 0.40 0.40 0.41 0.42 0.40 0.37 0.37 0.39 0.42 0.47 0.45 0.37 0.32 0.31 0.33 0.38 0.42 0.44 0.49 0.53 0.50 0.55 0.56 0.60 0.69 0.81 0.85 0.76 0.69 0.70 0.75 0.76 0.78
0.15 0.17 0.21 0.24 0.26 0.29 0.31 0.34 0.34 0.34 0.35 0.35 0.35 0.38 0.39 0.38 0.38 0.42 0.47 0.56 0.68 0.69 0.58 0.50 0.52 0.55 0.56 0.56 0.58 0.52 0.47 0.55 0.57 0.57 0.61 0.64 0.64 0.60 0.56 0.56 0.57 0.59 0.59
0.11 0.14 0.17 0.19 0.21 0.23 0.25 0.27 0.27 0.26 0.28 0.29 0.30 0.33 0.35 0.36 0.39 0.42 0.48 0.56 0.67 0.79 0.79 0.66 0.59 0.60 0.61 0.59 0.59 0.50 0.44 0.50 0.48 0.48 0.49 0.51 0.49 0.46 0.45 0.47 0.48 0.50 0.50
0.09 0.11 0.13 0.15 0.16 0.17 0.17 0.19 0.19 0.20 0.23 0.25 0.26 0.29 0.32 0.35 0.39 0.44 0.50 0.58 0.66 0.76 0.82 0.74 0.64 0.59 0.57 0.52 0.46 0.37 0.31 0.29 0.28 0.34 0.35 0.35 0.35 0.35 0.34 0.36 0.38 0.42 0.44
0.07 0.08 0.09 0.11 0.11 0.11 0.12 0.14 0.15 0.16 0.19 0.22 0.24 0.27 0.31 0.36 0.43 0.50 0.55 0.60 0.63 0.64 0.64 0.61 0.52 0.45 0.40 0.35 0.29 0.23 0.18 0.16 0.15 0.20 0.21 0.21 0.22 0.22 0.23 0.24 0.28 0.33 0.38
0.06 0.06 0.06 0.07 0.07 0.08 0.10 0.12 0.13 0.15 0.17 0.21 0.25 0.29 0.33 0.38 0.42 0.44 0.45 0.45 0.44 0.41 0.39 0.38 0.34 0.29 0.25 0.21 0.18 0.13 0.10 0.08 0.07 0.08 0.09 0.09 0.10 0.12 0.16 0.21 0.24 0.27 0.27
0.06 0.06 0.06 0.06 0.06 0.06 0.08 0.10 0.12 0.16 0.21 0.27 0.31 0.35 0.38 0.39 0.38 0.36 0.33 0.32 0.30 0.26 0.23 0.24 0.24 0.22 0.19 0.15 0.13 0.10 0.07 0.05 0.04 0.03 0.04 0.05 0.07 0.11 0.12 0.11 0.10 0.09 0.08
0.07 0.07 0.08 0.09 0.10 0.12 0.16 0.19 0.23 0.28 0.33 0.36 0.37 0.38 0.37 0.37 0.34 0.29 0.24 0.21 0.19 0.19 0.22 0.27 0.27 0.22 0.14 0.10 0.07 0.04 0.04 0.04 0.02 0.02 0.03 0.03 0.04 0.03 0.02 0.01 0.02 0.02 0.05
0.15 0.16 0.19 0.22 0.26 0.32 0.45 0.45 0.41 0.40 0.40 0.38 0.34 0.30 0.27 0.26 0.22 0.20 0.18 0.18 0.20 0.24 0.32 0.37 0.30 0.18 0.07 0.03 0.03 0.05 0.09 0.13 0.09 0.02 0.04 0.02 0.01 0.01 0.00 0.01 0.02 0.06 0.10
0.32 0.36 0.41 0.47 0.53 0.59 0.64 0.57 0.48 0.38 0.35 0.31 0.27 0.22 0.17 0.13 0.11 0.09 0.08 0.11 0.15 0.20 0.23 0.20 0.13 0.04 0.03 0.04 0.11 0.19 0.17 0.18 0.12 0.02 0.05 0.04 0.02 0.02 0.01 0.02 0.03 0.05 0.07
0.56 0.63 0.69 0.69 0.67 0.65 0.58 0.46 0.36 0.29 0.24 0.20 0.15 0.11 0.08 0.06 0.04 0.06 0.09 0.14 0.11 0.07 0.05 0.03 0.03 0.04 0.05 0.07 0.15 0.26 0.23 0.15 0.06 0.02 0.04 0.06 0.02 0.02 0.01 0.01 0.02 0.03 0.06
0.73 0.73 0.69 0.62 0.52 0.43 0.33 0.23 0.16 0.12 0.09 0.07 0.04 0.03 0.03 0.02 0.03 0.11 0.17 0.17 0.08 0.02 0.00 0.02 0.06 0.06 0.06 0.05 0.06 0.15 0.21 0.23 0.14 0.02 0.02 0.04 0.03 0.02 0.02 0.01 0.01 0.03 0.05
0.54 0.45 0.36 0.27 0.19 0.14 0.09 0.05 0.03 0.02 0.01 0.01 0.00 0.01 0.01 0.03 0.08 0.16 0.16 0.13 0.05 0.02 0.04 0.03 0.01 0.00 0.00 0.00 0.02 0.09 0.27 0.49 0.36 0.17 0.01 0.08 0.12 0.15 0.23 0.03 0.01 0.01 0.02

GEFSMA_prec_meanprecacc_078.txt.gz
Total_Precipitation_Accumulation
0.00 0.00 0.00 0.01 0.01 0.01 0.01 0.01 0.00 0.00 0.00 0.00 0.00 0.00 0.00 0.00 0.00 0.00 0.00 0.00 0.00 0.00 0.01 0.01 0.02 0.03 0.05 0.07 0.08 0.09 0.09 0.09 0.09 0.09 0.09 0.10 0.10 0.11 0.13 0.14 0.14 0.15 0.15
0.00 0.01 0.01 0.01 0.01 0.01 0.01 0.00 0.00 0.00 0.00 0.00 0.00 0.00 0.00 0.00 0.00 0.00 0.00 0.00 0.00 0.00 0.00 0.01 0.02 0.04 0.06 0.08 0.09 0.09 0.09 0.08 0.08 0.09 0.09 0.10 0.11 0.12 0.13 0.15 0.15 0.16 0.16
0.01 0.01 0.01 0.01 0.01 0.01 0.01 0.00 0.00 0.00 0.00 0.00 0.00 0.00 0.00 0.00 0.00 0.00 0.00 0.00 0.00 0.00 0.00 0.01 0.02 0.04 0.06 0.08 0.09 0.10 0.10 0.10 0.09 0.09 0.10 0.11 0.11 0.12 0.14 0.16 0.18 0.18 0.19
0.01 0.01 0.01 0.01 0.01 0.01 0.01 0.01 0.01 0.01 0.01 0.01 0.01 0.00 0.00 0.00 0.00 0.00 0.00 0.01 0.01 0.00 0.00 0.00 0.01 0.03 0.05 0.07 0.09 0.12 0.13 0.14 0.13 0.13 0.12 0.12 0.12 0.13 0.15 0.18 0.21 0.23 0.25
0.03 0.02 0.01 0.02 0.02 0.02 0.02 0.02 0.02 0.02 0.02 0.01 0.01 0.01 0.01 0.01 0.01 0.00 0.01 0.01 0.01 0.01 0.01 0.01 0.01 0.01 0.03 0.05 0.07 0.13 0.19 0.24 0.23 0.20 0.18 0.18 0.18 0.19 0.21 0.24 0.26 0.29 0.31
0.07 0.05 0.03 0.03 0.04 0.03 0.03 0.04 0.04 0.03 0.03 0.03 0.03 0.02 0.01 0.01 0.01 0.01 0.01 0.01 0.01 0.01 0.01 0.01 0.02 0.02 0.01 0.04 0.09 0.14 0.22 0.28 0.31 0.29 0.24 0.22 0.21 0.22 0.25 0.28 0.30 0.32 0.34
0.09 0.09 0.07 0.07 0.07 0.06 0.06 0.07 0.07 0.06 0.06 0.07 0.06 0.03 0.01 0.01 0.01 0.01 0.01 0.01 0.01 0.02 0.02 0.02 0.03 0.04 0.05 0.07 0.11 0.14 0.18 0.24 0.33 0.36 0.34 0.30 0.27 0.27 0.30 0.33 0.35 0.37 0.39
0.13 0.12 0.10 0.10 0.09 0.08 0.08 0.09 0.10 0.10 0.10 0.11 0.10 0.09 0.04 0.01 0.01 0.02 0.02 0.01 0.02 0.02 0.02 0.04 0.05 0.06 0.08 0.10 0.10 0.10 0.12 0.15 0.25 0.37 0.39 0.36 0.33 0.32 0.33 0.35 0.38 0.42 0.45
0.22 0.18 0.15 0.14 0.13 0.11 0.10 0.12 0.15 0.16 0.15 0.15 0.14 0.16 0.11 0.04 0.03 0.02 0.02 0.03 0.03 0.02 0.03 0.04 0.05 0.06 0.06 0.06 0.07 0.07 0.08 0.10 0.15 0.26 0.37 0.40 0.39 0.39 0.41 0.45 0.49 0.54 0.57
0.26 0.26 0.22 0.19 0.17 0.16 0.14 0.16 0.18 0.20 0.22 0.18 0.16 0.13 0.13 0.11 0.10 0.06 0.03 0.03 0.05 0.04 0.05 0.06 0.06 0.07 0.07 0.07 0.08 0.10 0.14 0.17 0.21 0.31 0.46 0.55 0.60 0.65 0.71 0.76 0.81 0.85 0.86
0.22 0.25 0.24 0.24 0.21 0.20 0.22 0.24 0.25 0.26 0.26 0.24 0.22 0.20 0.20 0.17 0.15 0.15 0.09 0.05 0.07 0.08 0.08 0.08 0.07 0.07 0.08 0.09 0.12 0.18 0.26 0.31 0.37 0.46 0.57 0.72 0.85 0.97 1.06 1.13 1.20 1.28 1.33
0.18 0.21 0.24 0.24 0.24 0.25 0.27 0.29 0.32 0.33 0.35 0.34 0.31 0.28 0.29 0.27 0.22 0.24 0.22 0.14 0.14 0.14 0.14 0.14 0.14 0.13 0.14 0.15 0.19 0.26 0.32 0.38 0.45 0.52 0.65 0.85 1.00 1.09 1.20 1.29 1.36 1.41 1.49
0.13 0.16 0.20 0.23 0.27 0.31 0.35 0.37 0.37 0.36 0.39 0.40 0.39 0.37 0.36 0.33 0.32 0.36 0.36 0.29 0.22 0.19 0.18 0.19 0.20 0.21 0.23 0.25 0.30 0.38 0.41 0.47 0.53 0.61 0.74 0.91 1.01 1.01 1.00 1.04 1.11 1.17 1.21
0.16 0.19 0.22 0.26 0.29 0.32 0.34 0.36 0.38 0.38 0.40 0.40 0.41 0.42 0.40 0.38 0.38 0.40 0.43 0.48 0.46 0.38 0.33 0.32 0.33 0.38 0.42 0.44 0.49 0.53 0.50 0.55 0.57 0.60 0.70 0.82 0.87 0.80 0.73 0.76 0.85 0.92 0.96
0.15 0.17 0.21 0.24 0.26 0.29 0.31 0.34 0.34 0.34 0.35 0.35 0.36 0.38 0.39 0.38 0.39 0.42 0.47 0.56 0.69 0.70 0.59 0.51 0.52 0.55 0.56 0.56 0.58 0.52 0.47 0.55 0.58 0.58 0.61 0.65 0.66 0.63 0.60 0.59 0.63 0.66 0.69
0.11 0.14 0.17 0.19 0.21 0.23 0.25 0.27 0.27 0.26 0.28 0.29 0.30 0.33 0.35 0.36 0.39 0.43 0.48 0.56 0.67 0.80 0.80 0.66 0.60 0.60 0.61 0.59 0.59 0.50 0.44 0.50 0.48 0.48 0.50 0.52 0.51 0.49 0.49 0.50 0.53 0.55 0.56
0.09 0.11 0.13 0.15 0.16 0.17 0.17 0.19 0.19 0.20 0.23 0.25 0.26 0.29 0.32 0.35 0.39 0.44 0.50 0.58 0.67 0.76 0.82 0.75 0.64 0.59 0.57 0.52 0.46 0.37 0.31 0.29 0.28 0.35 0.36 0.35 0.36 0.37 0.37 0.38 0.42 0.46 0.49
0.07 0.08 0.09 0.11 0.11 0.11 0.12 0.14 0.15 0.16 0.19 0.22 0.24 0.27 0.31 0.36 0.43 0.50 0.55 0.60 0.63 0.64 0.64 0.61 0.52 0.45 0.40 0.35 0.29 0.23 0.18 0.16 0.15 0.20 0.21 0.22 0.23 0.24 0.24 0.26 0.30 0.37 0.43
0.06 0.06 0.06 0.07 0.07 0.08 0.10 0.12 0.13 0.15 0.17 0.21 0.25 0.29 0.33 0.38 0.42 0.44 0.45 0.45 0.44 0.41 0.39 0.38 0.34 0.29 0.25 0.21 0.18 0.13 0.10 0.08 0.07 0.08 0.09 0.10 0.11 0.14 0.18 0.22 0.25 0.28 0.30
0.06 0.06 0.06 0.06 0.06 0.06 0.08 0.10 0.12 0.16 0.21 0.27 0.31 0.35 0.38 0.39 0.38 0.36 0.33 0.32 0.30 0.26 0.23 0.24 0.24 0.22 0.19 0.15 0.13 0.10 0.07 0.05 0.04 0.03 0.04 0.05 0.08 0.12 0.12 0.12 0.11 0.09 0.09
0.07 0.07 0.08 0.09 0.10 0.12 0.16 0.19 0.23 0.28 0.33 0.36 0.37 0.38 0.37 0.37 0.34 0.29 0.24 0.21 0.19 0.19 0.22 0.27 0.27 0.22 0.14 0.10 0.07 0.04 0.04 0.04 0.02 0.02 0.03 0.04 0.04 0.03 0.02 0.02 0.02 0.02 0.05
0.15 0.16 0.19 0.22 0.26 0.32 0.45 0.45 0.41 0.40 0.40 0.38 0.34 0.30 0.27 0.26 0.22 0.20 0.18 0.18 0.20 0.24 0.32 0.37 0.30 0.18 0.07 0.03 0.03 0.05 0.09 0.13 0.09 0.02 0.04 0.02 0.01 0.01 0.01 0.01 0.02 0.06 0.10
0.32 0.36 0.41 0.47 0.53 0.60 0.64 0.57 0.49 0.38 0.35 0.31 0.27 0.22 0.17 0.13 0.11 0.09 0.08 0.11 0.15 0.20 0.23 0.20 0.13 0.04 0.03 0.04 0.11 0.19 0.17 0.18 0.12 0.02 0.05 0.04 0.02 0.02 0.01 0.02 0.03 0.05 0.07
0.56 0.63 0.69 0.69 0.67 0.65 0.58 0.46 0.36 0.29 0.24 0.20 0.15 0.11 0.08 0.06 0.04 0.06 0.09 0.14 0.11 0.07 0.05 0.03 0.03 0.04 0.05 0.07 0.15 0.26 0.23 0.15 0.06 0.02 0.04 0.06 0.02 0.02 0.01 0.01 0.02 0.03 0.06
0.73 0.73 0.69 0.62 0.52 0.43 0.33 0.23 0.16 0.12 0.09 0.07 0.04 0.03 0.03 0.02 0.03 0.11 0.17 0.17 0.08 0.02 0.00 0.02 0.06 0.06 0.06 0.05 0.06 0.15 0.21 0.23 0.14 0.02 0.02 0.04 0.03 0.02 0.02 0.01 0.01 0.03 0.05
0.54 0.45 0.36 0.27 0.19 0.14 0.09 0.05 0.03 0.02 0.01 0.01 0.00 0.01 0.01 0.03 0.08 0.16 0.16 0.13 0.05 0.02 0.04 0.03 0.01 0.00 0.00 0.00 0.02 0.09 0.27 0.49 0.36 0.17 0.01 0.08 0.12 0.15 0.23 0.03 0.01 0.01 0.02

GEFSMA_prec_meanprecacc_084.txt.gz
Total_Precipitation_Accumulation
0.00 0.00 0.00 0.01 0.01 0.01 0.01 0.01 0.00 0.00 0.00 0.00 0.00 0.00 0.00 0.00 0.00 0.00 0.00 0.00 0.00 0.00 0.01 0.02 0.03 0.04 0.06 0.09 0.10 0.11 0.10 0.10 0.09 0.10 0.09 0.10 0.10 0.11 0.13 0.14 0.14 0.15 0.16
0.00 0.01 0.01 0.01 0.01 0.01 0.01 0.00 0.00 0.00 0.00 0.00 0.00 0.00 0.00 0.00 0.00 0.00 0.00 0.00 0.00 0.00 0.00 0.01 0.03 0.06 0.09 0.12 0.13 0.13 0.12 0.11 0.10 0.10 0.10 0.10 0.11 0.12 0.13 0.15 0.16 0.16 0.17
0.01 0.01 0.01 0.01 0.01 0.01 0.01 0.00 0.00 0.00 0.00 0.00 0.00 0.00 0.00 0.00 0.00 0.00 0.00 0.00 0.00 0.00 0.00 0.01 0.04 0.06 0.09 0.12 0.14 0.17 0.18 0.16 0.13 0.12 0.11 0.12 0.12 0.12 0.14 0.16 0.18 0.19 0.19
0.01 0.01 0.01 0.01 0.01 0.01 0.01 0.01 0.01 0.02 0.01 0.01 0.01 0.01 0.00 0.00 0.00 0.00 0.00 0.01 0.01 0.00 0.00 0.01 0.02 0.04 0.07 0.10 0.13 0.18 0.23 0.24 0.22 0.19 0.16 0.15 0.14 0.15 0.16 0.18 0.21 0.23 0.25
0.03 0.02 0.01 0.02 0.02 0.02 0.02 0.03 0.02 0.02 0.02 0.01 0.01 0.01 0.01 0.01 0.01 0.00 0.01 0.01 0.01 0.01 0.01 0.01 0.01 0.02 0.04 0.07 0.10 0.17 0.26 0.32 0.32 0.29 0.26 0.24 0.22 0.23 0.24 0.25 0.27 0.29 0.31
0.07 0.05 0.03 0.03 0.04 0.04 0.04 0.04 0.04 0.04 0.03 0.03 0.03 0.02 0.01 0.01 0.01 0.01 0.01 0.01 0.01 0.01 0.01 0.02 0.02 0.02 0.02 0.05 0.10 0.17 0.26 0.34 0.38 0.36 0.35 0.33 0.31 0.30 0.31 0.33 0.33 0.33 0.34
0.10 0.09 0.07 0.07 0.07 0.06 0.06 0.07 0.08 0.07 0.06 0.08 0.07 0.03 0.01 0.01 0.01 0.01 0.01 0.01 0.01 0.02 0.02 0.02 0.03 0.04 0.05 0.08 0.12 0.15 0.19 0.27 0.36 0.40 0.40 0.39 0.39 0.38 0.39 0.41 0.42 0.43 0.43
0.14 0.12 0.10 0.10 0.09 0.08 0.09 0.10 0.11 0.11 0.10 0.12 0.11 0.10 0.04 0.01 0.01 0.02 0.02 0.01 0.02 0.02 0.02 0.04 0.05 0.06 0.08 0.10 0.10 0.10 0.12 0.16 0.27 0.39 0.42 0.40 0.39 0.40 0.43 0.47 0.50 0.53 0.54
0.23 0.19 0.16 0.16 0.14 0.12 0.11 0.13 0.16 0.17 0.15 0.15 0.14 0.16 0.11 0.04 0.03 0.02 0.02 0.03 0.03 0.02 0.03 0.04 0.05 0.06 0.06 0.06 0.07 0.07 0.08 0.10 0.15 0.27 0.39 0.43 0.43 0.43 0.47 0.54 0.61 0.68 0.71
0.29 0.28 0.24 0.21 0.18 0.17 0.15 0.16 0.19 0.21 0.22 0.19 0.16 0.14 0.14 0.12 0.12 0.07 0.03 0.03 0.05 0.04 0.05 0.06 0.06 0.07 0.07 0.07 0.08 0.10 0.14 0.17 0.21 0.32 0.48 0.58 0.64 0.70 0.77 0.83 0.90 0.98 1.00
0.25 0.27 0.25 0.25 0.21 0.20 0.22 0.24 0.25 0.26 0.26 0.24 0.22 0.20 0.21 0.18 0.16 0.16 0.10 0.05 0.07 0.08 0.08 0.08 0.07 0.08 0.08 0.10 0.12 0.18 0.26 0.31 0.37 0.47 0.59 0.74 0.89 1.02 1.12 1.20 1.29 1.38 1.44
0.20 0.22 0.25 0.24 0.24 0.25 0.27 0.29 0.32 0.33 0.35 0.34 0.31 0.28 0.29 0.27 0.23 0.25 0.23 0.15 0.15 0.14 0.14 0.14 0.14 0.14 0.14 0.15 0.19 0.26 0.32 0.38 0.46 0.55 0.68 0.89 1.03 1.13 1.24 1.34 1.43 1.50 1.59
0.14 0.16 0.20 0.23 0.27 0.31 0.35 0.37 0.37 0.36 0.39 0.40 0.39 0.37 0.36 0.33 0.33 0.36 0.37 0.29 0.23 0.19 0.18 0.19 0.20 0.21 0.23 0.25 0.30 0.38 0.42 0.47 0.54 0.62 0.76 0.93 1.02 1.02 1.02 1.06 1.16 1.26 1.32
0.17 0.20 0.23 0.26 0.29 0.32 0.34 0.36 0.38 0.38 0.40 0.40 0.41 0.42 0.40 0.38 0.38 0.40 0.43 0.48 0.47 0.38 0.33 0.32 0.33 0.38 0.42 0.44 0.49 0.53 0.50 0.56 0.57 0.61 0.71 0.83 0.88 0.81 0.73 0.77 0.87 0.97 1.05
0.16 0.18 0.21 0.25 0.27 0.29 0.31 0.34 0.34 0.34 0.35 0.35 0.36 0.38 0.39 0.38 0.39 0.42 0.47 0.56 0.69 0.71 0.59 0.51 0.52 0.55 0.56 0.56 0.58 0.52 0.47 0.55 0.58 0.59 0.62 0.65 0.66 0.64 0.60 0.60 0.64 0.68 0.72
0.12 0.14 0.17 0.20 0.21 0.23 0.25 0.27 0.27 0.26 0.28 0.29 0.30 0.33 0.35 0.36 0.39 0.43 0.48 0.56 0.67 0.80 0.80 0.66 0.60 0.61 0.62 0.59 0.60 0.50 0.44 0.51 0.48 0.49 0.50 0.52 0.51 0.49 0.49 0.51 0.54 0.57 0.58
0.09 0.11 0.13 0.15 0.16 0.17 0.17 0.19 0.19 0.20 0.23 0.25 0.26 0.29 0.32 0.35 0.39 0.44 0.50 0.58 0.67 0.76 0.82 0.75 0.64 0.60 0.57 0.52 0.47 0.38 0.31 0.29 0.29 0.35 0.36 0.35 0.36 0.37 0.37 0.39 0.43 0.48 0.50
0.07 0.08 0.10 0.11 0.11 0.11 0.12 0.14 0.15 0.16 0.19 0.22 0.24 0.27 0.31 0.36 0.43 0.50 0.55 0.60 0.63 0.64 0.64 0.61 0.52 0.45 0.40 0.35 0.29 0.23 0.18 0.16 0.15 0.20 0.22 0.22 0.23 0.24 0.25 0.26 0.31 0.38 0.44
0.06 0.06 0.06 0.07 0.07 0.08 0.10 0.12 0.13 0.15 0.17 0.21 0.25 0.29 0.33 0.38 0.42 0.44 0.45 0.45 0.44 0.41 0.39 0.38 0.34 0.29 0.25 0.21 0.18 0.13 0.10 0.08 0.07 0.09 0.10 0.10 0.12 0.15 0.18 0.22 0.26 0.29 0.31
0.07 0.06 0.06 0.06 0.06 0.06 0.08 0.10 0.12 0.16 0.21 0.27 0.31 0.35 0.38 0.39 0.38 0.36 0.33 0.32 0.30 0.26 0.23 0.24 0.24 0.22 0.19 0.15 0.13 0.10 0.07 0.05 0.04 0.03 0.04 0.06 0.09 0.12 0.13 0.13 0.12 0.10 0.10
0.07 0.07 0.08 0.10 0.10 0.12 0.16 0.19 0.23 0.28 0.33 0.36 0.37 0.38 0.37 0.37 0.34 0.29 0.24 0.21 0.19 0.19 0.22 0.27 0.27 0.22 0.14 0.10 0.07 0.04 0.04 0.04 0.02 0.02 0.03 0.04 0.04 0.03 0.02 0.02 0.02 0.03 0.06
0.15 0.16 0.19 0.22 0.26 0.32 0.45 0.45 0.41 0.40 0.40 0.38 0.35 0.30 0.27 0.26 0.22 0.20 0.18 0.18 0.20 0.24 0.32 0.37 0.30 0.18 0.07 0.03 0.03 0.05 0.09 0.13 0.09 0.02 0.04 0.02 0.01 0.01 0.01 0.01 0.03 0.06 0.10
0.32 0.36 0.41 0.47 0.53 0.60 0.65 0.57 0.49 0.38 0.35 0.31 0.27 0.22 0.17 0.13 0.11 0.09 0.08 0.11 0.15 0.20 0.23 0.20 0.13 0.04 0.03 0.04 0.11 0.19 0.17 0.18 0.12 0.02 0.05 0.04 0.02 0.02 0.01 0.02 0.03 0.05 0.07
0.56 0.63 0.69 0.69 0.67 0.65 0.59 0.46 0.37 0.29 0.24 0.20 0.15 0.11 0.08 0.06 0.04 0.06 0.09 0.14 0.11 0.07 0.05 0.03 0.03 0.04 0.05 0.07 0.15 0.26 0.23 0.15 0.06 0.02 0.04 0.06 0.02 0.02 0.01 0.01 0.02 0.03 0.06
0.73 0.73 0.69 0.62 0.52 0.43 0.33 0.23 0.16 0.12 0.09 0.07 0.04 0.03 0.03 0.02 0.03 0.11 0.17 0.17 0.08 0.02 0.00 0.02 0.06 0.06 0.06 0.05 0.06 0.15 0.21 0.23 0.14 0.02 0.02 0.04 0.03 0.02 0.02 0.01 0.01 0.03 0.05
0.54 0.45 0.36 0.27 0.19 0.14 0.09 0.05 0.03 0.02 0.01 0.01 0.00 0.01 0.01 0.03 0.08 0.16 0.16 0.13 0.05 0.02 0.04 0.03 0.01 0.00 0.00 0.00 0.02 0.09 0.27 0.49 0.36 0.17 0.01 0.08 0.12 0.15 0.23 0.03 0.01 0.01 0.02

GEFSMA_prec_meanprecacc_090.txt.gz
Total_Precipitation_Accumulation
0.00 0.00 0.00 0.01 0.01 0.01 0.01 0.01 0.00 0.00 0.00 0.00 0.00 0.00 0.00 0.00 0.00 0.00 0.00 0.00 0.00 0.00 0.01 0.02 0.05 0.06 0.09 0.12 0.15 0.15 0.14 0.11 0.10 0.10 0.10 0.10 0.11 0.12 0.13 0.14 0.14 0.15 0.16
0.00 0.01 0.01 0.01 0.01 0.01 0.01 0.00 0.00 0.00 0.00 0.00 0.00 0.00 0.00 0.00 0.00 0.00 0.00 0.00 0.00 0.00 0.01 0.02 0.06 0.09 0.13 0.16 0.19 0.20 0.19 0.15 0.13 0.11 0.11 0.11 0.12 0.13 0.14 0.15 0.16 0.16 0.17
0.01 0.01 0.01 0.01 0.01 0.01 0.01 0.00 0.00 0.00 0.00 0.00 0.00 0.00 0.00 0.00 0.00 0.00 0.00 0.00 0.00 0.00 0.00 0.02 0.05 0.09 0.13 0.17 0.20 0.23 0.25 0.23 0.20 0.17 0.14 0.14 0.13 0.14 0.15 0.17 0.18 0.19 0.19
0.01 0.01 0.01 0.01 0.01 0.01 0.01 0.01 0.01 0.02 0.01 0.01 0.01 0.01 0.00 0.00 0.00 0.00 0.00 0.01 0.01 0.00 0.00 0.01 0.03 0.06 0.10 0.13 0.17 0.23 0.28 0.30 0.28 0.25 0.22 0.19 0.18 0.18 0.19 0.20 0.22 0.24 0.26
0.03 0.02 0.01 0.02 0.02 0.02 0.02 0.03 0.02 0.02 0.02 0.02 0.01 0.01 0.01 0.01 0.01 0.00 0.01 0.01 0.01 0.01 0.01 0.01 0.01 0.02 0.05 0.08 0.12 0.20 0.29 0.36 0.35 0.33 0.32 0.31 0.29 0.28 0.29 0.30 0.30 0.31 0.33
0.07 0.05 0.03 0.03 0.04 0.04 0.04 0.04 0.04 0.04 0.03 0.03 0.03 0.02 0.01 0.01 0.01 0.01 0.01 0.01 0.01 0.01 0.01 0.02 0.02 0.02 0.02 0.05 0.11 0.18 0.28 0.36 0.40 0.39 0.38 0.39 0.38 0.38 0.39 0.40 0.39 0.38 0.38
0.12 0.10 0.07 0.08 0.08 0.07 0.07 0.08 0.08 0.07 0.06 0.08 0.07 0.04 0.02 0.01 0.01 0.01 0.01 0.01 0.01 0.02 0.02 0.02 0.03 0.04 0.06 0.08 0.12 0.15 0.20 0.28 0.37 0.42 0.42 0.42 0.43 0.44 0.48 0.51 0.52 0.51 0.49
0.19 0.16 0.13 0.13 0.11 0.09 0.09 0.10 0.12 0.12 0.11 0.12 0.12 0.10 0.04 0.01 0.01 0.02 0.02 0.01 0.02 0.02 0.02 0.04 0.05 0.06 0.08 0.10 0.10 0.10 0.12 0.16 0.27 0.40 0.44 0.42 0.41 0.44 0.48 0.53 0.58 0.62 0.63
0.33 0.27 0.21 0.18 0.16 0.14 0.12 0.14 0.17 0.17 0.16 0.15 0.14 0.17 0.12 0.04 0.03 0.02 0.02 0.03 0.03 0.02 0.03 0.04 0.05 0.06 0.06 0.06 0.07 0.07 0.08 0.11 0.16 0.28 0.41 0.45 0.46 0.48 0.52 0.60 0.67 0.76 0.81
0.40 0.37 0.31 0.26 0.22 0.20 0.17 0.17 0.20 0.21 0.23 0.19 0.16 0.14 0.15 0.12 0.13 0.07 0.03 0.03 0.05 0.04 0.05 0.06 0.06 0.07 0.07 0.08 0.09 0.10 0.14 0.17 0.21 0.33 0.50 0.60 0.67 0.75 0.83 0.90 0.98 1.06 1.08
0.42 0.41 0.36 0.32 0.27 0.24 0.25 0.26 0.26 0.27 0.27 0.24 0.22 0.20 0.21 0.18 0.16 0.17 0.10 0.05 0.07 0.08 0.08 0.08 0.07 0.08 0.09 0.10 0.12 0.18 0.26 0.32 0.39 0.50 0.63 0.78 0.93 1.06 1.17 1.26 1.36 1.46 1.53
0.34 0.35 0.37 0.35 0.32 0.30 0.30 0.31 0.33 0.34 0.35 0.34 0.31 0.28 0.30 0.27 0.23 0.25 0.24 0.15 0.15 0.14 0.14 0.15 0.14 0.14 0.15 0.16 0.19 0.27 0.32 0.38 0.47 0.56 0.72 0.93 1.07 1.16 1.27 1.38 1.47 1.55 1.67
0.25 0.26 0.28 0.30 0.33 0.36 0.38 0.39 0.38 0.37 0.40 0.40 0.39 0.37 0.36 0.33 0.33 0.37 0.38 0.30 0.23 0.19 0.18 0.19 0.20 0.22 0.24 0.26 0.30 0.38 0.42 0.48 0.54 0.64 0.79 0.96 1.03 1.03 1.03 1.08 1.18 1.28 1.36
0.25 0.27 0.28 0.31 0.34 0.36 0.37 0.39 0.39 0.39 0.41 0.41 0.42 0.42 0.40 0.38 0.38 0.40 0.43 0.49 0.47 0.38 0.33 0.32 0.33 0.38 0.42 0.44 0.49 0.54 0.50 0.56 0.58 0.62 0.72 0.84 0.89 0.81 0.74 0.78 0.88 0.98 1.07
0.21 0.22 0.26 0.28 0.30 0.31 0.33 0.35 0.35 0.35 0.35 0.35 0.36 0.38 0.39 0.38 0.39 0.42 0.47 0.57 0.70 0.71 0.59 0.51 0.52 0.55 0.56 0.56 0.58 0.53 0.47 0.56 0.59 0.59 0.62 0.65 0.66 0.64 0.60 0.60 0.64 0.69 0.74
0.15 0.17 0.19 0.22 0.23 0.24 0.26 0.27 0.27 0.27 0.28 0.29 0.30 0.33 0.35 0.36 0.39 0.43 0.48 0.57 0.67 0.81 0.80 0.66 0.60 0.61 0.62 0.59 0.60 0.50 0.44 0.51 0.49 0.50 0.51 0.52 0.51 0.49 0.49 0.51 0.54 0.57 0.59
0.12 0.13 0.15 0.16 0.17 0.17 0.18 0.19 0.20 0.20 0.23 0.25 0.26 0.29 0.32 0.35 0.39 0.44 0.50 0.58 0.67 0.77 0.83 0.75 0.65 0.60 0.57 0.52 0.47 0.38 0.32 0.30 0.29 0.36 0.37 0.36 0.36 0.37 0.37 0.39 0.43 0.48 0.51
0.09 0.10 0.11 0.12 0.11 0.12 0.12 0.14 0.15 0.17 0.19 0.22 0.24 0.27 0.31 0.36 0.43 0.50 0.55 0.60 0.63 0.64 0.65 0.61 0.52 0.45 0.40 0.35 0.29 0.23 0.18 0.16 0.15 0.21 0.22 0.22 0.23 0.24 0.25 0.27 0.31 0.39 0.45
0.08 0.08 0.08 0.08 0.08 0.09 0.10 0.12 0.13 0.15 0.17 0.21 0.25 0.29 0.34 0.38 0.42 0.44 0.45 0.45 0.44 0.41 0.40 0.39 0.34 0.29 0.25 0.21 0.18 0.14 0.10 0.08 0.07 0.09 0.10 0.10 0.12 0.15 0.19 0.23 0.27 0.30 0.31
0.07 0.07 0.07 0.06 0.07 0.07 0.09 0.10 0.13 0.16 0.22 0.27 0.31 0.35 0.38 0.39 0.38 0.36 0.33 0.32 0.30 0.26 0.23 0.24 0.25 0.22 0.19 0.15 0.13 0.10 0.07 0.05 0.04 0.03 0.04 0.06 0.09 0.13 0.14 0.13 0.13 0.11 0.11
0.07 0.07 0.08 0.10 0.11 0.13 0.16 0.19 0.23 0.28 0.33 0.36 0.37 0.38 0.37 0.37 0.34 0.29 0.24 0.21 0.19 0.19 0.23 0.27 0.27 0.22 0.15 0.10 0.07 0.04 0.04 0.04 0.02 0.02 0.03 0.04 0.04 0.04 0.03 0.03 0.04 0.05 0.08
0.16 0.17 0.20 0.23 0.27 0.32 0.45 0.45 0.41 0.40 0.40 0.38 0.35 0.30 0.27 0.26 0.22 0.20 0.18 0.18 0.20 0.25 0.32 0.37 0.30 0.18 0.07 0.03 0.03 0.05 0.09 0.13 0.09 0.02 0.04 0.02 0.01 0.01 0.01 0.01 0.04 0.07 0.11
0.33 0.36 0.41 0.47 0.53 0.60 0.65 0.57 0.49 0.38 0.35 0.31 0.27 0.22 0.17 0.13 0.11 0.09 0.09 0.11 0.15 0.21 0.23 0.20 0.13 0.04 0.03 0.04 0.11 0.19 0.17 0.18 0.12 0.02 0.05 0.04 0.02 0.02 0.02 0.02 0.03 0.05 0.07
0.56 0.63 0.69 0.69 0.68 0.65 0.59 0.47 0.37 0.29 0.24 0.20 0.15 0.11 0.08 0.06 0.04 0.06 0.09 0.14 0.11 0.07 0.05 0.03 0.03 0.04 0.05 0.07 0.15 0.26 0.23 0.15 0.06 0.02 0.04 0.06 0.02 0.02 0.01 0.01 0.02 0.03 0.06
0.73 0.73 0.69 0.62 0.52 0.43 0.33 0.24 0.16 0.12 0.09 0.07 0.04 0.03 0.03 0.02 0.03 0.11 0.17 0.17 0.08 0.02 0.00 0.02 0.06 0.06 0.06 0.05 0.06 0.15 0.21 0.23 0.14 0.02 0.02 0.04 0.03 0.02 0.02 0.01 0.01 0.03 0.05
0.54 0.45 0.36 0.27 0.19 0.14 0.09 0.05 0.03 0.02 0.01 0.01 0.00 0.01 0.01 0.03 0.08 0.16 0.16 0.13 0.05 0.02 0.04 0.03 0.01 0.00 0.00 0.00 0.02 0.09 0.27 0.49 0.36 0.17 0.01 0.08 0.12 0.15 0.23 0.03 0.01 0.01 0.02

GEFSMA_prec_meanprecacc_096.txt.gz
Total_Precipitation_Accumulation
0.00 0.00 0.00 0.01 0.01 0.01 0.01 0.01 0.00 0.00 0.00 0.00 0.00 0.00 0.00 0.00 0.00 0.00 0.00 0.00 0.00 0.00 0.01 0.03 0.06 0.09 0.12 0.16 0.19 0.20 0.18 0.14 0.12 0.11 0.11 0.11 0.11 0.12 0.13 0.14 0.15 0.15 0.16
0.00 0.01 0.01 0.01 0.01 0.01 0.01 0.00 0.00 0.00 0.00 0.00 0.00 0.00 0.00 0.00 0.00 0.00 0.00 0.00 0.00 0.00 0.01 0.02 0.07 0.12 0.16 0.20 0.23 0.24 0.21 0.18 0.15 0.13 0.13 0.12 0.12 0.13 0.14 0.15 0.16 0.16 0.17
0.01 0.01 0.01 0.01 0.01 0.01 0.01 0.01 0.00 0.00 0.00 0.00 0.00 0.00 0.00 0.00 0.00 0.00 0.00 0.00 0.00 0.00 0.01 0.02 0.07 0.11 0.15 0.20 0.22 0.26 0.27 0.25 0.21 0.18 0.16 0.16 0.15 0.15 0.16 0.17 0.19 0.19 0.20
0.01 0.01 0.01 0.01 0.01 0.01 0.01 0.01 0.02 0.02 0.02 0.01 0.01 0.01 0.00 0.00 0.00 0.00 0.00 0.01 0.01 0.00 0.01 0.01 0.03 0.07 0.11 0.15 0.19 0.24 0.30 0.31 0.29 0.26 0.23 0.21 0.20 0.20 0.21 0.22 0.23 0.25 0.26
0.04 0.03 0.02 0.03 0.03 0.02 0.02 0.03 0.02 0.03 0.02 0.02 0.01 0.01 0.01 0.01 0.01 0.00 0.01 0.01 0.01 0.01 0.01 0.01 0.01 0.02 0.05 0.09 0.12 0.21 0.31 0.37 0.36 0.34 0.33 0.32 0.31 0.31 0.32 0.33 0.34 0.34 0.35
0.10 0.07 0.05 0.04 0.05 0.04 0.04 0.05 0.05 0.04 0.03 0.03 0.03 0.02 0.01 0.01 0.01 0.01 0.01 0.01 0.01 0.01 0.01 0.02 0.02 0.02 0.02 0.06 0.12 0.20 0.30 0.37 0.41 0.39 0.39 0.40 0.40 0.40 0.42 0.45 0.45 0.43 0.42
0.17 0.15 0.10 0.10 0.10 0.09 0.10 0.10 0.09 0.07 0.06 0.08 0.07 0.04 0.02 0.01 0.01 0.01 0.01 0.01 0.01 0.02 0.02 0.02 0.03 0.04 0.06 0.08 0.12 0.16 0.21 0.29 0.39 0.43 0.43 0.43 0.45 0.47 0.51 0.54 0.57 0.56 0.55
0.29 0.23 0.18 0.17 0.15 0.12 0.12 0.11 0.12 0.12 0.11 0.13 0.12 0.11 0.04 0.01 0.01 0.02 0.02 0.01 0.02 0.02 0.02 0.04 0.05 0.06 0.08 0.10 0.11 0.11 0.13 0.17 0.29 0.42 0.47 0.45 0.44 0.46 0.52 0.58 0.64 0.68 0.69
0.45 0.38 0.31 0.26 0.21 0.17 0.14 0.15 0.18 0.18 0.16 0.15 0.15 0.18 0.13 0.05 0.03 0.02 0.02 0.03 0.03 0.02 0.03 0.04 0.05 0.06 0.06 0.06 0.07 0.07 0.08 0.11 0.16 0.30 0.43 0.48 0.49 0.52 0.58 0.66 0.74 0.83 0.87
0.55 0.50 0.42 0.35 0.29 0.25 0.20 0.19 0.21 0.23 0.24 0.20 0.16 0.15 0.15 0.13 0.13 0.07 0.03 0.03 0.05 0.04 0.05 0.06 0.06 0.07 0.08 0.08 0.09 0.11 0.15 0.18 0.23 0.35 0.53 0.63 0.70 0.79 0.88 0.96 1.05 1.15 1.17
0.56 0.55 0.51 0.46 0.38 0.32 0.31 0.30 0.29 0.29 0.29 0.27 0.24 0.22 0.22 0.19 0.17 0.18 0.10 0.05 0.07 0.08 0.08 0.08 0.07 0.08 0.09 0.10 0.13 0.19 0.27 0.32 0.39 0.51 0.66 0.83 0.98 1.11 1.23 1.31 1.40 1.51 1.61
0.48 0.47 0.49 0.47 0.44 0.40 0.38 0.37 0.38 0.38 0.37 0.36 0.33 0.29 0.30 0.28 0.23 0.25 0.24 0.16 0.15 0.14 0.14 0.15 0.14 0.14 0.15 0.16 0.20 0.28 0.33 0.39 0.47 0.58 0.75 0.96 1.09 1.19 1.31 1.42 1.50 1.58 1.71
0.41 0.40 0.41 0.41 0.43 0.45 0.47 0.47 0.45 0.43 0.45 0.43 0.42 0.38 0.37 0.34 0.33 0.37 0.38 0.30 0.24 0.19 0.18 0.19 0.20 0.22 0.24 0.26 0.31 0.40 0.42 0.48 0.55 0.65 0.81 0.97 1.05 1.04 1.04 1.09 1.19 1.29 1.38
0.39 0.40 0.40 0.42 0.43 0.45 0.45 0.46 0.45 0.44 0.45 0.44 0.44 0.43 0.41 0.38 0.38 0.40 0.44 0.49 0.48 0.38 0.33 0.32 0.33 0.38 0.42 0.44 0.50 0.54 0.51 0.57 0.58 0.63 0.73 0.85 0.89 0.82 0.75 0.78 0.88 0.99 1.08
0.37 0.38 0.39 0.39 0.39 0.39 0.39 0.40 0.40 0.38 0.38 0.38 0.38 0.40 0.40 0.39 0.39 0.42 0.47 0.57 0.70 0.72 0.60 0.51 0.52 0.55 0.56 0.56 0.59 0.53 0.48 0.57 0.60 0.60 0.63 0.66 0.67 0.64 0.61 0.61 0.64 0.69 0.74
0.31 0.31 0.32 0.32 0.31 0.31 0.31 0.32 0.31 0.30 0.30 0.31 0.32 0.34 0.36 0.37 0.39 0.43 0.49 0.57 0.67 0.81 0.81 0.66 0.60 0.61 0.62 0.59 0.60 0.50 0.44 0.52 0.50 0.50 0.52 0.53 0.51 0.50 0.50 0.52 0.54 0.58 0.59
0.20 0.21 0.22 0.22 0.23 0.22 0.22 0.23 0.23 0.23 0.25 0.27 0.28 0.30 0.33 0.35 0.40 0.44 0.50 0.58 0.67 0.77 0.83 0.75 0.65 0.60 0.57 0.52 0.47 0.38 0.32 0.30 0.29 0.37 0.37 0.36 0.37 0.38 0.38 0.39 0.44 0.49 0.52
0.14 0.14 0.15 0.16 0.16 0.15 0.15 0.16 0.17 0.19 0.21 0.24 0.26 0.28 0.32 0.36 0.44 0.50 0.55 0.60 0.63 0.64 0.65 0.61 0.52 0.45 0.41 0.35 0.29 0.23 0.19 0.16 0.15 0.22 0.23 0.22 0.23 0.24 0.25 0.27 0.31 0.39 0.45
0.12 0.11 0.10 0.10 0.10 0.10 0.12 0.14 0.15 0.17 0.19 0.23 0.26 0.30 0.34 0.38 0.42 0.44 0.45 0.45 0.44 0.41 0.40 0.39 0.34 0.29 0.25 0.21 0.18 0.14 0.10 0.08 0.07 0.09 0.10 0.10 0.12 0.16 0.19 0.23 0.27 0.30 0.32
0.10 0.08 0.08 0.08 0.08 0.08 0.10 0.12 0.14 0.19 0.24 0.29 0.33 0.36 0.39 0.40 0.38 0.36 0.33 0.32 0.30 0.26 0.24 0.24 0.25 0.22 0.19 0.15 0.13 0.10 0.07 0.05 0.04 0.03 0.04 0.06 0.09 0.13 0.14 0.13 0.13 0.12 0.12
0.08 0.08 0.09 0.10 0.11 0.13 0.17 0.20 0.24 0.29 0.33 0.37 0.38 0.38 0.38 0.38 0.35 0.29 0.24 0.21 0.19 0.19 0.23 0.27 0.27 0.22 0.15 0.10 0.07 0.04 0.04 0.04 0.02 0.02 0.04 0.04 0.04 0.04 0.03 0.03 0.05 0.06 0.09
0.16 0.17 0.20 0.23 0.27 0.32 0.46 0.45 0.41 0.40 0.40 0.38 0.35 0.31 0.28 0.26 0.22 0.20 0.18 0.18 0.20 0.25 0.32 0.37 0.30 0.18 0.07 0.03 0.03 0.05 0.09 0.14 0.09 0.02 0.04 0.02 0.01 0.01 0.01 0.02 0.06 0.09 0.12
0.33 0.37 0.41 0.47 0.53 0.60 0.65 0.57 0.49 0.39 0.35 0.32 0.27 0.22 0.17 0.14 0.11 0.09 0.09 0.11 0.15 0.21 0.23 0.20 0.13 0.04 0.03 0.04 0.11 0.19 0.17 0.18 0.12 0.02 0.05 0.04 0.02 0.03 0.02 0.03 0.06 0.08 0.09
0.57 0.64 0.70 0.70 0.68 0.66 0.59 0.47 0.37 0.29 0.24 0.20 0.15 0.11 0.08 0.06 0.04 0.06 0.09 0.14 0.11 0.07 0.05 0.03 0.03 0.04 0.05 0.07 0.15 0.26 0.23 0.16 0.06 0.02 0.04 0.06 0.02 0.02 0.01 0.02 0.03 0.05 0.08
0.73 0.74 0.70 0.63 0.54 0.44 0.34 0.24 0.16 0.12 0.09 0.07 0.04 0.03 0.03 0.02 0.03 0.11 0.17 0.17 0.08 0.02 0.00 0.02 0.06 0.06 0.06 0.05 0.06 0.15 0.21 0.23 0.14 0.02 0.02 0.04 0.03 0.02 0.02 0.01 0.01 0.03 0.06
0.54 0.46 0.37 0.28 0.20 0.14 0.09 0.06 0.04 0.02 0.01 0.01 0.00 0.01 0.01 0.03 0.08 0.16 0.16 0.13 0.05 0.02 0.04 0.03 0.01 0.00 0.00 0.00 0.02 0.09 0.27 0.49 0.36 0.17 0.01 0.08 0.12 0.15 0.23 0.03 0.01 0.01 0.02

GEFSMA_prec_meanprecacc_102.txt.gz
Total_Precipitation_Accumulation
0.02 0.01 0.01 0.01 0.01 0.01 0.01 0.01 0.00 0.00 0.00 0.00 0.00 0.00 0.00 0.00 0.00 0.00 0.00 0.00 0.00 0.00 0.01 0.03 0.06 0.10 0.14 0.17 0.21 0.22 0.19 0.15 0.13 0.13 0.12 0.11 0.12 0.12 0.14 0.14 0.15 0.16 0.17
0.02 0.02 0.01 0.02 0.02 0.01 0.01 0.00 0.00 0.00 0.00 0.00 0.00 0.00 0.00 0.00 0.00 0.00 0.00 0.00 0.00 0.00 0.01 0.03 0.08 0.13 0.18 0.22 0.25 0.25 0.22 0.18 0.15 0.14 0.13 0.13 0.13 0.14 0.15 0.16 0.17 0.17 0.18
0.02 0.02 0.02 0.01 0.01 0.01 0.01 0.01 0.00 0.01 0.00 0.00 0.00 0.00 0.00 0.00 0.00 0.00 0.00 0.00 0.00 0.00 0.01 0.03 0.07 0.11 0.17 0.21 0.24 0.28 0.29 0.25 0.22 0.19 0.17 0.16 0.16 0.16 0.17 0.19 0.20 0.21 0.21
0.03 0.02 0.02 0.02 0.02 0.01 0.01 0.01 0.02 0.02 0.02 0.02 0.02 0.02 0.01 0.00 0.00 0.00 0.00 0.01 0.01 0.00 0.01 0.01 0.03 0.07 0.12 0.16 0.20 0.26 0.32 0.33 0.29 0.26 0.24 0.22 0.21 0.22 0.24 0.25 0.27 0.28 0.29
0.06 0.04 0.03 0.04 0.04 0.03 0.03 0.03 0.02 0.03 0.04 0.04 0.04 0.02 0.01 0.01 0.01 0.00 0.01 0.01 0.01 0.01 0.01 0.01 0.01 0.03 0.06 0.10 0.13 0.22 0.32 0.39 0.37 0.34 0.33 0.33 0.32 0.32 0.34 0.36 0.37 0.38 0.38
0.12 0.09 0.06 0.05 0.06 0.06 0.06 0.07 0.07 0.07 0.06 0.06 0.05 0.03 0.01 0.01 0.01 0.01 0.01 0.01 0.01 0.01 0.01 0.02 0.02 0.02 0.03 0.06 0.13 0.20 0.31 0.39 0.41 0.40 0.40 0.41 0.41 0.42 0.44 0.47 0.48 0.47 0.46
0.20 0.17 0.12 0.11 0.12 0.11 0.12 0.14 0.14 0.12 0.10 0.11 0.09 0.05 0.02 0.01 0.01 0.01 0.01 0.01 0.01 0.02 0.02 0.02 0.03 0.04 0.06 0.08 0.13 0.17 0.22 0.30 0.40 0.45 0.45 0.45 0.46 0.49 0.53 0.57 0.60 0.60 0.58
0.32 0.26 0.21 0.20 0.17 0.15 0.16 0.17 0.18 0.17 0.16 0.16 0.14 0.12 0.05 0.01 0.01 0.02 0.02 0.01 0.02 0.02 0.02 0.04 0.05 0.06 0.08 0.10 0.11 0.11 0.13 0.18 0.30 0.44 0.49 0.47 0.46 0.48 0.54 0.62 0.68 0.73 0.74
0.49 0.42 0.35 0.30 0.25 0.20 0.18 0.19 0.22 0.22 0.20 0.18 0.17 0.19 0.13 0.05 0.04 0.02 0.02 0.03 0.03 0.02 0.03 0.04 0.05 0.06 0.06 0.06 0.07 0.07 0.08 0.11 0.17 0.32 0.45 0.50 0.51 0.54 0.61 0.70 0.78 0.88 0.92
0.61 0.55 0.47 0.41 0.34 0.29 0.23 0.23 0.26 0.27 0.28 0.24 0.19 0.17 0.17 0.14 0.15 0.08 0.03 0.04 0.05 0.04 0.05 0.06 0.06 0.07 0.08 0.08 0.09 0.11 0.15 0.19 0.24 0.38 0.56 0.67 0.74 0.83 0.93 1.01 1.09 1.19 1.22
0.63 0.63 0.58 0.52 0.45 0.40 0.38 0.36 0.35 0.35 0.34 0.31 0.28 0.25 0.25 0.22 0.20 0.20 0.12 0.06 0.07 0.08 0.08 0.08 0.07 0.08 0.09 0.10 0.13 0.20 0.28 0.33 0.41 0.54 0.70 0.87 1.02 1.15 1.27 1.35 1.44 1.55 1.65
0.54 0.54 0.57 0.54 0.50 0.47 0.45 0.44 0.44 0.44 0.43 0.41 0.38 0.35 0.34 0.31 0.26 0.28 0.26 0.17 0.15 0.14 0.14 0.15 0.14 0.14 0.15 0.16 0.20 0.29 0.34 0.40 0.49 0.61 0.79 0.99 1.12 1.22 1.33 1.44 1.52 1.60 1.73
0.50 0.48 0.48 0.48 0.49 0.51 0.54 0.54 0.52 0.50 0.51 0.49 0.46 0.43 0.41 0.37 0.34 0.38 0.40 0.31 0.24 0.19 0.19 0.19 0.20 0.22 0.24 0.26 0.31 0.40 0.43 0.49 0.56 0.67 0.83 0.99 1.06 1.06 1.05 1.10 1.21 1.31 1.39
0.49 0.49 0.50 0.51 0.52 0.53 0.53 0.52 0.51 0.50 0.51 0.49 0.49 0.48 0.45 0.42 0.41 0.42 0.46 0.51 0.49 0.39 0.33 0.32 0.33 0.38 0.42 0.44 0.50 0.55 0.51 0.57 0.59 0.64 0.74 0.85 0.90 0.83 0.75 0.80 0.89 1.00 1.09
0.51 0.50 0.50 0.49 0.50 0.50 0.48 0.49 0.47 0.45 0.44 0.43 0.43 0.44 0.44 0.42 0.42 0.44 0.49 0.58 0.72 0.72 0.60 0.51 0.52 0.55 0.56 0.56 0.59 0.53 0.48 0.57 0.60 0.60 0.63 0.66 0.67 0.65 0.62 0.63 0.66 0.70 0.75
0.46 0.45 0.46 0.47 0.45 0.44 0.42 0.41 0.39 0.36 0.36 0.36 0.36 0.38 0.39 0.39 0.41 0.45 0.50 0.58 0.69 0.82 0.82 0.67 0.60 0.61 0.62 0.60 0.61 0.50 0.44 0.53 0.50 0.51 0.52 0.53 0.52 0.50 0.51 0.53 0.56 0.58 0.60
0.35 0.34 0.34 0.35 0.36 0.35 0.33 0.33 0.31 0.30 0.31 0.32 0.32 0.34 0.36 0.38 0.41 0.45 0.51 0.59 0.68 0.78 0.84 0.76 0.65 0.60 0.57 0.52 0.47 0.38 0.32 0.30 0.30 0.37 0.37 0.36 0.37 0.39 0.38 0.40 0.45 0.50 0.52
0.27 0.26 0.26 0.25 0.25 0.25 0.25 0.25 0.26 0.26 0.28 0.30 0.32 0.34 0.37 0.41 0.48 0.53 0.58 0.63 0.65 0.66 0.67 0.63 0.53 0.46 0.41 0.35 0.30 0.23 0.19 0.16 0.15 0.22 0.23 0.23 0.24 0.25 0.26 0.27 0.32 0.40 0.46
0.23 0.22 0.21 0.21 0.20 0.19 0.20 0.21 0.22 0.24 0.26 0.29 0.33 0.36 0.40 0.44 0.47 0.48 0.48 0.48 0.46 0.43 0.42 0.41 0.36 0.30 0.26 0.22 0.19 0.14 0.10 0.09 0.07 0.09 0.10 0.10 0.12 0.16 0.19 0.23 0.27 0.31 0.33
0.18 0.18 0.18 0.18 0.17 0.16 0.17 0.18 0.20 0.23 0.29 0.34 0.38 0.41 0.44 0.44 0.42 0.40 0.37 0.35 0.32 0.28 0.26 0.26 0.27 0.23 0.20 0.16 0.13 0.10 0.07 0.05 0.04 0.03 0.04 0.06 0.09 0.13 0.15 0.14 0.13 0.12 0.12
0.13 0.13 0.15 0.16 0.16 0.18 0.22 0.25 0.28 0.33 0.37 0.40 0.41 0.41 0.40 0.40 0.37 0.31 0.26 0.23 0.20 0.20 0.24 0.28 0.28 0.23 0.15 0.10 0.07 0.04 0.04 0.04 0.02 0.02 0.04 0.04 0.05 0.04 0.03 0.03 0.05 0.06 0.09
0.18 0.19 0.23 0.26 0.30 0.35 0.48 0.48 0.44 0.43 0.43 0.40 0.37 0.32 0.29 0.28 0.24 0.22 0.20 0.19 0.21 0.25 0.33 0.37 0.30 0.18 0.07 0.04 0.03 0.05 0.09 0.14 0.09 0.02 0.04 0.03 0.01 0.01 0.01 0.03 0.08 0.10 0.13
0.35 0.38 0.43 0.49 0.55 0.62 0.67 0.59 0.51 0.41 0.37 0.34 0.29 0.24 0.19 0.15 0.12 0.10 0.10 0.12 0.16 0.21 0.23 0.20 0.13 0.04 0.03 0.04 0.11 0.19 0.17 0.18 0.12 0.02 0.05 0.04 0.02 0.03 0.02 0.04 0.08 0.09 0.10
0.58 0.66 0.71 0.72 0.70 0.67 0.61 0.49 0.39 0.31 0.26 0.21 0.17 0.13 0.10 0.07 0.06 0.07 0.10 0.15 0.11 0.07 0.05 0.03 0.03 0.04 0.05 0.07 0.15 0.26 0.23 0.16 0.06 0.02 0.04 0.06 0.02 0.02 0.02 0.03 0.04 0.06 0.09
0.75 0.75 0.71 0.64 0.55 0.46 0.37 0.27 0.19 0.14 0.11 0.08 0.06 0.04 0.04 0.03 0.04 0.12 0.18 0.19 0.09 0.02 0.01 0.02 0.06 0.06 0.06 0.06 0.06 0.15 0.21 0.23 0.14 0.02 0.02 0.04 0.03 0.02 0.02 0.01 0.02 0.04 0.08
0.56 0.48 0.38 0.30 0.22 0.17 0.13 0.09 0.07 0.05 0.03 0.02 0.02 0.02 0.03 0.04 0.09 0.17 0.17 0.14 0.06 0.02 0.04 0.03 0.01 0.00 0.00 0.00 0.02 0.09 0.27 0.50 0.37 0.17 0.01 0.08 0.12 0.15 0.23 0.03 0.01 0.02 0.03

GEFSMA_prec_meanprecacc_108.txt.gz
Total_Precipitation_Accumulation
0.03 0.03 0.02 0.02 0.02 0.01 0.01 0.01 0.00 0.00 0.00 0.00 0.00 0.00 0.00 0.00 0.00 0.00 0.00 0.00 0.00 0.00 0.01 0.03 0.07 0.10 0.15 0.19 0.22 0.23 0.20 0.16 0.13 0.13 0.13 0.12 0.12 0.13 0.14 0.15 0.16 0.16 0.18
0.03 0.03 0.03 0.03 0.02 0.01 0.01 0.00 0.00 0.00 0.00 0.00 0.00 0.00 0.00 0.00 0.00 0.00 0.00 0.00 0.00 0.00 0.01 0.03 0.08 0.13 0.19 0.24 0.26 0.27 0.23 0.19 0.16 0.15 0.14 0.13 0.14 0.14 0.15 0.17 0.18 0.18 0.19
0.04 0.04 0.04 0.03 0.02 0.02 0.01 0.01 0.01 0.01 0.00 0.00 0.00 0.00 0.00 0.00 0.00 0.00 0.00 0.00 0.00 0.00 0.01 0.03 0.07 0.12 0.18 0.23 0.25 0.29 0.30 0.26 0.22 0.19 0.17 0.17 0.16 0.17 0.18 0.20 0.22 0.23 0.23
0.05 0.05 0.05 0.04 0.03 0.02 0.02 0.02 0.02 0.02 0.02 0.02 0.02 0.02 0.01 0.01 0.01 0.00 0.01 0.01 0.01 0.01 0.01 0.01 0.03 0.07 0.13 0.17 0.21 0.27 0.33 0.34 0.30 0.27 0.24 0.22 0.22 0.23 0.24 0.26 0.28 0.30 0.31
0.09 0.06 0.05 0.07 0.06 0.04 0.04 0.04 0.03 0.04 0.04 0.05 0.04 0.03 0.02 0.02 0.01 0.01 0.01 0.01 0.01 0.01 0.01 0.01 0.01 0.03 0.06 0.11 0.15 0.23 0.33 0.40 0.38 0.35 0.34 0.33 0.33 0.32 0.35 0.37 0.38 0.39 0.40
0.18 0.13 0.09 0.08 0.10 0.09 0.08 0.08 0.08 0.08 0.07 0.07 0.06 0.04 0.02 0.02 0.01 0.01 0.01 0.01 0.01 0.01 0.01 0.02 0.02 0.02 0.03 0.07 0.14 0.21 0.32 0.40 0.42 0.41 0.41 0.42 0.42 0.43 0.45 0.48 0.49 0.48 0.48
0.27 0.23 0.17 0.16 0.16 0.17 0.17 0.17 0.15 0.13 0.12 0.13 0.11 0.06 0.03 0.02 0.01 0.01 0.01 0.01 0.01 0.02 0.02 0.02 0.03 0.04 0.06 0.08 0.13 0.17 0.22 0.31 0.41 0.46 0.46 0.46 0.47 0.50 0.54 0.58 0.61 0.61 0.60
0.39 0.32 0.26 0.23 0.20 0.19 0.21 0.20 0.20 0.20 0.19 0.19 0.18 0.15 0.07 0.02 0.01 0.02 0.02 0.02 0.02 0.03 0.03 0.04 0.05 0.06 0.08 0.10 0.11 0.11 0.13 0.19 0.32 0.46 0.50 0.49 0.47 0.50 0.56 0.64 0.70 0.75 0.76
0.58 0.49 0.40 0.34 0.27 0.22 0.20 0.22 0.25 0.26 0.24 0.21 0.20 0.23 0.16 0.07 0.05 0.04 0.04 0.04 0.05 0.04 0.05 0.05 0.06 0.06 0.07 0.07 0.07 0.07 0.09 0.12 0.18 0.34 0.48 0.53 0.54 0.56 0.64 0.74 0.81 0.90 0.94
0.71 0.64 0.54 0.47 0.39 0.33 0.27 0.28 0.30 0.32 0.33 0.28 0.23 0.21 0.21 0.18 0.19 0.12 0.06 0.06 0.08 0.07 0.07 0.08 0.08 0.08 0.08 0.08 0.09 0.11 0.15 0.19 0.25 0.40 0.59 0.70 0.77 0.86 0.96 1.04 1.12 1.22 1.24
0.75 0.72 0.65 0.58 0.50 0.45 0.42 0.41 0.39 0.39 0.39 0.36 0.34 0.31 0.32 0.28 0.26 0.26 0.17 0.10 0.11 0.11 0.12 0.11 0.10 0.10 0.10 0.10 0.13 0.20 0.28 0.34 0.42 0.56 0.73 0.90 1.05 1.18 1.30 1.38 1.47 1.57 1.67
0.66 0.63 0.64 0.59 0.55 0.52 0.50 0.49 0.50 0.49 0.48 0.47 0.44 0.42 0.42 0.39 0.33 0.36 0.33 0.22 0.20 0.18 0.19 0.19 0.18 0.18 0.17 0.17 0.21 0.29 0.34 0.40 0.49 0.62 0.81 1.01 1.13 1.24 1.36 1.47 1.55 1.62 1.75
0.62 0.58 0.56 0.53 0.53 0.55 0.59 0.58 0.57 0.54 0.56 0.54 0.52 0.49 0.47 0.42 0.39 0.43 0.45 0.36 0.28 0.22 0.22 0.23 0.24 0.25 0.26 0.28 0.32 0.41 0.43 0.49 0.56 0.68 0.84 1.00 1.07 1.06 1.07 1.12 1.23 1.33 1.41
0.61 0.59 0.58 0.57 0.58 0.58 0.58 0.57 0.56 0.55 0.56 0.55 0.54 0.54 0.52 0.48 0.46 0.47 0.50 0.56 0.54 0.42 0.36 0.34 0.35 0.39 0.43 0.45 0.51 0.55 0.51 0.58 0.59 0.64 0.74 0.85 0.90 0.83 0.76 0.80 0.90 1.01 1.10
0.63 0.61 0.60 0.57 0.56 0.55 0.54 0.55 0.53 0.52 0.51 0.50 0.49 0.51 0.51 0.48 0.47 0.50 0.54 0.63 0.77 0.78 0.64 0.53 0.53 0.56 0.58 0.57 0.60 0.54 0.48 0.57 0.60 0.61 0.63 0.66 0.67 0.65 0.62 0.63 0.66 0.70 0.76
0.59 0.57 0.57 0.54 0.51 0.50 0.49 0.48 0.45 0.43 0.44 0.44 0.44 0.46 0.47 0.46 0.48 0.52 0.57 0.64 0.74 0.87 0.86 0.69 0.61 0.62 0.63 0.60 0.61 0.51 0.45 0.53 0.51 0.51 0.52 0.53 0.52 0.50 0.51 0.53 0.56 0.59 0.60
0.47 0.46 0.47 0.46 0.44 0.42 0.40 0.39 0.38 0.36 0.37 0.38 0.38 0.41 0.43 0.45 0.50 0.54 0.60 0.67 0.75 0.85 0.90 0.80 0.68 0.62 0.59 0.54 0.48 0.39 0.32 0.31 0.30 0.37 0.37 0.36 0.37 0.39 0.39 0.40 0.45 0.50 0.53
0.41 0.39 0.38 0.37 0.36 0.35 0.33 0.33 0.33 0.33 0.34 0.37 0.38 0.41 0.44 0.48 0.55 0.61 0.67 0.72 0.74 0.75 0.76 0.71 0.60 0.51 0.45 0.38 0.32 0.25 0.20 0.17 0.16 0.22 0.23 0.23 0.24 0.25 0.26 0.28 0.32 0.40 0.47
0.40 0.37 0.34 0.34 0.31 0.30 0.30 0.31 0.31 0.32 0.34 0.36 0.39 0.43 0.47 0.51 0.55 0.56 0.56 0.56 0.54 0.51 0.50 0.49 0.43 0.37 0.32 0.27 0.23 0.17 0.13 0.10 0.08 0.10 0.10 0.11 0.12 0.16 0.19 0.24 0.28 0.32 0.33
0.33 0.33 0.31 0.30 0.31 0.30 0.30 0.30 0.31 0.34 0.38 0.43 0.46 0.49 0.51 0.51 0.49 0.47 0.43 0.41 0.38 0.34 0.32 0.32 0.32 0.29 0.26 0.20 0.17 0.13 0.09 0.06 0.05 0.04 0.05 0.06 0.09 0.14 0.15 0.14 0.14 0.13 0.13
0.22 0.23 0.24 0.26 0.29 0.32 0.35 0.38 0.40 0.45 0.48 0.50 0.50 0.49 0.48 0.48 0.44 0.38 0.33 0.29 0.26 0.26 0.29 0.33 0.33 0.28 0.20 0.14 0.10 0.06 0.06 0.05 0.03 0.03 0.04 0.04 0.05 0.04 0.03 0.04 0.05 0.07 0.09
0.25 0.27 0.31 0.34 0.40 0.46 0.61 0.61 0.54 0.52 0.51 0.48 0.44 0.40 0.36 0.35 0.30 0.28 0.25 0.24 0.26 0.30 0.37 0.42 0.34 0.22 0.11 0.07 0.06 0.07 0.11 0.15 0.10 0.02 0.04 0.03 0.02 0.01 0.01 0.03 0.08 0.11 0.14
0.40 0.44 0.49 0.55 0.61 0.69 0.76 0.67 0.59 0.47 0.43 0.39 0.34 0.29 0.24 0.20 0.18 0.15 0.15 0.18 0.21 0.26 0.27 0.24 0.15 0.07 0.05 0.05 0.13 0.20 0.18 0.19 0.12 0.03 0.05 0.05 0.02 0.03 0.02 0.04 0.09 0.10 0.11
0.61 0.69 0.74 0.75 0.74 0.72 0.67 0.54 0.44 0.35 0.30 0.25 0.21 0.16 0.13 0.11 0.10 0.12 0.15 0.20 0.16 0.11 0.08 0.06 0.05 0.05 0.07 0.08 0.16 0.26 0.23 0.16 0.06 0.02 0.04 0.06 0.03 0.02 0.02 0.03 0.05 0.08 0.11
0.76 0.77 0.73 0.66 0.58 0.50 0.41 0.31 0.23 0.18 0.15 0.12 0.09 0.08 0.08 0.06 0.09 0.18 0.23 0.23 0.13 0.06 0.04 0.05 0.08 0.08 0.07 0.06 0.07 0.15 0.21 0.23 0.14 0.02 0.02 0.04 0.03 0.02 0.02 0.02 0.03 0.05 0.09
0.57 0.48 0.39 0.31 0.24 0.19 0.16 0.14 0.11 0.08 0.07 0.06 0.06 0.06 0.08 0.10 0.17 0.25 0.23 0.21 0.12 0.07 0.08 0.07 0.04 0.02 0.02 0.01 0.02 0.09 0.27 0.50 0.37 0.17 0.01 0.08 0.12 0.15 0.23 0.03 0.02 0.03 0.04

GEFSMA_prec_meanprecacc_114.txt.gz
Total_Precipitation_Accumulation
0.07 0.06 0.04 0.04 0.03 0.03 0.02 0.01 0.01 0.00 0.00 0.00 0.00 0.00 0.00 0.00 0.00 0.00 0.00 0.00 0.00 0.00 0.01 0.03 0.07 0.11 0.15 0.20 0.24 0.24 0.21 0.16 0.14 0.14 0.13 0.13 0.12 0.13 0.15 0.16 0.17 0.17 0.18
0.07 0.07 0.05 0.05 0.04 0.03 0.02 0.01 0.01 0.00 0.00 0.00 0.00 0.00 0.00 0.00 0.00 0.00 0.00 0.00 0.00 0.00 0.01 0.03 0.08 0.14 0.20 0.25 0.28 0.28 0.24 0.19 0.16 0.15 0.14 0.14 0.14 0.15 0.16 0.18 0.19 0.19 0.20
0.09 0.08 0.07 0.06 0.04 0.03 0.02 0.02 0.01 0.01 0.00 0.00 0.01 0.00 0.01 0.00 0.00 0.00 0.00 0.00 0.00 0.00 0.01 0.03 0.08 0.12 0.19 0.24 0.27 0.30 0.31 0.27 0.23 0.19 0.18 0.17 0.17 0.17 0.19 0.21 0.23 0.24 0.25
0.13 0.11 0.10 0.08 0.06 0.05 0.04 0.03 0.03 0.02 0.02 0.02 0.02 0.02 0.02 0.01 0.01 0.00 0.01 0.01 0.01 0.01 0.01 0.01 0.03 0.08 0.14 0.18 0.23 0.29 0.34 0.35 0.31 0.27 0.24 0.23 0.22 0.23 0.25 0.27 0.29 0.31 0.32
0.19 0.14 0.12 0.13 0.10 0.08 0.06 0.06 0.05 0.05 0.05 0.05 0.05 0.03 0.02 0.02 0.01 0.01 0.01 0.01 0.01 0.01 0.01 0.01 0.01 0.03 0.07 0.11 0.17 0.26 0.35 0.41 0.39 0.36 0.34 0.34 0.34 0.33 0.35 0.37 0.39 0.40 0.41
0.26 0.21 0.16 0.14 0.15 0.13 0.11 0.11 0.11 0.10 0.08 0.08 0.07 0.04 0.03 0.02 0.02 0.01 0.01 0.01 0.01 0.01 0.02 0.02 0.02 0.02 0.03 0.07 0.15 0.23 0.34 0.41 0.44 0.42 0.42 0.43 0.43 0.44 0.46 0.49 0.49 0.48 0.49
0.36 0.31 0.25 0.22 0.21 0.21 0.21 0.21 0.19 0.16 0.14 0.15 0.13 0.08 0.04 0.02 0.02 0.01 0.01 0.01 0.01 0.02 0.02 0.02 0.04 0.05 0.06 0.09 0.14 0.18 0.24 0.32 0.42 0.47 0.47 0.47 0.49 0.52 0.56 0.59 0.63 0.63 0.62
0.52 0.43 0.35 0.31 0.26 0.24 0.25 0.25 0.24 0.23 0.22 0.22 0.21 0.17 0.09 0.03 0.02 0.03 0.02 0.02 0.02 0.03 0.03 0.04 0.06 0.07 0.09 0.11 0.12 0.12 0.14 0.20 0.33 0.48 0.52 0.50 0.49 0.52 0.58 0.66 0.72 0.77 0.77
0.72 0.63 0.52 0.44 0.36 0.28 0.24 0.27 0.30 0.31 0.27 0.24 0.23 0.25 0.19 0.08 0.06 0.04 0.04 0.04 0.05 0.05 0.06 0.07 0.08 0.08 0.09 0.09 0.09 0.09 0.10 0.13 0.20 0.36 0.51 0.55 0.56 0.59 0.66 0.76 0.83 0.92 0.96
0.87 0.77 0.67 0.59 0.51 0.42 0.33 0.33 0.36 0.37 0.38 0.32 0.26 0.24 0.24 0.20 0.20 0.12 0.06 0.07 0.08 0.08 0.09 0.09 0.10 0.10 0.10 0.10 0.11 0.13 0.17 0.21 0.27 0.42 0.63 0.74 0.81 0.89 0.98 1.06 1.15 1.24 1.26
0.95 0.87 0.79 0.72 0.64 0.56 0.51 0.47 0.44 0.44 0.43 0.41 0.38 0.34 0.35 0.31 0.28 0.28 0.18 0.11 0.12 0.12 0.13 0.12 0.12 0.11 0.12 0.12 0.15 0.21 0.30 0.35 0.43 0.58 0.76 0.94 1.08 1.21 1.32 1.41 1.50 1.59 1.68
0.84 0.79 0.77 0.72 0.67 0.63 0.60 0.57 0.56 0.54 0.52 0.50 0.47 0.45 0.46 0.43 0.37 0.40 0.36 0.24 0.21 0.20 0.20 0.21 0.20 0.19 0.19 0.19 0.22 0.31 0.36 0.42 0.51 0.64 0.84 1.03 1.15 1.26 1.38 1.49 1.58 1.64 1.77
0.73 0.69 0.67 0.64 0.64 0.65 0.67 0.66 0.64 0.61 0.61 0.58 0.55 0.52 0.50 0.45 0.43 0.47 0.48 0.39 0.30 0.24 0.23 0.24 0.25 0.26 0.28 0.30 0.34 0.43 0.46 0.51 0.59 0.70 0.86 1.01 1.08 1.07 1.08 1.13 1.24 1.34 1.42
0.69 0.68 0.69 0.68 0.67 0.67 0.66 0.64 0.63 0.61 0.62 0.59 0.57 0.56 0.54 0.50 0.49 0.50 0.54 0.60 0.57 0.45 0.38 0.36 0.36 0.41 0.45 0.48 0.54 0.59 0.54 0.60 0.61 0.66 0.76 0.87 0.91 0.84 0.77 0.81 0.91 1.02 1.11
0.71 0.69 0.70 0.68 0.66 0.64 0.62 0.61 0.59 0.56 0.55 0.54 0.52 0.53 0.53 0.50 0.50 0.53 0.58 0.68 0.82 0.82 0.67 0.56 0.56 0.60 0.61 0.61 0.65 0.58 0.51 0.60 0.62 0.62 0.65 0.68 0.69 0.66 0.63 0.63 0.67 0.71 0.77
0.68 0.66 0.66 0.65 0.61 0.58 0.57 0.55 0.51 0.47 0.48 0.48 0.48 0.50 0.51 0.51 0.53 0.58 0.63 0.71 0.81 0.94 0.91 0.73 0.65 0.66 0.67 0.65 0.66 0.54 0.48 0.56 0.53 0.53 0.54 0.55 0.53 0.51 0.51 0.54 0.57 0.59 0.61
0.57 0.56 0.57 0.57 0.55 0.51 0.48 0.48 0.46 0.43 0.43 0.43 0.43 0.46 0.48 0.51 0.56 0.61 0.67 0.75 0.83 0.92 0.97 0.85 0.71 0.65 0.63 0.57 0.52 0.42 0.36 0.34 0.33 0.41 0.41 0.39 0.39 0.40 0.39 0.41 0.45 0.51 0.54
0.55 0.53 0.52 0.52 0.50 0.46 0.43 0.42 0.42 0.42 0.43 0.44 0.45 0.47 0.50 0.54 0.61 0.67 0.73 0.79 0.81 0.81 0.82 0.77 0.64 0.55 0.49 0.42 0.36 0.29 0.25 0.22 0.20 0.27 0.27 0.26 0.26 0.27 0.27 0.28 0.33 0.40 0.47
0.55 0.55 0.52 0.51 0.48 0.45 0.43 0.42 0.41 0.42 0.43 0.46 0.48 0.51 0.54 0.58 0.62 0.63 0.63 0.63 0.61 0.59 0.57 0.56 0.49 0.43 0.38 0.33 0.28 0.22 0.18 0.15 0.13 0.15 0.14 0.14 0.15 0.18 0.21 0.24 0.28 0.32 0.34
0.45 0.49 0.50 0.51 0.50 0.47 0.46 0.45 0.45 0.46 0.49 0.52 0.56 0.59 0.61 0.60 0.58 0.56 0.53 0.51 0.48 0.45 0.42 0.41 0.41 0.36 0.32 0.27 0.24 0.20 0.16 0.12 0.10 0.09 0.10 0.10 0.12 0.15 0.16 0.14 0.14 0.13 0.13
0.34 0.37 0.40 0.45 0.50 0.53 0.54 0.54 0.55 0.59 0.62 0.62 0.61 0.60 0.59 0.60 0.56 0.50 0.45 0.42 0.39 0.39 0.41 0.44 0.43 0.36 0.27 0.21 0.17 0.13 0.13 0.12 0.10 0.08 0.09 0.08 0.08 0.06 0.04 0.04 0.06 0.07 0.10
0.37 0.39 0.44 0.48 0.55 0.63 0.81 0.80 0.72 0.69 0.68 0.64 0.59 0.52 0.48 0.48 0.44 0.42 0.40 0.38 0.40 0.44 0.51 0.54 0.46 0.32 0.19 0.14 0.13 0.15 0.18 0.22 0.17 0.07 0.08 0.06 0.04 0.03 0.02 0.04 0.08 0.11 0.14
0.52 0.55 0.59 0.65 0.71 0.80 0.89 0.81 0.72 0.60 0.56 0.51 0.46 0.40 0.34 0.30 0.29 0.26 0.27 0.31 0.34 0.39 0.41 0.36 0.27 0.17 0.14 0.14 0.22 0.28 0.25 0.25 0.17 0.07 0.08 0.07 0.04 0.05 0.04 0.05 0.09 0.11 0.11
0.70 0.78 0.84 0.84 0.82 0.80 0.76 0.64 0.56 0.46 0.40 0.35 0.30 0.25 0.22 0.19 0.18 0.20 0.25 0.31 0.27 0.23 0.20 0.17 0.16 0.16 0.17 0.19 0.26 0.34 0.30 0.22 0.12 0.07 0.07 0.09 0.04 0.04 0.03 0.04 0.06 0.08 0.11
0.82 0.82 0.79 0.72 0.63 0.55 0.48 0.37 0.30 0.25 0.22 0.20 0.17 0.17 0.16 0.14 0.18 0.28 0.33 0.34 0.24 0.17 0.16 0.18 0.20 0.20 0.20 0.19 0.18 0.25 0.28 0.29 0.19 0.07 0.05 0.06 0.04 0.03 0.03 0.02 0.03 0.06 0.09
0.62 0.53 0.43 0.35 0.28 0.23 0.22 0.19 0.16 0.12 0.11 0.11 0.12 0.13 0.17 0.20 0.28 0.38 0.35 0.32 0.23 0.18 0.21 0.21 0.17 0.14 0.12 0.11 0.12 0.17 0.34 0.55 0.41 0.21 0.04 0.10 0.13 0.16 0.24 0.04 0.02 0.03 0.04

GEFSMA_prec_meanprecacc_120.txt.gz
Total_Precipitation_Accumulation
0.10 0.10 0.08 0.08 0.07 0.06 0.05 0.03 0.01 0.01 0.00 0.00 0.00 0.00 0.00 0.00 0.00 0.00 0.00 0.00 0.00 0.01 0.02 0.04 0.08 0.12 0.16 0.21 0.24 0.25 0.21 0.17 0.14 0.14 0.13 0.13 0.13 0.13 0.15 0.16 0.17 0.18 0.19
0.10 0.10 0.09 0.08 0.07 0.06 0.04 0.02 0.02 0.01 0.00 0.00 0.00 0.00 0.00 0.00 0.00 0.00 0.00 0.00 0.00 0.00 0.01 0.03 0.09 0.15 0.21 0.26 0.30 0.29 0.25 0.20 0.17 0.16 0.15 0.14 0.15 0.15 0.16 0.18 0.19 0.20 0.21
0.13 0.11 0.11 0.09 0.07 0.07 0.05 0.03 0.03 0.02 0.01 0.01 0.01 0.00 0.01 0.00 0.00 0.00 0.00 0.00 0.00 0.00 0.01 0.03 0.08 0.14 0.21 0.26 0.29 0.32 0.32 0.28 0.24 0.20 0.18 0.18 0.17 0.18 0.19 0.22 0.23 0.25 0.25
0.19 0.17 0.15 0.13 0.11 0.09 0.08 0.06 0.04 0.03 0.03 0.03 0.02 0.02 0.02 0.01 0.01 0.01 0.01 0.01 0.01 0.01 0.01 0.01 0.04 0.09 0.16 0.20 0.25 0.30 0.36 0.36 0.32 0.28 0.25 0.23 0.23 0.24 0.26 0.28 0.29 0.31 0.33
0.26 0.20 0.17 0.18 0.17 0.13 0.11 0.10 0.07 0.06 0.06 0.05 0.05 0.03 0.02 0.02 0.01 0.01 0.01 0.01 0.01 0.01 0.02 0.02 0.02 0.03 0.07 0.12 0.18 0.28 0.37 0.43 0.40 0.37 0.35 0.35 0.35 0.35 0.36 0.38 0.39 0.40 0.42
0.34 0.29 0.22 0.20 0.22 0.20 0.17 0.15 0.14 0.12 0.09 0.09 0.07 0.04 0.03 0.02 0.02 0.02 0.02 0.02 0.02 0.02 0.02 0.02 0.03 0.03 0.03 0.08 0.16 0.24 0.36 0.43 0.45 0.44 0.43 0.44 0.45 0.46 0.47 0.49 0.50 0.49 0.50
0.44 0.39 0.32 0.29 0.28 0.27 0.27 0.26 0.24 0.20 0.17 0.16 0.14 0.08 0.04 0.03 0.02 0.02 0.02 0.01 0.02 0.02 0.02 0.03 0.04 0.05 0.06 0.09 0.14 0.19 0.25 0.33 0.44 0.50 0.49 0.49 0.50 0.53 0.57 0.60 0.63 0.63 0.63
0.61 0.51 0.41 0.37 0.33 0.30 0.31 0.31 0.30 0.28 0.25 0.24 0.22 0.18 0.09 0.04 0.02 0.03 0.03 0.02 0.02 0.03 0.04 0.05 0.06 0.07 0.09 0.12 0.12 0.12 0.15 0.21 0.35 0.50 0.54 0.52 0.51 0.53 0.60 0.68 0.73 0.77 0.78
0.83 0.73 0.60 0.51 0.42 0.36 0.32 0.34 0.38 0.37 0.32 0.27 0.25 0.27 0.20 0.10 0.07 0.05 0.05 0.05 0.05 0.06 0.06 0.07 0.08 0.09 0.10 0.10 0.10 0.10 0.11 0.14 0.22 0.39 0.54 0.59 0.60 0.62 0.69 0.79 0.85 0.94 0.97
0.99 0.90 0.80 0.71 0.60 0.51 0.42 0.41 0.45 0.46 0.46 0.39 0.31 0.28 0.27 0.23 0.22 0.14 0.07 0.07 0.09 0.08 0.09 0.10 0.10 0.11 0.11 0.11 0.12 0.14 0.18 0.21 0.28 0.44 0.66 0.78 0.85 0.93 1.03 1.10 1.19 1.28 1.28
1.09 1.00 0.90 0.84 0.77 0.68 0.62 0.57 0.54 0.55 0.53 0.49 0.44 0.40 0.39 0.34 0.31 0.31 0.20 0.12 0.12 0.13 0.13 0.13 0.12 0.12 0.12 0.13 0.15 0.22 0.30 0.36 0.44 0.59 0.79 0.98 1.13 1.26 1.38 1.47 1.55 1.64 1.72
1.02 0.95 0.90 0.84 0.79 0.75 0.71 0.67 0.66 0.64 0.62 0.58 0.53 0.49 0.50 0.47 0.40 0.42 0.39 0.26 0.23 0.21 0.21 0.22 0.20 0.20 0.20 0.20 0.24 0.32 0.37 0.42 0.52 0.66 0.87 1.07 1.20 1.30 1.41 1.53 1.62 1.69 1.82
0.86 0.82 0.81 0.77 0.75 0.74 0.75 0.74 0.72 0.68 0.68 0.66 0.62 0.56 0.53 0.48 0.45 0.50 0.51 0.41 0.32 0.25 0.24 0.25 0.26 0.28 0.30 0.32 0.36 0.46 0.48 0.54 0.62 0.74 0.90 1.05 1.11 1.10 1.10 1.15 1.27 1.38 1.47
0.79 0.78 0.78 0.77 0.77 0.76 0.74 0.72 0.70 0.68 0.68 0.66 0.64 0.62 0.58 0.53 0.52 0.53 0.56 0.62 0.59 0.47 0.39 0.36 0.37 0.43 0.47 0.50 0.57 0.63 0.59 0.65 0.66 0.70 0.79 0.90 0.93 0.86 0.78 0.83 0.93 1.04 1.13
0.77 0.75 0.77 0.75 0.73 0.73 0.71 0.70 0.67 0.62 0.60 0.59 0.58 0.59 0.58 0.54 0.53 0.56 0.60 0.71 0.86 0.86 0.69 0.57 0.57 0.60 0.63 0.63 0.68 0.62 0.55 0.64 0.67 0.66 0.69 0.72 0.72 0.68 0.65 0.65 0.68 0.72 0.78
0.72 0.71 0.71 0.70 0.67 0.65 0.64 0.63 0.60 0.55 0.55 0.54 0.53 0.56 0.56 0.55 0.57 0.61 0.67 0.75 0.86 0.99 0.96 0.75 0.66 0.67 0.68 0.67 0.68 0.57 0.51 0.60 0.58 0.57 0.57 0.58 0.57 0.55 0.55 0.57 0.59 0.61 0.62
0.61 0.60 0.61 0.61 0.59 0.56 0.54 0.54 0.53 0.51 0.51 0.50 0.50 0.52 0.54 0.56 0.61 0.65 0.72 0.80 0.88 0.97 1.02 0.87 0.73 0.66 0.64 0.59 0.54 0.45 0.39 0.38 0.37 0.45 0.44 0.42 0.43 0.44 0.43 0.45 0.49 0.53 0.56
0.59 0.57 0.57 0.57 0.54 0.51 0.48 0.47 0.47 0.48 0.50 0.51 0.52 0.54 0.56 0.60 0.67 0.72 0.78 0.83 0.85 0.86 0.86 0.80 0.66 0.58 0.52 0.45 0.39 0.33 0.28 0.25 0.24 0.32 0.32 0.31 0.32 0.33 0.31 0.32 0.37 0.44 0.49
0.61 0.60 0.57 0.57 0.54 0.52 0.50 0.49 0.48 0.48 0.50 0.53 0.55 0.59 0.62 0.66 0.69 0.69 0.68 0.68 0.67 0.64 0.62 0.61 0.54 0.47 0.42 0.37 0.34 0.28 0.23 0.21 0.18 0.20 0.21 0.21 0.23 0.26 0.27 0.28 0.32 0.36 0.37
0.54 0.57 0.57 0.57 0.57 0.55 0.54 0.53 0.54 0.56 0.59 0.62 0.65 0.68 0.71 0.71 0.68 0.65 0.61 0.58 0.55 0.52 0.49 0.49 0.49 0.44 0.40 0.35 0.32 0.28 0.23 0.19 0.18 0.16 0.18 0.18 0.21 0.25 0.23 0.21 0.19 0.17 0.17
0.47 0.48 0.51 0.54 0.59 0.61 0.63 0.63 0.64 0.69 0.72 0.74 0.73 0.72 0.69 0.71 0.67 0.61 0.56 0.52 0.49 0.50 0.52 0.55 0.54 0.46 0.36 0.30 0.25 0.20 0.20 0.20 0.19 0.18 0.20 0.19 0.17 0.14 0.11 0.11 0.12 0.11 0.14
0.49 0.51 0.56 0.61 0.66 0.73 0.91 0.90 0.82 0.80 0.79 0.76 0.72 0.66 0.61 0.61 0.57 0.55 0.52 0.50 0.52 0.57 0.64 0.67 0.58 0.42 0.27 0.21 0.21 0.24 0.29 0.34 0.28 0.16 0.18 0.18 0.14 0.12 0.09 0.09 0.14 0.17 0.19
0.60 0.63 0.68 0.76 0.82 0.89 0.98 0.89 0.79 0.68 0.65 0.61 0.56 0.51 0.45 0.42 0.42 0.39 0.42 0.47 0.49 0.54 0.54 0.49 0.40 0.28 0.23 0.23 0.32 0.40 0.37 0.35 0.26 0.15 0.18 0.19 0.16 0.15 0.12 0.11 0.15 0.17 0.18
0.76 0.84 0.90 0.91 0.90 0.89 0.84 0.71 0.62 0.51 0.45 0.41 0.37 0.33 0.30 0.28 0.27 0.30 0.34 0.42 0.39 0.36 0.34 0.32 0.30 0.28 0.28 0.30 0.38 0.48 0.45 0.37 0.25 0.19 0.19 0.21 0.16 0.14 0.12 0.12 0.13 0.14 0.17
0.85 0.85 0.82 0.76 0.68 0.61 0.55 0.43 0.34 0.28 0.26 0.23 0.21 0.21 0.22 0.20 0.25 0.36 0.40 0.42 0.33 0.26 0.27 0.31 0.36 0.37 0.36 0.33 0.33 0.41 0.45 0.45 0.34 0.20 0.16 0.16 0.14 0.13 0.12 0.11 0.11 0.13 0.15
0.65 0.55 0.46 0.38 0.31 0.27 0.27 0.26 0.23 0.16 0.15 0.14 0.15 0.17 0.23 0.25 0.35 0.45 0.41 0.39 0.32 0.27 0.30 0.31 0.29 0.27 0.25 0.24 0.26 0.30 0.47 0.68 0.53 0.32 0.14 0.20 0.22 0.25 0.32 0.11 0.08 0.09 0.09

GEFSMA_prec_meanprecacc_126.txt.gz
Total_Precipitation_Accumulation
0.18 0.17 0.13 0.14 0.12 0.11 0.11 0.09 0.05 0.03 0.02 0.01 0.00 0.00 0.00 0.00 0.00 0.00 0.00 0.00 0.00 0.01 0.02 0.04 0.09 0.13 0.17 0.22 0.25 0.26 0.23 0.18 0.15 0.15 0.14 0.13 0.13 0.14 0.15 0.17 0.18 0.19 0.19
0.17 0.17 0.15 0.13 0.11 0.09 0.09 0.08 0.06 0.04 0.03 0.02 0.01 0.00 0.00 0.00 0.00 0.00 0.00 0.00 0.00 0.00 0.01 0.04 0.10 0.16 0.22 0.27 0.31 0.31 0.26 0.21 0.18 0.17 0.16 0.15 0.15 0.16 0.17 0.19 0.20 0.20 0.21
0.20 0.19 0.17 0.14 0.11 0.10 0.09 0.08 0.08 0.07 0.04 0.03 0.02 0.01 0.01 0.01 0.00 0.00 0.00 0.00 0.00 0.00 0.01 0.03 0.09 0.15 0.22 0.28 0.31 0.33 0.33 0.29 0.25 0.21 0.19 0.19 0.18 0.19 0.21 0.23 0.24 0.25 0.26
0.28 0.26 0.23 0.19 0.17 0.14 0.12 0.10 0.09 0.09 0.06 0.05 0.04 0.03 0.02 0.01 0.01 0.01 0.01 0.01 0.01 0.01 0.01 0.02 0.04 0.09 0.16 0.21 0.26 0.32 0.37 0.37 0.33 0.30 0.27 0.25 0.24 0.25 0.27 0.29 0.30 0.32 0.33
0.35 0.30 0.26 0.27 0.26 0.21 0.16 0.14 0.11 0.11 0.10 0.08 0.07 0.05 0.03 0.02 0.01 0.01 0.01 0.01 0.02 0.01 0.02 0.02 0.02 0.03 0.07 0.12 0.19 0.29 0.39 0.45 0.42 0.38 0.37 0.37 0.36 0.36 0.37 0.39 0.40 0.41 0.43
0.43 0.39 0.33 0.31 0.32 0.29 0.23 0.20 0.18 0.16 0.13 0.12 0.10 0.06 0.04 0.03 0.02 0.02 0.02 0.02 0.02 0.02 0.02 0.02 0.03 0.03 0.03 0.08 0.16 0.25 0.37 0.44 0.47 0.45 0.44 0.46 0.47 0.47 0.48 0.51 0.51 0.50 0.50
0.53 0.49 0.43 0.40 0.38 0.37 0.34 0.31 0.29 0.25 0.21 0.20 0.18 0.11 0.06 0.04 0.03 0.02 0.02 0.02 0.02 0.02 0.03 0.03 0.04 0.05 0.07 0.09 0.14 0.19 0.25 0.34 0.45 0.50 0.51 0.51 0.52 0.55 0.59 0.61 0.65 0.65 0.64
0.72 0.62 0.53 0.49 0.44 0.40 0.39 0.37 0.37 0.34 0.31 0.30 0.27 0.23 0.12 0.06 0.03 0.03 0.03 0.03 0.03 0.04 0.04 0.05 0.06 0.08 0.09 0.12 0.12 0.12 0.15 0.22 0.36 0.52 0.56 0.54 0.53 0.56 0.63 0.70 0.75 0.79 0.80
0.94 0.85 0.72 0.63 0.56 0.48 0.42 0.42 0.45 0.44 0.39 0.34 0.31 0.33 0.25 0.12 0.08 0.05 0.05 0.05 0.06 0.06 0.06 0.07 0.08 0.10 0.10 0.10 0.10 0.10 0.11 0.14 0.23 0.40 0.56 0.61 0.62 0.65 0.72 0.81 0.88 0.97 1.00
1.09 1.02 0.94 0.83 0.72 0.64 0.53 0.50 0.54 0.54 0.54 0.47 0.40 0.34 0.31 0.26 0.25 0.15 0.08 0.08 0.09 0.09 0.09 0.10 0.10 0.11 0.12 0.12 0.13 0.15 0.18 0.22 0.28 0.45 0.67 0.80 0.88 0.97 1.06 1.14 1.23 1.32 1.32
1.21 1.13 1.05 0.99 0.88 0.79 0.72 0.67 0.64 0.65 0.63 0.59 0.53 0.48 0.46 0.40 0.35 0.34 0.22 0.13 0.13 0.14 0.14 0.13 0.13 0.12 0.13 0.14 0.16 0.23 0.31 0.36 0.45 0.60 0.80 1.00 1.16 1.30 1.42 1.51 1.59 1.69 1.77
1.13 1.07 1.03 0.98 0.92 0.87 0.81 0.76 0.74 0.72 0.70 0.66 0.62 0.58 0.58 0.54 0.46 0.47 0.42 0.29 0.25 0.22 0.22 0.22 0.21 0.20 0.20 0.21 0.24 0.33 0.38 0.43 0.53 0.67 0.89 1.10 1.24 1.34 1.45 1.57 1.66 1.73 1.86
0.98 0.94 0.93 0.88 0.86 0.84 0.85 0.82 0.80 0.76 0.75 0.73 0.69 0.64 0.60 0.54 0.51 0.55 0.56 0.45 0.34 0.26 0.25 0.26 0.26 0.28 0.30 0.33 0.38 0.47 0.50 0.56 0.64 0.76 0.93 1.09 1.15 1.13 1.13 1.19 1.31 1.43 1.52
0.89 0.88 0.90 0.88 0.87 0.84 0.81 0.80 0.78 0.76 0.77 0.73 0.71 0.68 0.65 0.59 0.57 0.59 0.62 0.68 0.64 0.50 0.41 0.37 0.37 0.43 0.47 0.51 0.57 0.64 0.60 0.67 0.67 0.72 0.82 0.93 0.97 0.89 0.82 0.87 0.97 1.08 1.18
0.87 0.85 0.87 0.85 0.83 0.80 0.77 0.76 0.73 0.69 0.68 0.67 0.65 0.66 0.65 0.60 0.59 0.61 0.66 0.76 0.92 0.90 0.72 0.58 0.57 0.61 0.63 0.64 0.69 0.63 0.55 0.65 0.68 0.68 0.71 0.75 0.76 0.73 0.70 0.70 0.74 0.78 0.83
0.79 0.78 0.78 0.78 0.75 0.72 0.70 0.69 0.65 0.61 0.62 0.60 0.59 0.62 0.63 0.62 0.64 0.67 0.74 0.82 0.93 1.06 1.00 0.77 0.68 0.68 0.69 0.68 0.70 0.58 0.52 0.61 0.58 0.58 0.59 0.60 0.60 0.59 0.59 0.61 0.65 0.67 0.68
0.67 0.65 0.67 0.67 0.64 0.61 0.58 0.58 0.57 0.56 0.56 0.56 0.55 0.57 0.58 0.61 0.68 0.72 0.79 0.87 0.95 1.05 1.08 0.91 0.75 0.68 0.66 0.61 0.55 0.46 0.40 0.39 0.38 0.46 0.46 0.44 0.46 0.48 0.48 0.51 0.55 0.59 0.61
0.64 0.61 0.60 0.61 0.58 0.54 0.51 0.50 0.51 0.52 0.53 0.55 0.56 0.58 0.60 0.64 0.73 0.79 0.85 0.90 0.93 0.93 0.93 0.85 0.70 0.60 0.54 0.47 0.41 0.35 0.30 0.27 0.26 0.34 0.35 0.34 0.36 0.38 0.37 0.39 0.43 0.50 0.55
0.66 0.64 0.60 0.60 0.57 0.54 0.52 0.51 0.51 0.51 0.52 0.55 0.58 0.62 0.66 0.70 0.74 0.75 0.74 0.74 0.73 0.70 0.69 0.67 0.59 0.51 0.45 0.40 0.36 0.31 0.25 0.23 0.21 0.23 0.25 0.25 0.29 0.33 0.34 0.36 0.40 0.43 0.44
0.58 0.60 0.59 0.59 0.59 0.58 0.57 0.56 0.57 0.59 0.62 0.65 0.69 0.71 0.74 0.74 0.73 0.70 0.68 0.64 0.61 0.59 0.57 0.58 0.57 0.50 0.45 0.39 0.37 0.33 0.28 0.22 0.20 0.19 0.22 0.23 0.28 0.33 0.33 0.30 0.27 0.25 0.25
0.52 0.53 0.54 0.56 0.61 0.64 0.67 0.68 0.69 0.73 0.77 0.79 0.78 0.76 0.74 0.76 0.73 0.68 0.63 0.59 0.57 0.58 0.61 0.64 0.62 0.52 0.41 0.35 0.31 0.26 0.26 0.25 0.23 0.22 0.24 0.24 0.24 0.23 0.22 0.21 0.21 0.20 0.22
0.55 0.56 0.61 0.65 0.69 0.76 0.96 0.96 0.89 0.86 0.86 0.82 0.79 0.73 0.68 0.68 0.63 0.61 0.58 0.57 0.59 0.64 0.72 0.75 0.65 0.48 0.32 0.26 0.26 0.30 0.35 0.40 0.34 0.21 0.23 0.24 0.21 0.21 0.19 0.19 0.24 0.26 0.27
0.65 0.69 0.73 0.81 0.88 0.96 1.06 0.97 0.89 0.77 0.74 0.71 0.65 0.59 0.54 0.50 0.49 0.45 0.48 0.53 0.55 0.61 0.62 0.56 0.47 0.34 0.28 0.28 0.38 0.47 0.44 0.42 0.32 0.19 0.24 0.27 0.24 0.23 0.20 0.22 0.26 0.25 0.26
0.80 0.88 0.94 0.96 0.96 0.96 0.92 0.78 0.70 0.59 0.54 0.51 0.46 0.41 0.37 0.35 0.35 0.37 0.40 0.48 0.44 0.41 0.40 0.37 0.35 0.33 0.33 0.35 0.45 0.56 0.52 0.45 0.33 0.26 0.27 0.31 0.25 0.24 0.22 0.22 0.25 0.24 0.27
0.89 0.89 0.86 0.80 0.73 0.67 0.61 0.49 0.40 0.34 0.32 0.30 0.28 0.27 0.27 0.25 0.31 0.43 0.47 0.48 0.38 0.30 0.32 0.37 0.41 0.42 0.43 0.40 0.40 0.50 0.55 0.57 0.46 0.30 0.25 0.25 0.23 0.23 0.24 0.23 0.24 0.27 0.27
0.68 0.59 0.49 0.40 0.35 0.31 0.30 0.30 0.28 0.22 0.20 0.19 0.19 0.21 0.27 0.29 0.40 0.50 0.46 0.44 0.36 0.31 0.34 0.37 0.35 0.32 0.31 0.31 0.34 0.38 0.55 0.78 0.63 0.41 0.22 0.27 0.31 0.35 0.47 0.26 0.22 0.22 0.22

GEFSMA_prec_meanprecacc_132.txt.gz
Total_Precipitation_Accumulation
0.20 0.19 0.16 0.15 0.13 0.11 0.11 0.09 0.07 0.05 0.03 0.02 0.01 0.01 0.00 0.00 0.00 0.00 0.00 0.00 0.00 0.01 0.02 0.05 0.09 0.13 0.17 0.22 0.26 0.27 0.24 0.19 0.16 0.15 0.15 0.14 0.14 0.14 0.16 0.17 0.19 0.19 0.20
0.22 0.21 0.18 0.16 0.13 0.10 0.09 0.09 0.07 0.06 0.05 0.03 0.02 0.01 0.01 0.01 0.00 0.00 0.00 0.00 0.00 0.00 0.01 0.04 0.10 0.16 0.22 0.28 0.31 0.31 0.27 0.22 0.19 0.18 0.17 0.16 0.16 0.16 0.18 0.19 0.21 0.21 0.22
0.27 0.23 0.22 0.18 0.14 0.12 0.11 0.10 0.10 0.08 0.07 0.05 0.03 0.02 0.01 0.01 0.01 0.00 0.00 0.01 0.01 0.00 0.01 0.04 0.09 0.15 0.23 0.29 0.32 0.35 0.35 0.30 0.26 0.23 0.20 0.20 0.19 0.19 0.21 0.23 0.25 0.26 0.27
0.36 0.32 0.30 0.26 0.23 0.19 0.16 0.14 0.12 0.12 0.09 0.08 0.07 0.06 0.04 0.02 0.02 0.01 0.01 0.01 0.01 0.01 0.01 0.02 0.04 0.10 0.17 0.22 0.27 0.34 0.38 0.38 0.34 0.31 0.28 0.26 0.25 0.26 0.28 0.29 0.31 0.33 0.34
0.43 0.37 0.33 0.34 0.35 0.31 0.25 0.22 0.16 0.15 0.13 0.12 0.11 0.08 0.06 0.04 0.03 0.02 0.02 0.02 0.02 0.02 0.02 0.02 0.02 0.04 0.08 0.13 0.20 0.31 0.40 0.46 0.43 0.40 0.38 0.38 0.37 0.37 0.39 0.41 0.41 0.42 0.44
0.53 0.48 0.41 0.41 0.41 0.39 0.33 0.29 0.25 0.22 0.17 0.16 0.14 0.09 0.07 0.05 0.04 0.03 0.03 0.03 0.03 0.03 0.03 0.03 0.04 0.03 0.04 0.08 0.16 0.26 0.38 0.45 0.48 0.46 0.46 0.47 0.48 0.49 0.51 0.53 0.53 0.52 0.52
0.66 0.64 0.57 0.54 0.54 0.49 0.44 0.41 0.39 0.33 0.27 0.25 0.22 0.14 0.08 0.05 0.04 0.04 0.03 0.03 0.02 0.03 0.04 0.04 0.05 0.06 0.07 0.10 0.14 0.19 0.25 0.35 0.46 0.52 0.52 0.52 0.54 0.57 0.62 0.64 0.67 0.67 0.66
0.82 0.76 0.71 0.68 0.62 0.58 0.55 0.51 0.48 0.43 0.39 0.36 0.32 0.27 0.16 0.08 0.05 0.05 0.04 0.04 0.04 0.05 0.05 0.06 0.07 0.08 0.10 0.12 0.12 0.13 0.15 0.22 0.37 0.53 0.58 0.56 0.56 0.59 0.66 0.74 0.79 0.83 0.83
1.05 0.95 0.84 0.79 0.73 0.67 0.58 0.54 0.55 0.55 0.50 0.45 0.41 0.41 0.31 0.17 0.11 0.07 0.06 0.07 0.07 0.07 0.08 0.09 0.09 0.10 0.11 0.10 0.10 0.10 0.11 0.15 0.23 0.42 0.58 0.63 0.65 0.68 0.76 0.85 0.92 1.01 1.04
1.19 1.12 1.05 0.95 0.87 0.80 0.69 0.65 0.64 0.64 0.65 0.59 0.51 0.45 0.40 0.32 0.30 0.19 0.12 0.11 0.13 0.12 0.12 0.12 0.12 0.12 0.12 0.12 0.13 0.15 0.18 0.22 0.29 0.46 0.69 0.83 0.91 1.00 1.11 1.19 1.28 1.38 1.37
1.30 1.21 1.14 1.11 1.04 0.97 0.91 0.86 0.79 0.75 0.72 0.68 0.64 0.59 0.56 0.48 0.42 0.40 0.28 0.19 0.18 0.17 0.16 0.15 0.14 0.13 0.13 0.14 0.16 0.23 0.31 0.37 0.45 0.61 0.82 1.04 1.21 1.36 1.48 1.57 1.65 1.74 1.83
1.20 1.14 1.09 1.07 1.04 1.00 0.97 0.93 0.90 0.85 0.80 0.75 0.70 0.66 0.65 0.60 0.52 0.52 0.48 0.33 0.28 0.24 0.24 0.24 0.22 0.21 0.21 0.21 0.24 0.33 0.38 0.44 0.53 0.68 0.91 1.15 1.29 1.39 1.51 1.63 1.73 1.80 1.92
1.05 1.00 1.01 0.98 1.00 0.98 0.97 0.97 0.94 0.89 0.88 0.82 0.77 0.71 0.66 0.59 0.56 0.60 0.62 0.49 0.38 0.29 0.28 0.28 0.28 0.30 0.31 0.34 0.38 0.48 0.50 0.56 0.64 0.76 0.94 1.15 1.22 1.19 1.18 1.24 1.37 1.49 1.60
0.97 0.95 0.99 1.03 1.04 1.03 0.96 0.95 0.93 0.89 0.88 0.83 0.79 0.76 0.71 0.64 0.62 0.63 0.66 0.72 0.68 0.54 0.44 0.40 0.39 0.45 0.49 0.52 0.58 0.65 0.61 0.67 0.68 0.73 0.83 0.98 1.03 0.94 0.86 0.91 1.03 1.15 1.27
0.93 0.92 0.95 0.95 0.95 0.95 0.91 0.90 0.87 0.81 0.76 0.75 0.73 0.73 0.73 0.67 0.67 0.68 0.72 0.82 0.98 0.96 0.77 0.61 0.60 0.63 0.65 0.65 0.70 0.64 0.56 0.66 0.69 0.69 0.72 0.78 0.79 0.76 0.73 0.74 0.79 0.86 0.93
0.84 0.83 0.85 0.84 0.83 0.81 0.81 0.79 0.75 0.70 0.69 0.65 0.64 0.68 0.69 0.68 0.70 0.74 0.81 0.88 1.00 1.13 1.06 0.80 0.70 0.70 0.71 0.69 0.71 0.60 0.53 0.63 0.60 0.60 0.60 0.62 0.62 0.61 0.62 0.65 0.69 0.74 0.78
0.70 0.70 0.74 0.75 0.71 0.68 0.66 0.67 0.65 0.63 0.63 0.62 0.61 0.62 0.63 0.67 0.74 0.78 0.85 0.93 1.01 1.10 1.13 0.95 0.77 0.71 0.69 0.63 0.57 0.48 0.42 0.41 0.40 0.49 0.48 0.47 0.48 0.50 0.50 0.53 0.59 0.65 0.69
0.69 0.66 0.67 0.68 0.65 0.61 0.57 0.56 0.56 0.56 0.58 0.60 0.61 0.64 0.65 0.69 0.78 0.85 0.91 0.95 0.97 0.98 0.97 0.89 0.72 0.63 0.56 0.50 0.44 0.37 0.33 0.30 0.29 0.38 0.39 0.38 0.39 0.41 0.40 0.41 0.47 0.55 0.61
0.70 0.68 0.64 0.64 0.62 0.60 0.58 0.56 0.55 0.55 0.56 0.59 0.62 0.65 0.69 0.74 0.78 0.79 0.79 0.79 0.77 0.75 0.74 0.71 0.62 0.53 0.48 0.42 0.40 0.34 0.29 0.27 0.24 0.27 0.28 0.28 0.32 0.37 0.37 0.40 0.45 0.49 0.50
0.63 0.64 0.63 0.63 0.63 0.63 0.63 0.61 0.61 0.63 0.66 0.69 0.72 0.74 0.77 0.77 0.75 0.73 0.71 0.68 0.66 0.65 0.63 0.64 0.61 0.53 0.48 0.42 0.41 0.37 0.32 0.26 0.23 0.21 0.24 0.25 0.30 0.37 0.37 0.35 0.33 0.31 0.31
0.56 0.57 0.58 0.60 0.64 0.68 0.71 0.71 0.72 0.76 0.80 0.81 0.80 0.78 0.77 0.79 0.76 0.71 0.66 0.63 0.61 0.63 0.66 0.70 0.67 0.57 0.45 0.38 0.34 0.29 0.29 0.29 0.26 0.25 0.27 0.26 0.26 0.25 0.25 0.28 0.30 0.29 0.30
0.58 0.59 0.64 0.68 0.72 0.79 0.99 0.99 0.91 0.89 0.89 0.85 0.81 0.75 0.71 0.72 0.68 0.67 0.64 0.62 0.65 0.71 0.78 0.80 0.70 0.53 0.36 0.30 0.29 0.34 0.39 0.45 0.39 0.24 0.25 0.26 0.23 0.23 0.21 0.24 0.32 0.35 0.37
0.67 0.71 0.75 0.84 0.90 0.98 1.09 1.00 0.92 0.79 0.77 0.73 0.67 0.62 0.57 0.54 0.55 0.50 0.54 0.60 0.62 0.69 0.69 0.62 0.52 0.38 0.31 0.31 0.41 0.52 0.49 0.46 0.35 0.22 0.27 0.31 0.26 0.25 0.23 0.27 0.33 0.33 0.34
0.81 0.90 0.96 0.98 0.99 0.99 0.94 0.81 0.74 0.63 0.57 0.54 0.50 0.45 0.41 0.40 0.40 0.43 0.47 0.54 0.50 0.47 0.46 0.42 0.40 0.38 0.37 0.39 0.49 0.61 0.58 0.51 0.38 0.30 0.30 0.35 0.29 0.27 0.25 0.28 0.32 0.33 0.37
0.91 0.91 0.87 0.82 0.75 0.69 0.64 0.52 0.44 0.39 0.38 0.35 0.33 0.33 0.33 0.30 0.37 0.48 0.51 0.52 0.42 0.35 0.37 0.42 0.47 0.48 0.49 0.45 0.45 0.55 0.62 0.66 0.54 0.36 0.29 0.29 0.26 0.26 0.27 0.27 0.31 0.36 0.36
0.70 0.60 0.50 0.42 0.36 0.32 0.33 0.32 0.30 0.25 0.26 0.26 0.26 0.28 0.35 0.36 0.44 0.54 0.49 0.48 0.41 0.34 0.37 0.39 0.38 0.36 0.35 0.35 0.38 0.42 0.60 0.85 0.71 0.48 0.26 0.31 0.35 0.40 0.53 0.32 0.29 0.30 0.29

GEFSMA_prec_meanprecacc_138.txt.gz
Total_Precipitation_Accumulation
0.23 0.22 0.18 0.17 0.14 0.13 0.12 0.10 0.07 0.05 0.04 0.02 0.02 0.01 0.01 0.01 0.00 0.00 0.00 0.00 0.00 0.01 0.03 0.06 0.11 0.15 0.19 0.23 0.27 0.28 0.24 0.20 0.17 0.17 0.16 0.15 0.15 0.15 0.17 0.18 0.19 0.20 0.21
0.25 0.25 0.22 0.20 0.16 0.12 0.11 0.10 0.08 0.07 0.05 0.04 0.02 0.02 0.01 0.01 0.01 0.01 0.01 0.01 0.01 0.01 0.01 0.04 0.11 0.18 0.25 0.30 0.33 0.33 0.29 0.24 0.21 0.20 0.19 0.17 0.17 0.17 0.18 0.20 0.22 0.22 0.23
0.32 0.28 0.27 0.23 0.18 0.16 0.14 0.12 0.12 0.10 0.08 0.06 0.04 0.03 0.02 0.02 0.02 0.01 0.01 0.01 0.01 0.01 0.01 0.04 0.10 0.17 0.26 0.32 0.35 0.37 0.38 0.33 0.27 0.24 0.22 0.21 0.20 0.20 0.22 0.24 0.26 0.27 0.28
0.43 0.39 0.36 0.31 0.28 0.25 0.21 0.17 0.15 0.14 0.11 0.10 0.08 0.06 0.04 0.03 0.03 0.02 0.02 0.02 0.02 0.02 0.02 0.02 0.06 0.12 0.19 0.24 0.30 0.37 0.41 0.41 0.36 0.32 0.29 0.27 0.26 0.27 0.29 0.31 0.33 0.34 0.36
0.50 0.44 0.41 0.43 0.45 0.40 0.33 0.28 0.20 0.18 0.16 0.14 0.13 0.10 0.07 0.06 0.04 0.03 0.03 0.03 0.03 0.02 0.03 0.03 0.03 0.05 0.09 0.15 0.23 0.35 0.44 0.48 0.44 0.41 0.39 0.39 0.39 0.39 0.41 0.43 0.43 0.44 0.46
0.59 0.55 0.48 0.49 0.52 0.51 0.44 0.39 0.32 0.27 0.22 0.21 0.18 0.12 0.09 0.07 0.06 0.05 0.04 0.04 0.04 0.03 0.04 0.04 0.04 0.04 0.04 0.09 0.18 0.28 0.41 0.48 0.50 0.48 0.47 0.48 0.49 0.50 0.52 0.54 0.55 0.54 0.55
0.71 0.71 0.66 0.64 0.64 0.61 0.56 0.53 0.50 0.41 0.33 0.32 0.29 0.18 0.11 0.08 0.06 0.05 0.05 0.04 0.04 0.05 0.05 0.06 0.07 0.08 0.09 0.11 0.16 0.21 0.28 0.38 0.49 0.54 0.54 0.54 0.56 0.59 0.63 0.66 0.70 0.70 0.69
0.85 0.80 0.78 0.78 0.74 0.72 0.70 0.65 0.63 0.57 0.49 0.45 0.40 0.35 0.22 0.12 0.07 0.06 0.06 0.05 0.05 0.06 0.07 0.08 0.09 0.10 0.12 0.14 0.15 0.14 0.17 0.24 0.39 0.56 0.61 0.59 0.58 0.61 0.69 0.76 0.82 0.86 0.86
1.07 0.98 0.88 0.84 0.81 0.78 0.74 0.71 0.74 0.74 0.67 0.59 0.53 0.53 0.41 0.24 0.16 0.11 0.09 0.09 0.10 0.10 0.11 0.12 0.12 0.13 0.13 0.13 0.12 0.12 0.13 0.16 0.25 0.44 0.60 0.66 0.68 0.71 0.79 0.89 0.96 1.05 1.07
1.21 1.15 1.08 1.00 0.93 0.87 0.80 0.80 0.81 0.82 0.84 0.77 0.67 0.59 0.53 0.41 0.38 0.27 0.18 0.17 0.19 0.18 0.18 0.17 0.16 0.16 0.15 0.15 0.15 0.17 0.20 0.23 0.31 0.48 0.72 0.86 0.94 1.04 1.14 1.23 1.32 1.42 1.41
1.34 1.25 1.18 1.16 1.10 1.05 1.00 0.99 0.97 0.93 0.91 0.88 0.82 0.75 0.72 0.62 0.53 0.49 0.36 0.28 0.28 0.25 0.23 0.21 0.19 0.17 0.17 0.17 0.18 0.25 0.33 0.38 0.47 0.63 0.84 1.07 1.24 1.40 1.53 1.62 1.70 1.80 1.87
1.24 1.18 1.15 1.13 1.11 1.07 1.05 1.03 1.03 1.01 0.97 0.91 0.86 0.80 0.79 0.73 0.63 0.61 0.55 0.40 0.36 0.33 0.33 0.32 0.29 0.26 0.23 0.23 0.26 0.35 0.40 0.45 0.55 0.70 0.93 1.18 1.33 1.43 1.55 1.69 1.79 1.87 1.98
1.08 1.03 1.04 1.03 1.06 1.04 1.03 1.04 1.02 0.99 1.00 0.97 0.93 0.85 0.80 0.71 0.66 0.70 0.70 0.56 0.43 0.34 0.33 0.34 0.34 0.34 0.35 0.37 0.41 0.50 0.52 0.58 0.66 0.78 0.96 1.17 1.25 1.22 1.22 1.29 1.43 1.56 1.67
1.00 0.98 1.02 1.06 1.09 1.10 1.03 1.02 1.00 0.96 0.97 0.94 0.92 0.90 0.85 0.76 0.72 0.71 0.74 0.80 0.75 0.59 0.49 0.44 0.43 0.49 0.53 0.56 0.62 0.69 0.63 0.70 0.70 0.74 0.85 1.00 1.05 0.97 0.90 0.95 1.08 1.20 1.33
0.97 0.95 0.98 0.98 0.98 0.99 0.96 0.96 0.94 0.88 0.85 0.84 0.82 0.83 0.84 0.79 0.76 0.76 0.80 0.90 1.06 1.04 0.84 0.67 0.65 0.68 0.70 0.70 0.75 0.68 0.59 0.69 0.72 0.71 0.75 0.80 0.82 0.79 0.77 0.78 0.84 0.91 0.98
0.89 0.87 0.89 0.87 0.85 0.85 0.86 0.86 0.83 0.78 0.76 0.72 0.72 0.75 0.77 0.76 0.79 0.82 0.89 0.95 1.06 1.19 1.12 0.86 0.75 0.73 0.74 0.73 0.75 0.64 0.56 0.66 0.63 0.62 0.64 0.65 0.66 0.65 0.66 0.70 0.74 0.78 0.82
0.73 0.72 0.77 0.78 0.74 0.71 0.69 0.71 0.70 0.71 0.71 0.68 0.68 0.70 0.71 0.74 0.80 0.83 0.91 0.98 1.06 1.16 1.18 0.99 0.81 0.73 0.71 0.66 0.61 0.52 0.47 0.45 0.43 0.51 0.51 0.50 0.52 0.55 0.55 0.58 0.64 0.69 0.72
0.71 0.68 0.69 0.71 0.68 0.64 0.61 0.62 0.61 0.63 0.67 0.69 0.70 0.73 0.74 0.78 0.85 0.90 0.96 1.01 1.02 1.02 1.02 0.93 0.76 0.66 0.59 0.52 0.47 0.42 0.37 0.34 0.32 0.41 0.42 0.41 0.44 0.46 0.45 0.46 0.52 0.59 0.65
0.71 0.71 0.67 0.67 0.65 0.63 0.62 0.62 0.61 0.61 0.63 0.67 0.70 0.74 0.76 0.80 0.85 0.85 0.85 0.85 0.83 0.81 0.80 0.77 0.66 0.56 0.51 0.46 0.44 0.39 0.35 0.32 0.28 0.31 0.32 0.32 0.37 0.42 0.42 0.45 0.49 0.54 0.55
0.65 0.67 0.65 0.64 0.66 0.66 0.67 0.66 0.68 0.70 0.71 0.73 0.75 0.78 0.80 0.81 0.78 0.77 0.75 0.72 0.70 0.69 0.68 0.69 0.66 0.57 0.51 0.46 0.46 0.42 0.36 0.31 0.29 0.26 0.29 0.29 0.33 0.40 0.41 0.39 0.37 0.36 0.36
0.60 0.61 0.61 0.62 0.67 0.72 0.75 0.76 0.76 0.80 0.84 0.85 0.84 0.81 0.78 0.80 0.78 0.73 0.69 0.65 0.64 0.66 0.70 0.74 0.71 0.60 0.49 0.42 0.38 0.33 0.34 0.33 0.31 0.29 0.31 0.30 0.29 0.28 0.28 0.30 0.33 0.33 0.35
0.62 0.63 0.67 0.71 0.74 0.81 1.02 1.02 0.94 0.90 0.90 0.87 0.83 0.77 0.72 0.73 0.70 0.69 0.67 0.65 0.68 0.74 0.81 0.84 0.75 0.58 0.41 0.34 0.33 0.38 0.42 0.49 0.43 0.28 0.29 0.29 0.26 0.26 0.25 0.27 0.35 0.39 0.41
0.69 0.73 0.77 0.85 0.91 0.99 1.10 1.02 0.95 0.81 0.78 0.75 0.69 0.63 0.58 0.55 0.57 0.52 0.56 0.62 0.66 0.73 0.74 0.67 0.57 0.42 0.36 0.35 0.45 0.55 0.52 0.49 0.38 0.25 0.31 0.36 0.31 0.30 0.27 0.30 0.36 0.36 0.37
0.82 0.91 0.97 0.99 0.99 1.00 0.95 0.82 0.76 0.65 0.59 0.55 0.51 0.46 0.42 0.41 0.41 0.45 0.49 0.57 0.53 0.51 0.49 0.45 0.42 0.40 0.40 0.41 0.52 0.64 0.60 0.54 0.41 0.33 0.33 0.40 0.33 0.32 0.29 0.31 0.36 0.37 0.40
0.91 0.91 0.88 0.82 0.75 0.70 0.65 0.54 0.46 0.41 0.40 0.37 0.34 0.34 0.34 0.32 0.39 0.51 0.54 0.55 0.45 0.38 0.39 0.44 0.49 0.50 0.51 0.48 0.47 0.57 0.64 0.68 0.58 0.40 0.32 0.32 0.29 0.28 0.30 0.30 0.34 0.40 0.39
0.70 0.61 0.51 0.43 0.37 0.33 0.34 0.34 0.32 0.27 0.28 0.28 0.29 0.30 0.37 0.38 0.47 0.56 0.51 0.50 0.43 0.36 0.38 0.40 0.39 0.37 0.36 0.36 0.40 0.44 0.62 0.88 0.74 0.52 0.31 0.36 0.38 0.43 0.57 0.36 0.32 0.34 0.33

GEFSMA_prec_meanprecacc_144.txt.gz
Total_Precipitation_Accumulation
0.29 0.28 0.22 0.21 0.19 0.16 0.16 0.13 0.10 0.09 0.06 0.04 0.03 0.02 0.02 0.01 0.01 0.01 0.01 0.00 0.01 0.01 0.03 0.06 0.12 0.16 0.20 0.25 0.28 0.29 0.26 0.21 0.18 0.18 0.17 0.16 0.16 0.16 0.17 0.19 0.20 0.21 0.22
0.29 0.28 0.27 0.24 0.21 0.16 0.13 0.13 0.11 0.09 0.07 0.05 0.04 0.02 0.02 0.02 0.02 0.01 0.01 0.01 0.01 0.01 0.02 0.05 0.12 0.19 0.26 0.32 0.35 0.35 0.30 0.26 0.23 0.22 0.21 0.19 0.18 0.18 0.19 0.21 0.23 0.23 0.24
0.35 0.31 0.30 0.25 0.21 0.21 0.18 0.15 0.14 0.13 0.10 0.08 0.05 0.04 0.03 0.03 0.03 0.02 0.02 0.02 0.01 0.01 0.01 0.05 0.11 0.18 0.27 0.34 0.38 0.40 0.40 0.35 0.29 0.26 0.24 0.23 0.21 0.21 0.23 0.25 0.27 0.28 0.29
0.47 0.42 0.38 0.33 0.30 0.29 0.27 0.21 0.17 0.17 0.14 0.12 0.10 0.08 0.06 0.04 0.03 0.03 0.03 0.02 0.02 0.02 0.02 0.03 0.06 0.13 0.20 0.26 0.33 0.40 0.44 0.43 0.38 0.34 0.31 0.29 0.28 0.29 0.30 0.31 0.33 0.35 0.37
0.55 0.48 0.43 0.45 0.48 0.43 0.36 0.34 0.25 0.22 0.20 0.17 0.15 0.12 0.09 0.07 0.05 0.04 0.04 0.03 0.04 0.03 0.03 0.03 0.03 0.05 0.10 0.17 0.25 0.38 0.48 0.52 0.48 0.44 0.42 0.42 0.41 0.41 0.42 0.44 0.45 0.46 0.47
0.63 0.60 0.53 0.52 0.55 0.54 0.48 0.43 0.38 0.34 0.28 0.27 0.24 0.16 0.12 0.10 0.07 0.06 0.05 0.05 0.05 0.04 0.04 0.05 0.05 0.05 0.05 0.10 0.20 0.31 0.45 0.53 0.54 0.52 0.50 0.51 0.53 0.54 0.56 0.57 0.57 0.56 0.57
0.74 0.74 0.70 0.68 0.67 0.64 0.60 0.58 0.56 0.50 0.43 0.41 0.36 0.24 0.15 0.11 0.09 0.07 0.07 0.06 0.06 0.06 0.07 0.07 0.08 0.09 0.10 0.12 0.17 0.24 0.31 0.42 0.54 0.59 0.58 0.57 0.60 0.63 0.68 0.70 0.74 0.73 0.72
0.87 0.83 0.81 0.82 0.78 0.76 0.73 0.69 0.68 0.64 0.58 0.56 0.51 0.45 0.29 0.17 0.10 0.09 0.08 0.08 0.07 0.09 0.10 0.10 0.11 0.12 0.14 0.16 0.16 0.16 0.20 0.29 0.45 0.61 0.65 0.62 0.62 0.65 0.73 0.81 0.86 0.90 0.90
1.07 0.99 0.89 0.86 0.83 0.82 0.77 0.75 0.78 0.80 0.75 0.71 0.65 0.66 0.52 0.33 0.23 0.15 0.13 0.12 0.12 0.12 0.14 0.15 0.16 0.17 0.17 0.16 0.14 0.14 0.15 0.19 0.31 0.51 0.67 0.72 0.73 0.76 0.83 0.93 1.00 1.10 1.13
1.22 1.16 1.09 1.00 0.94 0.89 0.82 0.83 0.84 0.86 0.90 0.87 0.80 0.74 0.65 0.51 0.46 0.33 0.23 0.21 0.23 0.22 0.21 0.20 0.20 0.20 0.20 0.20 0.20 0.20 0.23 0.26 0.34 0.52 0.77 0.92 1.00 1.09 1.20 1.29 1.39 1.49 1.48
1.34 1.26 1.19 1.17 1.11 1.06 1.02 1.02 1.00 0.98 0.96 0.94 0.92 0.87 0.84 0.72 0.62 0.58 0.44 0.34 0.33 0.31 0.29 0.27 0.25 0.24 0.24 0.24 0.25 0.31 0.39 0.43 0.51 0.67 0.89 1.12 1.30 1.46 1.59 1.69 1.78 1.88 1.95
1.24 1.19 1.16 1.14 1.12 1.08 1.06 1.04 1.05 1.04 1.01 0.96 0.92 0.88 0.90 0.86 0.75 0.73 0.66 0.50 0.46 0.42 0.43 0.42 0.39 0.36 0.33 0.31 0.34 0.43 0.47 0.52 0.60 0.75 0.99 1.24 1.39 1.50 1.63 1.77 1.88 1.95 2.06
1.08 1.04 1.05 1.04 1.07 1.06 1.06 1.06 1.05 1.02 1.04 1.02 0.97 0.90 0.86 0.79 0.77 0.82 0.83 0.69 0.56 0.45 0.43 0.45 0.45 0.45 0.47 0.48 0.51 0.61 0.60 0.65 0.72 0.83 1.02 1.24 1.31 1.28 1.28 1.35 1.49 1.62 1.73
1.01 0.99 1.03 1.07 1.11 1.12 1.06 1.05 1.03 1.00 1.02 1.00 0.98 0.95 0.91 0.83 0.80 0.80 0.83 0.89 0.85 0.68 0.57 0.51 0.50 0.55 0.60 0.63 0.70 0.77 0.70 0.77 0.77 0.80 0.91 1.05 1.10 1.02 0.94 0.99 1.12 1.25 1.37
0.99 0.97 1.00 0.99 1.00 1.01 0.98 0.99 0.97 0.92 0.89 0.89 0.88 0.89 0.90 0.84 0.82 0.82 0.86 0.97 1.14 1.12 0.91 0.74 0.72 0.74 0.75 0.75 0.81 0.74 0.65 0.75 0.78 0.76 0.79 0.84 0.86 0.83 0.81 0.81 0.86 0.93 1.01
0.92 0.90 0.91 0.90 0.88 0.87 0.88 0.88 0.86 0.80 0.78 0.75 0.75 0.79 0.82 0.82 0.85 0.89 0.95 1.02 1.13 1.27 1.19 0.91 0.80 0.78 0.79 0.78 0.81 0.68 0.60 0.71 0.67 0.67 0.67 0.69 0.70 0.69 0.70 0.73 0.77 0.82 0.85
0.76 0.75 0.80 0.80 0.76 0.72 0.71 0.73 0.72 0.72 0.72 0.70 0.70 0.72 0.74 0.77 0.85 0.90 0.98 1.06 1.14 1.23 1.26 1.04 0.85 0.77 0.75 0.70 0.66 0.56 0.50 0.48 0.47 0.56 0.56 0.55 0.58 0.60 0.60 0.63 0.69 0.73 0.76
0.72 0.69 0.70 0.72 0.69 0.65 0.63 0.63 0.63 0.65 0.69 0.71 0.71 0.74 0.76 0.80 0.88 0.95 1.01 1.05 1.07 1.08 1.08 0.99 0.81 0.70 0.63 0.56 0.51 0.45 0.40 0.38 0.36 0.46 0.47 0.46 0.49 0.51 0.49 0.49 0.55 0.63 0.69
0.72 0.72 0.68 0.68 0.66 0.64 0.63 0.63 0.62 0.62 0.65 0.69 0.74 0.78 0.79 0.84 0.88 0.89 0.89 0.88 0.86 0.84 0.84 0.81 0.70 0.60 0.55 0.50 0.48 0.42 0.37 0.35 0.31 0.33 0.35 0.36 0.41 0.46 0.46 0.47 0.52 0.57 0.58
0.67 0.69 0.67 0.65 0.66 0.67 0.68 0.69 0.71 0.73 0.75 0.76 0.80 0.82 0.83 0.84 0.82 0.80 0.77 0.73 0.72 0.72 0.71 0.72 0.69 0.60 0.54 0.49 0.48 0.45 0.39 0.34 0.31 0.29 0.32 0.32 0.38 0.44 0.43 0.41 0.39 0.39 0.40
0.62 0.63 0.63 0.63 0.67 0.73 0.78 0.79 0.79 0.83 0.88 0.89 0.88 0.85 0.81 0.82 0.79 0.74 0.70 0.66 0.66 0.68 0.72 0.76 0.73 0.63 0.52 0.45 0.40 0.36 0.36 0.35 0.33 0.31 0.34 0.34 0.34 0.32 0.31 0.32 0.35 0.36 0.39
0.64 0.64 0.69 0.72 0.75 0.83 1.05 1.06 0.97 0.93 0.94 0.91 0.87 0.80 0.75 0.75 0.71 0.71 0.69 0.67 0.70 0.76 0.84 0.86 0.77 0.60 0.43 0.36 0.35 0.40 0.45 0.52 0.46 0.30 0.33 0.33 0.31 0.30 0.28 0.29 0.37 0.42 0.45
0.70 0.74 0.78 0.86 0.92 1.00 1.11 1.03 0.97 0.83 0.80 0.77 0.71 0.65 0.60 0.57 0.58 0.53 0.58 0.64 0.67 0.75 0.75 0.68 0.58 0.44 0.38 0.37 0.48 0.59 0.56 0.53 0.42 0.29 0.35 0.40 0.35 0.33 0.30 0.32 0.39 0.38 0.39
0.82 0.91 0.97 1.00 1.00 1.00 0.96 0.83 0.77 0.66 0.61 0.57 0.52 0.47 0.43 0.42 0.42 0.46 0.50 0.58 0.54 0.52 0.51 0.46 0.44 0.42 0.42 0.44 0.54 0.67 0.64 0.57 0.44 0.36 0.37 0.43 0.36 0.34 0.32 0.34 0.38 0.39 0.43
0.91 0.91 0.88 0.82 0.76 0.70 0.66 0.55 0.47 0.41 0.40 0.38 0.35 0.35 0.35 0.33 0.41 0.52 0.55 0.56 0.46 0.38 0.40 0.45 0.51 0.52 0.53 0.50 0.49 0.59 0.67 0.72 0.60 0.42 0.35 0.35 0.31 0.30 0.31 0.32 0.36 0.42 0.41
0.70 0.61 0.51 0.43 0.37 0.33 0.34 0.34 0.33 0.28 0.29 0.29 0.29 0.31 0.39 0.39 0.49 0.59 0.54 0.53 0.45 0.37 0.39 0.41 0.40 0.39 0.37 0.37 0.41 0.45 0.64 0.91 0.76 0.54 0.33 0.39 0.41 0.46 0.60 0.37 0.34 0.36 0.36

GEFSMA_prec_meanprecacc_150.txt.gz
Total_Precipitation_Accumulation
0.33 0.33 0.28 0.29 0.27 0.24 0.22 0.19 0.16 0.13 0.12 0.09 0.07 0.05 0.04 0.04 0.03 0.04 0.03 0.02 0.02 0.02 0.05 0.09 0.14 0.18 0.22 0.26 0.29 0.30 0.27 0.22 0.19 0.19 0.18 0.17 0.17 0.17 0.18 0.19 0.21 0.22 0.22
0.32 0.31 0.30 0.28 0.27 0.23 0.20 0.20 0.18 0.16 0.13 0.11 0.08 0.06 0.04 0.04 0.03 0.03 0.03 0.03 0.02 0.02 0.03 0.06 0.14 0.22 0.28 0.34 0.37 0.36 0.32 0.27 0.24 0.23 0.22 0.20 0.19 0.19 0.20 0.21 0.23 0.24 0.25
0.39 0.34 0.32 0.28 0.26 0.28 0.26 0.23 0.23 0.19 0.15 0.12 0.09 0.08 0.07 0.06 0.05 0.04 0.04 0.03 0.03 0.03 0.03 0.06 0.13 0.20 0.29 0.36 0.40 0.43 0.43 0.36 0.30 0.27 0.25 0.24 0.23 0.22 0.24 0.26 0.28 0.29 0.30
0.55 0.49 0.45 0.38 0.36 0.36 0.37 0.31 0.27 0.26 0.19 0.15 0.12 0.10 0.08 0.07 0.05 0.05 0.05 0.04 0.04 0.03 0.03 0.04 0.08 0.14 0.22 0.28 0.35 0.43 0.48 0.46 0.40 0.36 0.32 0.31 0.29 0.30 0.31 0.33 0.35 0.37 0.38
0.63 0.58 0.52 0.53 0.54 0.48 0.43 0.41 0.33 0.31 0.27 0.22 0.19 0.15 0.12 0.09 0.08 0.07 0.06 0.06 0.05 0.04 0.05 0.05 0.05 0.07 0.12 0.18 0.27 0.41 0.51 0.55 0.50 0.45 0.45 0.44 0.43 0.42 0.44 0.46 0.47 0.48 0.49
0.68 0.68 0.63 0.63 0.64 0.61 0.54 0.48 0.43 0.39 0.35 0.33 0.29 0.21 0.16 0.12 0.10 0.08 0.07 0.08 0.07 0.06 0.06 0.06 0.07 0.07 0.07 0.12 0.21 0.33 0.48 0.57 0.58 0.54 0.53 0.54 0.55 0.56 0.57 0.59 0.59 0.59 0.59
0.78 0.80 0.76 0.77 0.78 0.74 0.67 0.65 0.63 0.55 0.47 0.47 0.43 0.29 0.18 0.13 0.11 0.09 0.09 0.09 0.09 0.10 0.10 0.09 0.10 0.11 0.12 0.15 0.20 0.25 0.33 0.45 0.59 0.64 0.62 0.60 0.62 0.66 0.70 0.72 0.76 0.76 0.75
0.87 0.85 0.86 0.87 0.85 0.85 0.82 0.77 0.75 0.70 0.64 0.62 0.56 0.50 0.33 0.20 0.14 0.12 0.11 0.11 0.11 0.13 0.13 0.14 0.14 0.15 0.17 0.19 0.20 0.20 0.22 0.31 0.49 0.67 0.70 0.67 0.66 0.68 0.76 0.84 0.89 0.94 0.94
1.07 0.99 0.90 0.88 0.86 0.88 0.86 0.86 0.88 0.89 0.84 0.79 0.72 0.73 0.57 0.37 0.26 0.19 0.16 0.15 0.15 0.15 0.17 0.19 0.20 0.22 0.21 0.20 0.19 0.19 0.19 0.23 0.34 0.57 0.74 0.79 0.79 0.81 0.88 0.97 1.05 1.14 1.17
1.22 1.16 1.09 1.01 0.95 0.91 0.86 0.91 0.96 0.98 1.01 0.96 0.88 0.81 0.72 0.58 0.53 0.39 0.27 0.25 0.27 0.25 0.24 0.24 0.24 0.26 0.25 0.24 0.25 0.26 0.29 0.31 0.38 0.58 0.86 1.02 1.09 1.17 1.26 1.35 1.45 1.55 1.54
1.34 1.26 1.20 1.18 1.12 1.07 1.04 1.04 1.05 1.06 1.06 1.04 0.99 0.93 0.90 0.78 0.67 0.63 0.48 0.37 0.37 0.35 0.34 0.32 0.30 0.30 0.30 0.30 0.30 0.36 0.45 0.50 0.57 0.73 0.97 1.21 1.41 1.57 1.71 1.80 1.88 1.96 2.02
1.24 1.19 1.16 1.15 1.12 1.09 1.07 1.05 1.06 1.06 1.05 1.02 0.98 0.94 0.94 0.89 0.79 0.78 0.71 0.54 0.50 0.46 0.47 0.47 0.44 0.41 0.39 0.38 0.39 0.49 0.53 0.59 0.68 0.84 1.08 1.33 1.48 1.59 1.73 1.90 2.02 2.07 2.15
1.09 1.04 1.05 1.05 1.08 1.07 1.07 1.07 1.06 1.03 1.05 1.04 1.01 0.94 0.90 0.83 0.80 0.86 0.88 0.74 0.61 0.51 0.49 0.50 0.49 0.50 0.52 0.53 0.56 0.67 0.65 0.70 0.77 0.89 1.09 1.30 1.38 1.36 1.37 1.46 1.62 1.77 1.87
1.02 1.00 1.03 1.07 1.11 1.12 1.07 1.07 1.05 1.01 1.03 1.01 1.00 0.98 0.94 0.86 0.83 0.84 0.87 0.94 0.90 0.74 0.63 0.57 0.56 0.61 0.65 0.68 0.76 0.84 0.76 0.83 0.83 0.86 0.96 1.10 1.15 1.08 1.02 1.08 1.22 1.37 1.52
1.00 0.97 1.00 1.00 1.01 1.02 0.99 1.00 0.99 0.94 0.91 0.91 0.90 0.91 0.92 0.86 0.84 0.85 0.89 1.01 1.19 1.17 0.96 0.79 0.78 0.80 0.81 0.81 0.87 0.79 0.69 0.80 0.83 0.82 0.85 0.89 0.90 0.88 0.86 0.87 0.92 1.00 1.09
0.92 0.91 0.92 0.91 0.89 0.88 0.89 0.89 0.86 0.81 0.79 0.76 0.76 0.80 0.83 0.83 0.87 0.91 0.98 1.06 1.18 1.32 1.24 0.95 0.83 0.82 0.84 0.82 0.85 0.72 0.64 0.75 0.72 0.71 0.71 0.72 0.73 0.72 0.73 0.77 0.81 0.85 0.89
0.76 0.76 0.80 0.81 0.76 0.73 0.72 0.73 0.72 0.73 0.73 0.70 0.70 0.72 0.74 0.78 0.86 0.91 0.99 1.08 1.17 1.28 1.31 1.08 0.88 0.81 0.79 0.74 0.69 0.59 0.53 0.52 0.50 0.59 0.59 0.58 0.60 0.63 0.62 0.65 0.71 0.77 0.80
0.72 0.70 0.71 0.73 0.70 0.65 0.63 0.64 0.64 0.65 0.70 0.71 0.72 0.75 0.76 0.81 0.89 0.95 1.02 1.07 1.10 1.12 1.13 1.03 0.84 0.73 0.66 0.59 0.54 0.49 0.44 0.41 0.38 0.49 0.50 0.49 0.51 0.53 0.51 0.52 0.57 0.64 0.71
0.73 0.72 0.68 0.68 0.66 0.64 0.64 0.63 0.63 0.63 0.66 0.70 0.75 0.79 0.81 0.85 0.89 0.90 0.91 0.91 0.89 0.87 0.87 0.84 0.72 0.62 0.57 0.53 0.51 0.45 0.40 0.37 0.33 0.36 0.37 0.38 0.43 0.49 0.48 0.49 0.54 0.58 0.60
0.67 0.69 0.67 0.65 0.66 0.67 0.69 0.69 0.71 0.73 0.75 0.77 0.81 0.84 0.84 0.85 0.83 0.82 0.79 0.76 0.74 0.74 0.73 0.74 0.71 0.62 0.56 0.51 0.51 0.47 0.41 0.36 0.33 0.30 0.34 0.34 0.39 0.46 0.46 0.43 0.40 0.40 0.41
0.62 0.64 0.63 0.63 0.68 0.73 0.78 0.79 0.80 0.83 0.88 0.90 0.89 0.86 0.82 0.84 0.81 0.76 0.72 0.68 0.68 0.70 0.74 0.78 0.75 0.65 0.53 0.46 0.42 0.37 0.37 0.36 0.35 0.32 0.35 0.35 0.35 0.34 0.32 0.34 0.36 0.37 0.40
0.64 0.65 0.69 0.72 0.76 0.84 1.06 1.07 0.98 0.94 0.95 0.92 0.88 0.82 0.76 0.77 0.73 0.73 0.72 0.70 0.72 0.77 0.85 0.88 0.78 0.61 0.44 0.36 0.36 0.41 0.47 0.53 0.48 0.32 0.35 0.35 0.33 0.32 0.29 0.30 0.39 0.43 0.46
0.71 0.75 0.79 0.87 0.93 1.01 1.12 1.04 0.97 0.84 0.81 0.78 0.72 0.66 0.62 0.59 0.60 0.55 0.61 0.67 0.70 0.77 0.77 0.70 0.60 0.45 0.39 0.38 0.49 0.60 0.58 0.56 0.44 0.31 0.38 0.43 0.38 0.35 0.32 0.34 0.41 0.39 0.41
0.83 0.92 0.98 1.00 1.00 1.01 0.96 0.83 0.77 0.67 0.61 0.57 0.53 0.47 0.44 0.43 0.44 0.48 0.52 0.59 0.56 0.54 0.52 0.48 0.45 0.44 0.43 0.46 0.56 0.69 0.67 0.60 0.47 0.38 0.40 0.47 0.39 0.37 0.33 0.35 0.40 0.41 0.44
0.92 0.92 0.89 0.84 0.76 0.71 0.66 0.55 0.47 0.41 0.41 0.38 0.35 0.35 0.36 0.34 0.42 0.54 0.56 0.57 0.47 0.40 0.42 0.46 0.52 0.54 0.55 0.52 0.51 0.62 0.70 0.74 0.63 0.44 0.38 0.38 0.35 0.33 0.34 0.34 0.37 0.44 0.43
0.71 0.61 0.51 0.43 0.38 0.34 0.34 0.34 0.33 0.28 0.29 0.29 0.29 0.31 0.39 0.40 0.50 0.60 0.54 0.53 0.46 0.38 0.40 0.42 0.41 0.39 0.38 0.38 0.43 0.47 0.67 0.94 0.79 0.57 0.37 0.43 0.45 0.49 0.63 0.39 0.36 0.38 0.37

GEFSMA_prec_meanprecacc_156.txt.gz
Total_Precipitation_Accumulation
0.37 0.36 0.31 0.31 0.29 0.26 0.24 0.21 0.17 0.14 0.13 0.11 0.08 0.06 0.05 0.05 0.05 0.05 0.04 0.03 0.03 0.04 0.07 0.12 0.18 0.23 0.26 0.30 0.33 0.34 0.30 0.25 0.22 0.21 0.19 0.18 0.18 0.18 0.19 0.20 0.21 0.22 0.23
0.37 0.34 0.32 0.31 0.29 0.25 0.22 0.23 0.21 0.18 0.16 0.14 0.10 0.07 0.05 0.05 0.05 0.04 0.04 0.04 0.04 0.03 0.04 0.08 0.16 0.25 0.33 0.40 0.43 0.43 0.38 0.33 0.29 0.27 0.25 0.22 0.21 0.20 0.21 0.22 0.24 0.25 0.26
0.45 0.39 0.35 0.32 0.29 0.31 0.28 0.26 0.26 0.22 0.18 0.15 0.12 0.10 0.08 0.07 0.06 0.06 0.06 0.05 0.05 0.04 0.04 0.07 0.15 0.23 0.32 0.40 0.45 0.49 0.50 0.45 0.40 0.36 0.32 0.28 0.25 0.24 0.25 0.27 0.29 0.30 0.31
0.62 0.56 0.51 0.44 0.41 0.42 0.41 0.34 0.30 0.30 0.22 0.18 0.15 0.13 0.11 0.09 0.07 0.06 0.07 0.06 0.05 0.05 0.06 0.06 0.10 0.16 0.25 0.32 0.40 0.49 0.55 0.53 0.48 0.44 0.40 0.37 0.34 0.34 0.34 0.35 0.36 0.37 0.39
0.68 0.64 0.59 0.61 0.62 0.55 0.48 0.44 0.36 0.35 0.32 0.25 0.22 0.19 0.16 0.13 0.11 0.09 0.08 0.07 0.07 0.06 0.07 0.07 0.08 0.09 0.14 0.22 0.32 0.47 0.58 0.63 0.59 0.55 0.53 0.52 0.50 0.49 0.49 0.50 0.50 0.50 0.51
0.73 0.73 0.69 0.70 0.72 0.69 0.62 0.55 0.48 0.42 0.39 0.37 0.33 0.25 0.20 0.17 0.14 0.12 0.10 0.10 0.09 0.08 0.08 0.08 0.09 0.09 0.10 0.15 0.26 0.37 0.53 0.63 0.64 0.63 0.62 0.62 0.63 0.63 0.64 0.66 0.64 0.63 0.62
0.82 0.84 0.81 0.83 0.83 0.81 0.77 0.77 0.75 0.64 0.53 0.52 0.48 0.34 0.23 0.17 0.14 0.12 0.12 0.12 0.12 0.13 0.12 0.12 0.12 0.13 0.14 0.17 0.23 0.30 0.38 0.51 0.64 0.70 0.70 0.69 0.71 0.75 0.78 0.79 0.82 0.81 0.79
0.90 0.88 0.88 0.89 0.88 0.88 0.87 0.84 0.81 0.75 0.69 0.67 0.60 0.54 0.39 0.25 0.17 0.15 0.14 0.13 0.13 0.15 0.16 0.16 0.17 0.17 0.18 0.21 0.21 0.23 0.26 0.35 0.54 0.73 0.78 0.76 0.75 0.77 0.85 0.92 0.97 1.01 1.00
1.08 0.99 0.90 0.88 0.86 0.88 0.87 0.89 0.91 0.92 0.88 0.84 0.77 0.78 0.62 0.42 0.30 0.22 0.19 0.17 0.18 0.18 0.20 0.22 0.23 0.24 0.24 0.23 0.22 0.22 0.23 0.26 0.38 0.62 0.82 0.88 0.87 0.90 0.99 1.08 1.16 1.25 1.25
1.22 1.16 1.09 1.01 0.95 0.91 0.87 0.92 0.97 1.01 1.05 1.00 0.93 0.87 0.79 0.64 0.58 0.42 0.29 0.27 0.29 0.28 0.27 0.26 0.26 0.28 0.28 0.28 0.29 0.30 0.33 0.34 0.42 0.62 0.91 1.10 1.19 1.27 1.37 1.47 1.57 1.66 1.65
1.34 1.26 1.20 1.18 1.13 1.08 1.04 1.05 1.06 1.07 1.08 1.07 1.04 0.99 0.96 0.84 0.72 0.67 0.50 0.39 0.39 0.36 0.35 0.34 0.32 0.32 0.32 0.32 0.33 0.40 0.50 0.54 0.62 0.79 1.04 1.30 1.50 1.67 1.81 1.90 1.99 2.08 2.15
1.24 1.19 1.16 1.15 1.13 1.09 1.07 1.05 1.07 1.07 1.06 1.04 1.01 0.97 0.98 0.93 0.82 0.81 0.74 0.56 0.52 0.48 0.48 0.48 0.46 0.43 0.41 0.40 0.42 0.53 0.57 0.63 0.73 0.90 1.15 1.43 1.59 1.70 1.84 2.00 2.13 2.20 2.30
1.09 1.04 1.05 1.05 1.08 1.07 1.07 1.08 1.07 1.04 1.06 1.05 1.03 0.96 0.92 0.85 0.82 0.89 0.91 0.76 0.63 0.53 0.51 0.51 0.50 0.52 0.54 0.56 0.60 0.71 0.70 0.75 0.82 0.95 1.16 1.39 1.47 1.45 1.46 1.55 1.72 1.88 2.00
1.02 1.00 1.03 1.07 1.12 1.12 1.07 1.07 1.05 1.02 1.04 1.02 1.01 1.00 0.96 0.88 0.86 0.86 0.90 0.97 0.92 0.75 0.65 0.60 0.57 0.63 0.67 0.71 0.79 0.87 0.79 0.87 0.87 0.91 1.02 1.17 1.23 1.16 1.09 1.15 1.30 1.46 1.62
1.00 0.97 1.00 1.00 1.01 1.02 0.99 1.00 0.99 0.94 0.91 0.91 0.91 0.92 0.93 0.88 0.86 0.88 0.92 1.04 1.22 1.19 0.98 0.81 0.80 0.83 0.84 0.84 0.90 0.82 0.71 0.84 0.87 0.87 0.91 0.95 0.97 0.94 0.92 0.93 0.98 1.06 1.16
0.92 0.91 0.92 0.91 0.89 0.88 0.89 0.89 0.87 0.82 0.80 0.76 0.76 0.81 0.83 0.84 0.87 0.91 0.99 1.08 1.20 1.34 1.26 0.96 0.85 0.84 0.87 0.86 0.88 0.75 0.67 0.79 0.76 0.75 0.76 0.77 0.77 0.77 0.78 0.82 0.86 0.91 0.93
0.76 0.76 0.80 0.81 0.76 0.73 0.72 0.73 0.73 0.73 0.73 0.71 0.71 0.73 0.74 0.78 0.86 0.91 1.00 1.08 1.17 1.29 1.32 1.09 0.90 0.82 0.81 0.76 0.71 0.62 0.56 0.55 0.53 0.62 0.62 0.61 0.64 0.66 0.66 0.69 0.76 0.81 0.84
0.72 0.70 0.71 0.73 0.70 0.66 0.63 0.64 0.64 0.65 0.70 0.72 0.73 0.76 0.77 0.81 0.89 0.96 1.02 1.07 1.10 1.12 1.14 1.04 0.85 0.74 0.68 0.60 0.56 0.51 0.46 0.42 0.40 0.51 0.52 0.51 0.54 0.56 0.54 0.54 0.60 0.68 0.75
0.73 0.72 0.68 0.68 0.66 0.64 0.64 0.63 0.63 0.63 0.66 0.70 0.75 0.79 0.81 0.86 0.90 0.91 0.91 0.91 0.90 0.88 0.87 0.85 0.73 0.63 0.58 0.53 0.52 0.46 0.41 0.38 0.34 0.38 0.40 0.40 0.46 0.51 0.50 0.52 0.57 0.62 0.63
0.67 0.69 0.67 0.65 0.66 0.67 0.69 0.69 0.71 0.74 0.75 0.78 0.81 0.84 0.84 0.85 0.84 0.82 0.80 0.76 0.75 0.75 0.74 0.75 0.72 0.63 0.57 0.51 0.51 0.48 0.42 0.37 0.34 0.32 0.35 0.36 0.41 0.48 0.48 0.45 0.43 0.42 0.44
0.63 0.64 0.63 0.63 0.68 0.73 0.78 0.79 0.80 0.83 0.88 0.90 0.89 0.86 0.82 0.84 0.81 0.77 0.72 0.69 0.68 0.71 0.75 0.79 0.76 0.66 0.54 0.47 0.42 0.38 0.38 0.37 0.35 0.33 0.36 0.36 0.36 0.35 0.34 0.36 0.38 0.39 0.42
0.64 0.65 0.69 0.72 0.76 0.84 1.06 1.07 0.98 0.94 0.95 0.92 0.88 0.82 0.77 0.77 0.74 0.73 0.72 0.70 0.73 0.78 0.86 0.89 0.80 0.62 0.44 0.37 0.37 0.42 0.47 0.55 0.48 0.32 0.36 0.36 0.34 0.34 0.31 0.32 0.41 0.45 0.48
0.71 0.75 0.79 0.87 0.93 1.01 1.12 1.04 0.98 0.84 0.81 0.78 0.72 0.66 0.62 0.59 0.61 0.55 0.61 0.68 0.71 0.78 0.79 0.72 0.61 0.46 0.39 0.39 0.50 0.62 0.59 0.57 0.45 0.32 0.39 0.44 0.39 0.37 0.33 0.36 0.43 0.42 0.43
0.83 0.92 0.98 1.01 1.01 1.01 0.97 0.83 0.77 0.67 0.61 0.58 0.53 0.48 0.45 0.44 0.44 0.48 0.53 0.60 0.57 0.55 0.53 0.48 0.46 0.45 0.45 0.47 0.58 0.71 0.69 0.62 0.49 0.39 0.41 0.48 0.41 0.38 0.35 0.37 0.42 0.43 0.47
0.92 0.92 0.89 0.84 0.77 0.71 0.67 0.56 0.48 0.42 0.41 0.39 0.36 0.36 0.37 0.34 0.43 0.54 0.58 0.59 0.49 0.41 0.43 0.48 0.54 0.56 0.58 0.55 0.54 0.64 0.73 0.78 0.66 0.46 0.39 0.41 0.37 0.36 0.37 0.36 0.40 0.46 0.45
0.71 0.62 0.52 0.44 0.38 0.34 0.35 0.35 0.33 0.28 0.29 0.29 0.30 0.32 0.40 0.40 0.50 0.60 0.55 0.55 0.48 0.40 0.42 0.45 0.43 0.42 0.40 0.41 0.45 0.49 0.69 0.97 0.83 0.61 0.40 0.47 0.49 0.54 0.67 0.43 0.39 0.40 0.40

GEFSMA_prec_meanprecacc_162.txt.gz
Total_Precipitation_Accumulation
0.43 0.41 0.35 0.34 0.30 0.27 0.25 0.22 0.19 0.15 0.14 0.12 0.09 0.06 0.05 0.05 0.05 0.05 0.04 0.03 0.03 0.04 0.08 0.14 0.21 0.26 0.30 0.33 0.36 0.37 0.33 0.28 0.26 0.26 0.25 0.24 0.25 0.24 0.23 0.23 0.24 0.25 0.25
0.44 0.42 0.36 0.34 0.31 0.27 0.23 0.23 0.21 0.20 0.19 0.15 0.11 0.08 0.05 0.05 0.05 0.05 0.05 0.04 0.04 0.04 0.05 0.09 0.19 0.29 0.37 0.44 0.47 0.47 0.42 0.36 0.33 0.31 0.30 0.29 0.28 0.28 0.29 0.29 0.28 0.27 0.27
0.53 0.48 0.42 0.35 0.32 0.33 0.31 0.27 0.27 0.23 0.18 0.15 0.12 0.11 0.09 0.08 0.07 0.07 0.07 0.06 0.06 0.06 0.06 0.09 0.17 0.26 0.36 0.44 0.50 0.55 0.55 0.49 0.43 0.40 0.38 0.37 0.34 0.32 0.33 0.34 0.35 0.34 0.33
0.68 0.62 0.59 0.50 0.45 0.46 0.46 0.38 0.31 0.30 0.22 0.18 0.15 0.13 0.12 0.10 0.08 0.07 0.07 0.07 0.06 0.06 0.07 0.08 0.12 0.20 0.28 0.36 0.45 0.55 0.61 0.59 0.52 0.49 0.45 0.44 0.43 0.44 0.45 0.45 0.45 0.45 0.45
0.74 0.69 0.65 0.68 0.68 0.60 0.52 0.48 0.38 0.37 0.33 0.26 0.23 0.19 0.16 0.14 0.11 0.10 0.09 0.08 0.08 0.07 0.08 0.09 0.10 0.12 0.17 0.26 0.36 0.52 0.64 0.69 0.64 0.60 0.58 0.56 0.54 0.54 0.56 0.58 0.58 0.58 0.59
0.81 0.80 0.75 0.77 0.79 0.76 0.67 0.58 0.50 0.44 0.40 0.39 0.34 0.26 0.21 0.17 0.14 0.12 0.11 0.11 0.10 0.09 0.09 0.10 0.10 0.10 0.12 0.18 0.29 0.42 0.59 0.69 0.71 0.69 0.68 0.67 0.67 0.67 0.69 0.72 0.72 0.72 0.72
0.90 0.94 0.88 0.90 0.94 0.91 0.86 0.83 0.78 0.67 0.55 0.53 0.49 0.35 0.23 0.18 0.15 0.13 0.12 0.13 0.13 0.14 0.14 0.13 0.14 0.15 0.16 0.20 0.27 0.33 0.43 0.57 0.71 0.76 0.75 0.75 0.76 0.79 0.83 0.85 0.89 0.89 0.89
0.95 0.96 0.97 0.96 0.94 0.98 0.98 0.96 0.89 0.80 0.72 0.69 0.62 0.56 0.40 0.26 0.18 0.15 0.14 0.14 0.14 0.16 0.17 0.18 0.19 0.20 0.21 0.23 0.24 0.26 0.30 0.40 0.60 0.79 0.84 0.81 0.80 0.81 0.89 0.98 1.04 1.09 1.08
1.11 1.03 0.94 0.93 0.90 0.92 0.93 0.97 0.99 1.00 0.94 0.88 0.80 0.80 0.64 0.43 0.31 0.22 0.19 0.18 0.19 0.19 0.21 0.23 0.24 0.26 0.26 0.25 0.24 0.25 0.26 0.30 0.43 0.68 0.88 0.93 0.93 0.96 1.05 1.15 1.22 1.32 1.33
1.24 1.18 1.11 1.03 0.97 0.93 0.89 0.95 1.01 1.05 1.08 1.02 0.95 0.89 0.81 0.66 0.60 0.43 0.30 0.28 0.30 0.29 0.28 0.27 0.27 0.29 0.30 0.30 0.31 0.33 0.36 0.39 0.47 0.68 0.98 1.16 1.25 1.33 1.43 1.52 1.63 1.74 1.73
1.35 1.27 1.21 1.19 1.13 1.08 1.05 1.06 1.07 1.10 1.11 1.09 1.05 1.00 0.97 0.85 0.73 0.68 0.52 0.40 0.40 0.37 0.37 0.35 0.33 0.33 0.33 0.34 0.34 0.42 0.53 0.58 0.67 0.84 1.10 1.37 1.57 1.73 1.88 1.98 2.07 2.16 2.23
1.25 1.19 1.17 1.15 1.13 1.10 1.07 1.06 1.08 1.08 1.08 1.06 1.02 0.98 0.99 0.94 0.83 0.82 0.75 0.57 0.53 0.49 0.49 0.50 0.47 0.45 0.42 0.41 0.43 0.55 0.60 0.66 0.77 0.94 1.20 1.48 1.64 1.76 1.91 2.08 2.21 2.29 2.39
1.09 1.04 1.05 1.05 1.08 1.07 1.07 1.08 1.07 1.04 1.07 1.07 1.04 0.97 0.93 0.86 0.83 0.91 0.92 0.78 0.65 0.54 0.53 0.53 0.52 0.53 0.55 0.57 0.61 0.73 0.72 0.77 0.84 0.98 1.19 1.43 1.51 1.50 1.52 1.61 1.79 1.96 2.10
1.02 1.00 1.03 1.07 1.12 1.12 1.07 1.07 1.05 1.02 1.04 1.03 1.02 1.01 0.97 0.89 0.87 0.87 0.91 0.99 0.95 0.77 0.67 0.62 0.60 0.65 0.69 0.73 0.81 0.90 0.81 0.90 0.90 0.94 1.05 1.20 1.26 1.19 1.13 1.20 1.36 1.52 1.69
1.00 0.97 1.00 1.00 1.01 1.02 0.99 1.00 1.00 0.94 0.91 0.91 0.91 0.92 0.94 0.89 0.87 0.89 0.93 1.06 1.25 1.23 1.00 0.82 0.81 0.84 0.86 0.86 0.92 0.84 0.74 0.86 0.90 0.90 0.93 0.98 1.00 0.98 0.96 0.96 1.02 1.10 1.20
0.92 0.91 0.92 0.91 0.89 0.88 0.89 0.89 0.87 0.82 0.80 0.76 0.76 0.81 0.83 0.84 0.87 0.92 1.00 1.09 1.22 1.37 1.28 0.98 0.86 0.85 0.88 0.87 0.91 0.76 0.68 0.81 0.78 0.77 0.78 0.79 0.80 0.80 0.81 0.85 0.89 0.94 0.97
0.76 0.76 0.80 0.81 0.76 0.73 0.72 0.73 0.73 0.73 0.73 0.71 0.71 0.73 0.74 0.78 0.86 0.91 1.00 1.09 1.18 1.30 1.33 1.10 0.90 0.83 0.82 0.77 0.72 0.63 0.57 0.56 0.54 0.64 0.63 0.63 0.65 0.68 0.67 0.70 0.78 0.84 0.88
0.72 0.70 0.71 0.73 0.70 0.66 0.63 0.64 0.64 0.65 0.70 0.72 0.73 0.76 0.77 0.81 0.89 0.96 1.02 1.07 1.11 1.13 1.15 1.04 0.85 0.75 0.68 0.61 0.57 0.52 0.48 0.45 0.42 0.53 0.53 0.53 0.56 0.58 0.55 0.55 0.61 0.69 0.77
0.73 0.72 0.68 0.68 0.66 0.64 0.64 0.63 0.63 0.63 0.66 0.70 0.75 0.79 0.81 0.86 0.90 0.91 0.91 0.92 0.91 0.89 0.88 0.86 0.73 0.63 0.58 0.54 0.52 0.47 0.43 0.40 0.37 0.40 0.42 0.42 0.47 0.53 0.52 0.53 0.58 0.63 0.65
0.67 0.69 0.67 0.65 0.66 0.67 0.69 0.69 0.71 0.74 0.75 0.78 0.82 0.84 0.84 0.85 0.84 0.82 0.80 0.77 0.75 0.76 0.75 0.77 0.73 0.63 0.57 0.52 0.52 0.49 0.43 0.38 0.36 0.33 0.37 0.38 0.43 0.50 0.50 0.47 0.45 0.44 0.45
0.63 0.64 0.63 0.63 0.68 0.73 0.78 0.79 0.80 0.83 0.88 0.90 0.89 0.86 0.82 0.84 0.82 0.77 0.72 0.69 0.69 0.72 0.76 0.80 0.77 0.66 0.54 0.47 0.43 0.39 0.39 0.38 0.37 0.35 0.38 0.38 0.38 0.37 0.35 0.37 0.40 0.41 0.44
0.64 0.65 0.69 0.72 0.76 0.84 1.06 1.07 0.98 0.94 0.95 0.92 0.88 0.82 0.77 0.78 0.74 0.74 0.72 0.71 0.73 0.79 0.88 0.91 0.80 0.63 0.45 0.38 0.38 0.43 0.48 0.55 0.50 0.34 0.37 0.38 0.36 0.35 0.33 0.33 0.42 0.46 0.49
0.71 0.75 0.79 0.87 0.93 1.01 1.12 1.04 0.98 0.84 0.81 0.78 0.72 0.66 0.62 0.59 0.61 0.56 0.61 0.68 0.71 0.79 0.80 0.73 0.63 0.47 0.40 0.40 0.51 0.63 0.60 0.57 0.46 0.32 0.40 0.47 0.41 0.38 0.34 0.37 0.45 0.43 0.45
0.84 0.92 0.98 1.01 1.01 1.01 0.97 0.83 0.78 0.67 0.61 0.58 0.53 0.48 0.45 0.44 0.45 0.49 0.53 0.61 0.57 0.55 0.54 0.49 0.47 0.46 0.46 0.48 0.59 0.73 0.70 0.64 0.50 0.40 0.42 0.51 0.42 0.40 0.37 0.38 0.43 0.44 0.48
0.92 0.92 0.89 0.84 0.77 0.71 0.67 0.56 0.48 0.42 0.41 0.39 0.36 0.36 0.37 0.35 0.43 0.55 0.58 0.60 0.50 0.43 0.45 0.50 0.55 0.57 0.59 0.56 0.56 0.67 0.75 0.81 0.68 0.48 0.41 0.43 0.39 0.37 0.38 0.37 0.41 0.47 0.46
0.71 0.62 0.52 0.44 0.38 0.34 0.35 0.35 0.34 0.29 0.30 0.30 0.30 0.32 0.40 0.41 0.51 0.61 0.56 0.56 0.49 0.41 0.43 0.46 0.44 0.43 0.41 0.43 0.48 0.52 0.73 1.01 0.87 0.64 0.42 0.50 0.52 0.57 0.70 0.45 0.40 0.41 0.41

GEFSMA_prec_meanprecacc_168.txt.gz
Total_Precipitation_Accumulation
0.49 0.46 0.38 0.37 0.33 0.29 0.27 0.25 0.21 0.17 0.15 0.13 0.10 0.07 0.06 0.05 0.05 0.05 0.05 0.03 0.03 0.05 0.09 0.15 0.23 0.29 0.34 0.40 0.44 0.45 0.40 0.33 0.30 0.28 0.27 0.27 0.28 0.28 0.29 0.31 0.32 0.32 0.32
0.51 0.46 0.40 0.36 0.33 0.29 0.26 0.26 0.24 0.21 0.19 0.16 0.12 0.09 0.06 0.06 0.05 0.05 0.05 0.05 0.04 0.04 0.06 0.10 0.20 0.30 0.40 0.49 0.54 0.55 0.53 0.49 0.42 0.37 0.33 0.31 0.30 0.30 0.32 0.34 0.35 0.36 0.36
0.59 0.53 0.46 0.38 0.34 0.35 0.32 0.29 0.29 0.25 0.19 0.16 0.13 0.11 0.09 0.08 0.07 0.07 0.07 0.06 0.06 0.06 0.06 0.10 0.18 0.28 0.40 0.49 0.57 0.63 0.65 0.60 0.55 0.50 0.44 0.40 0.36 0.34 0.35 0.37 0.39 0.40 0.41
0.74 0.69 0.65 0.54 0.48 0.47 0.47 0.40 0.32 0.31 0.23 0.18 0.15 0.13 0.12 0.10 0.08 0.07 0.08 0.07 0.06 0.07 0.07 0.09 0.13 0.21 0.31 0.40 0.51 0.62 0.69 0.65 0.59 0.55 0.51 0.49 0.47 0.47 0.48 0.49 0.49 0.49 0.50
0.81 0.76 0.70 0.72 0.70 0.62 0.53 0.49 0.39 0.37 0.33 0.26 0.23 0.20 0.16 0.14 0.11 0.10 0.09 0.09 0.08 0.08 0.08 0.09 0.11 0.13 0.19 0.28 0.40 0.57 0.70 0.75 0.70 0.64 0.63 0.62 0.59 0.58 0.60 0.62 0.63 0.63 0.64
0.88 0.87 0.81 0.82 0.82 0.79 0.70 0.61 0.52 0.45 0.41 0.39 0.34 0.26 0.21 0.17 0.14 0.12 0.11 0.11 0.10 0.10 0.09 0.10 0.11 0.11 0.13 0.19 0.30 0.44 0.63 0.76 0.79 0.76 0.74 0.73 0.73 0.72 0.74 0.77 0.78 0.77 0.77
0.96 1.01 0.97 0.98 1.01 0.97 0.91 0.88 0.81 0.69 0.56 0.53 0.49 0.35 0.23 0.18 0.15 0.13 0.12 0.13 0.13 0.14 0.14 0.14 0.15 0.16 0.17 0.21 0.27 0.34 0.44 0.60 0.77 0.85 0.84 0.83 0.83 0.85 0.89 0.91 0.94 0.93 0.92
1.01 1.04 1.08 1.06 1.03 1.06 1.05 1.02 0.95 0.84 0.74 0.69 0.62 0.56 0.41 0.26 0.18 0.15 0.14 0.14 0.14 0.17 0.17 0.18 0.19 0.20 0.22 0.24 0.26 0.27 0.31 0.42 0.63 0.85 0.92 0.90 0.88 0.89 0.97 1.05 1.11 1.16 1.15
1.14 1.07 1.02 1.03 1.02 1.03 1.05 1.07 1.09 1.10 0.99 0.89 0.81 0.82 0.65 0.44 0.31 0.22 0.19 0.18 0.19 0.20 0.21 0.23 0.25 0.26 0.27 0.26 0.25 0.26 0.28 0.32 0.45 0.73 0.97 1.05 1.05 1.07 1.14 1.22 1.30 1.40 1.41
1.24 1.19 1.14 1.08 1.04 1.02 1.00 1.07 1.13 1.17 1.19 1.09 0.98 0.91 0.83 0.68 0.61 0.44 0.30 0.28 0.30 0.29 0.28 0.27 0.28 0.29 0.30 0.30 0.32 0.34 0.38 0.40 0.49 0.71 1.04 1.27 1.38 1.47 1.58 1.66 1.74 1.82 1.79
1.36 1.28 1.22 1.21 1.17 1.13 1.10 1.12 1.17 1.20 1.22 1.20 1.13 1.05 1.01 0.87 0.75 0.70 0.53 0.41 0.40 0.38 0.37 0.35 0.34 0.34 0.34 0.34 0.35 0.43 0.55 0.60 0.70 0.88 1.16 1.46 1.68 1.86 2.00 2.10 2.18 2.25 2.30
1.27 1.21 1.18 1.16 1.15 1.12 1.10 1.08 1.11 1.14 1.14 1.13 1.11 1.06 1.05 0.99 0.86 0.85 0.77 0.58 0.54 0.49 0.50 0.50 0.48 0.46 0.43 0.42 0.44 0.56 0.61 0.68 0.79 0.97 1.25 1.54 1.72 1.85 2.01 2.19 2.31 2.37 2.45
1.11 1.06 1.06 1.06 1.09 1.08 1.08 1.09 1.08 1.06 1.09 1.09 1.08 1.02 0.97 0.90 0.87 0.93 0.95 0.80 0.66 0.55 0.53 0.53 0.53 0.55 0.58 0.60 0.64 0.75 0.74 0.79 0.86 1.00 1.23 1.48 1.57 1.57 1.58 1.69 1.88 2.06 2.20
1.03 1.01 1.04 1.08 1.12 1.13 1.07 1.07 1.06 1.03 1.05 1.04 1.03 1.03 1.00 0.93 0.89 0.89 0.93 1.01 0.96 0.78 0.67 0.62 0.60 0.66 0.71 0.76 0.84 0.93 0.85 0.93 0.92 0.96 1.07 1.23 1.31 1.26 1.20 1.27 1.42 1.59 1.76
1.01 0.98 1.01 1.01 1.01 1.02 0.99 1.01 1.00 0.95 0.92 0.92 0.92 0.93 0.95 0.91 0.90 0.90 0.94 1.07 1.26 1.24 1.01 0.83 0.82 0.85 0.87 0.87 0.94 0.86 0.76 0.90 0.93 0.93 0.96 1.00 1.03 1.02 1.00 1.01 1.07 1.15 1.25
0.93 0.92 0.93 0.91 0.89 0.88 0.89 0.89 0.87 0.82 0.80 0.77 0.77 0.81 0.84 0.85 0.89 0.94 1.02 1.10 1.23 1.38 1.29 0.98 0.86 0.86 0.89 0.88 0.92 0.78 0.70 0.83 0.80 0.79 0.80 0.82 0.82 0.82 0.84 0.88 0.92 0.97 1.00
0.76 0.76 0.81 0.81 0.76 0.73 0.72 0.73 0.73 0.73 0.73 0.71 0.71 0.73 0.75 0.78 0.86 0.92 1.01 1.10 1.19 1.31 1.34 1.10 0.91 0.83 0.83 0.78 0.73 0.64 0.58 0.57 0.56 0.66 0.65 0.65 0.67 0.70 0.70 0.73 0.80 0.86 0.90
0.72 0.70 0.71 0.73 0.70 0.66 0.63 0.64 0.64 0.65 0.70 0.72 0.73 0.76 0.77 0.81 0.89 0.96 1.03 1.08 1.11 1.14 1.16 1.05 0.86 0.75 0.69 0.62 0.58 0.53 0.48 0.45 0.43 0.54 0.55 0.55 0.58 0.60 0.58 0.59 0.64 0.72 0.78
0.73 0.72 0.68 0.68 0.66 0.64 0.64 0.63 0.63 0.63 0.66 0.70 0.75 0.80 0.81 0.86 0.90 0.91 0.91 0.92 0.91 0.89 0.89 0.86 0.74 0.64 0.59 0.54 0.53 0.48 0.43 0.41 0.37 0.41 0.44 0.44 0.51 0.57 0.55 0.56 0.60 0.65 0.66
0.67 0.69 0.67 0.65 0.66 0.67 0.69 0.69 0.71 0.74 0.75 0.78 0.82 0.84 0.84 0.86 0.84 0.82 0.80 0.77 0.75 0.76 0.76 0.77 0.73 0.64 0.57 0.52 0.53 0.49 0.44 0.38 0.36 0.34 0.38 0.39 0.45 0.52 0.54 0.50 0.46 0.45 0.46
0.63 0.64 0.63 0.63 0.68 0.73 0.78 0.79 0.80 0.83 0.88 0.90 0.89 0.86 0.83 0.84 0.82 0.77 0.73 0.69 0.69 0.73 0.77 0.81 0.78 0.67 0.55 0.47 0.44 0.39 0.40 0.39 0.37 0.35 0.38 0.38 0.39 0.38 0.38 0.41 0.44 0.43 0.45
0.64 0.65 0.69 0.72 0.76 0.84 1.06 1.07 0.98 0.94 0.95 0.92 0.88 0.82 0.77 0.78 0.74 0.74 0.73 0.71 0.74 0.80 0.88 0.91 0.81 0.64 0.45 0.38 0.38 0.43 0.50 0.57 0.50 0.34 0.38 0.38 0.37 0.37 0.34 0.35 0.45 0.49 0.51
0.71 0.75 0.79 0.87 0.93 1.01 1.12 1.04 0.98 0.84 0.81 0.78 0.72 0.67 0.62 0.59 0.61 0.56 0.61 0.69 0.72 0.80 0.81 0.74 0.63 0.48 0.41 0.40 0.52 0.64 0.61 0.59 0.47 0.33 0.42 0.48 0.43 0.40 0.36 0.39 0.47 0.46 0.48
0.84 0.92 0.98 1.01 1.01 1.01 0.97 0.83 0.78 0.67 0.61 0.58 0.53 0.48 0.45 0.44 0.45 0.49 0.54 0.61 0.58 0.56 0.55 0.50 0.48 0.46 0.46 0.49 0.60 0.74 0.72 0.65 0.51 0.41 0.43 0.52 0.44 0.41 0.38 0.39 0.45 0.46 0.50
0.92 0.92 0.89 0.84 0.77 0.72 0.67 0.56 0.48 0.42 0.41 0.39 0.36 0.36 0.37 0.35 0.44 0.56 0.59 0.61 0.51 0.44 0.46 0.50 0.56 0.58 0.60 0.57 0.57 0.68 0.77 0.83 0.70 0.49 0.42 0.45 0.41 0.39 0.39 0.39 0.43 0.50 0.49
0.71 0.62 0.52 0.44 0.38 0.34 0.36 0.35 0.34 0.29 0.30 0.30 0.30 0.32 0.40 0.41 0.52 0.62 0.57 0.56 0.50 0.42 0.44 0.46 0.45 0.43 0.42 0.43 0.48 0.53 0.76 1.04 0.90 0.66 0.43 0.53 0.55 0.59 0.72 0.46 0.42 0.44 0.44

GEFSMA_prec_meanprecacc_174.txt.gz
Total_Precipitation_Accumulation
0.52 0.49 0.42 0.40 0.37 0.34 0.32 0.29 0.25 0.21 0.18 0.15 0.12 0.09 0.07 0.07 0.06 0.07 0.07 0.04 0.03 0.05 0.09 0.15 0.24 0.30 0.36 0.42 0.47 0.47 0.42 0.36 0.33 0.32 0.30 0.29 0.30 0.31 0.31 0.33 0.34 0.36 0.37
0.55 0.50 0.44 0.40 0.37 0.33 0.29 0.29 0.27 0.25 0.23 0.18 0.13 0.09 0.07 0.06 0.06 0.06 0.07 0.06 0.05 0.04 0.06 0.11 0.21 0.32 0.42 0.51 0.56 0.58 0.55 0.51 0.45 0.41 0.38 0.36 0.34 0.33 0.34 0.36 0.38 0.38 0.39
0.65 0.58 0.51 0.42 0.37 0.37 0.35 0.32 0.32 0.27 0.21 0.17 0.14 0.12 0.10 0.09 0.08 0.07 0.08 0.07 0.07 0.06 0.06 0.10 0.19 0.29 0.41 0.51 0.59 0.65 0.67 0.62 0.57 0.53 0.48 0.45 0.40 0.37 0.37 0.39 0.42 0.43 0.44
0.81 0.74 0.70 0.61 0.53 0.50 0.49 0.42 0.34 0.33 0.24 0.20 0.16 0.14 0.12 0.11 0.09 0.08 0.08 0.07 0.07 0.07 0.08 0.09 0.14 0.22 0.32 0.41 0.53 0.65 0.71 0.68 0.62 0.58 0.54 0.53 0.50 0.50 0.50 0.50 0.51 0.51 0.52
0.90 0.83 0.76 0.78 0.76 0.66 0.56 0.51 0.41 0.39 0.34 0.27 0.23 0.20 0.16 0.14 0.12 0.10 0.09 0.09 0.08 0.08 0.08 0.10 0.11 0.13 0.19 0.29 0.41 0.59 0.72 0.77 0.73 0.68 0.67 0.66 0.63 0.62 0.64 0.65 0.66 0.65 0.66
0.96 0.95 0.87 0.87 0.89 0.83 0.74 0.63 0.54 0.47 0.42 0.41 0.36 0.27 0.21 0.17 0.14 0.12 0.11 0.11 0.10 0.10 0.09 0.10 0.11 0.11 0.13 0.19 0.31 0.45 0.64 0.78 0.81 0.79 0.77 0.76 0.77 0.77 0.80 0.82 0.82 0.80 0.81
1.02 1.08 1.03 1.02 1.06 1.01 0.95 0.91 0.83 0.70 0.58 0.55 0.50 0.36 0.24 0.18 0.15 0.13 0.12 0.13 0.13 0.14 0.14 0.14 0.15 0.16 0.18 0.22 0.28 0.35 0.45 0.61 0.79 0.87 0.87 0.86 0.87 0.90 0.94 0.96 0.99 0.98 0.97
1.06 1.10 1.14 1.12 1.07 1.09 1.08 1.05 0.98 0.85 0.76 0.71 0.64 0.57 0.41 0.27 0.18 0.15 0.14 0.14 0.14 0.17 0.18 0.18 0.19 0.21 0.22 0.25 0.27 0.28 0.32 0.43 0.65 0.87 0.95 0.94 0.92 0.93 1.02 1.11 1.18 1.23 1.21
1.19 1.13 1.07 1.08 1.06 1.07 1.08 1.09 1.12 1.12 1.01 0.91 0.83 0.83 0.66 0.44 0.31 0.22 0.19 0.18 0.19 0.20 0.21 0.23 0.25 0.27 0.27 0.27 0.25 0.27 0.28 0.32 0.46 0.74 0.99 1.08 1.08 1.11 1.19 1.28 1.38 1.49 1.51
1.28 1.23 1.18 1.11 1.08 1.06 1.04 1.10 1.16 1.19 1.21 1.11 1.00 0.93 0.84 0.68 0.62 0.44 0.30 0.28 0.30 0.29 0.28 0.27 0.28 0.29 0.30 0.31 0.32 0.34 0.38 0.40 0.49 0.72 1.06 1.29 1.41 1.51 1.64 1.74 1.84 1.95 1.95
1.42 1.31 1.24 1.24 1.19 1.15 1.13 1.15 1.19 1.22 1.24 1.22 1.15 1.07 1.02 0.88 0.76 0.70 0.53 0.41 0.40 0.38 0.37 0.35 0.34 0.34 0.34 0.34 0.35 0.43 0.55 0.60 0.70 0.89 1.17 1.48 1.71 1.89 2.05 2.16 2.26 2.36 2.41
1.34 1.25 1.21 1.19 1.17 1.14 1.12 1.10 1.13 1.17 1.18 1.16 1.13 1.08 1.07 1.01 0.87 0.85 0.77 0.58 0.54 0.49 0.50 0.51 0.48 0.46 0.44 0.42 0.45 0.56 0.61 0.68 0.79 0.98 1.26 1.56 1.75 1.89 2.06 2.24 2.38 2.44 2.53
1.18 1.12 1.10 1.09 1.12 1.11 1.11 1.11 1.10 1.08 1.13 1.14 1.12 1.06 1.00 0.92 0.89 0.95 0.96 0.81 0.67 0.56 0.54 0.54 0.53 0.55 0.58 0.60 0.64 0.75 0.74 0.79 0.86 1.01 1.24 1.49 1.59 1.59 1.62 1.74 1.94 2.12 2.26
1.09 1.06 1.08 1.11 1.14 1.15 1.09 1.09 1.07 1.05 1.07 1.07 1.07 1.07 1.03 0.95 0.91 0.91 0.95 1.02 0.97 0.79 0.68 0.63 0.61 0.66 0.71 0.76 0.85 0.94 0.85 0.94 0.93 0.97 1.09 1.25 1.33 1.28 1.23 1.31 1.48 1.65 1.82
1.07 1.03 1.05 1.04 1.04 1.04 1.01 1.02 1.01 0.96 0.93 0.94 0.94 0.96 0.98 0.93 0.92 0.92 0.96 1.09 1.28 1.26 1.02 0.84 0.82 0.85 0.87 0.87 0.94 0.86 0.76 0.90 0.94 0.93 0.97 1.02 1.04 1.03 1.02 1.05 1.13 1.21 1.31
0.96 0.95 0.97 0.96 0.93 0.91 0.91 0.91 0.88 0.83 0.81 0.78 0.78 0.82 0.85 0.86 0.90 0.95 1.04 1.12 1.25 1.41 1.31 0.99 0.87 0.86 0.89 0.88 0.92 0.78 0.70 0.84 0.81 0.80 0.81 0.82 0.83 0.83 0.85 0.90 0.97 1.04 1.08
0.78 0.77 0.82 0.83 0.79 0.75 0.74 0.75 0.74 0.74 0.74 0.71 0.71 0.74 0.75 0.79 0.88 0.93 1.02 1.12 1.21 1.33 1.36 1.12 0.91 0.84 0.83 0.78 0.74 0.64 0.59 0.58 0.56 0.67 0.66 0.65 0.68 0.71 0.71 0.75 0.82 0.89 0.94
0.73 0.70 0.72 0.74 0.71 0.67 0.64 0.65 0.65 0.66 0.70 0.72 0.73 0.76 0.77 0.82 0.90 0.97 1.04 1.09 1.13 1.16 1.18 1.06 0.87 0.76 0.70 0.63 0.59 0.54 0.49 0.46 0.43 0.55 0.56 0.56 0.59 0.61 0.59 0.60 0.66 0.74 0.81
0.73 0.73 0.69 0.69 0.67 0.65 0.64 0.64 0.63 0.63 0.66 0.70 0.75 0.80 0.81 0.86 0.90 0.91 0.92 0.93 0.92 0.91 0.90 0.87 0.75 0.65 0.60 0.55 0.54 0.49 0.44 0.42 0.38 0.42 0.45 0.45 0.51 0.57 0.56 0.57 0.62 0.67 0.68
0.67 0.69 0.67 0.66 0.67 0.68 0.69 0.69 0.71 0.74 0.76 0.78 0.82 0.84 0.84 0.86 0.84 0.82 0.80 0.77 0.76 0.77 0.77 0.78 0.75 0.65 0.58 0.53 0.53 0.50 0.45 0.40 0.37 0.35 0.39 0.40 0.46 0.53 0.55 0.51 0.47 0.46 0.48
0.63 0.64 0.63 0.64 0.68 0.74 0.79 0.80 0.80 0.84 0.88 0.90 0.89 0.86 0.83 0.84 0.82 0.78 0.73 0.70 0.70 0.73 0.77 0.82 0.79 0.68 0.56 0.48 0.44 0.40 0.41 0.40 0.38 0.36 0.39 0.39 0.40 0.39 0.39 0.42 0.45 0.44 0.46
0.64 0.65 0.69 0.72 0.76 0.84 1.06 1.07 0.98 0.94 0.95 0.92 0.88 0.82 0.77 0.78 0.74 0.74 0.73 0.71 0.74 0.81 0.89 0.92 0.82 0.64 0.46 0.39 0.39 0.44 0.51 0.58 0.51 0.34 0.39 0.39 0.37 0.38 0.36 0.36 0.46 0.51 0.52
0.71 0.75 0.79 0.87 0.93 1.01 1.12 1.04 0.98 0.84 0.82 0.78 0.72 0.67 0.62 0.59 0.61 0.56 0.61 0.69 0.72 0.80 0.81 0.75 0.64 0.48 0.41 0.41 0.53 0.65 0.62 0.60 0.48 0.34 0.43 0.49 0.43 0.41 0.38 0.41 0.48 0.47 0.48
0.84 0.92 0.98 1.01 1.01 1.01 0.97 0.83 0.78 0.67 0.61 0.58 0.53 0.48 0.45 0.44 0.45 0.49 0.54 0.61 0.58 0.56 0.55 0.50 0.48 0.47 0.47 0.49 0.61 0.75 0.73 0.66 0.52 0.42 0.45 0.54 0.45 0.43 0.39 0.40 0.46 0.47 0.51
0.92 0.92 0.89 0.84 0.77 0.72 0.67 0.56 0.48 0.42 0.41 0.39 0.36 0.36 0.37 0.35 0.44 0.56 0.60 0.61 0.51 0.44 0.46 0.51 0.56 0.59 0.61 0.58 0.58 0.69 0.79 0.85 0.72 0.50 0.43 0.46 0.42 0.40 0.40 0.40 0.43 0.50 0.50
0.71 0.62 0.52 0.44 0.38 0.34 0.36 0.35 0.34 0.29 0.30 0.30 0.30 0.32 0.40 0.41 0.52 0.62 0.57 0.57 0.50 0.42 0.44 0.46 0.45 0.44 0.42 0.43 0.49 0.55 0.77 1.07 0.92 0.67 0.44 0.54 0.57 0.61 0.74 0.47 0.42 0.44 0.45

GEFSMA_prec_meanprecacc_180.txt.gz
Total_Precipitation_Accumulation
0.54 0.51 0.44 0.42 0.39 0.35 0.34 0.31 0.27 0.23 0.20 0.17 0.13 0.10 0.09 0.08 0.07 0.08 0.07 0.05 0.04 0.06 0.11 0.17 0.26 0.33 0.39 0.45 0.49 0.49 0.43 0.37 0.35 0.34 0.32 0.31 0.33 0.33 0.33 0.35 0.36 0.37 0.38
0.56 0.51 0.44 0.41 0.38 0.34 0.31 0.32 0.30 0.27 0.24 0.20 0.15 0.11 0.08 0.07 0.06 0.07 0.07 0.06 0.05 0.05 0.07 0.12 0.23 0.34 0.46 0.55 0.60 0.61 0.57 0.53 0.47 0.43 0.41 0.38 0.36 0.35 0.36 0.38 0.39 0.40 0.42
0.68 0.60 0.52 0.43 0.38 0.39 0.36 0.34 0.36 0.30 0.23 0.19 0.16 0.14 0.11 0.09 0.08 0.08 0.08 0.07 0.07 0.07 0.07 0.11 0.20 0.31 0.44 0.54 0.62 0.68 0.70 0.65 0.59 0.55 0.51 0.47 0.43 0.40 0.40 0.42 0.44 0.46 0.47
0.85 0.77 0.71 0.61 0.54 0.51 0.51 0.43 0.37 0.36 0.27 0.22 0.18 0.15 0.13 0.11 0.09 0.08 0.08 0.07 0.07 0.07 0.08 0.10 0.14 0.23 0.33 0.43 0.55 0.67 0.73 0.70 0.64 0.60 0.56 0.55 0.53 0.53 0.54 0.54 0.54 0.54 0.54
0.96 0.88 0.79 0.79 0.78 0.68 0.58 0.53 0.42 0.40 0.36 0.28 0.25 0.21 0.17 0.14 0.12 0.10 0.09 0.09 0.08 0.08 0.08 0.10 0.11 0.14 0.19 0.30 0.42 0.61 0.74 0.79 0.74 0.70 0.69 0.68 0.66 0.65 0.67 0.69 0.70 0.68 0.70
1.05 1.01 0.92 0.89 0.90 0.87 0.77 0.66 0.56 0.49 0.44 0.42 0.36 0.27 0.22 0.17 0.14 0.12 0.11 0.11 0.11 0.10 0.09 0.10 0.11 0.11 0.13 0.20 0.32 0.46 0.65 0.79 0.82 0.80 0.79 0.78 0.79 0.80 0.83 0.87 0.87 0.86 0.86
1.10 1.15 1.09 1.06 1.09 1.05 0.98 0.94 0.86 0.73 0.59 0.56 0.51 0.36 0.24 0.18 0.15 0.13 0.13 0.13 0.13 0.14 0.14 0.14 0.15 0.16 0.18 0.22 0.28 0.35 0.46 0.62 0.80 0.88 0.88 0.87 0.89 0.92 0.97 0.99 1.03 1.03 1.02
1.15 1.18 1.22 1.18 1.12 1.15 1.13 1.09 1.01 0.89 0.78 0.73 0.65 0.58 0.41 0.27 0.18 0.16 0.15 0.14 0.14 0.17 0.18 0.18 0.20 0.21 0.22 0.25 0.27 0.29 0.32 0.44 0.66 0.88 0.96 0.95 0.93 0.95 1.04 1.14 1.22 1.27 1.25
1.28 1.20 1.14 1.15 1.12 1.13 1.15 1.16 1.17 1.16 1.05 0.95 0.85 0.85 0.68 0.45 0.32 0.23 0.19 0.18 0.19 0.20 0.21 0.24 0.25 0.27 0.27 0.27 0.25 0.27 0.29 0.32 0.47 0.75 1.00 1.10 1.10 1.13 1.22 1.32 1.41 1.54 1.56
1.37 1.30 1.24 1.18 1.14 1.12 1.09 1.16 1.21 1.22 1.24 1.14 1.03 0.95 0.86 0.69 0.63 0.45 0.31 0.28 0.30 0.29 0.28 0.27 0.28 0.29 0.30 0.31 0.32 0.34 0.38 0.41 0.50 0.73 1.07 1.31 1.42 1.53 1.66 1.77 1.87 1.99 2.00
1.50 1.38 1.30 1.29 1.25 1.21 1.18 1.19 1.24 1.25 1.26 1.24 1.17 1.09 1.04 0.89 0.77 0.71 0.53 0.41 0.40 0.38 0.37 0.35 0.34 0.34 0.34 0.34 0.35 0.43 0.55 0.61 0.70 0.90 1.18 1.49 1.73 1.91 2.07 2.19 2.29 2.39 2.46
1.44 1.34 1.27 1.23 1.22 1.19 1.17 1.14 1.17 1.20 1.20 1.18 1.14 1.09 1.08 1.02 0.88 0.86 0.78 0.59 0.54 0.49 0.50 0.51 0.48 0.46 0.44 0.42 0.45 0.56 0.61 0.68 0.80 0.98 1.26 1.57 1.76 1.90 2.07 2.26 2.40 2.47 2.57
1.27 1.23 1.20 1.16 1.18 1.16 1.16 1.16 1.14 1.11 1.16 1.16 1.14 1.07 1.01 0.93 0.90 0.96 0.97 0.81 0.67 0.56 0.54 0.54 0.53 0.55 0.58 0.60 0.64 0.75 0.74 0.79 0.86 1.01 1.24 1.50 1.60 1.60 1.63 1.75 1.95 2.14 2.29
1.16 1.15 1.21 1.22 1.23 1.22 1.16 1.15 1.12 1.09 1.11 1.10 1.09 1.09 1.05 0.96 0.92 0.93 0.96 1.03 0.98 0.80 0.68 0.63 0.61 0.66 0.71 0.76 0.85 0.94 0.85 0.94 0.93 0.97 1.09 1.26 1.34 1.29 1.24 1.32 1.49 1.66 1.84
1.11 1.08 1.13 1.15 1.14 1.13 1.08 1.08 1.06 1.00 0.97 0.97 0.96 0.98 1.00 0.94 0.93 0.94 0.98 1.11 1.30 1.27 1.03 0.84 0.82 0.85 0.87 0.87 0.94 0.86 0.76 0.91 0.95 0.94 0.97 1.02 1.04 1.03 1.03 1.06 1.13 1.24 1.35
1.00 0.99 1.02 1.03 1.01 1.00 0.99 0.98 0.94 0.87 0.85 0.81 0.81 0.84 0.87 0.88 0.92 0.97 1.05 1.14 1.27 1.42 1.32 1.00 0.87 0.87 0.90 0.89 0.93 0.78 0.71 0.84 0.81 0.80 0.81 0.83 0.84 0.84 0.86 0.90 0.97 1.05 1.13
0.80 0.80 0.86 0.89 0.85 0.82 0.82 0.83 0.81 0.80 0.78 0.75 0.74 0.76 0.77 0.81 0.89 0.95 1.04 1.13 1.23 1.34 1.37 1.12 0.92 0.84 0.84 0.79 0.74 0.64 0.59 0.58 0.57 0.67 0.66 0.66 0.69 0.71 0.71 0.75 0.82 0.89 0.97
0.74 0.72 0.74 0.77 0.75 0.71 0.70 0.71 0.71 0.72 0.75 0.76 0.76 0.79 0.79 0.83 0.92 0.98 1.05 1.11 1.14 1.17 1.19 1.08 0.87 0.77 0.71 0.63 0.59 0.54 0.49 0.46 0.43 0.55 0.56 0.56 0.59 0.61 0.59 0.60 0.67 0.75 0.82
0.73 0.74 0.70 0.70 0.69 0.67 0.67 0.67 0.67 0.67 0.70 0.74 0.78 0.82 0.83 0.87 0.91 0.92 0.93 0.94 0.94 0.92 0.92 0.89 0.76 0.66 0.61 0.56 0.54 0.49 0.44 0.42 0.38 0.42 0.45 0.45 0.52 0.58 0.56 0.57 0.62 0.68 0.69
0.67 0.70 0.67 0.67 0.68 0.70 0.71 0.71 0.73 0.76 0.78 0.81 0.84 0.86 0.86 0.87 0.85 0.83 0.81 0.78 0.77 0.78 0.78 0.80 0.76 0.66 0.59 0.54 0.54 0.50 0.45 0.40 0.38 0.35 0.40 0.40 0.47 0.54 0.56 0.52 0.48 0.47 0.49
0.63 0.64 0.63 0.64 0.68 0.74 0.80 0.81 0.81 0.85 0.90 0.92 0.91 0.88 0.84 0.85 0.83 0.78 0.73 0.70 0.70 0.74 0.79 0.83 0.80 0.69 0.57 0.49 0.45 0.41 0.42 0.41 0.39 0.36 0.40 0.40 0.40 0.40 0.40 0.44 0.47 0.47 0.49
0.64 0.65 0.69 0.72 0.76 0.84 1.06 1.08 0.99 0.95 0.96 0.94 0.90 0.83 0.78 0.79 0.75 0.74 0.73 0.71 0.74 0.81 0.90 0.94 0.83 0.66 0.47 0.40 0.40 0.46 0.53 0.60 0.52 0.35 0.40 0.40 0.38 0.39 0.37 0.38 0.48 0.53 0.55
0.71 0.75 0.80 0.87 0.93 1.01 1.12 1.04 0.98 0.84 0.82 0.79 0.73 0.67 0.63 0.60 0.62 0.56 0.62 0.69 0.72 0.80 0.82 0.75 0.65 0.49 0.42 0.42 0.55 0.67 0.64 0.62 0.49 0.35 0.44 0.50 0.45 0.42 0.39 0.42 0.50 0.48 0.50
0.84 0.92 0.98 1.01 1.01 1.01 0.97 0.84 0.78 0.67 0.61 0.58 0.53 0.48 0.46 0.45 0.45 0.50 0.54 0.62 0.58 0.56 0.55 0.51 0.49 0.47 0.48 0.51 0.63 0.77 0.75 0.68 0.53 0.43 0.46 0.55 0.46 0.44 0.40 0.42 0.48 0.48 0.52
0.92 0.92 0.89 0.84 0.77 0.72 0.67 0.56 0.48 0.42 0.41 0.39 0.36 0.36 0.37 0.35 0.44 0.56 0.60 0.61 0.51 0.44 0.46 0.51 0.57 0.59 0.61 0.59 0.59 0.70 0.80 0.86 0.73 0.51 0.44 0.48 0.43 0.41 0.41 0.41 0.44 0.51 0.50
0.71 0.62 0.52 0.44 0.38 0.34 0.36 0.35 0.34 0.29 0.30 0.30 0.30 0.32 0.40 0.42 0.52 0.63 0.58 0.57 0.50 0.42 0.44 0.46 0.45 0.44 0.43 0.44 0.50 0.56 0.79 1.09 0.94 0.69 0.45 0.55 0.58 0.62 0.75 0.48 0.43 0.45 0.45

GEFSMA_prec_meanprecacc_186.txt.gz
Total_Precipitation_Accumulation
0.59 0.54 0.46 0.44 0.40 0.37 0.35 0.32 0.28 0.23 0.21 0.18 0.14 0.11 0.10 0.09 0.08 0.09 0.08 0.05 0.04 0.07 0.13 0.20 0.28 0.36 0.42 0.48 0.52 0.52 0.46 0.39 0.36 0.35 0.33 0.33 0.34 0.35 0.36 0.38 0.39 0.40 0.41
0.64 0.55 0.47 0.43 0.40 0.36 0.32 0.32 0.30 0.27 0.25 0.20 0.15 0.12 0.09 0.08 0.07 0.07 0.07 0.06 0.05 0.05 0.08 0.14 0.24 0.36 0.49 0.59 0.63 0.64 0.61 0.56 0.50 0.45 0.42 0.39 0.38 0.37 0.38 0.41 0.43 0.44 0.45
0.78 0.66 0.56 0.45 0.40 0.40 0.37 0.35 0.36 0.31 0.24 0.21 0.17 0.15 0.12 0.11 0.09 0.08 0.08 0.07 0.07 0.07 0.07 0.12 0.21 0.32 0.46 0.56 0.65 0.72 0.75 0.70 0.64 0.58 0.54 0.50 0.45 0.42 0.42 0.44 0.47 0.49 0.50
0.94 0.84 0.76 0.65 0.56 0.53 0.52 0.44 0.37 0.37 0.28 0.23 0.19 0.16 0.14 0.12 0.10 0.09 0.09 0.08 0.07 0.07 0.08 0.10 0.14 0.23 0.34 0.44 0.58 0.70 0.77 0.74 0.68 0.64 0.59 0.58 0.57 0.57 0.56 0.56 0.56 0.57 0.58
1.03 0.93 0.84 0.84 0.82 0.71 0.60 0.54 0.43 0.41 0.37 0.30 0.26 0.22 0.18 0.15 0.13 0.11 0.10 0.09 0.09 0.08 0.08 0.10 0.11 0.14 0.20 0.30 0.44 0.63 0.77 0.81 0.76 0.72 0.71 0.70 0.69 0.69 0.71 0.73 0.72 0.71 0.72
1.13 1.08 0.96 0.93 0.95 0.90 0.79 0.67 0.57 0.49 0.45 0.43 0.38 0.29 0.23 0.18 0.15 0.13 0.12 0.12 0.11 0.10 0.10 0.10 0.11 0.11 0.13 0.20 0.33 0.47 0.67 0.81 0.84 0.82 0.80 0.79 0.80 0.81 0.85 0.89 0.90 0.89 0.90
1.16 1.22 1.14 1.10 1.12 1.09 1.01 0.95 0.87 0.73 0.60 0.58 0.53 0.38 0.26 0.19 0.16 0.13 0.13 0.13 0.13 0.14 0.14 0.14 0.15 0.16 0.18 0.22 0.29 0.36 0.47 0.64 0.82 0.90 0.89 0.88 0.90 0.93 0.98 1.01 1.05 1.05 1.04
1.20 1.24 1.28 1.25 1.17 1.19 1.17 1.11 1.02 0.90 0.79 0.74 0.66 0.60 0.43 0.29 0.19 0.16 0.15 0.14 0.15 0.17 0.18 0.19 0.20 0.21 0.22 0.25 0.27 0.29 0.33 0.44 0.66 0.89 0.98 0.96 0.95 0.96 1.06 1.16 1.23 1.29 1.27
1.32 1.24 1.20 1.22 1.20 1.21 1.22 1.19 1.19 1.18 1.08 0.97 0.87 0.87 0.70 0.46 0.33 0.24 0.21 0.19 0.20 0.21 0.22 0.24 0.25 0.27 0.27 0.27 0.25 0.27 0.29 0.33 0.47 0.76 1.01 1.11 1.12 1.14 1.23 1.34 1.43 1.55 1.57
1.41 1.34 1.28 1.22 1.20 1.19 1.17 1.22 1.24 1.25 1.27 1.18 1.07 0.98 0.89 0.71 0.64 0.46 0.32 0.30 0.32 0.31 0.30 0.28 0.28 0.30 0.31 0.31 0.32 0.34 0.38 0.41 0.50 0.73 1.07 1.32 1.44 1.55 1.68 1.79 1.90 2.02 2.02
1.52 1.41 1.32 1.31 1.28 1.24 1.21 1.23 1.28 1.28 1.28 1.27 1.21 1.12 1.06 0.92 0.79 0.73 0.55 0.43 0.42 0.40 0.39 0.37 0.34 0.34 0.34 0.34 0.35 0.43 0.55 0.61 0.71 0.90 1.19 1.51 1.74 1.92 2.08 2.20 2.31 2.41 2.48
1.45 1.35 1.28 1.25 1.23 1.21 1.19 1.15 1.19 1.22 1.22 1.19 1.16 1.11 1.10 1.03 0.90 0.88 0.80 0.61 0.56 0.51 0.52 0.52 0.49 0.46 0.44 0.43 0.45 0.57 0.61 0.68 0.80 0.98 1.27 1.58 1.77 1.91 2.08 2.27 2.41 2.48 2.59
1.29 1.24 1.22 1.17 1.18 1.17 1.17 1.17 1.15 1.12 1.17 1.18 1.14 1.08 1.02 0.94 0.90 0.97 0.97 0.82 0.68 0.57 0.55 0.55 0.54 0.56 0.58 0.60 0.64 0.76 0.74 0.79 0.86 1.01 1.25 1.51 1.61 1.61 1.64 1.75 1.96 2.15 2.30
1.17 1.16 1.22 1.23 1.23 1.23 1.17 1.17 1.14 1.10 1.11 1.10 1.10 1.09 1.05 0.96 0.92 0.93 0.96 1.03 0.99 0.81 0.69 0.64 0.61 0.67 0.72 0.76 0.85 0.94 0.85 0.94 0.93 0.97 1.10 1.26 1.34 1.29 1.24 1.32 1.49 1.67 1.85
1.13 1.10 1.15 1.16 1.14 1.14 1.09 1.10 1.09 1.03 0.99 0.99 0.97 0.98 1.00 0.95 0.93 0.94 0.98 1.11 1.31 1.28 1.04 0.85 0.84 0.86 0.88 0.88 0.95 0.87 0.77 0.91 0.95 0.94 0.97 1.02 1.04 1.04 1.03 1.06 1.14 1.25 1.36
1.02 1.01 1.05 1.05 1.03 1.01 1.00 0.99 0.96 0.91 0.89 0.85 0.84 0.86 0.88 0.89 0.93 0.98 1.06 1.15 1.28 1.43 1.33 1.00 0.88 0.88 0.91 0.90 0.94 0.79 0.71 0.84 0.81 0.80 0.81 0.83 0.84 0.84 0.86 0.91 0.98 1.06 1.14
0.82 0.82 0.90 0.92 0.88 0.84 0.83 0.85 0.83 0.82 0.82 0.80 0.79 0.80 0.79 0.83 0.91 0.96 1.05 1.14 1.24 1.36 1.38 1.13 0.93 0.85 0.85 0.80 0.75 0.65 0.59 0.58 0.57 0.67 0.67 0.66 0.69 0.72 0.72 0.76 0.83 0.90 0.97
0.76 0.74 0.76 0.81 0.79 0.74 0.72 0.73 0.74 0.75 0.79 0.79 0.81 0.83 0.83 0.86 0.93 0.99 1.06 1.12 1.15 1.18 1.20 1.08 0.88 0.78 0.71 0.64 0.60 0.55 0.50 0.46 0.44 0.56 0.56 0.56 0.59 0.61 0.59 0.60 0.67 0.75 0.82
0.74 0.74 0.71 0.72 0.72 0.71 0.71 0.71 0.70 0.70 0.74 0.78 0.83 0.87 0.88 0.91 0.95 0.95 0.95 0.96 0.95 0.93 0.93 0.90 0.78 0.67 0.62 0.57 0.55 0.50 0.45 0.43 0.39 0.43 0.45 0.46 0.52 0.58 0.56 0.57 0.62 0.68 0.69
0.68 0.70 0.68 0.68 0.70 0.72 0.75 0.75 0.77 0.79 0.81 0.84 0.88 0.91 0.91 0.91 0.89 0.87 0.84 0.81 0.79 0.80 0.80 0.81 0.77 0.67 0.61 0.55 0.55 0.52 0.47 0.41 0.39 0.36 0.40 0.41 0.47 0.55 0.56 0.52 0.48 0.48 0.50
0.63 0.64 0.64 0.65 0.70 0.76 0.82 0.85 0.85 0.88 0.93 0.95 0.94 0.91 0.88 0.90 0.88 0.82 0.77 0.74 0.73 0.77 0.81 0.86 0.82 0.71 0.58 0.50 0.47 0.42 0.44 0.43 0.40 0.37 0.40 0.40 0.41 0.40 0.40 0.44 0.47 0.47 0.50
0.64 0.65 0.70 0.74 0.78 0.86 1.08 1.10 1.02 0.98 0.99 0.97 0.93 0.86 0.81 0.82 0.79 0.79 0.78 0.76 0.78 0.85 0.93 0.96 0.86 0.68 0.49 0.41 0.42 0.48 0.55 0.62 0.55 0.37 0.41 0.41 0.39 0.40 0.38 0.39 0.49 0.54 0.56
0.71 0.75 0.80 0.88 0.94 1.03 1.15 1.06 1.00 0.86 0.84 0.82 0.76 0.70 0.66 0.63 0.65 0.59 0.65 0.73 0.76 0.83 0.85 0.78 0.68 0.52 0.45 0.44 0.57 0.69 0.66 0.64 0.51 0.37 0.46 0.52 0.46 0.44 0.40 0.43 0.51 0.49 0.51
0.84 0.93 0.98 1.01 1.01 1.02 0.99 0.85 0.80 0.69 0.63 0.60 0.56 0.51 0.48 0.47 0.48 0.52 0.56 0.64 0.60 0.58 0.57 0.53 0.51 0.49 0.49 0.52 0.65 0.79 0.76 0.70 0.55 0.45 0.48 0.57 0.48 0.46 0.42 0.44 0.50 0.50 0.53
0.92 0.92 0.89 0.84 0.77 0.72 0.67 0.57 0.49 0.44 0.43 0.41 0.38 0.38 0.39 0.36 0.46 0.58 0.62 0.63 0.53 0.45 0.48 0.52 0.58 0.61 0.63 0.61 0.61 0.72 0.82 0.88 0.75 0.53 0.46 0.50 0.45 0.43 0.43 0.43 0.46 0.53 0.52
0.71 0.62 0.52 0.44 0.38 0.34 0.36 0.36 0.34 0.29 0.31 0.31 0.31 0.33 0.41 0.42 0.53 0.64 0.59 0.58 0.52 0.43 0.45 0.47 0.46 0.45 0.44 0.45 0.51 0.57 0.80 1.11 0.96 0.71 0.47 0.57 0.60 0.65 0.78 0.50 0.45 0.47 0.47

GEFSMA_prec_meanprecacc_192.txt.gz
Total_Precipitation_Accumulation
0.65 0.60 0.52 0.50 0.46 0.41 0.39 0.35 0.30 0.25 0.22 0.18 0.14 0.12 0.11 0.10 0.08 0.09 0.09 0.06 0.06 0.09 0.15 0.22 0.30 0.37 0.43 0.49 0.54 0.54 0.48 0.42 0.38 0.36 0.35 0.35 0.36 0.36 0.38 0.40 0.41 0.42 0.43
0.68 0.60 0.51 0.48 0.45 0.41 0.37 0.36 0.33 0.29 0.26 0.21 0.16 0.12 0.10 0.09 0.08 0.08 0.08 0.07 0.06 0.07 0.10 0.15 0.26 0.38 0.50 0.60 0.65 0.66 0.63 0.59 0.52 0.47 0.44 0.41 0.39 0.38 0.39 0.42 0.44 0.45 0.46
0.81 0.71 0.60 0.49 0.45 0.45 0.43 0.42 0.41 0.33 0.26 0.21 0.17 0.15 0.13 0.12 0.10 0.09 0.09 0.08 0.08 0.08 0.08 0.13 0.22 0.34 0.47 0.58 0.66 0.73 0.76 0.72 0.66 0.61 0.56 0.52 0.46 0.43 0.43 0.45 0.48 0.50 0.51
0.97 0.87 0.81 0.69 0.60 0.58 0.57 0.51 0.45 0.42 0.30 0.24 0.20 0.16 0.14 0.13 0.11 0.10 0.10 0.09 0.08 0.08 0.09 0.11 0.15 0.24 0.35 0.46 0.59 0.71 0.78 0.75 0.69 0.65 0.61 0.60 0.58 0.58 0.58 0.58 0.58 0.58 0.59
1.08 0.97 0.87 0.87 0.85 0.76 0.65 0.59 0.48 0.48 0.42 0.32 0.27 0.22 0.19 0.16 0.13 0.12 0.11 0.11 0.10 0.09 0.09 0.11 0.12 0.14 0.21 0.31 0.45 0.64 0.78 0.83 0.77 0.73 0.72 0.72 0.70 0.70 0.73 0.75 0.74 0.73 0.74
1.19 1.13 1.00 0.96 0.98 0.94 0.84 0.72 0.62 0.54 0.50 0.47 0.40 0.30 0.23 0.19 0.16 0.14 0.13 0.14 0.13 0.12 0.11 0.12 0.12 0.12 0.14 0.21 0.33 0.48 0.68 0.82 0.85 0.83 0.81 0.81 0.81 0.83 0.87 0.91 0.92 0.91 0.93
1.21 1.26 1.18 1.14 1.16 1.12 1.05 1.00 0.92 0.78 0.64 0.62 0.57 0.41 0.27 0.21 0.17 0.14 0.14 0.15 0.16 0.17 0.17 0.16 0.17 0.17 0.18 0.22 0.29 0.36 0.48 0.65 0.83 0.91 0.90 0.89 0.91 0.95 1.00 1.03 1.06 1.06 1.06
1.23 1.26 1.31 1.28 1.21 1.23 1.21 1.16 1.07 0.93 0.82 0.77 0.70 0.63 0.46 0.31 0.22 0.18 0.16 0.15 0.16 0.19 0.20 0.21 0.22 0.23 0.24 0.26 0.27 0.29 0.33 0.45 0.67 0.90 0.99 0.98 0.96 0.98 1.07 1.17 1.25 1.30 1.28
1.35 1.27 1.22 1.25 1.24 1.25 1.26 1.25 1.25 1.23 1.11 1.00 0.90 0.90 0.73 0.49 0.35 0.26 0.22 0.20 0.20 0.22 0.24 0.26 0.27 0.29 0.30 0.29 0.27 0.27 0.29 0.33 0.47 0.77 1.02 1.12 1.13 1.16 1.25 1.35 1.45 1.57 1.59
1.44 1.37 1.30 1.25 1.24 1.24 1.23 1.28 1.31 1.31 1.32 1.22 1.10 1.01 0.91 0.74 0.67 0.48 0.33 0.30 0.32 0.31 0.31 0.31 0.31 0.32 0.33 0.33 0.35 0.36 0.39 0.41 0.50 0.74 1.09 1.33 1.46 1.57 1.70 1.80 1.91 2.03 2.03
1.53 1.42 1.34 1.32 1.30 1.28 1.26 1.29 1.34 1.34 1.34 1.32 1.26 1.16 1.10 0.94 0.81 0.75 0.57 0.44 0.42 0.40 0.40 0.38 0.37 0.36 0.36 0.36 0.37 0.46 0.57 0.62 0.71 0.91 1.20 1.52 1.76 1.94 2.09 2.21 2.32 2.42 2.49
1.45 1.36 1.29 1.26 1.24 1.23 1.22 1.20 1.24 1.28 1.28 1.24 1.20 1.14 1.13 1.06 0.93 0.90 0.82 0.63 0.58 0.53 0.53 0.53 0.51 0.48 0.45 0.44 0.46 0.58 0.63 0.70 0.81 0.99 1.28 1.59 1.78 1.92 2.09 2.28 2.42 2.49 2.59
1.29 1.25 1.22 1.18 1.20 1.19 1.20 1.21 1.18 1.16 1.21 1.22 1.18 1.11 1.04 0.96 0.92 0.99 0.99 0.84 0.70 0.59 0.57 0.57 0.56 0.58 0.61 0.63 0.66 0.77 0.75 0.80 0.87 1.02 1.26 1.52 1.61 1.61 1.65 1.76 1.97 2.15 2.31
1.18 1.17 1.23 1.24 1.26 1.25 1.19 1.20 1.17 1.12 1.13 1.13 1.13 1.12 1.08 0.98 0.94 0.94 0.98 1.04 1.00 0.81 0.70 0.65 0.63 0.69 0.74 0.79 0.88 0.96 0.87 0.95 0.94 0.98 1.10 1.27 1.35 1.29 1.25 1.33 1.50 1.68 1.86
1.14 1.11 1.16 1.17 1.16 1.16 1.11 1.12 1.12 1.06 1.00 1.00 0.99 1.00 1.02 0.96 0.95 0.96 0.99 1.12 1.32 1.29 1.04 0.86 0.85 0.87 0.89 0.90 0.97 0.89 0.79 0.92 0.96 0.95 0.98 1.02 1.05 1.04 1.04 1.06 1.14 1.25 1.36
1.03 1.02 1.06 1.06 1.04 1.03 1.02 1.01 0.98 0.94 0.92 0.87 0.85 0.87 0.89 0.90 0.93 0.99 1.07 1.16 1.29 1.45 1.34 1.01 0.89 0.89 0.92 0.91 0.95 0.80 0.72 0.86 0.82 0.82 0.82 0.84 0.84 0.84 0.87 0.91 0.98 1.07 1.14
0.83 0.84 0.91 0.94 0.90 0.85 0.85 0.87 0.85 0.84 0.84 0.82 0.81 0.80 0.80 0.83 0.91 0.96 1.06 1.16 1.25 1.37 1.40 1.14 0.93 0.86 0.86 0.81 0.76 0.66 0.60 0.59 0.57 0.67 0.67 0.67 0.69 0.72 0.72 0.76 0.83 0.90 0.98
0.78 0.75 0.78 0.82 0.81 0.76 0.74 0.75 0.75 0.76 0.80 0.81 0.83 0.85 0.84 0.87 0.94 1.01 1.07 1.13 1.16 1.19 1.21 1.10 0.89 0.78 0.72 0.65 0.61 0.55 0.51 0.47 0.44 0.56 0.57 0.56 0.59 0.62 0.60 0.61 0.67 0.76 0.83
0.76 0.76 0.73 0.74 0.74 0.74 0.73 0.73 0.72 0.72 0.76 0.80 0.85 0.89 0.89 0.92 0.96 0.96 0.96 0.96 0.96 0.94 0.94 0.91 0.79 0.68 0.62 0.58 0.56 0.51 0.46 0.44 0.40 0.44 0.46 0.46 0.52 0.58 0.57 0.58 0.63 0.69 0.70
0.69 0.72 0.70 0.69 0.72 0.74 0.77 0.77 0.79 0.81 0.83 0.86 0.90 0.93 0.92 0.93 0.90 0.88 0.86 0.82 0.80 0.81 0.81 0.82 0.78 0.68 0.62 0.56 0.57 0.53 0.48 0.42 0.40 0.37 0.41 0.41 0.47 0.55 0.56 0.53 0.49 0.49 0.50
0.64 0.65 0.65 0.66 0.71 0.78 0.84 0.87 0.87 0.90 0.95 0.97 0.96 0.93 0.90 0.92 0.89 0.83 0.78 0.75 0.75 0.78 0.83 0.87 0.84 0.72 0.60 0.52 0.48 0.43 0.45 0.44 0.42 0.38 0.41 0.41 0.41 0.40 0.40 0.45 0.48 0.48 0.51
0.65 0.66 0.71 0.74 0.79 0.87 1.10 1.11 1.03 1.00 1.01 0.99 0.95 0.88 0.83 0.84 0.80 0.80 0.79 0.77 0.80 0.86 0.95 0.98 0.88 0.70 0.50 0.43 0.43 0.49 0.56 0.63 0.56 0.38 0.42 0.42 0.40 0.40 0.38 0.39 0.50 0.54 0.56
0.72 0.75 0.80 0.88 0.95 1.04 1.15 1.07 1.01 0.88 0.86 0.84 0.78 0.73 0.68 0.65 0.66 0.61 0.66 0.74 0.77 0.86 0.87 0.81 0.70 0.54 0.46 0.45 0.58 0.70 0.67 0.65 0.52 0.38 0.48 0.53 0.47 0.45 0.41 0.44 0.53 0.50 0.52
0.84 0.93 0.99 1.01 1.01 1.02 0.99 0.86 0.81 0.70 0.64 0.61 0.58 0.53 0.51 0.50 0.51 0.54 0.58 0.66 0.62 0.61 0.60 0.55 0.53 0.51 0.52 0.55 0.67 0.81 0.79 0.72 0.56 0.46 0.49 0.59 0.49 0.46 0.43 0.45 0.51 0.51 0.54
0.93 0.93 0.90 0.84 0.77 0.72 0.68 0.57 0.50 0.45 0.45 0.42 0.39 0.40 0.42 0.40 0.49 0.62 0.65 0.65 0.55 0.48 0.51 0.55 0.61 0.63 0.66 0.64 0.64 0.76 0.85 0.92 0.77 0.54 0.47 0.51 0.46 0.43 0.44 0.43 0.47 0.55 0.54
0.72 0.63 0.52 0.44 0.39 0.35 0.36 0.36 0.35 0.30 0.32 0.33 0.33 0.35 0.43 0.45 0.56 0.68 0.63 0.62 0.55 0.47 0.48 0.50 0.49 0.47 0.46 0.47 0.54 0.59 0.83 1.14 0.99 0.73 0.48 0.58 0.61 0.66 0.79 0.51 0.46 0.48 0.48

GEFSMA_prec_meanprecacc_198.txt.gz
Total_Precipitation_Accumulation
0.68 0.62 0.53 0.52 0.48 0.43 0.41 0.37 0.32 0.27 0.24 0.20 0.16 0.13 0.12 0.12 0.09 0.10 0.09 0.06 0.06 0.10 0.17 0.24 0.33 0.39 0.45 0.51 0.55 0.55 0.50 0.43 0.39 0.38 0.37 0.36 0.38 0.38 0.39 0.42 0.43 0.44 0.45
0.71 0.63 0.53 0.49 0.47 0.43 0.39 0.38 0.35 0.32 0.29 0.24 0.18 0.14 0.11 0.11 0.09 0.09 0.09 0.07 0.06 0.07 0.11 0.17 0.29 0.40 0.52 0.62 0.67 0.67 0.64 0.60 0.53 0.48 0.45 0.42 0.41 0.40 0.41 0.43 0.45 0.47 0.48
0.83 0.73 0.62 0.51 0.46 0.47 0.45 0.44 0.44 0.37 0.29 0.25 0.20 0.18 0.15 0.15 0.12 0.11 0.10 0.09 0.09 0.08 0.09 0.14 0.24 0.36 0.49 0.60 0.68 0.75 0.78 0.74 0.68 0.63 0.58 0.54 0.48 0.45 0.44 0.46 0.49 0.51 0.53
0.99 0.88 0.82 0.71 0.62 0.60 0.59 0.53 0.48 0.46 0.34 0.27 0.23 0.20 0.19 0.17 0.15 0.13 0.11 0.09 0.08 0.08 0.09 0.11 0.16 0.25 0.37 0.48 0.61 0.73 0.79 0.77 0.71 0.67 0.63 0.61 0.60 0.60 0.60 0.59 0.59 0.59 0.60
1.10 0.98 0.88 0.89 0.88 0.78 0.67 0.61 0.50 0.50 0.45 0.36 0.31 0.27 0.23 0.19 0.16 0.14 0.13 0.12 0.11 0.09 0.10 0.11 0.12 0.15 0.21 0.32 0.46 0.66 0.80 0.84 0.79 0.75 0.74 0.74 0.72 0.72 0.75 0.77 0.75 0.74 0.75
1.22 1.15 1.02 0.99 1.00 0.97 0.87 0.75 0.64 0.56 0.52 0.49 0.43 0.33 0.27 0.22 0.18 0.16 0.15 0.15 0.14 0.12 0.12 0.12 0.12 0.12 0.14 0.21 0.34 0.50 0.70 0.84 0.87 0.85 0.83 0.82 0.83 0.85 0.89 0.93 0.94 0.92 0.94
1.23 1.28 1.20 1.16 1.18 1.15 1.08 1.03 0.95 0.81 0.67 0.64 0.59 0.43 0.30 0.23 0.20 0.17 0.17 0.17 0.16 0.17 0.17 0.17 0.17 0.18 0.19 0.23 0.30 0.37 0.49 0.67 0.85 0.93 0.92 0.91 0.93 0.97 1.02 1.05 1.08 1.08 1.08
1.26 1.29 1.33 1.29 1.22 1.25 1.23 1.19 1.10 0.97 0.86 0.80 0.73 0.66 0.48 0.33 0.23 0.19 0.18 0.18 0.18 0.20 0.21 0.21 0.22 0.24 0.24 0.27 0.28 0.30 0.34 0.46 0.69 0.93 1.01 1.00 0.98 1.00 1.10 1.19 1.27 1.33 1.31
1.38 1.30 1.25 1.28 1.26 1.27 1.28 1.27 1.28 1.26 1.14 1.03 0.92 0.93 0.76 0.51 0.37 0.27 0.23 0.22 0.23 0.24 0.25 0.26 0.27 0.30 0.31 0.31 0.29 0.29 0.30 0.34 0.49 0.79 1.05 1.15 1.15 1.18 1.28 1.38 1.48 1.60 1.62
1.46 1.40 1.34 1.29 1.27 1.27 1.25 1.31 1.34 1.35 1.36 1.25 1.13 1.04 0.93 0.76 0.69 0.50 0.35 0.32 0.34 0.34 0.33 0.31 0.31 0.32 0.33 0.34 0.36 0.38 0.41 0.43 0.52 0.77 1.12 1.37 1.49 1.59 1.72 1.82 1.93 2.05 2.06
1.54 1.44 1.36 1.36 1.34 1.32 1.30 1.32 1.37 1.38 1.39 1.37 1.30 1.20 1.12 0.96 0.83 0.77 0.59 0.47 0.44 0.42 0.42 0.39 0.37 0.36 0.36 0.37 0.38 0.46 0.58 0.64 0.73 0.93 1.23 1.56 1.79 1.97 2.11 2.23 2.33 2.43 2.50
1.46 1.36 1.30 1.27 1.26 1.25 1.25 1.23 1.27 1.32 1.33 1.29 1.25 1.18 1.17 1.09 0.95 0.93 0.84 0.66 0.62 0.55 0.55 0.55 0.52 0.48 0.45 0.44 0.46 0.59 0.64 0.71 0.83 1.01 1.30 1.62 1.81 1.95 2.11 2.29 2.43 2.51 2.61
1.31 1.26 1.23 1.18 1.21 1.20 1.20 1.21 1.19 1.18 1.24 1.26 1.23 1.15 1.08 0.99 0.95 1.02 1.03 0.87 0.75 0.63 0.60 0.59 0.59 0.60 0.62 0.64 0.67 0.78 0.76 0.81 0.89 1.04 1.28 1.54 1.63 1.63 1.67 1.78 1.98 2.17 2.32
1.19 1.18 1.24 1.25 1.26 1.26 1.20 1.20 1.18 1.13 1.15 1.15 1.16 1.15 1.11 1.01 0.97 0.97 1.01 1.08 1.04 0.86 0.75 0.68 0.65 0.71 0.77 0.82 0.90 0.98 0.88 0.97 0.96 1.00 1.12 1.29 1.36 1.30 1.26 1.34 1.52 1.70 1.87
1.15 1.12 1.17 1.19 1.17 1.16 1.12 1.13 1.13 1.07 1.01 1.01 1.00 1.02 1.05 0.99 0.97 0.97 1.01 1.14 1.34 1.32 1.09 0.90 0.87 0.89 0.91 0.92 0.99 0.91 0.80 0.94 0.98 0.97 1.00 1.04 1.06 1.05 1.04 1.07 1.15 1.27 1.38
1.05 1.04 1.07 1.08 1.06 1.04 1.03 1.03 0.99 0.95 0.93 0.88 0.86 0.89 0.91 0.92 0.96 1.00 1.09 1.17 1.31 1.46 1.36 1.04 0.92 0.91 0.94 0.93 0.97 0.82 0.74 0.87 0.84 0.83 0.84 0.85 0.86 0.86 0.87 0.92 0.99 1.07 1.15
0.86 0.85 0.92 0.95 0.91 0.86 0.86 0.88 0.86 0.86 0.86 0.84 0.83 0.82 0.81 0.85 0.93 0.98 1.07 1.17 1.27 1.39 1.42 1.16 0.95 0.88 0.88 0.83 0.78 0.67 0.61 0.60 0.58 0.69 0.68 0.68 0.71 0.74 0.73 0.77 0.84 0.91 0.98
0.80 0.78 0.80 0.84 0.82 0.77 0.74 0.76 0.77 0.78 0.82 0.83 0.84 0.87 0.86 0.88 0.96 1.02 1.09 1.14 1.17 1.20 1.23 1.11 0.90 0.79 0.74 0.67 0.62 0.57 0.52 0.49 0.46 0.57 0.58 0.57 0.61 0.63 0.61 0.62 0.68 0.76 0.83
0.78 0.78 0.74 0.75 0.75 0.75 0.74 0.73 0.73 0.74 0.78 0.82 0.86 0.91 0.91 0.95 0.98 0.98 0.98 0.98 0.97 0.95 0.95 0.93 0.80 0.69 0.64 0.59 0.58 0.52 0.47 0.45 0.41 0.45 0.47 0.47 0.53 0.59 0.58 0.59 0.64 0.70 0.71
0.72 0.73 0.71 0.70 0.72 0.75 0.78 0.78 0.80 0.82 0.85 0.88 0.92 0.94 0.94 0.95 0.92 0.91 0.88 0.83 0.82 0.82 0.82 0.83 0.79 0.69 0.63 0.57 0.58 0.55 0.49 0.43 0.40 0.38 0.42 0.42 0.48 0.56 0.57 0.54 0.50 0.50 0.51
0.68 0.68 0.67 0.67 0.72 0.79 0.85 0.87 0.88 0.91 0.96 0.99 0.98 0.95 0.92 0.94 0.91 0.85 0.80 0.76 0.76 0.79 0.84 0.89 0.85 0.73 0.60 0.52 0.49 0.44 0.46 0.45 0.42 0.39 0.42 0.42 0.42 0.41 0.41 0.45 0.49 0.49 0.52
0.70 0.70 0.74 0.76 0.80 0.88 1.11 1.13 1.05 1.01 1.02 1.00 0.96 0.90 0.84 0.85 0.82 0.81 0.80 0.78 0.81 0.87 0.96 0.99 0.89 0.70 0.51 0.43 0.43 0.49 0.57 0.64 0.57 0.38 0.42 0.42 0.40 0.41 0.39 0.40 0.51 0.55 0.58
0.76 0.80 0.84 0.92 0.98 1.06 1.18 1.09 1.02 0.89 0.87 0.85 0.80 0.74 0.70 0.66 0.67 0.61 0.67 0.75 0.78 0.87 0.88 0.82 0.71 0.55 0.47 0.46 0.58 0.71 0.68 0.66 0.53 0.38 0.48 0.54 0.47 0.45 0.42 0.46 0.54 0.52 0.53
0.86 0.95 1.01 1.03 1.03 1.04 1.01 0.88 0.82 0.72 0.66 0.63 0.59 0.55 0.53 0.52 0.52 0.55 0.59 0.66 0.63 0.61 0.60 0.56 0.54 0.52 0.52 0.56 0.68 0.82 0.80 0.73 0.57 0.46 0.50 0.60 0.50 0.47 0.44 0.46 0.53 0.53 0.56
0.94 0.94 0.90 0.85 0.78 0.73 0.69 0.58 0.51 0.46 0.46 0.44 0.41 0.41 0.43 0.41 0.50 0.63 0.66 0.66 0.56 0.49 0.52 0.56 0.62 0.64 0.67 0.65 0.65 0.77 0.87 0.93 0.79 0.55 0.47 0.51 0.46 0.44 0.44 0.44 0.48 0.56 0.55
0.73 0.64 0.53 0.45 0.40 0.36 0.37 0.37 0.36 0.31 0.34 0.35 0.36 0.37 0.46 0.47 0.58 0.69 0.64 0.63 0.56 0.48 0.49 0.51 0.50 0.48 0.47 0.48 0.55 0.60 0.84 1.15 1.01 0.75 0.49 0.59 0.62 0.67 0.81 0.52 0.46 0.49 0.49

GEFSMA_prec_meanprecacc_204.txt.gz
Total_Precipitation_Accumulation
0.69 0.63 0.54 0.52 0.48 0.44 0.42 0.38 0.33 0.27 0.24 0.21 0.17 0.14 0.13 0.12 0.10 0.11 0.10 0.06 0.07 0.12 0.19 0.26 0.35 0.41 0.47 0.53 0.58 0.57 0.52 0.44 0.41 0.39 0.37 0.37 0.39 0.39 0.41 0.44 0.45 0.46 0.47
0.74 0.64 0.54 0.49 0.47 0.43 0.40 0.40 0.37 0.33 0.30 0.25 0.20 0.16 0.13 0.12 0.11 0.10 0.10 0.08 0.07 0.09 0.12 0.19 0.30 0.42 0.54 0.64 0.69 0.70 0.66 0.62 0.55 0.49 0.46 0.44 0.42 0.41 0.42 0.45 0.47 0.48 0.50
0.90 0.78 0.65 0.52 0.47 0.47 0.45 0.45 0.47 0.40 0.31 0.26 0.22 0.20 0.17 0.16 0.14 0.13 0.12 0.10 0.10 0.10 0.10 0.16 0.25 0.37 0.51 0.61 0.70 0.77 0.80 0.76 0.71 0.65 0.60 0.55 0.49 0.46 0.46 0.47 0.50 0.52 0.54
1.06 0.96 0.87 0.74 0.64 0.61 0.60 0.53 0.49 0.48 0.37 0.30 0.25 0.22 0.21 0.19 0.17 0.15 0.13 0.11 0.10 0.10 0.10 0.12 0.17 0.26 0.37 0.48 0.62 0.74 0.81 0.78 0.73 0.70 0.65 0.63 0.61 0.61 0.61 0.61 0.60 0.60 0.61
1.12 1.01 0.91 0.91 0.90 0.80 0.68 0.62 0.51 0.51 0.47 0.38 0.33 0.28 0.24 0.21 0.18 0.17 0.15 0.14 0.12 0.11 0.11 0.12 0.13 0.15 0.22 0.33 0.47 0.67 0.80 0.85 0.81 0.77 0.76 0.75 0.74 0.74 0.76 0.78 0.77 0.75 0.77
1.24 1.17 1.04 0.99 1.01 0.98 0.88 0.76 0.65 0.57 0.53 0.51 0.44 0.34 0.28 0.24 0.20 0.19 0.17 0.17 0.15 0.14 0.13 0.13 0.13 0.13 0.15 0.22 0.34 0.50 0.71 0.85 0.88 0.86 0.84 0.84 0.85 0.87 0.90 0.95 0.95 0.94 0.95
1.29 1.31 1.22 1.18 1.19 1.15 1.09 1.05 0.96 0.82 0.68 0.65 0.60 0.45 0.32 0.25 0.22 0.18 0.19 0.19 0.18 0.19 0.19 0.18 0.18 0.18 0.19 0.23 0.30 0.38 0.50 0.67 0.86 0.94 0.93 0.92 0.95 1.00 1.05 1.08 1.11 1.10 1.09
1.31 1.32 1.35 1.32 1.25 1.27 1.25 1.21 1.12 0.99 0.87 0.81 0.75 0.68 0.51 0.35 0.25 0.21 0.19 0.20 0.21 0.22 0.22 0.22 0.23 0.24 0.25 0.27 0.28 0.30 0.34 0.47 0.70 0.94 1.02 1.02 1.00 1.02 1.13 1.24 1.32 1.37 1.34
1.45 1.34 1.27 1.30 1.29 1.30 1.31 1.30 1.31 1.29 1.17 1.05 0.95 0.96 0.79 0.55 0.39 0.29 0.24 0.23 0.25 0.27 0.27 0.27 0.28 0.30 0.31 0.31 0.29 0.29 0.30 0.34 0.50 0.80 1.06 1.17 1.19 1.22 1.31 1.42 1.53 1.65 1.67
1.56 1.48 1.39 1.32 1.30 1.30 1.29 1.35 1.39 1.40 1.41 1.29 1.17 1.07 0.96 0.78 0.71 0.52 0.37 0.34 0.36 0.36 0.37 0.34 0.33 0.33 0.34 0.35 0.36 0.38 0.41 0.43 0.53 0.78 1.13 1.38 1.51 1.63 1.77 1.88 1.98 2.09 2.09
1.62 1.51 1.41 1.38 1.35 1.33 1.32 1.35 1.41 1.42 1.43 1.42 1.34 1.23 1.15 0.98 0.85 0.79 0.61 0.48 0.46 0.43 0.44 0.43 0.40 0.39 0.38 0.38 0.40 0.48 0.60 0.64 0.74 0.94 1.24 1.57 1.81 2.00 2.16 2.29 2.40 2.49 2.56
1.54 1.43 1.35 1.30 1.27 1.26 1.26 1.24 1.29 1.34 1.36 1.33 1.29 1.22 1.20 1.12 0.97 0.94 0.85 0.67 0.63 0.56 0.56 0.58 0.54 0.50 0.47 0.46 0.48 0.61 0.66 0.73 0.84 1.02 1.32 1.63 1.83 1.98 2.15 2.35 2.49 2.56 2.66
1.38 1.30 1.26 1.21 1.22 1.20 1.21 1.22 1.20 1.19 1.26 1.28 1.25 1.18 1.11 1.02 0.98 1.05 1.04 0.89 0.76 0.64 0.61 0.61 0.61 0.62 0.63 0.65 0.68 0.80 0.78 0.83 0.90 1.05 1.30 1.56 1.65 1.65 1.69 1.81 2.02 2.20 2.35
1.27 1.24 1.26 1.27 1.27 1.26 1.20 1.21 1.18 1.13 1.15 1.16 1.17 1.17 1.14 1.04 1.00 1.00 1.04 1.11 1.05 0.87 0.76 0.69 0.66 0.73 0.79 0.83 0.92 1.00 0.89 0.98 0.97 1.01 1.14 1.31 1.38 1.32 1.28 1.36 1.54 1.72 1.90
1.23 1.19 1.21 1.21 1.18 1.17 1.12 1.13 1.13 1.07 1.02 1.02 1.01 1.03 1.06 1.01 1.00 1.00 1.04 1.18 1.37 1.34 1.10 0.91 0.88 0.90 0.93 0.94 1.02 0.93 0.82 0.96 1.00 0.98 1.01 1.06 1.08 1.07 1.06 1.09 1.17 1.29 1.40
1.11 1.09 1.11 1.11 1.07 1.05 1.04 1.03 1.00 0.95 0.93 0.88 0.86 0.89 0.92 0.93 0.97 1.03 1.11 1.21 1.34 1.49 1.38 1.05 0.93 0.92 0.96 0.95 1.00 0.85 0.77 0.90 0.87 0.86 0.86 0.88 0.88 0.88 0.90 0.94 1.00 1.09 1.17
0.89 0.89 0.96 0.98 0.93 0.87 0.87 0.89 0.87 0.86 0.86 0.85 0.83 0.83 0.82 0.85 0.94 0.99 1.09 1.19 1.29 1.42 1.44 1.17 0.96 0.89 0.89 0.84 0.80 0.70 0.65 0.63 0.62 0.72 0.72 0.71 0.74 0.77 0.76 0.79 0.86 0.93 1.00
0.82 0.80 0.83 0.87 0.85 0.79 0.76 0.77 0.77 0.78 0.82 0.84 0.85 0.88 0.86 0.89 0.96 1.02 1.10 1.15 1.19 1.22 1.25 1.14 0.93 0.82 0.76 0.68 0.64 0.59 0.55 0.52 0.49 0.60 0.60 0.60 0.63 0.66 0.64 0.65 0.71 0.79 0.86
0.81 0.79 0.76 0.77 0.77 0.77 0.76 0.75 0.74 0.75 0.78 0.82 0.87 0.91 0.92 0.95 0.98 0.98 0.98 0.98 0.98 0.96 0.96 0.94 0.82 0.71 0.67 0.62 0.60 0.55 0.49 0.47 0.44 0.48 0.50 0.49 0.55 0.61 0.60 0.61 0.66 0.72 0.73
0.76 0.76 0.72 0.71 0.73 0.77 0.79 0.79 0.81 0.84 0.86 0.89 0.93 0.95 0.95 0.95 0.92 0.91 0.88 0.84 0.82 0.83 0.84 0.85 0.81 0.71 0.65 0.60 0.61 0.58 0.51 0.45 0.42 0.40 0.45 0.45 0.51 0.58 0.59 0.55 0.51 0.50 0.52
0.72 0.72 0.70 0.69 0.73 0.80 0.86 0.88 0.89 0.92 0.98 1.00 0.99 0.95 0.92 0.94 0.91 0.86 0.81 0.78 0.78 0.82 0.86 0.90 0.86 0.75 0.62 0.54 0.51 0.46 0.48 0.47 0.44 0.41 0.44 0.44 0.44 0.43 0.43 0.47 0.50 0.50 0.53
0.75 0.75 0.78 0.80 0.84 0.91 1.14 1.15 1.06 1.02 1.03 1.01 0.97 0.90 0.85 0.86 0.82 0.82 0.81 0.79 0.83 0.90 0.99 1.02 0.90 0.72 0.52 0.44 0.45 0.51 0.58 0.66 0.58 0.40 0.44 0.44 0.42 0.42 0.40 0.40 0.51 0.56 0.58
0.82 0.85 0.89 0.97 1.03 1.11 1.22 1.13 1.06 0.92 0.90 0.87 0.81 0.76 0.71 0.67 0.68 0.62 0.68 0.76 0.79 0.88 0.90 0.84 0.74 0.57 0.49 0.47 0.60 0.72 0.69 0.68 0.54 0.39 0.49 0.55 0.48 0.46 0.43 0.46 0.55 0.52 0.54
0.91 1.00 1.06 1.08 1.08 1.09 1.06 0.91 0.85 0.74 0.68 0.64 0.60 0.56 0.55 0.53 0.54 0.57 0.61 0.68 0.63 0.62 0.61 0.56 0.55 0.53 0.54 0.57 0.70 0.84 0.81 0.74 0.58 0.47 0.51 0.60 0.51 0.48 0.44 0.46 0.54 0.54 0.57
0.98 0.98 0.94 0.89 0.82 0.76 0.73 0.62 0.55 0.49 0.48 0.45 0.42 0.43 0.45 0.42 0.53 0.66 0.68 0.68 0.58 0.50 0.52 0.57 0.62 0.65 0.67 0.66 0.66 0.78 0.88 0.95 0.81 0.56 0.48 0.52 0.47 0.44 0.45 0.45 0.49 0.57 0.56
0.77 0.67 0.57 0.48 0.42 0.38 0.40 0.40 0.39 0.34 0.36 0.36 0.37 0.38 0.47 0.49 0.60 0.73 0.67 0.66 0.58 0.49 0.50 0.52 0.50 0.49 0.47 0.49 0.56 0.62 0.86 1.18 1.03 0.76 0.50 0.61 0.63 0.68 0.82 0.53 0.47 0.50 0.50

GEFSMA_prec_meanprecacc_210.txt.gz
Total_Precipitation_Accumulation
0.73 0.65 0.54 0.52 0.48 0.44 0.42 0.38 0.33 0.28 0.25 0.22 0.18 0.15 0.14 0.14 0.13 0.13 0.11 0.08 0.09 0.14 0.22 0.30 0.38 0.43 0.50 0.56 0.60 0.59 0.53 0.46 0.43 0.40 0.39 0.39 0.40 0.40 0.43 0.46 0.47 0.49 0.50
0.79 0.68 0.56 0.50 0.47 0.43 0.40 0.40 0.38 0.34 0.31 0.26 0.21 0.17 0.14 0.14 0.13 0.12 0.11 0.09 0.09 0.11 0.15 0.22 0.34 0.45 0.57 0.67 0.71 0.72 0.67 0.63 0.57 0.51 0.48 0.45 0.43 0.42 0.44 0.46 0.48 0.49 0.51
0.96 0.84 0.70 0.55 0.48 0.48 0.46 0.45 0.47 0.41 0.32 0.28 0.23 0.21 0.18 0.18 0.16 0.14 0.13 0.12 0.12 0.12 0.13 0.19 0.29 0.41 0.54 0.65 0.73 0.79 0.81 0.77 0.73 0.67 0.62 0.56 0.50 0.47 0.47 0.49 0.51 0.53 0.55
1.11 1.01 0.93 0.79 0.68 0.63 0.61 0.54 0.49 0.49 0.37 0.30 0.26 0.23 0.21 0.20 0.19 0.17 0.16 0.14 0.12 0.12 0.13 0.16 0.20 0.29 0.40 0.51 0.65 0.76 0.82 0.79 0.74 0.71 0.67 0.65 0.63 0.63 0.63 0.62 0.61 0.61 0.62
1.18 1.05 0.95 0.95 0.93 0.82 0.70 0.63 0.52 0.52 0.47 0.38 0.34 0.29 0.25 0.21 0.19 0.18 0.18 0.18 0.15 0.13 0.13 0.14 0.16 0.19 0.25 0.36 0.49 0.70 0.83 0.87 0.82 0.78 0.78 0.76 0.75 0.75 0.78 0.80 0.78 0.76 0.78
1.32 1.22 1.07 1.02 1.03 1.01 0.90 0.78 0.67 0.58 0.54 0.52 0.45 0.35 0.29 0.24 0.21 0.19 0.19 0.18 0.18 0.16 0.15 0.15 0.16 0.16 0.18 0.25 0.37 0.53 0.73 0.87 0.90 0.87 0.86 0.85 0.86 0.88 0.91 0.96 0.97 0.95 0.96
1.40 1.40 1.28 1.21 1.21 1.17 1.11 1.07 0.99 0.84 0.70 0.67 0.63 0.47 0.33 0.26 0.23 0.20 0.20 0.21 0.20 0.20 0.21 0.20 0.20 0.21 0.22 0.27 0.33 0.40 0.52 0.69 0.88 0.96 0.95 0.94 0.96 1.01 1.06 1.09 1.13 1.12 1.11
1.41 1.42 1.44 1.38 1.28 1.29 1.26 1.23 1.14 1.01 0.89 0.83 0.77 0.71 0.54 0.38 0.27 0.22 0.21 0.22 0.22 0.23 0.23 0.24 0.25 0.27 0.28 0.31 0.32 0.33 0.36 0.48 0.72 0.96 1.05 1.04 1.01 1.03 1.14 1.26 1.35 1.41 1.38
1.52 1.41 1.34 1.36 1.34 1.33 1.33 1.32 1.32 1.32 1.20 1.08 0.97 0.99 0.82 0.58 0.42 0.31 0.26 0.25 0.27 0.28 0.28 0.29 0.30 0.32 0.33 0.33 0.32 0.32 0.33 0.36 0.52 0.82 1.09 1.20 1.22 1.25 1.34 1.44 1.55 1.68 1.71
1.60 1.53 1.46 1.39 1.36 1.35 1.33 1.38 1.42 1.42 1.44 1.33 1.20 1.10 0.99 0.81 0.74 0.55 0.39 0.35 0.37 0.38 0.38 0.36 0.34 0.35 0.36 0.37 0.38 0.41 0.44 0.45 0.55 0.79 1.15 1.41 1.54 1.66 1.81 1.91 2.01 2.12 2.11
1.66 1.55 1.47 1.47 1.44 1.40 1.37 1.39 1.45 1.46 1.47 1.46 1.38 1.27 1.19 1.02 0.88 0.83 0.64 0.50 0.48 0.45 0.46 0.45 0.42 0.40 0.40 0.40 0.41 0.50 0.62 0.67 0.76 0.96 1.26 1.60 1.84 2.03 2.20 2.32 2.43 2.53 2.59
1.57 1.45 1.38 1.36 1.36 1.35 1.32 1.28 1.33 1.39 1.40 1.37 1.32 1.25 1.23 1.15 1.00 0.97 0.89 0.70 0.66 0.59 0.58 0.60 0.56 0.52 0.49 0.49 0.50 0.63 0.68 0.75 0.86 1.05 1.34 1.66 1.86 2.01 2.19 2.39 2.53 2.60 2.70
1.43 1.34 1.30 1.25 1.27 1.28 1.28 1.27 1.23 1.21 1.28 1.31 1.29 1.22 1.15 1.05 1.01 1.08 1.07 0.91 0.79 0.67 0.63 0.63 0.63 0.65 0.66 0.68 0.72 0.84 0.81 0.86 0.93 1.08 1.33 1.59 1.68 1.68 1.73 1.86 2.07 2.25 2.40
1.34 1.30 1.32 1.32 1.32 1.31 1.26 1.26 1.22 1.16 1.17 1.18 1.19 1.19 1.17 1.08 1.03 1.03 1.07 1.13 1.08 0.89 0.77 0.70 0.67 0.75 0.82 0.86 0.95 1.04 0.94 1.03 1.01 1.05 1.17 1.34 1.41 1.35 1.31 1.41 1.60 1.78 1.95
1.31 1.28 1.31 1.29 1.24 1.22 1.16 1.17 1.16 1.10 1.04 1.03 1.02 1.05 1.08 1.04 1.02 1.02 1.05 1.19 1.40 1.36 1.12 0.92 0.89 0.91 0.95 0.98 1.06 0.97 0.85 1.00 1.04 1.03 1.05 1.10 1.11 1.10 1.09 1.13 1.22 1.34 1.46
1.18 1.17 1.20 1.20 1.15 1.11 1.09 1.07 1.03 0.98 0.95 0.90 0.88 0.90 0.93 0.95 1.00 1.04 1.12 1.22 1.36 1.52 1.41 1.08 0.95 0.94 0.98 0.98 1.05 0.92 0.83 0.96 0.91 0.91 0.91 0.92 0.92 0.92 0.94 0.98 1.04 1.13 1.22
0.96 0.95 1.03 1.05 1.00 0.95 0.94 0.94 0.91 0.89 0.88 0.86 0.84 0.84 0.83 0.86 0.95 1.01 1.10 1.20 1.31 1.44 1.47 1.20 0.99 0.92 0.93 0.88 0.85 0.77 0.73 0.72 0.69 0.79 0.77 0.76 0.78 0.81 0.81 0.86 0.92 0.98 1.05
0.90 0.86 0.89 0.92 0.90 0.85 0.82 0.83 0.82 0.81 0.84 0.85 0.86 0.88 0.87 0.89 0.97 1.03 1.10 1.16 1.20 1.23 1.26 1.15 0.94 0.84 0.79 0.72 0.68 0.64 0.61 0.60 0.58 0.70 0.69 0.67 0.69 0.70 0.68 0.70 0.77 0.85 0.92
0.88 0.87 0.82 0.83 0.82 0.81 0.80 0.79 0.78 0.77 0.80 0.83 0.88 0.92 0.93 0.96 0.99 0.98 0.98 0.99 0.98 0.97 0.97 0.95 0.83 0.73 0.69 0.65 0.64 0.58 0.54 0.52 0.51 0.57 0.59 0.58 0.63 0.67 0.65 0.66 0.71 0.76 0.77
0.81 0.83 0.79 0.77 0.79 0.81 0.83 0.82 0.84 0.85 0.88 0.91 0.94 0.96 0.96 0.96 0.94 0.92 0.89 0.85 0.83 0.84 0.84 0.86 0.82 0.72 0.66 0.62 0.64 0.61 0.55 0.49 0.46 0.45 0.50 0.51 0.58 0.66 0.65 0.60 0.55 0.55 0.56
0.76 0.77 0.76 0.74 0.78 0.84 0.89 0.91 0.91 0.94 1.00 1.02 1.01 0.97 0.94 0.96 0.93 0.87 0.82 0.79 0.79 0.83 0.87 0.91 0.87 0.75 0.62 0.55 0.52 0.48 0.50 0.50 0.47 0.44 0.47 0.48 0.48 0.47 0.48 0.51 0.54 0.53 0.56
0.78 0.79 0.83 0.85 0.87 0.94 1.16 1.17 1.08 1.04 1.05 1.03 0.99 0.92 0.87 0.87 0.84 0.83 0.82 0.80 0.84 0.91 1.00 1.03 0.92 0.73 0.53 0.45 0.46 0.53 0.60 0.68 0.60 0.41 0.45 0.46 0.45 0.46 0.43 0.43 0.54 0.58 0.60
0.86 0.91 0.96 1.01 1.06 1.14 1.25 1.16 1.09 0.94 0.92 0.89 0.83 0.78 0.73 0.69 0.70 0.63 0.69 0.77 0.80 0.88 0.91 0.85 0.75 0.58 0.50 0.48 0.61 0.74 0.71 0.70 0.56 0.40 0.51 0.57 0.51 0.49 0.45 0.48 0.57 0.54 0.56
0.96 1.06 1.13 1.14 1.12 1.13 1.09 0.95 0.88 0.76 0.70 0.66 0.63 0.58 0.56 0.55 0.55 0.58 0.62 0.68 0.64 0.62 0.62 0.58 0.56 0.54 0.55 0.59 0.72 0.86 0.84 0.77 0.60 0.49 0.53 0.62 0.52 0.50 0.46 0.48 0.55 0.55 0.59
1.04 1.03 1.00 0.96 0.87 0.81 0.77 0.66 0.58 0.52 0.51 0.48 0.45 0.45 0.46 0.44 0.54 0.68 0.69 0.69 0.58 0.50 0.53 0.58 0.63 0.66 0.68 0.67 0.68 0.81 0.91 0.98 0.83 0.58 0.50 0.54 0.48 0.45 0.46 0.46 0.50 0.58 0.58
0.84 0.73 0.62 0.55 0.48 0.42 0.44 0.43 0.42 0.37 0.39 0.39 0.40 0.41 0.49 0.50 0.62 0.74 0.68 0.67 0.59 0.50 0.51 0.53 0.51 0.50 0.48 0.50 0.58 0.64 0.88 1.20 1.06 0.78 0.52 0.62 0.64 0.69 0.83 0.53 0.48 0.51 0.51

GEFSMA_prec_meanprecacc_216.txt.gz
Total_Precipitation_Accumulation
0.80 0.72 0.59 0.54 0.50 0.44 0.42 0.39 0.34 0.28 0.25 0.22 0.18 0.16 0.15 0.15 0.13 0.13 0.12 0.09 0.10 0.16 0.24 0.33 0.42 0.48 0.54 0.59 0.64 0.63 0.55 0.47 0.44 0.41 0.40 0.39 0.41 0.42 0.44 0.47 0.49 0.50 0.51
0.84 0.74 0.60 0.54 0.50 0.45 0.40 0.41 0.38 0.34 0.31 0.26 0.21 0.18 0.15 0.15 0.14 0.13 0.12 0.11 0.11 0.13 0.18 0.25 0.37 0.49 0.62 0.72 0.75 0.76 0.71 0.65 0.58 0.52 0.49 0.46 0.44 0.44 0.45 0.47 0.49 0.50 0.52
1.03 0.91 0.74 0.58 0.51 0.51 0.48 0.47 0.48 0.41 0.32 0.28 0.24 0.21 0.19 0.18 0.17 0.15 0.14 0.13 0.14 0.15 0.17 0.22 0.31 0.45 0.60 0.71 0.80 0.87 0.87 0.80 0.74 0.69 0.63 0.58 0.52 0.49 0.48 0.50 0.53 0.54 0.56
1.19 1.09 0.99 0.82 0.70 0.65 0.63 0.55 0.50 0.49 0.38 0.31 0.26 0.23 0.21 0.20 0.19 0.18 0.17 0.14 0.13 0.15 0.17 0.21 0.26 0.34 0.45 0.56 0.72 0.84 0.91 0.85 0.78 0.73 0.68 0.66 0.64 0.64 0.64 0.64 0.63 0.63 0.64
1.25 1.14 1.00 0.98 0.95 0.84 0.72 0.64 0.53 0.52 0.48 0.39 0.34 0.29 0.25 0.22 0.20 0.19 0.18 0.18 0.17 0.15 0.15 0.18 0.21 0.24 0.30 0.40 0.54 0.76 0.92 0.95 0.86 0.81 0.80 0.78 0.76 0.76 0.79 0.81 0.79 0.78 0.80
1.36 1.28 1.12 1.05 1.06 1.03 0.92 0.80 0.68 0.59 0.55 0.53 0.46 0.36 0.29 0.25 0.21 0.20 0.19 0.19 0.19 0.18 0.16 0.17 0.19 0.19 0.22 0.29 0.42 0.58 0.82 0.97 0.95 0.91 0.90 0.88 0.89 0.90 0.93 0.97 0.98 0.96 0.98
1.44 1.44 1.31 1.24 1.24 1.20 1.14 1.09 1.00 0.86 0.71 0.68 0.64 0.48 0.34 0.27 0.24 0.20 0.20 0.22 0.21 0.22 0.22 0.21 0.22 0.23 0.24 0.30 0.37 0.44 0.58 0.80 0.97 1.01 1.00 1.00 1.02 1.06 1.10 1.11 1.14 1.13 1.12
1.44 1.45 1.48 1.40 1.31 1.32 1.30 1.26 1.17 1.04 0.91 0.84 0.79 0.73 0.55 0.39 0.28 0.24 0.22 0.23 0.23 0.25 0.25 0.26 0.27 0.29 0.29 0.33 0.34 0.36 0.40 0.57 0.82 1.03 1.09 1.08 1.07 1.10 1.21 1.31 1.38 1.43 1.39
1.55 1.44 1.37 1.39 1.37 1.36 1.36 1.35 1.36 1.35 1.24 1.11 0.99 1.01 0.84 0.59 0.43 0.32 0.27 0.26 0.28 0.30 0.30 0.31 0.32 0.35 0.36 0.36 0.33 0.34 0.35 0.42 0.61 0.89 1.14 1.24 1.24 1.28 1.38 1.50 1.61 1.73 1.75
1.63 1.56 1.49 1.42 1.39 1.38 1.36 1.41 1.44 1.45 1.47 1.36 1.23 1.12 1.01 0.83 0.76 0.57 0.41 0.37 0.38 0.39 0.39 0.37 0.36 0.37 0.39 0.39 0.41 0.43 0.46 0.49 0.63 0.87 1.21 1.45 1.58 1.69 1.84 1.96 2.08 2.20 2.20
1.72 1.59 1.51 1.51 1.48 1.44 1.41 1.42 1.48 1.48 1.49 1.48 1.40 1.29 1.21 1.04 0.90 0.84 0.65 0.51 0.49 0.46 0.47 0.46 0.43 0.42 0.42 0.42 0.44 0.52 0.64 0.69 0.82 1.03 1.32 1.66 1.89 2.08 2.24 2.36 2.47 2.58 2.66
1.64 1.51 1.44 1.40 1.40 1.38 1.36 1.33 1.38 1.43 1.43 1.38 1.34 1.27 1.25 1.17 1.02 0.99 0.90 0.71 0.67 0.60 0.59 0.61 0.58 0.54 0.51 0.50 0.52 0.65 0.72 0.78 0.91 1.11 1.38 1.70 1.91 2.07 2.25 2.44 2.57 2.63 2.73
1.48 1.39 1.34 1.28 1.30 1.30 1.31 1.31 1.30 1.29 1.35 1.36 1.31 1.24 1.17 1.07 1.03 1.09 1.09 0.93 0.79 0.67 0.64 0.64 0.64 0.66 0.68 0.70 0.74 0.86 0.84 0.90 0.97 1.14 1.38 1.63 1.72 1.73 1.78 1.91 2.11 2.28 2.42
1.38 1.34 1.35 1.35 1.34 1.33 1.28 1.29 1.26 1.23 1.25 1.26 1.25 1.23 1.19 1.10 1.04 1.05 1.09 1.15 1.09 0.90 0.78 0.71 0.68 0.76 0.84 0.88 0.96 1.06 0.97 1.07 1.06 1.10 1.24 1.39 1.45 1.40 1.37 1.47 1.66 1.83 1.98
1.34 1.32 1.35 1.32 1.27 1.25 1.19 1.20 1.19 1.13 1.08 1.09 1.09 1.11 1.12 1.06 1.04 1.04 1.07 1.21 1.41 1.38 1.13 0.92 0.90 0.92 0.97 1.00 1.08 0.99 0.87 1.04 1.09 1.07 1.11 1.14 1.15 1.14 1.14 1.18 1.28 1.41 1.51
1.22 1.21 1.24 1.24 1.20 1.16 1.13 1.10 1.07 1.01 0.98 0.93 0.91 0.94 0.98 0.98 1.02 1.06 1.14 1.23 1.38 1.53 1.42 1.08 0.96 0.95 0.99 1.00 1.07 0.94 0.85 1.00 0.96 0.95 0.96 0.97 0.96 0.95 0.97 1.02 1.09 1.18 1.28
1.00 0.99 1.07 1.09 1.05 0.99 0.98 0.99 0.96 0.94 0.94 0.91 0.88 0.86 0.85 0.88 0.98 1.03 1.13 1.22 1.32 1.46 1.48 1.21 0.99 0.93 0.94 0.91 0.87 0.79 0.76 0.76 0.73 0.84 0.82 0.81 0.83 0.85 0.85 0.89 0.96 1.02 1.10
0.95 0.90 0.93 0.97 0.94 0.89 0.86 0.87 0.86 0.86 0.89 0.91 0.91 0.93 0.90 0.91 0.99 1.05 1.13 1.18 1.21 1.24 1.28 1.16 0.95 0.85 0.80 0.74 0.71 0.66 0.63 0.63 0.62 0.75 0.75 0.73 0.74 0.74 0.72 0.74 0.81 0.89 0.95
0.93 0.92 0.86 0.87 0.86 0.85 0.84 0.82 0.81 0.82 0.84 0.88 0.92 0.96 0.96 0.99 1.01 1.01 1.00 1.01 1.00 0.98 0.99 0.96 0.84 0.73 0.70 0.66 0.66 0.61 0.56 0.55 0.54 0.61 0.64 0.64 0.69 0.72 0.69 0.70 0.75 0.81 0.82
0.84 0.87 0.83 0.81 0.83 0.85 0.87 0.86 0.87 0.89 0.91 0.94 0.97 0.99 0.98 0.98 0.96 0.94 0.91 0.86 0.85 0.86 0.86 0.87 0.83 0.73 0.67 0.63 0.66 0.64 0.58 0.51 0.49 0.47 0.54 0.57 0.64 0.71 0.72 0.66 0.61 0.60 0.62
0.79 0.80 0.79 0.78 0.82 0.88 0.94 0.95 0.95 0.97 1.02 1.04 1.03 1.00 0.96 0.98 0.95 0.89 0.84 0.80 0.81 0.85 0.89 0.93 0.88 0.76 0.64 0.57 0.55 0.52 0.54 0.53 0.50 0.46 0.50 0.51 0.53 0.53 0.54 0.59 0.62 0.60 0.62
0.82 0.83 0.87 0.88 0.91 0.98 1.20 1.22 1.12 1.08 1.08 1.06 1.01 0.94 0.89 0.89 0.86 0.85 0.84 0.81 0.86 0.94 1.03 1.05 0.95 0.76 0.55 0.47 0.48 0.56 0.64 0.72 0.63 0.43 0.47 0.48 0.47 0.50 0.48 0.50 0.62 0.66 0.67
0.91 0.96 1.01 1.06 1.09 1.17 1.28 1.19 1.13 0.99 0.95 0.91 0.85 0.79 0.75 0.71 0.72 0.64 0.70 0.78 0.81 0.90 0.92 0.86 0.77 0.60 0.52 0.50 0.63 0.76 0.74 0.72 0.59 0.43 0.53 0.59 0.53 0.52 0.48 0.52 0.63 0.61 0.62
1.02 1.11 1.18 1.18 1.15 1.16 1.13 0.97 0.91 0.80 0.74 0.70 0.65 0.61 0.58 0.57 0.57 0.60 0.63 0.70 0.65 0.64 0.63 0.58 0.57 0.55 0.56 0.60 0.73 0.87 0.86 0.79 0.62 0.52 0.55 0.64 0.54 0.51 0.48 0.50 0.59 0.59 0.63
1.11 1.10 1.06 1.00 0.90 0.84 0.81 0.70 0.62 0.55 0.55 0.52 0.48 0.48 0.49 0.46 0.57 0.70 0.72 0.71 0.60 0.52 0.54 0.59 0.65 0.67 0.69 0.68 0.70 0.83 0.93 1.01 0.87 0.61 0.53 0.57 0.50 0.47 0.47 0.47 0.52 0.60 0.60
0.90 0.79 0.69 0.60 0.52 0.46 0.48 0.48 0.47 0.40 0.42 0.43 0.44 0.45 0.54 0.55 0.66 0.78 0.71 0.69 0.62 0.52 0.53 0.55 0.53 0.52 0.49 0.51 0.60 0.66 0.90 1.24 1.10 0.82 0.55 0.66 0.68 0.72 0.86 0.55 0.49 0.51 0.52

GEFSMA_prec_meanprecacc_222.txt.gz
Total_Precipitation_Accumulation
0.85 0.78 0.65 0.59 0.53 0.47 0.44 0.40 0.34 0.29 0.26 0.23 0.19 0.18 0.17 0.16 0.15 0.14 0.12 0.10 0.11 0.18 0.28 0.36 0.46 0.53 0.59 0.63 0.66 0.66 0.60 0.53 0.48 0.44 0.42 0.41 0.42 0.42 0.45 0.48 0.50 0.51 0.52
0.93 0.81 0.67 0.60 0.54 0.48 0.43 0.42 0.39 0.35 0.32 0.28 0.23 0.19 0.16 0.17 0.16 0.14 0.12 0.11 0.12 0.15 0.20 0.28 0.40 0.54 0.67 0.76 0.79 0.79 0.74 0.70 0.63 0.56 0.51 0.48 0.46 0.45 0.46 0.48 0.50 0.51 0.53
1.10 0.99 0.83 0.66 0.57 0.56 0.52 0.49 0.49 0.42 0.33 0.29 0.24 0.22 0.19 0.20 0.19 0.17 0.15 0.14 0.15 0.16 0.18 0.25 0.35 0.49 0.63 0.76 0.85 0.91 0.91 0.84 0.79 0.74 0.67 0.61 0.54 0.50 0.49 0.51 0.53 0.55 0.57
1.25 1.15 1.08 0.91 0.77 0.72 0.68 0.58 0.51 0.50 0.38 0.31 0.27 0.23 0.21 0.21 0.20 0.19 0.18 0.15 0.14 0.15 0.18 0.22 0.28 0.37 0.48 0.60 0.76 0.88 0.95 0.90 0.83 0.79 0.73 0.70 0.67 0.66 0.65 0.64 0.63 0.64 0.65
1.33 1.19 1.06 1.05 1.02 0.92 0.79 0.69 0.55 0.54 0.48 0.39 0.34 0.30 0.25 0.22 0.20 0.19 0.19 0.19 0.17 0.15 0.16 0.18 0.22 0.26 0.33 0.43 0.57 0.79 0.95 0.99 0.92 0.87 0.85 0.84 0.81 0.80 0.81 0.81 0.80 0.78 0.80
1.45 1.36 1.20 1.12 1.11 1.08 0.97 0.84 0.71 0.61 0.56 0.53 0.46 0.36 0.30 0.25 0.21 0.20 0.19 0.19 0.19 0.18 0.17 0.18 0.19 0.20 0.23 0.31 0.44 0.60 0.85 1.00 1.01 0.97 0.96 0.96 0.98 0.97 0.98 1.00 0.99 0.97 0.98
1.50 1.52 1.40 1.32 1.30 1.24 1.16 1.11 1.03 0.88 0.72 0.70 0.64 0.48 0.34 0.27 0.24 0.20 0.21 0.22 0.21 0.22 0.22 0.22 0.23 0.23 0.25 0.30 0.38 0.45 0.59 0.82 1.01 1.08 1.07 1.05 1.08 1.12 1.18 1.18 1.18 1.16 1.14
1.47 1.50 1.54 1.46 1.36 1.35 1.33 1.29 1.20 1.06 0.92 0.86 0.80 0.74 0.56 0.39 0.29 0.25 0.24 0.24 0.24 0.25 0.26 0.27 0.28 0.30 0.30 0.33 0.35 0.36 0.41 0.58 0.84 1.08 1.16 1.14 1.13 1.16 1.26 1.36 1.43 1.46 1.42
1.57 1.47 1.41 1.44 1.40 1.39 1.39 1.38 1.39 1.38 1.26 1.13 1.01 1.03 0.86 0.61 0.44 0.33 0.29 0.27 0.29 0.31 0.31 0.32 0.33 0.36 0.38 0.37 0.35 0.35 0.37 0.44 0.63 0.94 1.19 1.31 1.32 1.35 1.44 1.55 1.64 1.76 1.78
1.66 1.58 1.52 1.45 1.42 1.41 1.38 1.43 1.46 1.48 1.50 1.39 1.25 1.15 1.04 0.86 0.79 0.59 0.42 0.38 0.40 0.41 0.41 0.39 0.37 0.38 0.40 0.41 0.42 0.45 0.48 0.51 0.65 0.91 1.26 1.51 1.65 1.77 1.93 2.04 2.12 2.22 2.22
1.74 1.61 1.53 1.53 1.50 1.45 1.42 1.44 1.49 1.51 1.53 1.52 1.44 1.33 1.25 1.07 0.93 0.87 0.68 0.54 0.52 0.49 0.49 0.48 0.44 0.43 0.43 0.43 0.45 0.54 0.66 0.70 0.83 1.06 1.37 1.72 1.96 2.15 2.32 2.45 2.56 2.64 2.69
1.67 1.54 1.46 1.43 1.42 1.40 1.38 1.35 1.40 1.45 1.46 1.43 1.39 1.32 1.30 1.22 1.06 1.03 0.94 0.74 0.70 0.63 0.62 0.63 0.59 0.55 0.52 0.51 0.52 0.66 0.72 0.79 0.92 1.14 1.44 1.77 1.96 2.12 2.30 2.50 2.64 2.71 2.80
1.50 1.41 1.37 1.32 1.33 1.32 1.33 1.34 1.33 1.31 1.37 1.40 1.36 1.28 1.20 1.10 1.06 1.13 1.13 0.96 0.82 0.70 0.66 0.65 0.65 0.67 0.69 0.70 0.74 0.86 0.85 0.90 0.98 1.17 1.44 1.69 1.75 1.76 1.81 1.95 2.17 2.36 2.51
1.40 1.36 1.38 1.38 1.37 1.36 1.31 1.31 1.29 1.26 1.28 1.29 1.29 1.27 1.23 1.12 1.06 1.07 1.12 1.18 1.12 0.93 0.80 0.72 0.69 0.77 0.85 0.89 0.97 1.07 0.97 1.08 1.07 1.12 1.27 1.44 1.50 1.42 1.38 1.48 1.68 1.87 2.05
1.36 1.34 1.37 1.35 1.31 1.28 1.21 1.22 1.21 1.15 1.10 1.11 1.12 1.15 1.16 1.10 1.08 1.07 1.10 1.24 1.44 1.40 1.14 0.93 0.90 0.93 0.97 1.00 1.09 1.00 0.87 1.04 1.10 1.09 1.13 1.18 1.20 1.18 1.15 1.18 1.29 1.42 1.53
1.25 1.23 1.27 1.27 1.23 1.19 1.16 1.12 1.08 1.03 1.00 0.95 0.93 0.96 1.00 1.02 1.06 1.10 1.17 1.26 1.41 1.56 1.44 1.09 0.96 0.96 1.00 1.00 1.08 0.95 0.86 1.01 0.97 0.96 0.98 1.00 0.99 0.98 0.99 1.03 1.09 1.19 1.29
1.03 1.03 1.10 1.12 1.08 1.02 1.01 1.02 0.98 0.96 0.95 0.92 0.89 0.88 0.86 0.90 1.00 1.06 1.15 1.25 1.35 1.48 1.50 1.22 1.00 0.93 0.94 0.91 0.88 0.80 0.76 0.76 0.74 0.85 0.83 0.83 0.86 0.88 0.88 0.91 0.96 1.03 1.11
0.98 0.94 0.97 1.01 0.98 0.93 0.90 0.90 0.89 0.88 0.92 0.93 0.94 0.95 0.92 0.94 1.01 1.08 1.15 1.21 1.23 1.26 1.30 1.18 0.97 0.86 0.81 0.75 0.72 0.67 0.64 0.63 0.63 0.76 0.76 0.74 0.77 0.78 0.75 0.76 0.82 0.89 0.96
0.96 0.95 0.89 0.91 0.91 0.91 0.89 0.87 0.86 0.86 0.88 0.91 0.96 1.00 1.00 1.02 1.04 1.04 1.03 1.04 1.02 1.00 1.01 0.99 0.86 0.75 0.71 0.67 0.67 0.62 0.57 0.56 0.55 0.62 0.66 0.65 0.71 0.76 0.72 0.72 0.76 0.82 0.82
0.89 0.90 0.86 0.84 0.86 0.89 0.92 0.91 0.93 0.94 0.97 0.99 1.02 1.04 1.03 1.03 1.00 0.98 0.94 0.90 0.87 0.88 0.88 0.90 0.85 0.75 0.69 0.65 0.68 0.65 0.60 0.53 0.51 0.49 0.56 0.59 0.66 0.74 0.75 0.68 0.62 0.61 0.62
0.84 0.84 0.83 0.81 0.85 0.92 0.97 0.99 0.99 1.02 1.08 1.10 1.07 1.04 1.00 1.02 0.99 0.93 0.87 0.84 0.85 0.88 0.92 0.96 0.92 0.79 0.66 0.59 0.56 0.54 0.56 0.55 0.52 0.48 0.52 0.53 0.55 0.55 0.57 0.62 0.63 0.61 0.63
0.86 0.87 0.91 0.91 0.93 1.01 1.24 1.26 1.17 1.12 1.13 1.10 1.05 0.98 0.92 0.93 0.89 0.89 0.87 0.85 0.89 0.97 1.05 1.08 0.98 0.79 0.58 0.49 0.50 0.58 0.67 0.74 0.66 0.46 0.50 0.50 0.49 0.52 0.51 0.53 0.64 0.68 0.69
0.95 1.00 1.05 1.09 1.11 1.19 1.31 1.22 1.17 1.03 0.99 0.96 0.89 0.83 0.77 0.73 0.74 0.67 0.73 0.81 0.84 0.93 0.95 0.89 0.79 0.63 0.55 0.52 0.65 0.78 0.76 0.74 0.61 0.45 0.55 0.61 0.54 0.54 0.51 0.56 0.66 0.64 0.65
1.08 1.16 1.22 1.22 1.18 1.19 1.15 0.99 0.94 0.82 0.76 0.72 0.68 0.63 0.60 0.59 0.59 0.63 0.66 0.73 0.68 0.66 0.65 0.61 0.59 0.57 0.58 0.62 0.75 0.90 0.88 0.81 0.65 0.54 0.58 0.67 0.56 0.53 0.50 0.54 0.63 0.63 0.67
1.15 1.16 1.13 1.05 0.94 0.87 0.84 0.71 0.63 0.56 0.57 0.54 0.50 0.50 0.51 0.48 0.59 0.74 0.76 0.75 0.63 0.54 0.57 0.62 0.67 0.69 0.72 0.70 0.72 0.85 0.96 1.04 0.89 0.64 0.55 0.59 0.52 0.49 0.49 0.50 0.55 0.65 0.65
0.91 0.82 0.73 0.65 0.57 0.50 0.51 0.51 0.49 0.42 0.44 0.45 0.46 0.48 0.57 0.57 0.69 0.82 0.75 0.73 0.65 0.55 0.56 0.58 0.56 0.54 0.52 0.54 0.62 0.68 0.93 1.27 1.13 0.85 0.57 0.68 0.70 0.74 0.89 0.58 0.51 0.54 0.55

GEFSMA_prec_meanprecacc_228.txt.gz
Total_Precipitation_Accumulation
0.87 0.82 0.70 0.65 0.57 0.49 0.45 0.41 0.35 0.30 0.28 0.24 0.20 0.18 0.18 0.17 0.16 0.16 0.14 0.11 0.13 0.21 0.32 0.41 0.51 0.60 0.66 0.70 0.74 0.73 0.66 0.59 0.52 0.47 0.43 0.43 0.44 0.45 0.47 0.50 0.52 0.53 0.54
0.95 0.84 0.73 0.68 0.62 0.53 0.46 0.45 0.40 0.37 0.34 0.29 0.23 0.20 0.18 0.18 0.17 0.15 0.13 0.12 0.13 0.17 0.23 0.31 0.43 0.62 0.75 0.82 0.84 0.85 0.80 0.74 0.68 0.60 0.54 0.50 0.48 0.47 0.48 0.50 0.51 0.52 0.54
1.12 1.03 0.88 0.73 0.66 0.65 0.60 0.55 0.52 0.44 0.35 0.30 0.26 0.23 0.21 0.21 0.20 0.18 0.16 0.15 0.16 0.17 0.20 0.27 0.37 0.54 0.69 0.81 0.90 0.96 0.96 0.89 0.83 0.78 0.71 0.64 0.57 0.53 0.52 0.53 0.55 0.57 0.58
1.28 1.20 1.14 0.99 0.86 0.81 0.77 0.65 0.55 0.53 0.41 0.33 0.29 0.25 0.22 0.22 0.21 0.20 0.19 0.16 0.14 0.16 0.18 0.23 0.30 0.41 0.53 0.66 0.80 0.92 0.98 0.93 0.86 0.82 0.77 0.74 0.71 0.69 0.68 0.67 0.65 0.66 0.67
1.35 1.22 1.11 1.12 1.12 1.01 0.88 0.77 0.63 0.60 0.53 0.41 0.36 0.31 0.26 0.22 0.21 0.21 0.21 0.20 0.18 0.16 0.16 0.19 0.23 0.28 0.36 0.47 0.61 0.83 0.99 1.02 0.94 0.89 0.88 0.87 0.85 0.86 0.86 0.85 0.82 0.80 0.82
1.47 1.38 1.23 1.16 1.19 1.18 1.09 0.96 0.81 0.69 0.61 0.57 0.48 0.37 0.30 0.25 0.22 0.21 0.21 0.21 0.20 0.19 0.17 0.18 0.20 0.21 0.25 0.33 0.47 0.64 0.89 1.04 1.04 1.00 0.98 0.98 1.00 1.01 1.03 1.04 1.04 1.00 1.01
1.53 1.55 1.43 1.35 1.35 1.31 1.26 1.22 1.13 0.96 0.77 0.72 0.67 0.50 0.35 0.28 0.25 0.21 0.22 0.23 0.22 0.23 0.23 0.22 0.23 0.24 0.25 0.31 0.40 0.48 0.63 0.86 1.04 1.10 1.08 1.07 1.10 1.15 1.20 1.23 1.23 1.20 1.17
1.50 1.53 1.56 1.50 1.40 1.40 1.38 1.35 1.27 1.13 0.98 0.89 0.82 0.75 0.58 0.40 0.29 0.25 0.24 0.25 0.25 0.26 0.26 0.27 0.28 0.30 0.30 0.34 0.36 0.39 0.44 0.61 0.88 1.11 1.18 1.17 1.15 1.18 1.28 1.39 1.47 1.50 1.45
1.59 1.49 1.44 1.47 1.43 1.42 1.42 1.41 1.42 1.42 1.31 1.17 1.04 1.05 0.88 0.62 0.45 0.34 0.29 0.28 0.31 0.32 0.32 0.32 0.34 0.37 0.38 0.38 0.35 0.36 0.38 0.46 0.66 0.98 1.24 1.34 1.35 1.37 1.47 1.57 1.68 1.80 1.81
1.68 1.60 1.54 1.48 1.46 1.44 1.40 1.44 1.48 1.50 1.53 1.43 1.29 1.18 1.07 0.89 0.81 0.61 0.44 0.41 0.42 0.42 0.42 0.40 0.38 0.39 0.41 0.42 0.43 0.45 0.49 0.52 0.66 0.94 1.29 1.54 1.68 1.80 1.96 2.07 2.16 2.27 2.26
1.77 1.64 1.55 1.55 1.53 1.48 1.44 1.45 1.50 1.53 1.56 1.55 1.47 1.35 1.28 1.11 0.97 0.90 0.70 0.56 0.55 0.51 0.51 0.49 0.46 0.44 0.44 0.44 0.45 0.54 0.66 0.71 0.84 1.07 1.39 1.74 2.00 2.19 2.37 2.50 2.62 2.69 2.73
1.69 1.57 1.50 1.46 1.44 1.42 1.39 1.37 1.41 1.46 1.48 1.46 1.41 1.34 1.31 1.24 1.10 1.07 0.97 0.77 0.72 0.65 0.64 0.65 0.61 0.57 0.53 0.52 0.53 0.67 0.73 0.80 0.92 1.14 1.45 1.80 2.00 2.16 2.36 2.56 2.71 2.77 2.85
1.52 1.43 1.40 1.36 1.36 1.34 1.34 1.35 1.34 1.32 1.39 1.41 1.38 1.29 1.22 1.11 1.08 1.16 1.17 1.00 0.85 0.72 0.68 0.68 0.68 0.69 0.70 0.72 0.75 0.87 0.86 0.91 0.99 1.17 1.46 1.72 1.78 1.79 1.84 1.98 2.21 2.40 2.55
1.42 1.39 1.40 1.40 1.40 1.39 1.33 1.33 1.31 1.27 1.30 1.31 1.31 1.29 1.24 1.14 1.08 1.09 1.13 1.20 1.14 0.95 0.81 0.73 0.70 0.78 0.86 0.90 0.98 1.08 0.98 1.08 1.07 1.13 1.30 1.46 1.52 1.44 1.41 1.51 1.71 1.89 2.08
1.37 1.36 1.40 1.38 1.33 1.30 1.24 1.24 1.24 1.17 1.13 1.14 1.14 1.16 1.18 1.12 1.09 1.08 1.11 1.25 1.46 1.42 1.15 0.94 0.91 0.93 0.98 1.01 1.10 1.00 0.88 1.05 1.10 1.09 1.15 1.19 1.21 1.19 1.18 1.21 1.31 1.44 1.55
1.25 1.24 1.28 1.30 1.26 1.21 1.18 1.15 1.11 1.06 1.03 0.98 0.96 0.98 1.02 1.04 1.08 1.11 1.18 1.27 1.42 1.58 1.46 1.10 0.97 0.96 1.00 1.01 1.09 0.95 0.86 1.01 0.97 0.97 0.98 1.01 1.00 0.99 1.01 1.04 1.11 1.21 1.30
1.04 1.04 1.11 1.13 1.10 1.05 1.04 1.04 1.01 0.99 0.98 0.95 0.92 0.90 0.88 0.92 1.02 1.08 1.16 1.26 1.36 1.49 1.52 1.22 1.01 0.94 0.95 0.92 0.89 0.81 0.77 0.77 0.74 0.85 0.84 0.84 0.86 0.88 0.89 0.92 0.98 1.04 1.12
0.99 0.94 0.97 1.02 0.99 0.95 0.92 0.93 0.92 0.91 0.95 0.96 0.96 0.97 0.94 0.95 1.02 1.09 1.16 1.21 1.24 1.27 1.31 1.19 0.98 0.87 0.82 0.76 0.73 0.68 0.64 0.64 0.63 0.77 0.76 0.75 0.78 0.79 0.76 0.78 0.84 0.91 0.97
0.97 0.95 0.90 0.92 0.92 0.92 0.91 0.90 0.88 0.89 0.91 0.94 0.98 1.03 1.02 1.04 1.06 1.05 1.05 1.05 1.03 1.01 1.02 1.00 0.87 0.77 0.73 0.69 0.69 0.63 0.58 0.56 0.55 0.63 0.66 0.66 0.72 0.77 0.74 0.74 0.79 0.83 0.83
0.90 0.91 0.87 0.86 0.88 0.91 0.93 0.94 0.96 0.98 1.01 1.03 1.06 1.07 1.06 1.06 1.03 1.01 0.97 0.92 0.90 0.90 0.90 0.92 0.87 0.77 0.71 0.67 0.69 0.67 0.61 0.54 0.52 0.50 0.57 0.60 0.68 0.75 0.76 0.70 0.65 0.64 0.64
0.85 0.86 0.84 0.83 0.87 0.94 0.99 1.01 1.01 1.06 1.11 1.13 1.12 1.08 1.04 1.06 1.03 0.97 0.92 0.89 0.89 0.93 0.96 1.00 0.95 0.82 0.68 0.61 0.58 0.55 0.58 0.57 0.54 0.50 0.53 0.54 0.57 0.57 0.58 0.64 0.66 0.65 0.66
0.87 0.88 0.92 0.92 0.95 1.03 1.26 1.28 1.19 1.15 1.16 1.13 1.09 1.01 0.96 0.97 0.93 0.93 0.92 0.90 0.94 1.01 1.10 1.12 1.01 0.82 0.60 0.51 0.52 0.60 0.69 0.77 0.69 0.48 0.51 0.52 0.51 0.53 0.52 0.54 0.67 0.71 0.72
0.96 1.00 1.07 1.11 1.13 1.21 1.33 1.25 1.19 1.05 1.02 0.99 0.91 0.85 0.80 0.76 0.78 0.70 0.77 0.85 0.88 0.97 0.99 0.92 0.82 0.65 0.57 0.54 0.67 0.80 0.78 0.77 0.63 0.48 0.58 0.63 0.56 0.55 0.52 0.58 0.68 0.67 0.68
1.09 1.17 1.23 1.24 1.21 1.21 1.18 1.02 0.96 0.85 0.78 0.74 0.70 0.65 0.63 0.61 0.62 0.66 0.69 0.76 0.70 0.68 0.68 0.63 0.61 0.59 0.60 0.64 0.78 0.93 0.91 0.85 0.68 0.57 0.61 0.70 0.58 0.55 0.52 0.55 0.65 0.66 0.69
1.16 1.17 1.14 1.06 0.96 0.90 0.87 0.74 0.66 0.58 0.59 0.56 0.52 0.52 0.53 0.50 0.61 0.77 0.78 0.77 0.65 0.56 0.59 0.64 0.70 0.72 0.74 0.73 0.75 0.89 0.99 1.07 0.93 0.67 0.58 0.62 0.55 0.52 0.52 0.51 0.57 0.67 0.67
0.92 0.83 0.74 0.66 0.59 0.52 0.55 0.54 0.52 0.44 0.46 0.47 0.48 0.49 0.59 0.59 0.71 0.84 0.77 0.75 0.67 0.56 0.58 0.60 0.58 0.57 0.54 0.57 0.65 0.71 0.97 1.31 1.16 0.88 0.59 0.70 0.72 0.77 0.92 0.59 0.53 0.56 0.57

GEFSMA_prec_meanprecacc_234.txt.gz
Total_Precipitation_Accumulation
0.89 0.83 0.71 0.68 0.59 0.51 0.47 0.44 0.38 0.33 0.30 0.27 0.21 0.19 0.19 0.18 0.16 0.16 0.14 0.12 0.14 0.23 0.34 0.45 0.55 0.63 0.68 0.72 0.76 0.76 0.69 0.62 0.56 0.50 0.45 0.44 0.46 0.46 0.48 0.52 0.52 0.54 0.55
0.97 0.85 0.73 0.70 0.65 0.56 0.49 0.48 0.44 0.41 0.38 0.32 0.26 0.22 0.18 0.19 0.17 0.15 0.14 0.13 0.14 0.18 0.25 0.34 0.47 0.65 0.77 0.85 0.87 0.88 0.84 0.79 0.72 0.65 0.57 0.51 0.49 0.48 0.49 0.51 0.52 0.53 0.55
1.14 1.05 0.89 0.75 0.68 0.68 0.64 0.58 0.56 0.47 0.38 0.33 0.27 0.24 0.22 0.22 0.21 0.18 0.16 0.15 0.17 0.18 0.21 0.29 0.41 0.57 0.72 0.84 0.93 0.99 1.00 0.94 0.90 0.84 0.76 0.67 0.58 0.54 0.52 0.53 0.56 0.57 0.59
1.29 1.22 1.15 1.00 0.87 0.83 0.80 0.68 0.58 0.55 0.43 0.35 0.30 0.27 0.24 0.23 0.22 0.21 0.20 0.16 0.15 0.17 0.20 0.25 0.32 0.44 0.57 0.71 0.86 0.97 1.03 0.98 0.94 0.90 0.83 0.78 0.74 0.71 0.69 0.67 0.66 0.66 0.67
1.37 1.24 1.13 1.13 1.13 1.03 0.90 0.79 0.65 0.64 0.57 0.44 0.38 0.33 0.28 0.24 0.22 0.22 0.22 0.21 0.18 0.16 0.17 0.20 0.25 0.30 0.40 0.54 0.72 0.94 1.07 1.08 1.01 0.97 0.95 0.92 0.89 0.89 0.88 0.87 0.84 0.81 0.83
1.49 1.40 1.25 1.18 1.20 1.19 1.10 0.98 0.84 0.73 0.67 0.62 0.53 0.41 0.34 0.28 0.24 0.23 0.22 0.21 0.20 0.19 0.18 0.19 0.21 0.23 0.27 0.38 0.56 0.75 0.98 1.12 1.11 1.06 1.04 1.03 1.04 1.04 1.05 1.08 1.07 1.04 1.03
1.57 1.58 1.45 1.37 1.36 1.33 1.28 1.24 1.16 1.01 0.83 0.79 0.73 0.55 0.40 0.32 0.28 0.24 0.24 0.25 0.23 0.24 0.24 0.24 0.25 0.26 0.29 0.35 0.44 0.53 0.68 0.91 1.09 1.15 1.13 1.12 1.14 1.18 1.24 1.27 1.26 1.22 1.20
1.55 1.58 1.60 1.52 1.42 1.41 1.40 1.36 1.28 1.16 1.03 0.95 0.88 0.82 0.63 0.45 0.33 0.28 0.27 0.27 0.27 0.28 0.28 0.30 0.32 0.33 0.34 0.39 0.40 0.41 0.46 0.64 0.92 1.15 1.22 1.20 1.19 1.21 1.31 1.42 1.50 1.53 1.47
1.65 1.55 1.49 1.51 1.47 1.46 1.44 1.42 1.43 1.44 1.33 1.20 1.08 1.11 0.94 0.68 0.49 0.37 0.31 0.31 0.33 0.35 0.34 0.35 0.37 0.40 0.41 0.40 0.38 0.38 0.40 0.48 0.69 1.02 1.28 1.39 1.39 1.41 1.50 1.60 1.71 1.84 1.85
1.71 1.65 1.59 1.52 1.50 1.48 1.44 1.47 1.50 1.51 1.55 1.44 1.31 1.21 1.11 0.92 0.84 0.64 0.47 0.43 0.45 0.46 0.46 0.44 0.42 0.43 0.45 0.45 0.46 0.47 0.50 0.53 0.68 0.96 1.33 1.58 1.71 1.83 1.99 2.10 2.19 2.29 2.30
1.79 1.67 1.60 1.58 1.55 1.51 1.48 1.48 1.53 1.54 1.57 1.57 1.49 1.38 1.31 1.14 0.98 0.91 0.72 0.58 0.56 0.53 0.53 0.52 0.49 0.47 0.47 0.47 0.48 0.57 0.68 0.72 0.85 1.08 1.41 1.78 2.03 2.22 2.40 2.54 2.65 2.72 2.76
1.71 1.58 1.53 1.50 1.47 1.43 1.41 1.38 1.43 1.48 1.50 1.48 1.44 1.36 1.34 1.27 1.12 1.09 0.99 0.79 0.74 0.67 0.66 0.66 0.63 0.58 0.55 0.53 0.54 0.68 0.74 0.80 0.93 1.15 1.47 1.82 2.04 2.20 2.40 2.60 2.74 2.81 2.89
1.53 1.45 1.41 1.39 1.41 1.38 1.36 1.36 1.36 1.34 1.40 1.43 1.40 1.33 1.25 1.15 1.11 1.19 1.20 1.03 0.88 0.74 0.70 0.69 0.69 0.71 0.72 0.73 0.76 0.88 0.86 0.92 0.99 1.18 1.47 1.74 1.81 1.82 1.88 2.02 2.26 2.44 2.59
1.43 1.40 1.41 1.42 1.43 1.44 1.37 1.36 1.33 1.29 1.31 1.33 1.33 1.31 1.27 1.17 1.12 1.13 1.17 1.24 1.17 0.97 0.83 0.74 0.71 0.79 0.87 0.91 0.99 1.08 0.98 1.09 1.08 1.14 1.30 1.47 1.53 1.46 1.44 1.55 1.75 1.94 2.12
1.38 1.37 1.41 1.39 1.35 1.33 1.28 1.28 1.27 1.21 1.15 1.16 1.17 1.19 1.20 1.13 1.11 1.12 1.15 1.29 1.50 1.45 1.17 0.95 0.92 0.94 0.99 1.02 1.10 1.01 0.88 1.05 1.11 1.10 1.15 1.20 1.22 1.20 1.19 1.23 1.34 1.47 1.58
1.26 1.24 1.29 1.31 1.27 1.23 1.20 1.18 1.14 1.09 1.06 1.00 0.98 1.02 1.05 1.06 1.09 1.13 1.21 1.30 1.45 1.61 1.48 1.11 0.98 0.97 1.01 1.02 1.09 0.96 0.87 1.02 0.98 0.97 0.99 1.02 1.01 1.00 1.02 1.05 1.12 1.23 1.33
1.04 1.04 1.11 1.14 1.10 1.06 1.05 1.06 1.02 1.01 1.01 0.98 0.95 0.93 0.92 0.95 1.04 1.10 1.19 1.28 1.39 1.52 1.54 1.24 1.02 0.95 0.96 0.93 0.90 0.81 0.78 0.77 0.75 0.86 0.85 0.84 0.87 0.89 0.90 0.93 0.99 1.05 1.13
0.99 0.94 0.97 1.02 1.00 0.95 0.93 0.94 0.93 0.92 0.97 0.98 0.99 1.00 0.98 0.99 1.05 1.12 1.20 1.25 1.27 1.30 1.34 1.22 1.00 0.89 0.83 0.77 0.74 0.69 0.66 0.65 0.64 0.78 0.77 0.75 0.79 0.80 0.77 0.79 0.85 0.92 0.98
0.97 0.96 0.90 0.92 0.92 0.93 0.92 0.91 0.90 0.90 0.92 0.96 1.01 1.05 1.05 1.08 1.11 1.09 1.08 1.09 1.07 1.05 1.05 1.03 0.90 0.79 0.75 0.72 0.72 0.66 0.60 0.58 0.56 0.64 0.67 0.67 0.73 0.78 0.75 0.75 0.80 0.84 0.84
0.90 0.91 0.88 0.86 0.88 0.91 0.94 0.94 0.97 1.00 1.03 1.05 1.08 1.10 1.10 1.10 1.07 1.04 1.01 0.96 0.93 0.93 0.93 0.95 0.90 0.80 0.74 0.70 0.72 0.69 0.63 0.56 0.53 0.51 0.59 0.61 0.69 0.77 0.77 0.71 0.66 0.64 0.64
0.86 0.87 0.85 0.83 0.88 0.94 1.00 1.02 1.02 1.07 1.13 1.16 1.15 1.11 1.07 1.09 1.06 1.00 0.95 0.92 0.93 0.96 0.99 1.03 0.98 0.84 0.71 0.64 0.61 0.58 0.60 0.59 0.55 0.51 0.54 0.56 0.59 0.58 0.60 0.65 0.67 0.65 0.66
0.88 0.89 0.93 0.93 0.96 1.03 1.27 1.29 1.20 1.16 1.17 1.15 1.11 1.04 0.98 0.99 0.96 0.96 0.95 0.93 0.97 1.05 1.13 1.15 1.04 0.85 0.62 0.54 0.54 0.63 0.72 0.80 0.71 0.50 0.53 0.53 0.52 0.55 0.53 0.56 0.68 0.73 0.73
0.98 1.02 1.08 1.12 1.14 1.21 1.34 1.25 1.20 1.06 1.03 1.00 0.93 0.87 0.82 0.78 0.80 0.72 0.79 0.87 0.90 0.99 1.01 0.94 0.84 0.67 0.58 0.56 0.70 0.84 0.81 0.79 0.65 0.49 0.60 0.65 0.58 0.57 0.54 0.59 0.71 0.69 0.70
1.11 1.18 1.24 1.25 1.22 1.22 1.19 1.03 0.97 0.85 0.79 0.75 0.71 0.66 0.64 0.62 0.63 0.67 0.70 0.77 0.71 0.69 0.69 0.64 0.62 0.60 0.61 0.66 0.80 0.95 0.94 0.87 0.70 0.59 0.63 0.72 0.61 0.57 0.54 0.57 0.68 0.68 0.72
1.18 1.19 1.15 1.08 0.97 0.91 0.88 0.75 0.67 0.59 0.60 0.57 0.53 0.53 0.54 0.51 0.62 0.77 0.79 0.78 0.66 0.57 0.60 0.65 0.71 0.73 0.76 0.75 0.77 0.91 1.02 1.10 0.96 0.69 0.60 0.64 0.57 0.54 0.54 0.54 0.59 0.69 0.69
0.94 0.85 0.76 0.67 0.60 0.53 0.55 0.54 0.52 0.45 0.47 0.48 0.49 0.51 0.60 0.60 0.72 0.84 0.78 0.77 0.69 0.57 0.59 0.61 0.60 0.58 0.56 0.59 0.68 0.73 0.99 1.33 1.19 0.90 0.61 0.72 0.75 0.80 0.95 0.62 0.56 0.59 0.61

GEFSMA_prec_meanprecacc_240.txt.gz
Total_Precipitation_Accumulation
0.90 0.84 0.73 0.70 0.61 0.53 0.49 0.46 0.41 0.38 0.34 0.30 0.23 0.21 0.21 0.19 0.17 0.17 0.16 0.13 0.16 0.25 0.37 0.47 0.57 0.65 0.70 0.74 0.78 0.78 0.70 0.64 0.58 0.52 0.46 0.45 0.47 0.47 0.49 0.53 0.53 0.55 0.56
0.99 0.88 0.75 0.72 0.67 0.57 0.50 0.49 0.46 0.44 0.41 0.35 0.28 0.23 0.20 0.20 0.18 0.16 0.14 0.14 0.16 0.20 0.27 0.37 0.50 0.68 0.80 0.87 0.88 0.90 0.86 0.81 0.75 0.68 0.59 0.53 0.50 0.49 0.50 0.52 0.53 0.54 0.56
1.16 1.07 0.90 0.76 0.69 0.70 0.66 0.60 0.57 0.49 0.40 0.35 0.30 0.27 0.24 0.23 0.22 0.19 0.17 0.16 0.17 0.18 0.22 0.30 0.43 0.60 0.75 0.89 0.96 1.01 1.01 0.95 0.91 0.86 0.78 0.69 0.59 0.55 0.53 0.55 0.57 0.58 0.60
1.31 1.24 1.17 1.01 0.88 0.85 0.83 0.70 0.60 0.57 0.45 0.36 0.31 0.28 0.25 0.24 0.23 0.22 0.21 0.17 0.16 0.17 0.20 0.26 0.34 0.46 0.60 0.75 0.91 1.00 1.05 1.00 0.96 0.92 0.85 0.80 0.75 0.72 0.70 0.69 0.67 0.68 0.68
1.38 1.25 1.15 1.15 1.14 1.04 0.92 0.82 0.67 0.66 0.59 0.46 0.40 0.34 0.29 0.25 0.23 0.23 0.23 0.22 0.19 0.17 0.18 0.21 0.26 0.32 0.42 0.57 0.76 0.98 1.11 1.13 1.08 1.03 0.98 0.95 0.92 0.92 0.91 0.89 0.86 0.83 0.85
1.52 1.42 1.27 1.21 1.23 1.21 1.12 1.00 0.87 0.76 0.69 0.64 0.55 0.43 0.35 0.29 0.25 0.24 0.23 0.22 0.21 0.20 0.19 0.20 0.22 0.24 0.29 0.40 0.60 0.82 1.07 1.20 1.19 1.15 1.10 1.09 1.09 1.08 1.09 1.10 1.09 1.06 1.06
1.60 1.61 1.47 1.40 1.40 1.36 1.30 1.26 1.19 1.04 0.86 0.81 0.76 0.57 0.41 0.33 0.29 0.25 0.25 0.26 0.24 0.24 0.25 0.24 0.26 0.27 0.30 0.37 0.46 0.57 0.75 1.00 1.16 1.22 1.20 1.18 1.19 1.22 1.28 1.31 1.29 1.24 1.22
1.57 1.60 1.63 1.56 1.45 1.44 1.42 1.38 1.30 1.18 1.06 0.99 0.91 0.84 0.65 0.47 0.35 0.30 0.28 0.28 0.28 0.28 0.29 0.30 0.32 0.34 0.35 0.40 0.42 0.44 0.49 0.68 0.95 1.18 1.26 1.24 1.22 1.25 1.35 1.46 1.54 1.56 1.50
1.67 1.57 1.53 1.56 1.53 1.50 1.47 1.44 1.45 1.45 1.34 1.21 1.10 1.13 0.95 0.68 0.50 0.39 0.33 0.32 0.35 0.36 0.35 0.36 0.38 0.42 0.43 0.42 0.40 0.41 0.42 0.50 0.70 1.03 1.31 1.41 1.41 1.44 1.53 1.64 1.76 1.88 1.89
1.73 1.67 1.62 1.58 1.56 1.53 1.48 1.50 1.52 1.53 1.56 1.45 1.32 1.22 1.11 0.92 0.85 0.65 0.48 0.45 0.47 0.48 0.48 0.46 0.44 0.46 0.48 0.48 0.49 0.50 0.52 0.55 0.70 0.98 1.34 1.60 1.74 1.86 2.02 2.15 2.25 2.36 2.36
1.81 1.69 1.63 1.63 1.60 1.55 1.52 1.53 1.56 1.56 1.58 1.58 1.49 1.38 1.31 1.14 0.98 0.92 0.72 0.59 0.58 0.54 0.55 0.53 0.51 0.49 0.49 0.50 0.50 0.58 0.70 0.74 0.87 1.10 1.44 1.79 2.05 2.24 2.43 2.58 2.71 2.80 2.84
1.73 1.60 1.55 1.54 1.52 1.48 1.45 1.42 1.46 1.50 1.51 1.48 1.45 1.37 1.35 1.27 1.12 1.09 0.99 0.79 0.74 0.68 0.67 0.68 0.64 0.60 0.57 0.55 0.56 0.70 0.76 0.82 0.95 1.17 1.48 1.84 2.05 2.22 2.42 2.63 2.79 2.87 2.97
1.55 1.46 1.43 1.41 1.44 1.41 1.41 1.41 1.39 1.36 1.42 1.44 1.41 1.33 1.25 1.15 1.11 1.19 1.20 1.03 0.89 0.75 0.72 0.71 0.71 0.73 0.73 0.75 0.77 0.89 0.87 0.92 1.00 1.19 1.48 1.76 1.82 1.83 1.89 2.05 2.29 2.48 2.64
1.45 1.41 1.43 1.43 1.45 1.46 1.39 1.39 1.37 1.32 1.33 1.34 1.33 1.32 1.27 1.17 1.13 1.14 1.19 1.25 1.19 0.99 0.84 0.75 0.72 0.81 0.89 0.93 1.00 1.10 0.99 1.09 1.08 1.14 1.31 1.48 1.54 1.47 1.44 1.56 1.77 1.96 2.15
1.40 1.39 1.43 1.41 1.36 1.35 1.30 1.31 1.31 1.24 1.17 1.17 1.17 1.20 1.21 1.14 1.12 1.13 1.17 1.31 1.52 1.47 1.19 0.96 0.93 0.96 1.01 1.04 1.12 1.02 0.89 1.06 1.11 1.10 1.16 1.20 1.23 1.21 1.20 1.24 1.35 1.49 1.60
1.27 1.26 1.30 1.33 1.29 1.24 1.22 1.20 1.17 1.13 1.10 1.02 0.99 1.03 1.06 1.07 1.10 1.14 1.22 1.31 1.47 1.63 1.51 1.13 1.00 0.99 1.04 1.04 1.12 0.97 0.88 1.03 0.99 0.98 1.00 1.02 1.02 1.01 1.02 1.06 1.13 1.23 1.34
1.05 1.04 1.12 1.15 1.12 1.08 1.07 1.07 1.04 1.03 1.03 1.01 0.97 0.95 0.93 0.95 1.05 1.10 1.20 1.30 1.40 1.54 1.56 1.26 1.03 0.97 0.98 0.95 0.92 0.83 0.79 0.79 0.76 0.87 0.85 0.85 0.87 0.89 0.90 0.94 0.99 1.06 1.14
1.00 0.95 0.98 1.03 1.01 0.97 0.94 0.95 0.94 0.94 0.98 1.00 1.00 1.01 0.99 1.00 1.06 1.12 1.20 1.25 1.28 1.31 1.35 1.23 1.01 0.90 0.85 0.79 0.75 0.71 0.68 0.67 0.65 0.78 0.77 0.76 0.79 0.80 0.77 0.79 0.86 0.93 0.99
0.98 0.96 0.91 0.92 0.93 0.93 0.93 0.92 0.91 0.91 0.93 0.97 1.02 1.06 1.06 1.09 1.12 1.10 1.09 1.10 1.08 1.06 1.05 1.04 0.91 0.80 0.76 0.73 0.73 0.67 0.61 0.59 0.57 0.65 0.68 0.68 0.73 0.78 0.75 0.76 0.81 0.85 0.85
0.92 0.92 0.89 0.86 0.88 0.91 0.94 0.95 0.98 1.01 1.04 1.06 1.09 1.11 1.11 1.10 1.07 1.05 1.01 0.97 0.94 0.95 0.94 0.96 0.91 0.81 0.75 0.71 0.73 0.70 0.64 0.57 0.54 0.52 0.59 0.62 0.69 0.77 0.78 0.72 0.66 0.65 0.65
0.88 0.88 0.86 0.85 0.88 0.95 1.00 1.02 1.03 1.07 1.14 1.17 1.15 1.12 1.08 1.11 1.08 1.02 0.96 0.93 0.94 0.98 1.01 1.04 0.99 0.86 0.72 0.65 0.62 0.59 0.61 0.60 0.56 0.52 0.55 0.57 0.59 0.59 0.60 0.65 0.68 0.66 0.68
0.90 0.91 0.95 0.95 0.97 1.04 1.28 1.30 1.21 1.17 1.18 1.16 1.12 1.05 1.00 1.01 0.98 0.99 0.97 0.95 0.99 1.07 1.15 1.17 1.06 0.86 0.63 0.55 0.56 0.64 0.73 0.81 0.72 0.50 0.53 0.54 0.53 0.56 0.54 0.56 0.70 0.74 0.75
1.00 1.04 1.10 1.14 1.15 1.23 1.35 1.26 1.21 1.06 1.04 1.01 0.94 0.88 0.83 0.80 0.81 0.73 0.81 0.89 0.92 1.01 1.03 0.96 0.86 0.68 0.60 0.57 0.72 0.85 0.82 0.80 0.66 0.50 0.61 0.66 0.59 0.58 0.55 0.60 0.72 0.70 0.71
1.13 1.20 1.26 1.27 1.24 1.24 1.20 1.04 0.98 0.86 0.80 0.76 0.72 0.67 0.64 0.63 0.64 0.68 0.71 0.78 0.73 0.71 0.70 0.65 0.63 0.61 0.62 0.67 0.81 0.97 0.95 0.89 0.71 0.60 0.63 0.73 0.62 0.58 0.54 0.58 0.69 0.69 0.73
1.19 1.20 1.17 1.10 0.99 0.93 0.90 0.77 0.68 0.60 0.60 0.57 0.54 0.54 0.54 0.51 0.64 0.79 0.80 0.79 0.67 0.58 0.61 0.66 0.72 0.75 0.78 0.76 0.78 0.92 1.04 1.12 0.97 0.70 0.61 0.65 0.58 0.55 0.55 0.55 0.61 0.71 0.71
0.96 0.87 0.77 0.70 0.62 0.55 0.58 0.57 0.54 0.46 0.48 0.49 0.49 0.51 0.61 0.61 0.73 0.86 0.79 0.78 0.70 0.59 0.60 0.62 0.61 0.59 0.57 0.59 0.69 0.74 1.00 1.34 1.20 0.92 0.62 0.73 0.76 0.81 0.97 0.64 0.57 0.61 0.62